<?xml version="1.0" encoding="UTF-8"?>
<gpx
 version="1.0"
creator="GPSBabel - http://www.gpsbabel.org"
xmlns:xsi="http://www.w3.org/2001/XMLSchema-instance"
xmlns="http://www.topografix.com/GPX/1/0"
xsi:schemaLocation="http://www.topografix.com/GPX/1/0 http://www.topografix.com/GPX/1/0/gpx.xsd">
<time>2008-06-15T17:41:15Z</time>
<bounds minlat="48.597085000" minlon="9.102338300" maxlat="48.612958200" maxlon="9.219968300"/>
<trk>
<trkseg>
<trkpt lat="48.602004900" lon="9.102511600">
  <ele>434.000000</ele>
<time>2008-06-15T10:58:37Z</time>
  <name>TP0001</name>
</trkpt>
<trkpt lat="48.601909900" lon="9.102526600">
  <ele>434.000000</ele>
<time>2008-06-15T10:58:40Z</time>
  <name>TP0002</name>
</trkpt>
<trkpt lat="48.601313200" lon="9.102676600">
  <ele>434.000000</ele>
<time>2008-06-15T10:59:02Z</time>
  <name>TP0003</name>
</trkpt>
<trkpt lat="48.601234900" lon="9.102708300">
  <ele>433.000000</ele>
<time>2008-06-15T10:59:05Z</time>
  <name>TP0004</name>
</trkpt>
<trkpt lat="48.601168300" lon="9.102708300">
  <ele>433.000000</ele>
<time>2008-06-15T10:59:07Z</time>
  <name>TP0005</name>
</trkpt>
<trkpt lat="48.601143300" lon="9.102713300">
  <ele>434.000000</ele>
<time>2008-06-15T10:59:08Z</time>
  <name>TP0006</name>
</trkpt>
<trkpt lat="48.601118200" lon="9.102725000">
  <ele>434.000000</ele>
<time>2008-06-15T10:59:09Z</time>
  <name>TP0007</name>
</trkpt>
<trkpt lat="48.601061600" lon="9.102750000">
  <ele>433.000000</ele>
<time>2008-06-15T10:59:11Z</time>
  <name>TP0008</name>
</trkpt>
<trkpt lat="48.601031600" lon="9.102750000">
  <ele>433.000000</ele>
<time>2008-06-15T10:59:12Z</time>
  <name>TP0009</name>
</trkpt>
<trkpt lat="48.601008300" lon="9.102748300">
  <ele>433.000000</ele>
<time>2008-06-15T10:59:13Z</time>
  <name>TP0010</name>
</trkpt>
<trkpt lat="48.600991600" lon="9.102744900">
  <ele>433.000000</ele>
<time>2008-06-15T10:59:14Z</time>
  <name>TP0011</name>
</trkpt>
<trkpt lat="48.600974900" lon="9.102736600">
  <ele>434.000000</ele>
<time>2008-06-15T10:59:15Z</time>
  <name>TP0012</name>
</trkpt>
<trkpt lat="48.600874900" lon="9.102691600">
  <ele>434.000000</ele>
<time>2008-06-15T10:59:20Z</time>
  <name>TP0013</name>
</trkpt>
<trkpt lat="48.600778300" lon="9.102655000">
  <ele>434.000000</ele>
<time>2008-06-15T10:59:24Z</time>
  <name>TP0014</name>
</trkpt>
<trkpt lat="48.600706600" lon="9.102620000">
  <ele>433.000000</ele>
<time>2008-06-15T10:59:27Z</time>
  <name>TP0015</name>
</trkpt>
<trkpt lat="48.600636600" lon="9.102583300">
  <ele>434.000000</ele>
<time>2008-06-15T10:59:30Z</time>
  <name>TP0016</name>
</trkpt>
<trkpt lat="48.600588300" lon="9.102548300">
  <ele>434.000000</ele>
<time>2008-06-15T10:59:32Z</time>
  <name>TP0017</name>
</trkpt>
<trkpt lat="48.600539900" lon="9.102523300">
  <ele>434.000000</ele>
<time>2008-06-15T10:59:34Z</time>
  <name>TP0018</name>
</trkpt>
<trkpt lat="48.600379900" lon="9.102448300">
  <ele>434.000000</ele>
<time>2008-06-15T10:59:40Z</time>
  <name>TP0019</name>
</trkpt>
<trkpt lat="48.600328300" lon="9.102419900">
  <ele>434.000000</ele>
<time>2008-06-15T10:59:42Z</time>
  <name>TP0020</name>
</trkpt>
<trkpt lat="48.600114900" lon="9.102338300">
  <ele>435.000000</ele>
<time>2008-06-15T10:59:50Z</time>
  <name>TP0021</name>
</trkpt>
<trkpt lat="48.600088300" lon="9.102338300">
  <ele>435.000000</ele>
<time>2008-06-15T10:59:51Z</time>
  <name>TP0022</name>
</trkpt>
<trkpt lat="48.600063300" lon="9.102348300">
  <ele>435.000000</ele>
<time>2008-06-15T10:59:52Z</time>
  <name>TP0023</name>
</trkpt>
<trkpt lat="48.600041600" lon="9.102370000">
  <ele>435.000000</ele>
<time>2008-06-15T10:59:53Z</time>
  <name>TP0024</name>
</trkpt>
<trkpt lat="48.600026600" lon="9.102405000">
  <ele>435.000000</ele>
<time>2008-06-15T10:59:54Z</time>
  <name>TP0025</name>
</trkpt>
<trkpt lat="48.600016600" lon="9.102443300">
  <ele>435.000000</ele>
<time>2008-06-15T10:59:55Z</time>
  <name>TP0026</name>
</trkpt>
<trkpt lat="48.600013300" lon="9.102488300">
  <ele>435.000000</ele>
<time>2008-06-15T10:59:56Z</time>
  <name>TP0027</name>
</trkpt>
<trkpt lat="48.600004900" lon="9.102821600">
  <ele>435.000000</ele>
<time>2008-06-15T11:00:03Z</time>
  <name>TP0028</name>
</trkpt>
<trkpt lat="48.599919900" lon="9.103200000">
  <ele>435.000000</ele>
<time>2008-06-15T11:00:11Z</time>
  <name>TP0029</name>
</trkpt>
<trkpt lat="48.599903300" lon="9.103248300">
  <ele>435.000000</ele>
<time>2008-06-15T11:00:12Z</time>
  <name>TP0030</name>
</trkpt>
<trkpt lat="48.599753300" lon="9.104111600">
  <ele>435.000000</ele>
<time>2008-06-15T11:00:26Z</time>
  <name>TP0031</name>
</trkpt>
<trkpt lat="48.599724900" lon="9.104163300">
  <ele>435.000000</ele>
<time>2008-06-15T11:00:27Z</time>
  <name>TP0032</name>
</trkpt>
<trkpt lat="48.599524900" lon="9.104491600">
  <ele>435.000000</ele>
<time>2008-06-15T11:00:34Z</time>
  <name>TP0033</name>
</trkpt>
<trkpt lat="48.599383300" lon="9.104711600">
  <ele>435.000000</ele>
<time>2008-06-15T11:00:39Z</time>
  <name>TP0034</name>
</trkpt>
<trkpt lat="48.599359900" lon="9.104759900">
  <ele>435.000000</ele>
<time>2008-06-15T11:00:40Z</time>
  <name>TP0035</name>
</trkpt>
<trkpt lat="48.599321600" lon="9.104859900">
  <ele>435.000000</ele>
<time>2008-06-15T11:00:42Z</time>
  <name>TP0036</name>
</trkpt>
<trkpt lat="48.599293300" lon="9.105008300">
  <ele>434.000000</ele>
<time>2008-06-15T11:00:45Z</time>
  <name>TP0037</name>
</trkpt>
<trkpt lat="48.599279900" lon="9.105018300">
  <ele>434.000000</ele>
<time>2008-06-15T11:00:46Z</time>
  <name>TP0038</name>
</trkpt>
<trkpt lat="48.599261600" lon="9.105133300">
  <ele>434.000000</ele>
<time>2008-06-15T11:00:49Z</time>
  <name>TP0039</name>
</trkpt>
<trkpt lat="48.599259900" lon="9.105139900">
  <ele>435.000000</ele>
<time>2008-06-15T11:00:50Z</time>
  <name>TP0040</name>
</trkpt>
<trkpt lat="48.599229900" lon="9.105144900">
  <ele>435.000000</ele>
<time>2008-06-15T11:00:52Z</time>
  <name>TP0041</name>
</trkpt>
<trkpt lat="48.599218300" lon="9.105174900">
  <ele>435.000000</ele>
<time>2008-06-15T11:00:53Z</time>
  <name>TP0042</name>
</trkpt>
<trkpt lat="48.599228300" lon="9.105199900">
  <ele>436.000000</ele>
<time>2008-06-15T11:00:54Z</time>
  <name>TP0043</name>
</trkpt>
<trkpt lat="48.599234900" lon="9.105228300">
  <ele>436.000000</ele>
<time>2008-06-15T11:00:55Z</time>
  <name>TP0044</name>
</trkpt>
<trkpt lat="48.599243300" lon="9.105311600">
  <ele>437.000000</ele>
<time>2008-06-15T11:00:58Z</time>
  <name>TP0045</name>
</trkpt>
<trkpt lat="48.599251600" lon="9.105323300">
  <ele>437.000000</ele>
<time>2008-06-15T11:00:59Z</time>
  <name>TP0046</name>
</trkpt>
<trkpt lat="48.599255000" lon="9.105365000">
  <ele>437.000000</ele>
<time>2008-06-15T11:01:00Z</time>
  <name>TP0047</name>
</trkpt>
<trkpt lat="48.599266600" lon="9.105458300">
  <ele>437.000000</ele>
<time>2008-06-15T11:01:01Z</time>
  <name>TP0048</name>
</trkpt>
<trkpt lat="48.599264900" lon="9.105514900">
  <ele>438.000000</ele>
<time>2008-06-15T11:01:02Z</time>
  <name>TP0049</name>
</trkpt>
<trkpt lat="48.599246600" lon="9.105538300">
  <ele>438.000000</ele>
<time>2008-06-15T11:01:03Z</time>
  <name>TP0050</name>
</trkpt>
<trkpt lat="48.599246600" lon="9.105578300">
  <ele>438.000000</ele>
<time>2008-06-15T11:01:04Z</time>
  <name>TP0051</name>
</trkpt>
<trkpt lat="48.599256600" lon="9.105638300">
  <ele>441.000000</ele>
<time>2008-06-15T11:01:07Z</time>
  <name>TP0052</name>
</trkpt>
<trkpt lat="48.599264900" lon="9.105696600">
  <ele>441.000000</ele>
<time>2008-06-15T11:01:08Z</time>
  <name>TP0053</name>
</trkpt>
<trkpt lat="48.599259900" lon="9.105726600">
  <ele>442.000000</ele>
<time>2008-06-15T11:01:09Z</time>
  <name>TP0054</name>
</trkpt>
<trkpt lat="48.599273300" lon="9.105801600">
  <ele>443.000000</ele>
<time>2008-06-15T11:01:10Z</time>
  <name>TP0055</name>
</trkpt>
<trkpt lat="48.599256600" lon="9.105863300">
  <ele>444.000000</ele>
<time>2008-06-15T11:01:12Z</time>
  <name>TP0056</name>
</trkpt>
<trkpt lat="48.599234900" lon="9.105885000">
  <ele>445.000000</ele>
<time>2008-06-15T11:01:13Z</time>
  <name>TP0057</name>
</trkpt>
<trkpt lat="48.599240000" lon="9.105931600">
  <ele>445.000000</ele>
<time>2008-06-15T11:01:14Z</time>
  <name>TP0058</name>
</trkpt>
<trkpt lat="48.599223300" lon="9.105946600">
  <ele>445.000000</ele>
<time>2008-06-15T11:01:15Z</time>
  <name>TP0059</name>
</trkpt>
<trkpt lat="48.599219900" lon="9.105999900">
  <ele>445.000000</ele>
<time>2008-06-15T11:01:16Z</time>
  <name>TP0060</name>
</trkpt>
<trkpt lat="48.599204900" lon="9.106036600">
  <ele>445.000000</ele>
<time>2008-06-15T11:01:17Z</time>
  <name>TP0061</name>
</trkpt>
<trkpt lat="48.599216600" lon="9.106085000">
  <ele>445.000000</ele>
<time>2008-06-15T11:01:18Z</time>
  <name>TP0062</name>
</trkpt>
<trkpt lat="48.599215000" lon="9.106144900">
  <ele>445.000000</ele>
<time>2008-06-15T11:01:19Z</time>
  <name>TP0063</name>
</trkpt>
<trkpt lat="48.599218300" lon="9.106251600">
  <ele>446.000000</ele>
<time>2008-06-15T11:01:21Z</time>
  <name>TP0064</name>
</trkpt>
<trkpt lat="48.599218300" lon="9.106309900">
  <ele>447.000000</ele>
<time>2008-06-15T11:01:22Z</time>
  <name>TP0065</name>
</trkpt>
<trkpt lat="48.599211600" lon="9.106353300">
  <ele>447.000000</ele>
<time>2008-06-15T11:01:23Z</time>
  <name>TP0066</name>
</trkpt>
<trkpt lat="48.599204900" lon="9.106396600">
  <ele>447.000000</ele>
<time>2008-06-15T11:01:24Z</time>
  <name>TP0067</name>
</trkpt>
<trkpt lat="48.599206600" lon="9.106536600">
  <ele>447.000000</ele>
<time>2008-06-15T11:01:26Z</time>
  <name>TP0068</name>
</trkpt>
<trkpt lat="48.599181600" lon="9.106831600">
  <ele>445.000000</ele>
<time>2008-06-15T11:01:33Z</time>
  <name>TP0069</name>
</trkpt>
<trkpt lat="48.599158300" lon="9.107008300">
  <ele>445.000000</ele>
<time>2008-06-15T11:01:37Z</time>
  <name>TP0070</name>
</trkpt>
<trkpt lat="48.599138300" lon="9.107168300">
  <ele>446.000000</ele>
<time>2008-06-15T11:01:41Z</time>
  <name>TP0071</name>
</trkpt>
<trkpt lat="48.599118300" lon="9.107246600">
  <ele>447.000000</ele>
<time>2008-06-15T11:01:43Z</time>
  <name>TP0072</name>
</trkpt>
<trkpt lat="48.599116600" lon="9.107286600">
  <ele>446.000000</ele>
<time>2008-06-15T11:01:44Z</time>
  <name>TP0073</name>
</trkpt>
<trkpt lat="48.599111600" lon="9.107316600">
  <ele>446.000000</ele>
<time>2008-06-15T11:01:45Z</time>
  <name>TP0074</name>
</trkpt>
<trkpt lat="48.599124900" lon="9.107426600">
  <ele>447.000000</ele>
<time>2008-06-15T11:01:46Z</time>
  <name>TP0075</name>
</trkpt>
<trkpt lat="48.599101600" lon="9.107491600">
  <ele>448.000000</ele>
<time>2008-06-15T11:01:47Z</time>
  <name>TP0076</name>
</trkpt>
<trkpt lat="48.599089900" lon="9.107533300">
  <ele>450.000000</ele>
<time>2008-06-15T11:01:48Z</time>
  <name>TP0077</name>
</trkpt>
<trkpt lat="48.599118300" lon="9.107593300">
  <ele>450.000000</ele>
<time>2008-06-15T11:01:49Z</time>
  <name>TP0078</name>
</trkpt>
<trkpt lat="48.599106600" lon="9.107641600">
  <ele>450.000000</ele>
<time>2008-06-15T11:01:50Z</time>
  <name>TP0079</name>
</trkpt>
<trkpt lat="48.599094900" lon="9.107674900">
  <ele>449.000000</ele>
<time>2008-06-15T11:01:51Z</time>
  <name>TP0080</name>
</trkpt>
<trkpt lat="48.599081600" lon="9.107673300">
  <ele>449.000000</ele>
<time>2008-06-15T11:01:52Z</time>
  <name>TP0081</name>
</trkpt>
<trkpt lat="48.599066600" lon="9.107683300">
  <ele>449.000000</ele>
<time>2008-06-15T11:01:53Z</time>
  <name>TP0082</name>
</trkpt>
<trkpt lat="48.599061600" lon="9.107701600">
  <ele>449.000000</ele>
<time>2008-06-15T11:01:54Z</time>
  <name>TP0083</name>
</trkpt>
<trkpt lat="48.599049900" lon="9.107698300">
  <ele>449.000000</ele>
<time>2008-06-15T11:01:55Z</time>
  <name>TP0084</name>
</trkpt>
<trkpt lat="48.599045000" lon="9.107753300">
  <ele>450.000000</ele>
<time>2008-06-15T11:01:57Z</time>
  <name>TP0085</name>
</trkpt>
<trkpt lat="48.599053300" lon="9.107819900">
  <ele>451.000000</ele>
<time>2008-06-15T11:01:58Z</time>
  <name>TP0086</name>
</trkpt>
<trkpt lat="48.599046600" lon="9.107840000">
  <ele>451.000000</ele>
<time>2008-06-15T11:01:59Z</time>
  <name>TP0087</name>
</trkpt>
<trkpt lat="48.599038300" lon="9.107868300">
  <ele>451.000000</ele>
<time>2008-06-15T11:02:00Z</time>
  <name>TP0088</name>
</trkpt>
<trkpt lat="48.599038300" lon="9.107913300">
  <ele>451.000000</ele>
<time>2008-06-15T11:02:02Z</time>
  <name>TP0089</name>
</trkpt>
<trkpt lat="48.599030000" lon="9.108006600">
  <ele>452.000000</ele>
<time>2008-06-15T11:02:04Z</time>
  <name>TP0090</name>
</trkpt>
<trkpt lat="48.599013300" lon="9.108068300">
  <ele>452.000000</ele>
<time>2008-06-15T11:02:05Z</time>
  <name>TP0091</name>
</trkpt>
<trkpt lat="48.599015000" lon="9.108158300">
  <ele>452.000000</ele>
<time>2008-06-15T11:02:06Z</time>
  <name>TP0092</name>
</trkpt>
<trkpt lat="48.599005000" lon="9.108239900">
  <ele>453.000000</ele>
<time>2008-06-15T11:02:07Z</time>
  <name>TP0093</name>
</trkpt>
<trkpt lat="48.598988200" lon="9.108301600">
  <ele>453.000000</ele>
<time>2008-06-15T11:02:08Z</time>
  <name>TP0094</name>
</trkpt>
<trkpt lat="48.598963300" lon="9.108350000">
  <ele>453.000000</ele>
<time>2008-06-15T11:02:09Z</time>
  <name>TP0095</name>
</trkpt>
<trkpt lat="48.598931600" lon="9.108383300">
  <ele>453.000000</ele>
<time>2008-06-15T11:02:11Z</time>
  <name>TP0096</name>
</trkpt>
<trkpt lat="48.598924900" lon="9.108429900">
  <ele>453.000000</ele>
<time>2008-06-15T11:02:12Z</time>
  <name>TP0097</name>
</trkpt>
<trkpt lat="48.598894900" lon="9.108521600">
  <ele>454.000000</ele>
<time>2008-06-15T11:02:15Z</time>
  <name>TP0098</name>
</trkpt>
<trkpt lat="48.598890000" lon="9.108561600">
  <ele>455.000000</ele>
<time>2008-06-15T11:02:16Z</time>
  <name>TP0099</name>
</trkpt>
<trkpt lat="48.598909900" lon="9.108595000">
  <ele>454.000000</ele>
<time>2008-06-15T11:02:17Z</time>
  <name>TP0100</name>
</trkpt>
<trkpt lat="48.598916600" lon="9.108739900">
  <ele>453.000000</ele>
<time>2008-06-15T11:02:19Z</time>
  <name>TP0101</name>
</trkpt>
<trkpt lat="48.598901600" lon="9.108833300">
  <ele>454.000000</ele>
<time>2008-06-15T11:02:21Z</time>
  <name>TP0102</name>
</trkpt>
<trkpt lat="48.598881600" lon="9.108873300">
  <ele>454.000000</ele>
<time>2008-06-15T11:02:22Z</time>
  <name>TP0103</name>
</trkpt>
<trkpt lat="48.598856600" lon="9.108921600">
  <ele>454.000000</ele>
<time>2008-06-15T11:02:23Z</time>
  <name>TP0104</name>
</trkpt>
<trkpt lat="48.598839900" lon="9.108984900">
  <ele>454.000000</ele>
<time>2008-06-15T11:02:24Z</time>
  <name>TP0105</name>
</trkpt>
<trkpt lat="48.598859900" lon="9.109099900">
  <ele>454.000000</ele>
<time>2008-06-15T11:02:25Z</time>
  <name>TP0106</name>
</trkpt>
<trkpt lat="48.598866600" lon="9.109156600">
  <ele>454.000000</ele>
<time>2008-06-15T11:02:26Z</time>
  <name>TP0107</name>
</trkpt>
<trkpt lat="48.598905000" lon="9.109261600">
  <ele>453.000000</ele>
<time>2008-06-15T11:02:28Z</time>
  <name>TP0108</name>
</trkpt>
<trkpt lat="48.598913300" lon="9.109311600">
  <ele>454.000000</ele>
<time>2008-06-15T11:02:29Z</time>
  <name>TP0109</name>
</trkpt>
<trkpt lat="48.598920000" lon="9.109359900">
  <ele>453.000000</ele>
<time>2008-06-15T11:02:30Z</time>
  <name>TP0110</name>
</trkpt>
<trkpt lat="48.598923300" lon="9.109423300">
  <ele>453.000000</ele>
<time>2008-06-15T11:02:31Z</time>
  <name>TP0111</name>
</trkpt>
<trkpt lat="48.598943300" lon="9.109508300">
  <ele>453.000000</ele>
<time>2008-06-15T11:02:32Z</time>
  <name>TP0112</name>
</trkpt>
<trkpt lat="48.598948300" lon="9.109563300">
  <ele>453.000000</ele>
<time>2008-06-15T11:02:33Z</time>
  <name>TP0113</name>
</trkpt>
<trkpt lat="48.598964900" lon="9.109703300">
  <ele>454.000000</ele>
<time>2008-06-15T11:02:36Z</time>
  <name>TP0114</name>
</trkpt>
<trkpt lat="48.598966600" lon="9.109851600">
  <ele>453.000000</ele>
<time>2008-06-15T11:02:38Z</time>
  <name>TP0115</name>
</trkpt>
<trkpt lat="48.598964900" lon="9.109958300">
  <ele>453.000000</ele>
<time>2008-06-15T11:02:40Z</time>
  <name>TP0116</name>
</trkpt>
<trkpt lat="48.598956600" lon="9.110001600">
  <ele>453.000000</ele>
<time>2008-06-15T11:02:41Z</time>
  <name>TP0117</name>
</trkpt>
<trkpt lat="48.598951600" lon="9.110040000">
  <ele>453.000000</ele>
<time>2008-06-15T11:02:42Z</time>
  <name>TP0118</name>
</trkpt>
<trkpt lat="48.598938300" lon="9.110153300">
  <ele>454.000000</ele>
<time>2008-06-15T11:02:45Z</time>
  <name>TP0119</name>
</trkpt>
<trkpt lat="48.598933300" lon="9.110236600">
  <ele>454.000000</ele>
<time>2008-06-15T11:02:46Z</time>
  <name>TP0120</name>
</trkpt>
<trkpt lat="48.598920000" lon="9.110456600">
  <ele>455.000000</ele>
<time>2008-06-15T11:02:49Z</time>
  <name>TP0121</name>
</trkpt>
<trkpt lat="48.598905000" lon="9.110496600">
  <ele>455.000000</ele>
<time>2008-06-15T11:02:50Z</time>
  <name>TP0122</name>
</trkpt>
<trkpt lat="48.598875000" lon="9.110634900">
  <ele>455.000000</ele>
<time>2008-06-15T11:02:53Z</time>
  <name>TP0123</name>
</trkpt>
<trkpt lat="48.598863300" lon="9.110701600">
  <ele>455.000000</ele>
<time>2008-06-15T11:02:54Z</time>
  <name>TP0124</name>
</trkpt>
<trkpt lat="48.598861600" lon="9.110736600">
  <ele>456.000000</ele>
<time>2008-06-15T11:02:55Z</time>
  <name>TP0125</name>
</trkpt>
<trkpt lat="48.598844900" lon="9.110868300">
  <ele>456.000000</ele>
<time>2008-06-15T11:02:57Z</time>
  <name>TP0126</name>
</trkpt>
<trkpt lat="48.598823300" lon="9.110911600">
  <ele>456.000000</ele>
<time>2008-06-15T11:02:58Z</time>
  <name>TP0127</name>
</trkpt>
<trkpt lat="48.598805000" lon="9.110953300">
  <ele>455.000000</ele>
<time>2008-06-15T11:02:59Z</time>
  <name>TP0128</name>
</trkpt>
<trkpt lat="48.598788300" lon="9.111078300">
  <ele>456.000000</ele>
<time>2008-06-15T11:03:01Z</time>
  <name>TP0129</name>
</trkpt>
<trkpt lat="48.598791600" lon="9.111278300">
  <ele>456.000000</ele>
<time>2008-06-15T11:03:03Z</time>
  <name>TP0130</name>
</trkpt>
<trkpt lat="48.598776600" lon="9.111335000">
  <ele>456.000000</ele>
<time>2008-06-15T11:03:04Z</time>
  <name>TP0131</name>
</trkpt>
<trkpt lat="48.598748200" lon="9.111403300">
  <ele>456.000000</ele>
<time>2008-06-15T11:03:06Z</time>
  <name>TP0132</name>
</trkpt>
<trkpt lat="48.598713300" lon="9.111594900">
  <ele>457.000000</ele>
<time>2008-06-15T11:03:09Z</time>
  <name>TP0133</name>
</trkpt>
<trkpt lat="48.598714900" lon="9.111615000">
  <ele>457.000000</ele>
<time>2008-06-15T11:03:10Z</time>
  <name>TP0134</name>
</trkpt>
<trkpt lat="48.598686600" lon="9.111596600">
  <ele>458.000000</ele>
<time>2008-06-15T11:03:11Z</time>
  <name>TP0135</name>
</trkpt>
<trkpt lat="48.598656600" lon="9.111656600">
  <ele>459.000000</ele>
<time>2008-06-15T11:03:13Z</time>
  <name>TP0136</name>
</trkpt>
<trkpt lat="48.598653300" lon="9.111746600">
  <ele>459.000000</ele>
<time>2008-06-15T11:03:14Z</time>
  <name>TP0137</name>
</trkpt>
<trkpt lat="48.598589900" lon="9.111858300">
  <ele>458.000000</ele>
<time>2008-06-15T11:03:17Z</time>
  <name>TP0138</name>
</trkpt>
<trkpt lat="48.598566600" lon="9.111834900">
  <ele>458.000000</ele>
<time>2008-06-15T11:03:18Z</time>
  <name>TP0139</name>
</trkpt>
<trkpt lat="48.598573300" lon="9.111881600">
  <ele>458.000000</ele>
<time>2008-06-15T11:03:19Z</time>
  <name>TP0140</name>
</trkpt>
<trkpt lat="48.598571600" lon="9.111918300">
  <ele>458.000000</ele>
<time>2008-06-15T11:03:20Z</time>
  <name>TP0141</name>
</trkpt>
<trkpt lat="48.598570000" lon="9.112030000">
  <ele>458.000000</ele>
<time>2008-06-15T11:03:21Z</time>
  <name>TP0142</name>
</trkpt>
<trkpt lat="48.598558300" lon="9.112248300">
  <ele>457.000000</ele>
<time>2008-06-15T11:03:24Z</time>
  <name>TP0143</name>
</trkpt>
<trkpt lat="48.598553200" lon="9.112323300">
  <ele>455.000000</ele>
<time>2008-06-15T11:03:25Z</time>
  <name>TP0144</name>
</trkpt>
<trkpt lat="48.598555000" lon="9.112418300">
  <ele>454.000000</ele>
<time>2008-06-15T11:03:27Z</time>
  <name>TP0145</name>
</trkpt>
<trkpt lat="48.598559900" lon="9.112486600">
  <ele>453.000000</ele>
<time>2008-06-15T11:03:30Z</time>
  <name>TP0146</name>
</trkpt>
<trkpt lat="48.598555000" lon="9.112558300">
  <ele>453.000000</ele>
<time>2008-06-15T11:03:31Z</time>
  <name>TP0147</name>
</trkpt>
<trkpt lat="48.598544900" lon="9.112559900">
  <ele>453.000000</ele>
<time>2008-06-15T11:03:32Z</time>
  <name>TP0148</name>
</trkpt>
<trkpt lat="48.598541600" lon="9.112621600">
  <ele>453.000000</ele>
<time>2008-06-15T11:03:33Z</time>
  <name>TP0149</name>
</trkpt>
<trkpt lat="48.598544900" lon="9.112615000">
  <ele>454.000000</ele>
<time>2008-06-15T11:03:34Z</time>
  <name>TP0150</name>
</trkpt>
<trkpt lat="48.598573300" lon="9.112678300">
  <ele>454.000000</ele>
<time>2008-06-15T11:03:35Z</time>
  <name>TP0151</name>
</trkpt>
<trkpt lat="48.598598300" lon="9.112758300">
  <ele>454.000000</ele>
<time>2008-06-15T11:03:36Z</time>
  <name>TP0152</name>
</trkpt>
<trkpt lat="48.598599900" lon="9.112791600">
  <ele>455.000000</ele>
<time>2008-06-15T11:03:37Z</time>
  <name>TP0153</name>
</trkpt>
<trkpt lat="48.598611600" lon="9.112911600">
  <ele>454.000000</ele>
<time>2008-06-15T11:03:38Z</time>
  <name>TP0154</name>
</trkpt>
<trkpt lat="48.598656600" lon="9.113073300">
  <ele>455.000000</ele>
<time>2008-06-15T11:03:40Z</time>
  <name>TP0155</name>
</trkpt>
<trkpt lat="48.598654900" lon="9.113165000">
  <ele>455.000000</ele>
<time>2008-06-15T11:03:41Z</time>
  <name>TP0156</name>
</trkpt>
<trkpt lat="48.598651600" lon="9.113313300">
  <ele>455.000000</ele>
<time>2008-06-15T11:03:43Z</time>
  <name>TP0157</name>
</trkpt>
<trkpt lat="48.598644900" lon="9.113328300">
  <ele>456.000000</ele>
<time>2008-06-15T11:03:44Z</time>
  <name>TP0158</name>
</trkpt>
<trkpt lat="48.598640000" lon="9.113383300">
  <ele>456.000000</ele>
<time>2008-06-15T11:03:45Z</time>
  <name>TP0159</name>
</trkpt>
<trkpt lat="48.598669900" lon="9.113483300">
  <ele>457.000000</ele>
<time>2008-06-15T11:03:47Z</time>
  <name>TP0160</name>
</trkpt>
<trkpt lat="48.598666600" lon="9.113536600">
  <ele>457.000000</ele>
<time>2008-06-15T11:03:48Z</time>
  <name>TP0161</name>
</trkpt>
<trkpt lat="48.598643300" lon="9.113584900">
  <ele>457.000000</ele>
<time>2008-06-15T11:03:49Z</time>
  <name>TP0162</name>
</trkpt>
<trkpt lat="48.598644900" lon="9.113635000">
  <ele>457.000000</ele>
<time>2008-06-15T11:03:50Z</time>
  <name>TP0163</name>
</trkpt>
<trkpt lat="48.598666600" lon="9.113688300">
  <ele>457.000000</ele>
<time>2008-06-15T11:03:51Z</time>
  <name>TP0164</name>
</trkpt>
<trkpt lat="48.598668300" lon="9.113688300">
  <ele>457.000000</ele>
<time>2008-06-15T11:03:52Z</time>
  <name>TP0165</name>
</trkpt>
<trkpt lat="48.598665000" lon="9.113703300">
  <ele>457.000000</ele>
<time>2008-06-15T11:03:53Z</time>
  <name>TP0166</name>
</trkpt>
<trkpt lat="48.598676600" lon="9.113776600">
  <ele>458.000000</ele>
<time>2008-06-15T11:03:54Z</time>
  <name>TP0167</name>
</trkpt>
<trkpt lat="48.598663300" lon="9.113834900">
  <ele>458.000000</ele>
<time>2008-06-15T11:03:55Z</time>
  <name>TP0168</name>
</trkpt>
<trkpt lat="48.598668300" lon="9.113885000">
  <ele>458.000000</ele>
<time>2008-06-15T11:03:56Z</time>
  <name>TP0169</name>
</trkpt>
<trkpt lat="48.598691600" lon="9.113964900">
  <ele>458.000000</ele>
<time>2008-06-15T11:03:57Z</time>
  <name>TP0170</name>
</trkpt>
<trkpt lat="48.598701600" lon="9.114008300">
  <ele>458.000000</ele>
<time>2008-06-15T11:03:58Z</time>
  <name>TP0171</name>
</trkpt>
<trkpt lat="48.598724900" lon="9.114061600">
  <ele>459.000000</ele>
<time>2008-06-15T11:03:59Z</time>
  <name>TP0172</name>
</trkpt>
<trkpt lat="48.598733300" lon="9.114151600">
  <ele>459.000000</ele>
<time>2008-06-15T11:04:00Z</time>
  <name>TP0173</name>
</trkpt>
<trkpt lat="48.598738300" lon="9.114195000">
  <ele>458.000000</ele>
<time>2008-06-15T11:04:01Z</time>
  <name>TP0174</name>
</trkpt>
<trkpt lat="48.598739900" lon="9.114233300">
  <ele>458.000000</ele>
<time>2008-06-15T11:04:02Z</time>
  <name>TP0175</name>
</trkpt>
<trkpt lat="48.598768300" lon="9.114436600">
  <ele>458.000000</ele>
<time>2008-06-15T11:04:06Z</time>
  <name>TP0176</name>
</trkpt>
<trkpt lat="48.598759900" lon="9.114593300">
  <ele>459.000000</ele>
<time>2008-06-15T11:04:08Z</time>
  <name>TP0177</name>
</trkpt>
<trkpt lat="48.598750000" lon="9.114663300">
  <ele>459.000000</ele>
<time>2008-06-15T11:04:09Z</time>
  <name>TP0178</name>
</trkpt>
<trkpt lat="48.598761600" lon="9.114748300">
  <ele>460.000000</ele>
<time>2008-06-15T11:04:11Z</time>
  <name>TP0179</name>
</trkpt>
<trkpt lat="48.598756600" lon="9.114805000">
  <ele>460.000000</ele>
<time>2008-06-15T11:04:12Z</time>
  <name>TP0180</name>
</trkpt>
<trkpt lat="48.598688300" lon="9.114903300">
  <ele>462.000000</ele>
<time>2008-06-15T11:04:15Z</time>
  <name>TP0181</name>
</trkpt>
<trkpt lat="48.598644900" lon="9.114961600">
  <ele>464.000000</ele>
<time>2008-06-15T11:04:16Z</time>
  <name>TP0182</name>
</trkpt>
<trkpt lat="48.598603300" lon="9.115091600">
  <ele>467.000000</ele>
<time>2008-06-15T11:04:18Z</time>
  <name>TP0183</name>
</trkpt>
<trkpt lat="48.598596600" lon="9.115174900">
  <ele>467.000000</ele>
<time>2008-06-15T11:04:19Z</time>
  <name>TP0184</name>
</trkpt>
<trkpt lat="48.598593300" lon="9.115261600">
  <ele>467.000000</ele>
<time>2008-06-15T11:04:21Z</time>
  <name>TP0185</name>
</trkpt>
<trkpt lat="48.598584900" lon="9.115299900">
  <ele>468.000000</ele>
<time>2008-06-15T11:04:22Z</time>
  <name>TP0186</name>
</trkpt>
<trkpt lat="48.598559900" lon="9.115451600">
  <ele>469.000000</ele>
<time>2008-06-15T11:04:25Z</time>
  <name>TP0187</name>
</trkpt>
<trkpt lat="48.598519900" lon="9.115528300">
  <ele>470.000000</ele>
<time>2008-06-15T11:04:28Z</time>
  <name>TP0188</name>
</trkpt>
<trkpt lat="48.598479900" lon="9.115635000">
  <ele>471.000000</ele>
<time>2008-06-15T11:04:33Z</time>
  <name>TP0189</name>
</trkpt>
<trkpt lat="48.598464900" lon="9.115714900">
  <ele>472.000000</ele>
<time>2008-06-15T11:04:34Z</time>
  <name>TP0190</name>
</trkpt>
<trkpt lat="48.598455000" lon="9.115793300">
  <ele>472.000000</ele>
<time>2008-06-15T11:04:35Z</time>
  <name>TP0191</name>
</trkpt>
<trkpt lat="48.598448300" lon="9.115856600">
  <ele>472.000000</ele>
<time>2008-06-15T11:04:36Z</time>
  <name>TP0192</name>
</trkpt>
<trkpt lat="48.598448300" lon="9.115838300">
  <ele>472.000000</ele>
<time>2008-06-15T11:04:37Z</time>
  <name>TP0193</name>
</trkpt>
<trkpt lat="48.598421600" lon="9.115854900">
  <ele>472.000000</ele>
<time>2008-06-15T11:04:38Z</time>
  <name>TP0194</name>
</trkpt>
<trkpt lat="48.598411600" lon="9.115906600">
  <ele>471.000000</ele>
<time>2008-06-15T11:04:39Z</time>
  <name>TP0195</name>
</trkpt>
<trkpt lat="48.598400000" lon="9.115966600">
  <ele>471.000000</ele>
<time>2008-06-15T11:04:40Z</time>
  <name>TP0196</name>
</trkpt>
<trkpt lat="48.598386600" lon="9.116116600">
  <ele>472.000000</ele>
<time>2008-06-15T11:04:42Z</time>
  <name>TP0197</name>
</trkpt>
<trkpt lat="48.598369900" lon="9.116293300">
  <ele>472.000000</ele>
<time>2008-06-15T11:04:44Z</time>
  <name>TP0198</name>
</trkpt>
<trkpt lat="48.598374900" lon="9.116381600">
  <ele>472.000000</ele>
<time>2008-06-15T11:04:45Z</time>
  <name>TP0199</name>
</trkpt>
<trkpt lat="48.598368300" lon="9.116428300">
  <ele>473.000000</ele>
<time>2008-06-15T11:04:46Z</time>
  <name>TP0200</name>
</trkpt>
<trkpt lat="48.598348300" lon="9.116496600">
  <ele>473.000000</ele>
<time>2008-06-15T11:04:48Z</time>
  <name>TP0201</name>
</trkpt>
<trkpt lat="48.598330000" lon="9.116499900">
  <ele>473.000000</ele>
<time>2008-06-15T11:04:49Z</time>
  <name>TP0202</name>
</trkpt>
<trkpt lat="48.598308300" lon="9.116471600">
  <ele>473.000000</ele>
<time>2008-06-15T11:04:50Z</time>
  <name>TP0203</name>
</trkpt>
<trkpt lat="48.598299900" lon="9.116503300">
  <ele>473.000000</ele>
<time>2008-06-15T11:04:51Z</time>
  <name>TP0204</name>
</trkpt>
<trkpt lat="48.598248300" lon="9.116658300">
  <ele>474.000000</ele>
<time>2008-06-15T11:04:54Z</time>
  <name>TP0205</name>
</trkpt>
<trkpt lat="48.598233300" lon="9.116728300">
  <ele>474.000000</ele>
<time>2008-06-15T11:04:55Z</time>
  <name>TP0206</name>
</trkpt>
<trkpt lat="48.598198300" lon="9.116814900">
  <ele>474.000000</ele>
<time>2008-06-15T11:04:57Z</time>
  <name>TP0207</name>
</trkpt>
<trkpt lat="48.598175000" lon="9.116873300">
  <ele>474.000000</ele>
<time>2008-06-15T11:04:58Z</time>
  <name>TP0208</name>
</trkpt>
<trkpt lat="48.598166600" lon="9.116933300">
  <ele>474.000000</ele>
<time>2008-06-15T11:04:59Z</time>
  <name>TP0209</name>
</trkpt>
<trkpt lat="48.598156600" lon="9.116976600">
  <ele>475.000000</ele>
<time>2008-06-15T11:05:00Z</time>
  <name>TP0210</name>
</trkpt>
<trkpt lat="48.598135000" lon="9.116996600">
  <ele>475.000000</ele>
<time>2008-06-15T11:05:01Z</time>
  <name>TP0211</name>
</trkpt>
<trkpt lat="48.598171600" lon="9.117014900">
  <ele>474.000000</ele>
<time>2008-06-15T11:05:02Z</time>
  <name>TP0212</name>
</trkpt>
<trkpt lat="48.598179900" lon="9.117016600">
  <ele>474.000000</ele>
<time>2008-06-15T11:05:03Z</time>
  <name>TP0213</name>
</trkpt>
<trkpt lat="48.598179900" lon="9.117033300">
  <ele>473.000000</ele>
<time>2008-06-15T11:05:04Z</time>
  <name>TP0214</name>
</trkpt>
<trkpt lat="48.598164900" lon="9.117049900">
  <ele>473.000000</ele>
<time>2008-06-15T11:05:05Z</time>
  <name>TP0215</name>
</trkpt>
<trkpt lat="48.598159900" lon="9.117129900">
  <ele>472.000000</ele>
<time>2008-06-15T11:05:06Z</time>
  <name>TP0216</name>
</trkpt>
<trkpt lat="48.598151600" lon="9.117158300">
  <ele>472.000000</ele>
<time>2008-06-15T11:05:07Z</time>
  <name>TP0217</name>
</trkpt>
<trkpt lat="48.598154900" lon="9.117216600">
  <ele>472.000000</ele>
<time>2008-06-15T11:05:08Z</time>
  <name>TP0218</name>
</trkpt>
<trkpt lat="48.598129900" lon="9.117243300">
  <ele>472.000000</ele>
<time>2008-06-15T11:05:09Z</time>
  <name>TP0219</name>
</trkpt>
<trkpt lat="48.598105000" lon="9.117264900">
  <ele>472.000000</ele>
<time>2008-06-15T11:05:10Z</time>
  <name>TP0220</name>
</trkpt>
<trkpt lat="48.598080000" lon="9.117303300">
  <ele>472.000000</ele>
<time>2008-06-15T11:05:11Z</time>
  <name>TP0221</name>
</trkpt>
<trkpt lat="48.598081600" lon="9.117356600">
  <ele>473.000000</ele>
<time>2008-06-15T11:05:12Z</time>
  <name>TP0222</name>
</trkpt>
<trkpt lat="48.598080000" lon="9.117428300">
  <ele>473.000000</ele>
<time>2008-06-15T11:05:13Z</time>
  <name>TP0223</name>
</trkpt>
<trkpt lat="48.598054900" lon="9.117488300">
  <ele>473.000000</ele>
<time>2008-06-15T11:05:14Z</time>
  <name>TP0224</name>
</trkpt>
<trkpt lat="48.597965000" lon="9.117653300">
  <ele>473.000000</ele>
<time>2008-06-15T11:05:16Z</time>
  <name>TP0225</name>
</trkpt>
<trkpt lat="48.597986600" lon="9.117773300">
  <ele>474.000000</ele>
<time>2008-06-15T11:05:18Z</time>
  <name>TP0226</name>
</trkpt>
<trkpt lat="48.597993200" lon="9.117828300">
  <ele>473.000000</ele>
<time>2008-06-15T11:05:19Z</time>
  <name>TP0227</name>
</trkpt>
<trkpt lat="48.597989900" lon="9.117861600">
  <ele>472.000000</ele>
<time>2008-06-15T11:05:20Z</time>
  <name>TP0228</name>
</trkpt>
<trkpt lat="48.597983300" lon="9.117963300">
  <ele>471.000000</ele>
<time>2008-06-15T11:05:21Z</time>
  <name>TP0229</name>
</trkpt>
<trkpt lat="48.597958300" lon="9.118158300">
  <ele>469.000000</ele>
<time>2008-06-15T11:05:24Z</time>
  <name>TP0230</name>
</trkpt>
<trkpt lat="48.597953300" lon="9.118229900">
  <ele>468.000000</ele>
<time>2008-06-15T11:05:25Z</time>
  <name>TP0231</name>
</trkpt>
<trkpt lat="48.597944900" lon="9.118346600">
  <ele>467.000000</ele>
<time>2008-06-15T11:05:27Z</time>
  <name>TP0232</name>
</trkpt>
<trkpt lat="48.597926600" lon="9.118456600">
  <ele>466.000000</ele>
<time>2008-06-15T11:05:29Z</time>
  <name>TP0233</name>
</trkpt>
<trkpt lat="48.597876600" lon="9.118704900">
  <ele>463.000000</ele>
<time>2008-06-15T11:05:34Z</time>
  <name>TP0234</name>
</trkpt>
<trkpt lat="48.597271600" lon="9.121136600">
  <ele>456.000000</ele>
<time>2008-06-15T11:06:30Z</time>
  <name>TP0235</name>
</trkpt>
<trkpt lat="48.597269900" lon="9.121186600">
  <ele>456.000000</ele>
<time>2008-06-15T11:06:31Z</time>
  <name>TP0236</name>
</trkpt>
<trkpt lat="48.597206600" lon="9.121928300">
  <ele>454.000000</ele>
<time>2008-06-15T11:06:47Z</time>
  <name>TP0237</name>
</trkpt>
<trkpt lat="48.597110000" lon="9.122988300">
  <ele>456.000000</ele>
<time>2008-06-15T11:07:08Z</time>
  <name>TP0238</name>
</trkpt>
<trkpt lat="48.597085000" lon="9.123285000">
  <ele>457.000000</ele>
<time>2008-06-15T11:07:14Z</time>
  <name>TP0239</name>
</trkpt>
<trkpt lat="48.597089900" lon="9.123360000">
  <ele>457.000000</ele>
<time>2008-06-15T11:07:16Z</time>
  <name>TP0240</name>
</trkpt>
<trkpt lat="48.597091600" lon="9.123479900">
  <ele>458.000000</ele>
<time>2008-06-15T11:07:19Z</time>
  <name>TP0241</name>
</trkpt>
<trkpt lat="48.597088300" lon="9.124404900">
  <ele>461.000000</ele>
<time>2008-06-15T11:07:36Z</time>
  <name>TP0242</name>
</trkpt>
<trkpt lat="48.597128300" lon="9.124673300">
  <ele>465.000000</ele>
<time>2008-06-15T11:07:41Z</time>
  <name>TP0243</name>
</trkpt>
<trkpt lat="48.597180000" lon="9.124826600">
  <ele>465.000000</ele>
<time>2008-06-15T11:07:44Z</time>
  <name>TP0244</name>
</trkpt>
<trkpt lat="48.597278200" lon="9.125093300">
  <ele>462.000000</ele>
<time>2008-06-15T11:07:50Z</time>
  <name>TP0245</name>
</trkpt>
<trkpt lat="48.597281600" lon="9.125138300">
  <ele>462.000000</ele>
<time>2008-06-15T11:07:51Z</time>
  <name>TP0246</name>
</trkpt>
<trkpt lat="48.597314900" lon="9.125259900">
  <ele>461.000000</ele>
<time>2008-06-15T11:07:53Z</time>
  <name>TP0247</name>
</trkpt>
<trkpt lat="48.597328300" lon="9.125376600">
  <ele>461.000000</ele>
<time>2008-06-15T11:07:54Z</time>
  <name>TP0248</name>
</trkpt>
<trkpt lat="48.597333200" lon="9.125491600">
  <ele>461.000000</ele>
<time>2008-06-15T11:07:55Z</time>
  <name>TP0249</name>
</trkpt>
<trkpt lat="48.597366600" lon="9.125669900">
  <ele>463.000000</ele>
<time>2008-06-15T11:07:57Z</time>
  <name>TP0250</name>
</trkpt>
<trkpt lat="48.597383300" lon="9.125739900">
  <ele>463.000000</ele>
<time>2008-06-15T11:07:58Z</time>
  <name>TP0251</name>
</trkpt>
<trkpt lat="48.597398300" lon="9.125809900">
  <ele>464.000000</ele>
<time>2008-06-15T11:07:59Z</time>
  <name>TP0252</name>
</trkpt>
<trkpt lat="48.597420000" lon="9.125891600">
  <ele>464.000000</ele>
<time>2008-06-15T11:08:00Z</time>
  <name>TP0253</name>
</trkpt>
<trkpt lat="48.597443300" lon="9.126073300">
  <ele>464.000000</ele>
<time>2008-06-15T11:08:02Z</time>
  <name>TP0254</name>
</trkpt>
<trkpt lat="48.597438300" lon="9.126113300">
  <ele>465.000000</ele>
<time>2008-06-15T11:08:03Z</time>
  <name>TP0255</name>
</trkpt>
<trkpt lat="48.597476600" lon="9.126248300">
  <ele>464.000000</ele>
<time>2008-06-15T11:08:04Z</time>
  <name>TP0256</name>
</trkpt>
<trkpt lat="48.597496600" lon="9.126378300">
  <ele>464.000000</ele>
<time>2008-06-15T11:08:05Z</time>
  <name>TP0257</name>
</trkpt>
<trkpt lat="48.597521600" lon="9.126526600">
  <ele>465.000000</ele>
<time>2008-06-15T11:08:06Z</time>
  <name>TP0258</name>
</trkpt>
<trkpt lat="48.597541600" lon="9.126595000">
  <ele>465.000000</ele>
<time>2008-06-15T11:08:07Z</time>
  <name>TP0259</name>
</trkpt>
<trkpt lat="48.597566600" lon="9.126793300">
  <ele>465.000000</ele>
<time>2008-06-15T11:08:09Z</time>
  <name>TP0260</name>
</trkpt>
<trkpt lat="48.597569900" lon="9.126866600">
  <ele>464.000000</ele>
<time>2008-06-15T11:08:10Z</time>
  <name>TP0261</name>
</trkpt>
<trkpt lat="48.597575000" lon="9.127276600">
  <ele>460.000000</ele>
<time>2008-06-15T11:08:14Z</time>
  <name>TP0262</name>
</trkpt>
<trkpt lat="48.597568300" lon="9.127321600">
  <ele>460.000000</ele>
<time>2008-06-15T11:08:15Z</time>
  <name>TP0263</name>
</trkpt>
<trkpt lat="48.597594900" lon="9.127424900">
  <ele>460.000000</ele>
<time>2008-06-15T11:08:16Z</time>
  <name>TP0264</name>
</trkpt>
<trkpt lat="48.597616600" lon="9.127568300">
  <ele>459.000000</ele>
<time>2008-06-15T11:08:18Z</time>
  <name>TP0265</name>
</trkpt>
<trkpt lat="48.597609900" lon="9.127621600">
  <ele>459.000000</ele>
<time>2008-06-15T11:08:19Z</time>
  <name>TP0266</name>
</trkpt>
<trkpt lat="48.597583300" lon="9.127698300">
  <ele>459.000000</ele>
<time>2008-06-15T11:08:20Z</time>
  <name>TP0267</name>
</trkpt>
<trkpt lat="48.597571600" lon="9.127774900">
  <ele>460.000000</ele>
<time>2008-06-15T11:08:21Z</time>
  <name>TP0268</name>
</trkpt>
<trkpt lat="48.597579900" lon="9.127825000">
  <ele>460.000000</ele>
<time>2008-06-15T11:08:22Z</time>
  <name>TP0269</name>
</trkpt>
<trkpt lat="48.597589900" lon="9.128163300">
  <ele>460.000000</ele>
<time>2008-06-15T11:08:25Z</time>
  <name>TP0270</name>
</trkpt>
<trkpt lat="48.597594900" lon="9.128233300">
  <ele>459.000000</ele>
<time>2008-06-15T11:08:26Z</time>
  <name>TP0271</name>
</trkpt>
<trkpt lat="48.597576600" lon="9.128319900">
  <ele>459.000000</ele>
<time>2008-06-15T11:08:28Z</time>
  <name>TP0272</name>
</trkpt>
<trkpt lat="48.597561600" lon="9.128353300">
  <ele>459.000000</ele>
<time>2008-06-15T11:08:29Z</time>
  <name>TP0273</name>
</trkpt>
<trkpt lat="48.597549900" lon="9.128380000">
  <ele>458.000000</ele>
<time>2008-06-15T11:08:30Z</time>
  <name>TP0274</name>
</trkpt>
<trkpt lat="48.597548300" lon="9.128585000">
  <ele>459.000000</ele>
<time>2008-06-15T11:08:32Z</time>
  <name>TP0275</name>
</trkpt>
<trkpt lat="48.597573200" lon="9.128723300">
  <ele>460.000000</ele>
<time>2008-06-15T11:08:33Z</time>
  <name>TP0276</name>
</trkpt>
<trkpt lat="48.597623300" lon="9.128813300">
  <ele>460.000000</ele>
<time>2008-06-15T11:08:34Z</time>
  <name>TP0277</name>
</trkpt>
<trkpt lat="48.597654900" lon="9.128866600">
  <ele>461.000000</ele>
<time>2008-06-15T11:08:35Z</time>
  <name>TP0278</name>
</trkpt>
<trkpt lat="48.597748300" lon="9.128986600">
  <ele>462.000000</ele>
<time>2008-06-15T11:08:37Z</time>
  <name>TP0279</name>
</trkpt>
<trkpt lat="48.597785000" lon="9.129073300">
  <ele>463.000000</ele>
<time>2008-06-15T11:08:38Z</time>
  <name>TP0280</name>
</trkpt>
<trkpt lat="48.597801600" lon="9.129171600">
  <ele>463.000000</ele>
<time>2008-06-15T11:08:39Z</time>
  <name>TP0281</name>
</trkpt>
<trkpt lat="48.597873300" lon="9.129284900">
  <ele>463.000000</ele>
<time>2008-06-15T11:08:41Z</time>
  <name>TP0282</name>
</trkpt>
<trkpt lat="48.597908200" lon="9.129351600">
  <ele>463.000000</ele>
<time>2008-06-15T11:08:42Z</time>
  <name>TP0283</name>
</trkpt>
<trkpt lat="48.597999900" lon="9.129543300">
  <ele>463.000000</ele>
<time>2008-06-15T11:08:45Z</time>
  <name>TP0284</name>
</trkpt>
<trkpt lat="48.597996600" lon="9.129611600">
  <ele>463.000000</ele>
<time>2008-06-15T11:08:46Z</time>
  <name>TP0285</name>
</trkpt>
<trkpt lat="48.598033300" lon="9.129691600">
  <ele>463.000000</ele>
<time>2008-06-15T11:08:47Z</time>
  <name>TP0286</name>
</trkpt>
<trkpt lat="48.598094900" lon="9.129820000">
  <ele>462.000000</ele>
<time>2008-06-15T11:08:49Z</time>
  <name>TP0287</name>
</trkpt>
<trkpt lat="48.598124900" lon="9.129896600">
  <ele>462.000000</ele>
<time>2008-06-15T11:08:50Z</time>
  <name>TP0288</name>
</trkpt>
<trkpt lat="48.598191600" lon="9.130151600">
  <ele>462.000000</ele>
<time>2008-06-15T11:08:53Z</time>
  <name>TP0289</name>
</trkpt>
<trkpt lat="48.598234900" lon="9.130231600">
  <ele>462.000000</ele>
<time>2008-06-15T11:08:54Z</time>
  <name>TP0290</name>
</trkpt>
<trkpt lat="48.598316600" lon="9.130356600">
  <ele>461.000000</ele>
<time>2008-06-15T11:08:56Z</time>
  <name>TP0291</name>
</trkpt>
<trkpt lat="48.598379900" lon="9.130438300">
  <ele>464.000000</ele>
<time>2008-06-15T11:08:58Z</time>
  <name>TP0292</name>
</trkpt>
<trkpt lat="48.598478300" lon="9.130754900">
  <ele>464.000000</ele>
<time>2008-06-15T11:09:01Z</time>
  <name>TP0293</name>
</trkpt>
<trkpt lat="48.598511600" lon="9.131001600">
  <ele>465.000000</ele>
<time>2008-06-15T11:09:03Z</time>
  <name>TP0294</name>
</trkpt>
<trkpt lat="48.598533300" lon="9.131236600">
  <ele>465.000000</ele>
<time>2008-06-15T11:09:05Z</time>
  <name>TP0295</name>
</trkpt>
<trkpt lat="48.598555000" lon="9.131335000">
  <ele>465.000000</ele>
<time>2008-06-15T11:09:06Z</time>
  <name>TP0296</name>
</trkpt>
<trkpt lat="48.598553200" lon="9.131738300">
  <ele>464.000000</ele>
<time>2008-06-15T11:09:10Z</time>
  <name>TP0297</name>
</trkpt>
<trkpt lat="48.598549900" lon="9.131973300">
  <ele>463.000000</ele>
<time>2008-06-15T11:09:12Z</time>
  <name>TP0298</name>
</trkpt>
<trkpt lat="48.598529900" lon="9.132338300">
  <ele>463.000000</ele>
<time>2008-06-15T11:09:15Z</time>
  <name>TP0299</name>
</trkpt>
<trkpt lat="48.598555000" lon="9.132849900">
  <ele>462.000000</ele>
<time>2008-06-15T11:09:20Z</time>
  <name>TP0300</name>
</trkpt>
<trkpt lat="48.598546600" lon="9.133104900">
  <ele>461.000000</ele>
<time>2008-06-15T11:09:22Z</time>
  <name>TP0301</name>
</trkpt>
<trkpt lat="48.598599900" lon="9.133913300">
  <ele>457.000000</ele>
<time>2008-06-15T11:09:29Z</time>
  <name>TP0302</name>
</trkpt>
<trkpt lat="48.598579900" lon="9.134169900">
  <ele>457.000000</ele>
<time>2008-06-15T11:09:31Z</time>
  <name>TP0303</name>
</trkpt>
<trkpt lat="48.598529900" lon="9.134359900">
  <ele>457.000000</ele>
<time>2008-06-15T11:09:33Z</time>
  <name>TP0304</name>
</trkpt>
<trkpt lat="48.598513300" lon="9.134458300">
  <ele>457.000000</ele>
<time>2008-06-15T11:09:34Z</time>
  <name>TP0305</name>
</trkpt>
<trkpt lat="48.598463300" lon="9.134603300">
  <ele>457.000000</ele>
<time>2008-06-15T11:09:35Z</time>
  <name>TP0306</name>
</trkpt>
<trkpt lat="48.598494900" lon="9.134743300">
  <ele>456.000000</ele>
<time>2008-06-15T11:09:36Z</time>
  <name>TP0307</name>
</trkpt>
<trkpt lat="48.598456600" lon="9.135151600">
  <ele>453.000000</ele>
<time>2008-06-15T11:09:40Z</time>
  <name>TP0308</name>
</trkpt>
<trkpt lat="48.598458300" lon="9.135291600">
  <ele>452.000000</ele>
<time>2008-06-15T11:09:41Z</time>
  <name>TP0309</name>
</trkpt>
<trkpt lat="48.598441600" lon="9.135401600">
  <ele>452.000000</ele>
<time>2008-06-15T11:09:42Z</time>
  <name>TP0310</name>
</trkpt>
<trkpt lat="48.598404900" lon="9.135555000">
  <ele>451.000000</ele>
<time>2008-06-15T11:09:43Z</time>
  <name>TP0311</name>
</trkpt>
<trkpt lat="48.598396600" lon="9.135673300">
  <ele>450.000000</ele>
<time>2008-06-15T11:09:44Z</time>
  <name>TP0312</name>
</trkpt>
<trkpt lat="48.598400000" lon="9.135788300">
  <ele>451.000000</ele>
<time>2008-06-15T11:09:45Z</time>
  <name>TP0313</name>
</trkpt>
<trkpt lat="48.598388300" lon="9.135919900">
  <ele>449.000000</ele>
<time>2008-06-15T11:09:46Z</time>
  <name>TP0314</name>
</trkpt>
<trkpt lat="48.598386600" lon="9.136033300">
  <ele>448.000000</ele>
<time>2008-06-15T11:09:47Z</time>
  <name>TP0315</name>
</trkpt>
<trkpt lat="48.598403300" lon="9.136111600">
  <ele>448.000000</ele>
<time>2008-06-15T11:09:48Z</time>
  <name>TP0316</name>
</trkpt>
<trkpt lat="48.598418300" lon="9.136204900">
  <ele>447.000000</ele>
<time>2008-06-15T11:09:49Z</time>
  <name>TP0317</name>
</trkpt>
<trkpt lat="48.598431600" lon="9.136368300">
  <ele>448.000000</ele>
<time>2008-06-15T11:09:51Z</time>
  <name>TP0318</name>
</trkpt>
<trkpt lat="48.598486600" lon="9.136438300">
  <ele>446.000000</ele>
<time>2008-06-15T11:09:52Z</time>
  <name>TP0319</name>
</trkpt>
<trkpt lat="48.598500000" lon="9.136515000">
  <ele>444.000000</ele>
<time>2008-06-15T11:09:53Z</time>
  <name>TP0320</name>
</trkpt>
<trkpt lat="48.598533300" lon="9.136551600">
  <ele>443.000000</ele>
<time>2008-06-15T11:09:54Z</time>
  <name>TP0321</name>
</trkpt>
<trkpt lat="48.598531600" lon="9.136594900">
  <ele>443.000000</ele>
<time>2008-06-15T11:09:55Z</time>
  <name>TP0322</name>
</trkpt>
<trkpt lat="48.598511600" lon="9.136633300">
  <ele>443.000000</ele>
<time>2008-06-15T11:09:56Z</time>
  <name>TP0323</name>
</trkpt>
<trkpt lat="48.598589900" lon="9.136633300">
  <ele>442.000000</ele>
<time>2008-06-15T11:09:57Z</time>
  <name>TP0324</name>
</trkpt>
<trkpt lat="48.598581600" lon="9.136678300">
  <ele>440.000000</ele>
<time>2008-06-15T11:09:59Z</time>
  <name>TP0325</name>
</trkpt>
<trkpt lat="48.598579900" lon="9.136696600">
  <ele>439.000000</ele>
<time>2008-06-15T11:10:00Z</time>
  <name>TP0326</name>
</trkpt>
<trkpt lat="48.598566600" lon="9.136701600">
  <ele>439.000000</ele>
<time>2008-06-15T11:10:01Z</time>
  <name>TP0327</name>
</trkpt>
<trkpt lat="48.598574900" lon="9.136783300">
  <ele>439.000000</ele>
<time>2008-06-15T11:10:03Z</time>
  <name>TP0328</name>
</trkpt>
<trkpt lat="48.598578300" lon="9.136846600">
  <ele>438.000000</ele>
<time>2008-06-15T11:10:04Z</time>
  <name>TP0329</name>
</trkpt>
<trkpt lat="48.598571600" lon="9.136995000">
  <ele>436.000000</ele>
<time>2008-06-15T11:10:08Z</time>
  <name>TP0330</name>
</trkpt>
<trkpt lat="48.598566600" lon="9.137021600">
  <ele>435.000000</ele>
<time>2008-06-15T11:10:09Z</time>
  <name>TP0331</name>
</trkpt>
<trkpt lat="48.598559900" lon="9.137043300">
  <ele>435.000000</ele>
<time>2008-06-15T11:10:10Z</time>
  <name>TP0332</name>
</trkpt>
<trkpt lat="48.598568200" lon="9.137118300">
  <ele>434.000000</ele>
<time>2008-06-15T11:10:11Z</time>
  <name>TP0333</name>
</trkpt>
<trkpt lat="48.598571600" lon="9.137181600">
  <ele>434.000000</ele>
<time>2008-06-15T11:10:12Z</time>
  <name>TP0334</name>
</trkpt>
<trkpt lat="48.598566600" lon="9.137248300">
  <ele>433.000000</ele>
<time>2008-06-15T11:10:14Z</time>
  <name>TP0335</name>
</trkpt>
<trkpt lat="48.598559900" lon="9.137314900">
  <ele>434.000000</ele>
<time>2008-06-15T11:10:17Z</time>
  <name>TP0336</name>
</trkpt>
<trkpt lat="48.598559900" lon="9.137351600">
  <ele>434.000000</ele>
<time>2008-06-15T11:10:18Z</time>
  <name>TP0337</name>
</trkpt>
<trkpt lat="48.598571600" lon="9.137401600">
  <ele>434.000000</ele>
<time>2008-06-15T11:10:19Z</time>
  <name>TP0338</name>
</trkpt>
<trkpt lat="48.598570000" lon="9.137406600">
  <ele>435.000000</ele>
<time>2008-06-15T11:10:20Z</time>
  <name>TP0339</name>
</trkpt>
<trkpt lat="48.598579900" lon="9.137446600">
  <ele>435.000000</ele>
<time>2008-06-15T11:10:21Z</time>
  <name>TP0340</name>
</trkpt>
<trkpt lat="48.598586600" lon="9.137516600">
  <ele>434.000000</ele>
<time>2008-06-15T11:10:23Z</time>
  <name>TP0341</name>
</trkpt>
<trkpt lat="48.598595000" lon="9.137586600">
  <ele>433.000000</ele>
<time>2008-06-15T11:10:25Z</time>
  <name>TP0342</name>
</trkpt>
<trkpt lat="48.598603300" lon="9.137714900">
  <ele>431.000000</ele>
<time>2008-06-15T11:10:30Z</time>
  <name>TP0343</name>
</trkpt>
<trkpt lat="48.598604900" lon="9.137774900">
  <ele>430.000000</ele>
<time>2008-06-15T11:10:32Z</time>
  <name>TP0344</name>
</trkpt>
<trkpt lat="48.598606600" lon="9.137825000">
  <ele>429.000000</ele>
<time>2008-06-15T11:10:34Z</time>
  <name>TP0345</name>
</trkpt>
<trkpt lat="48.598625000" lon="9.138016600">
  <ele>426.000000</ele>
<time>2008-06-15T11:10:41Z</time>
  <name>TP0346</name>
</trkpt>
<trkpt lat="48.598629900" lon="9.138095000">
  <ele>425.000000</ele>
<time>2008-06-15T11:10:44Z</time>
  <name>TP0347</name>
</trkpt>
<trkpt lat="48.598638200" lon="9.138176600">
  <ele>425.000000</ele>
<time>2008-06-15T11:10:47Z</time>
  <name>TP0348</name>
</trkpt>
<trkpt lat="48.598644900" lon="9.138358300">
  <ele>424.000000</ele>
<time>2008-06-15T11:10:53Z</time>
  <name>TP0349</name>
</trkpt>
<trkpt lat="48.598653300" lon="9.138389900">
  <ele>424.000000</ele>
<time>2008-06-15T11:10:54Z</time>
  <name>TP0350</name>
</trkpt>
<trkpt lat="48.598654900" lon="9.138375000">
  <ele>425.000000</ele>
<time>2008-06-15T11:10:55Z</time>
  <name>TP0351</name>
</trkpt>
<trkpt lat="48.598681600" lon="9.138418300">
  <ele>426.000000</ele>
<time>2008-06-15T11:10:56Z</time>
  <name>TP0352</name>
</trkpt>
<trkpt lat="48.598696600" lon="9.138471600">
  <ele>426.000000</ele>
<time>2008-06-15T11:10:57Z</time>
  <name>TP0353</name>
</trkpt>
<trkpt lat="48.598696600" lon="9.138498300">
  <ele>425.000000</ele>
<time>2008-06-15T11:10:58Z</time>
  <name>TP0354</name>
</trkpt>
<trkpt lat="48.598698300" lon="9.138529900">
  <ele>425.000000</ele>
<time>2008-06-15T11:10:59Z</time>
  <name>TP0355</name>
</trkpt>
<trkpt lat="48.598696600" lon="9.138534900">
  <ele>426.000000</ele>
<time>2008-06-15T11:11:00Z</time>
  <name>TP0356</name>
</trkpt>
<trkpt lat="48.598678200" lon="9.138544900">
  <ele>426.000000</ele>
<time>2008-06-15T11:11:01Z</time>
  <name>TP0357</name>
</trkpt>
<trkpt lat="48.598649900" lon="9.138536600">
  <ele>426.000000</ele>
<time>2008-06-15T11:11:03Z</time>
  <name>TP0358</name>
</trkpt>
<trkpt lat="48.598641600" lon="9.138573300">
  <ele>427.000000</ele>
<time>2008-06-15T11:11:04Z</time>
  <name>TP0359</name>
</trkpt>
<trkpt lat="48.598643300" lon="9.138606600">
  <ele>426.000000</ele>
<time>2008-06-15T11:11:05Z</time>
  <name>TP0360</name>
</trkpt>
<trkpt lat="48.598640000" lon="9.138633300">
  <ele>426.000000</ele>
<time>2008-06-15T11:11:06Z</time>
  <name>TP0361</name>
</trkpt>
<trkpt lat="48.598644900" lon="9.138718300">
  <ele>426.000000</ele>
<time>2008-06-15T11:11:08Z</time>
  <name>TP0362</name>
</trkpt>
<trkpt lat="48.598611600" lon="9.138791600">
  <ele>426.000000</ele>
<time>2008-06-15T11:11:10Z</time>
  <name>TP0363</name>
</trkpt>
<trkpt lat="48.598625000" lon="9.138793300">
  <ele>427.000000</ele>
<time>2008-06-15T11:11:11Z</time>
  <name>TP0364</name>
</trkpt>
<trkpt lat="48.598614900" lon="9.138793300">
  <ele>430.000000</ele>
<time>2008-06-15T11:11:13Z</time>
  <name>TP0365</name>
</trkpt>
<trkpt lat="48.598618300" lon="9.138818300">
  <ele>429.000000</ele>
<time>2008-06-15T11:11:14Z</time>
  <name>TP0366</name>
</trkpt>
<trkpt lat="48.598648300" lon="9.138834900">
  <ele>430.000000</ele>
<time>2008-06-15T11:11:15Z</time>
  <name>TP0367</name>
</trkpt>
<trkpt lat="48.598613300" lon="9.138891600">
  <ele>431.000000</ele>
<time>2008-06-15T11:11:18Z</time>
  <name>TP0368</name>
</trkpt>
<trkpt lat="48.598606600" lon="9.138963300">
  <ele>432.000000</ele>
<time>2008-06-15T11:11:19Z</time>
  <name>TP0369</name>
</trkpt>
<trkpt lat="48.598616600" lon="9.139026600">
  <ele>432.000000</ele>
<time>2008-06-15T11:11:20Z</time>
  <name>TP0370</name>
</trkpt>
<trkpt lat="48.598619900" lon="9.139048300">
  <ele>432.000000</ele>
<time>2008-06-15T11:11:21Z</time>
  <name>TP0371</name>
</trkpt>
<trkpt lat="48.598618300" lon="9.139083300">
  <ele>432.000000</ele>
<time>2008-06-15T11:11:22Z</time>
  <name>TP0372</name>
</trkpt>
<trkpt lat="48.598625000" lon="9.139109900">
  <ele>432.000000</ele>
<time>2008-06-15T11:11:23Z</time>
  <name>TP0373</name>
</trkpt>
<trkpt lat="48.598626600" lon="9.139158300">
  <ele>433.000000</ele>
<time>2008-06-15T11:11:25Z</time>
  <name>TP0374</name>
</trkpt>
<trkpt lat="48.598668300" lon="9.139154900">
  <ele>433.000000</ele>
<time>2008-06-15T11:11:27Z</time>
  <name>TP0375</name>
</trkpt>
<trkpt lat="48.598648300" lon="9.139226600">
  <ele>434.000000</ele>
<time>2008-06-15T11:11:28Z</time>
  <name>TP0376</name>
</trkpt>
<trkpt lat="48.598643300" lon="9.139358300">
  <ele>435.000000</ele>
<time>2008-06-15T11:11:31Z</time>
  <name>TP0377</name>
</trkpt>
<trkpt lat="48.598651600" lon="9.139381600">
  <ele>435.000000</ele>
<time>2008-06-15T11:11:32Z</time>
  <name>TP0378</name>
</trkpt>
<trkpt lat="48.598686600" lon="9.139475000">
  <ele>436.000000</ele>
<time>2008-06-15T11:11:36Z</time>
  <name>TP0379</name>
</trkpt>
<trkpt lat="48.598683300" lon="9.139491600">
  <ele>436.000000</ele>
<time>2008-06-15T11:11:37Z</time>
  <name>TP0380</name>
</trkpt>
<trkpt lat="48.598691600" lon="9.139508300">
  <ele>436.000000</ele>
<time>2008-06-15T11:11:38Z</time>
  <name>TP0381</name>
</trkpt>
<trkpt lat="48.598695000" lon="9.139543300">
  <ele>437.000000</ele>
<time>2008-06-15T11:11:40Z</time>
  <name>TP0382</name>
</trkpt>
<trkpt lat="48.598686600" lon="9.139586600">
  <ele>437.000000</ele>
<time>2008-06-15T11:11:41Z</time>
  <name>TP0383</name>
</trkpt>
<trkpt lat="48.598686600" lon="9.139548300">
  <ele>439.000000</ele>
<time>2008-06-15T11:11:42Z</time>
  <name>TP0384</name>
</trkpt>
<trkpt lat="48.598669900" lon="9.139608300">
  <ele>439.000000</ele>
<time>2008-06-15T11:11:43Z</time>
  <name>TP0385</name>
</trkpt>
<trkpt lat="48.598676600" lon="9.139676600">
  <ele>439.000000</ele>
<time>2008-06-15T11:11:44Z</time>
  <name>TP0386</name>
</trkpt>
<trkpt lat="48.598640000" lon="9.139653300">
  <ele>441.000000</ele>
<time>2008-06-15T11:11:45Z</time>
  <name>TP0387</name>
</trkpt>
<trkpt lat="48.598680000" lon="9.139708300">
  <ele>441.000000</ele>
<time>2008-06-15T11:11:46Z</time>
  <name>TP0388</name>
</trkpt>
<trkpt lat="48.598669900" lon="9.139683300">
  <ele>442.000000</ele>
<time>2008-06-15T11:11:48Z</time>
  <name>TP0389</name>
</trkpt>
<trkpt lat="48.598634900" lon="9.139688300">
  <ele>442.000000</ele>
<time>2008-06-15T11:11:49Z</time>
  <name>TP0390</name>
</trkpt>
<trkpt lat="48.598633300" lon="9.139746600">
  <ele>443.000000</ele>
<time>2008-06-15T11:11:50Z</time>
  <name>TP0391</name>
</trkpt>
<trkpt lat="48.598651600" lon="9.139719900">
  <ele>442.000000</ele>
<time>2008-06-15T11:11:52Z</time>
  <name>TP0392</name>
</trkpt>
<trkpt lat="48.598668300" lon="9.139768300">
  <ele>442.000000</ele>
<time>2008-06-15T11:11:53Z</time>
  <name>TP0393</name>
</trkpt>
<trkpt lat="48.598708200" lon="9.139908300">
  <ele>441.000000</ele>
<time>2008-06-15T11:11:56Z</time>
  <name>TP0394</name>
</trkpt>
<trkpt lat="48.598699900" lon="9.140028300">
  <ele>441.000000</ele>
<time>2008-06-15T11:11:58Z</time>
  <name>TP0395</name>
</trkpt>
<trkpt lat="48.598698300" lon="9.140069900">
  <ele>441.000000</ele>
<time>2008-06-15T11:11:59Z</time>
  <name>TP0396</name>
</trkpt>
<trkpt lat="48.598706600" lon="9.140099900">
  <ele>441.000000</ele>
<time>2008-06-15T11:12:00Z</time>
  <name>TP0397</name>
</trkpt>
<trkpt lat="48.598718300" lon="9.140133300">
  <ele>441.000000</ele>
<time>2008-06-15T11:12:01Z</time>
  <name>TP0398</name>
</trkpt>
<trkpt lat="48.598743300" lon="9.140138300">
  <ele>441.000000</ele>
<time>2008-06-15T11:12:02Z</time>
  <name>TP0399</name>
</trkpt>
<trkpt lat="48.598780000" lon="9.140149900">
  <ele>441.000000</ele>
<time>2008-06-15T11:12:03Z</time>
  <name>TP0400</name>
</trkpt>
<trkpt lat="48.598811600" lon="9.140173300">
  <ele>441.000000</ele>
<time>2008-06-15T11:12:05Z</time>
  <name>TP0401</name>
</trkpt>
<trkpt lat="48.598796600" lon="9.140206600">
  <ele>442.000000</ele>
<time>2008-06-15T11:12:06Z</time>
  <name>TP0402</name>
</trkpt>
<trkpt lat="48.598801600" lon="9.140211600">
  <ele>442.000000</ele>
<time>2008-06-15T11:12:07Z</time>
  <name>TP0403</name>
</trkpt>
<trkpt lat="48.598813300" lon="9.140238300">
  <ele>442.000000</ele>
<time>2008-06-15T11:12:08Z</time>
  <name>TP0404</name>
</trkpt>
<trkpt lat="48.598801600" lon="9.140296600">
  <ele>442.000000</ele>
<time>2008-06-15T11:12:09Z</time>
  <name>TP0405</name>
</trkpt>
<trkpt lat="48.598809900" lon="9.140326600">
  <ele>442.000000</ele>
<time>2008-06-15T11:12:10Z</time>
  <name>TP0406</name>
</trkpt>
<trkpt lat="48.598823300" lon="9.140361600">
  <ele>442.000000</ele>
<time>2008-06-15T11:12:11Z</time>
  <name>TP0407</name>
</trkpt>
<trkpt lat="48.598836600" lon="9.140423300">
  <ele>442.000000</ele>
<time>2008-06-15T11:12:13Z</time>
  <name>TP0408</name>
</trkpt>
<trkpt lat="48.598851600" lon="9.140428300">
  <ele>442.000000</ele>
<time>2008-06-15T11:12:14Z</time>
  <name>TP0409</name>
</trkpt>
<trkpt lat="48.598838300" lon="9.140464900">
  <ele>442.000000</ele>
<time>2008-06-15T11:12:15Z</time>
  <name>TP0410</name>
</trkpt>
<trkpt lat="48.598854900" lon="9.140470000">
  <ele>442.000000</ele>
<time>2008-06-15T11:12:16Z</time>
  <name>TP0411</name>
</trkpt>
<trkpt lat="48.598884900" lon="9.140514900">
  <ele>443.000000</ele>
<time>2008-06-15T11:12:17Z</time>
  <name>TP0412</name>
</trkpt>
<trkpt lat="48.598901600" lon="9.140538300">
  <ele>443.000000</ele>
<time>2008-06-15T11:12:18Z</time>
  <name>TP0413</name>
</trkpt>
<trkpt lat="48.598916600" lon="9.140543300">
  <ele>444.000000</ele>
<time>2008-06-15T11:12:19Z</time>
  <name>TP0414</name>
</trkpt>
<trkpt lat="48.598931600" lon="9.140513300">
  <ele>445.000000</ele>
<time>2008-06-15T11:12:20Z</time>
  <name>TP0415</name>
</trkpt>
<trkpt lat="48.598971600" lon="9.140513300">
  <ele>445.000000</ele>
<time>2008-06-15T11:12:21Z</time>
  <name>TP0416</name>
</trkpt>
<trkpt lat="48.599013300" lon="9.140541600">
  <ele>444.000000</ele>
<time>2008-06-15T11:12:23Z</time>
  <name>TP0417</name>
</trkpt>
<trkpt lat="48.599026600" lon="9.140530000">
  <ele>446.000000</ele>
<time>2008-06-15T11:12:25Z</time>
  <name>TP0418</name>
</trkpt>
<trkpt lat="48.599036600" lon="9.140544900">
  <ele>447.000000</ele>
<time>2008-06-15T11:12:26Z</time>
  <name>TP0419</name>
</trkpt>
<trkpt lat="48.599049900" lon="9.140575000">
  <ele>447.000000</ele>
<time>2008-06-15T11:12:27Z</time>
  <name>TP0420</name>
</trkpt>
<trkpt lat="48.599064900" lon="9.140618300">
  <ele>447.000000</ele>
<time>2008-06-15T11:12:28Z</time>
  <name>TP0421</name>
</trkpt>
<trkpt lat="48.599113200" lon="9.140614900">
  <ele>447.000000</ele>
<time>2008-06-15T11:12:29Z</time>
  <name>TP0422</name>
</trkpt>
<trkpt lat="48.599151600" lon="9.140588300">
  <ele>447.000000</ele>
<time>2008-06-15T11:12:30Z</time>
  <name>TP0423</name>
</trkpt>
<trkpt lat="48.599188300" lon="9.140643300">
  <ele>448.000000</ele>
<time>2008-06-15T11:12:31Z</time>
  <name>TP0424</name>
</trkpt>
<trkpt lat="48.599211600" lon="9.140654900">
  <ele>448.000000</ele>
<time>2008-06-15T11:12:32Z</time>
  <name>TP0425</name>
</trkpt>
<trkpt lat="48.599224900" lon="9.140693300">
  <ele>448.000000</ele>
<time>2008-06-15T11:12:33Z</time>
  <name>TP0426</name>
</trkpt>
<trkpt lat="48.599241600" lon="9.140736600">
  <ele>448.000000</ele>
<time>2008-06-15T11:12:34Z</time>
  <name>TP0427</name>
</trkpt>
<trkpt lat="48.599274900" lon="9.140786600">
  <ele>448.000000</ele>
<time>2008-06-15T11:12:35Z</time>
  <name>TP0428</name>
</trkpt>
<trkpt lat="48.599303300" lon="9.140811600">
  <ele>447.000000</ele>
<time>2008-06-15T11:12:36Z</time>
  <name>TP0429</name>
</trkpt>
<trkpt lat="48.599310000" lon="9.140831600">
  <ele>448.000000</ele>
<time>2008-06-15T11:12:37Z</time>
  <name>TP0430</name>
</trkpt>
<trkpt lat="48.599331600" lon="9.140854900">
  <ele>448.000000</ele>
<time>2008-06-15T11:12:38Z</time>
  <name>TP0431</name>
</trkpt>
<trkpt lat="48.599355000" lon="9.140870000">
  <ele>448.000000</ele>
<time>2008-06-15T11:12:39Z</time>
  <name>TP0432</name>
</trkpt>
<trkpt lat="48.599366600" lon="9.140881600">
  <ele>448.000000</ele>
<time>2008-06-15T11:12:40Z</time>
  <name>TP0433</name>
</trkpt>
<trkpt lat="48.599376600" lon="9.140936600">
  <ele>449.000000</ele>
<time>2008-06-15T11:12:42Z</time>
  <name>TP0434</name>
</trkpt>
<trkpt lat="48.599389900" lon="9.140975000">
  <ele>449.000000</ele>
<time>2008-06-15T11:12:43Z</time>
  <name>TP0435</name>
</trkpt>
<trkpt lat="48.599431600" lon="9.141016600">
  <ele>448.000000</ele>
<time>2008-06-15T11:12:45Z</time>
  <name>TP0436</name>
</trkpt>
<trkpt lat="48.599439900" lon="9.141016600">
  <ele>448.000000</ele>
<time>2008-06-15T11:12:46Z</time>
  <name>TP0437</name>
</trkpt>
<trkpt lat="48.599451600" lon="9.141034900">
  <ele>448.000000</ele>
<time>2008-06-15T11:12:47Z</time>
  <name>TP0438</name>
</trkpt>
<trkpt lat="48.599468300" lon="9.141063300">
  <ele>448.000000</ele>
<time>2008-06-15T11:12:48Z</time>
  <name>TP0439</name>
</trkpt>
<trkpt lat="48.599481600" lon="9.141071600">
  <ele>448.000000</ele>
<time>2008-06-15T11:12:49Z</time>
  <name>TP0440</name>
</trkpt>
<trkpt lat="48.599499900" lon="9.141119900">
  <ele>448.000000</ele>
<time>2008-06-15T11:12:50Z</time>
  <name>TP0441</name>
</trkpt>
<trkpt lat="48.599535000" lon="9.141228300">
  <ele>449.000000</ele>
<time>2008-06-15T11:12:52Z</time>
  <name>TP0442</name>
</trkpt>
<trkpt lat="48.599559900" lon="9.141294900">
  <ele>449.000000</ele>
<time>2008-06-15T11:12:53Z</time>
  <name>TP0443</name>
</trkpt>
<trkpt lat="48.599605000" lon="9.141350000">
  <ele>448.000000</ele>
<time>2008-06-15T11:12:54Z</time>
  <name>TP0444</name>
</trkpt>
<trkpt lat="48.599631600" lon="9.141431600">
  <ele>448.000000</ele>
<time>2008-06-15T11:12:55Z</time>
  <name>TP0445</name>
</trkpt>
<trkpt lat="48.599649900" lon="9.141506600">
  <ele>448.000000</ele>
<time>2008-06-15T11:12:56Z</time>
  <name>TP0446</name>
</trkpt>
<trkpt lat="48.599679900" lon="9.141546600">
  <ele>448.000000</ele>
<time>2008-06-15T11:12:57Z</time>
  <name>TP0447</name>
</trkpt>
<trkpt lat="48.599709900" lon="9.141608300">
  <ele>448.000000</ele>
<time>2008-06-15T11:12:58Z</time>
  <name>TP0448</name>
</trkpt>
<trkpt lat="48.599760000" lon="9.141735000">
  <ele>448.000000</ele>
<time>2008-06-15T11:13:00Z</time>
  <name>TP0449</name>
</trkpt>
<trkpt lat="48.599800000" lon="9.141889900">
  <ele>448.000000</ele>
<time>2008-06-15T11:13:02Z</time>
  <name>TP0450</name>
</trkpt>
<trkpt lat="48.599854900" lon="9.141931600">
  <ele>448.000000</ele>
<time>2008-06-15T11:13:03Z</time>
  <name>TP0451</name>
</trkpt>
<trkpt lat="48.599885000" lon="9.142061600">
  <ele>448.000000</ele>
<time>2008-06-15T11:13:05Z</time>
  <name>TP0452</name>
</trkpt>
<trkpt lat="48.599896600" lon="9.142099900">
  <ele>448.000000</ele>
<time>2008-06-15T11:13:06Z</time>
  <name>TP0453</name>
</trkpt>
<trkpt lat="48.599955000" lon="9.142151600">
  <ele>448.000000</ele>
<time>2008-06-15T11:13:07Z</time>
  <name>TP0454</name>
</trkpt>
<trkpt lat="48.600026600" lon="9.142268300">
  <ele>450.000000</ele>
<time>2008-06-15T11:13:09Z</time>
  <name>TP0455</name>
</trkpt>
<trkpt lat="48.600053200" lon="9.142310000">
  <ele>450.000000</ele>
<time>2008-06-15T11:13:10Z</time>
  <name>TP0456</name>
</trkpt>
<trkpt lat="48.600080000" lon="9.142339900">
  <ele>450.000000</ele>
<time>2008-06-15T11:13:11Z</time>
  <name>TP0457</name>
</trkpt>
<trkpt lat="48.600128300" lon="9.142415000">
  <ele>450.000000</ele>
<time>2008-06-15T11:13:13Z</time>
  <name>TP0458</name>
</trkpt>
<trkpt lat="48.600151600" lon="9.142413300">
  <ele>450.000000</ele>
<time>2008-06-15T11:13:14Z</time>
  <name>TP0459</name>
</trkpt>
<trkpt lat="48.600171600" lon="9.142463300">
  <ele>450.000000</ele>
<time>2008-06-15T11:13:15Z</time>
  <name>TP0460</name>
</trkpt>
<trkpt lat="48.600181600" lon="9.142456600">
  <ele>449.000000</ele>
<time>2008-06-15T11:13:16Z</time>
  <name>TP0461</name>
</trkpt>
<trkpt lat="48.600199900" lon="9.142471600">
  <ele>449.000000</ele>
<time>2008-06-15T11:13:17Z</time>
  <name>TP0462</name>
</trkpt>
<trkpt lat="48.600211600" lon="9.142485000">
  <ele>448.000000</ele>
<time>2008-06-15T11:13:18Z</time>
  <name>TP0463</name>
</trkpt>
<trkpt lat="48.600218300" lon="9.142506600">
  <ele>448.000000</ele>
<time>2008-06-15T11:13:19Z</time>
  <name>TP0464</name>
</trkpt>
<trkpt lat="48.600224900" lon="9.142530000">
  <ele>447.000000</ele>
<time>2008-06-15T11:13:20Z</time>
  <name>TP0465</name>
</trkpt>
<trkpt lat="48.600238300" lon="9.142559900">
  <ele>446.000000</ele>
<time>2008-06-15T11:13:21Z</time>
  <name>TP0466</name>
</trkpt>
<trkpt lat="48.600256600" lon="9.142654900">
  <ele>445.000000</ele>
<time>2008-06-15T11:13:23Z</time>
  <name>TP0467</name>
</trkpt>
<trkpt lat="48.600308300" lon="9.142825000">
  <ele>444.000000</ele>
<time>2008-06-15T11:13:26Z</time>
  <name>TP0468</name>
</trkpt>
<trkpt lat="48.600333200" lon="9.142876600">
  <ele>444.000000</ele>
<time>2008-06-15T11:13:27Z</time>
  <name>TP0469</name>
</trkpt>
<trkpt lat="48.600350000" lon="9.142921600">
  <ele>443.000000</ele>
<time>2008-06-15T11:13:28Z</time>
  <name>TP0470</name>
</trkpt>
<trkpt lat="48.600343300" lon="9.142949900">
  <ele>442.000000</ele>
<time>2008-06-15T11:13:29Z</time>
  <name>TP0471</name>
</trkpt>
<trkpt lat="48.600351600" lon="9.143096600">
  <ele>440.000000</ele>
<time>2008-06-15T11:13:34Z</time>
  <name>TP0472</name>
</trkpt>
<trkpt lat="48.600369900" lon="9.143136600">
  <ele>440.000000</ele>
<time>2008-06-15T11:13:36Z</time>
  <name>TP0473</name>
</trkpt>
<trkpt lat="48.600386600" lon="9.143159900">
  <ele>440.000000</ele>
<time>2008-06-15T11:13:37Z</time>
  <name>TP0474</name>
</trkpt>
<trkpt lat="48.600341600" lon="9.143198300">
  <ele>440.000000</ele>
<time>2008-06-15T11:13:39Z</time>
  <name>TP0475</name>
</trkpt>
<trkpt lat="48.600344900" lon="9.143204900">
  <ele>440.000000</ele>
<time>2008-06-15T11:13:40Z</time>
  <name>TP0476</name>
</trkpt>
<trkpt lat="48.600361600" lon="9.143329900">
  <ele>439.000000</ele>
<time>2008-06-15T11:13:41Z</time>
  <name>TP0477</name>
</trkpt>
<trkpt lat="48.600328300" lon="9.143376600">
  <ele>439.000000</ele>
<time>2008-06-15T11:13:42Z</time>
  <name>TP0478</name>
</trkpt>
<trkpt lat="48.600301600" lon="9.143445000">
  <ele>438.000000</ele>
<time>2008-06-15T11:13:43Z</time>
  <name>TP0479</name>
</trkpt>
<trkpt lat="48.600316600" lon="9.143471600">
  <ele>438.000000</ele>
<time>2008-06-15T11:13:44Z</time>
  <name>TP0480</name>
</trkpt>
<trkpt lat="48.600313300" lon="9.143503300">
  <ele>437.000000</ele>
<time>2008-06-15T11:13:45Z</time>
  <name>TP0481</name>
</trkpt>
<trkpt lat="48.600314900" lon="9.143521600">
  <ele>436.000000</ele>
<time>2008-06-15T11:13:46Z</time>
  <name>TP0482</name>
</trkpt>
<trkpt lat="48.600335000" lon="9.143576600">
  <ele>436.000000</ele>
<time>2008-06-15T11:13:47Z</time>
  <name>TP0483</name>
</trkpt>
<trkpt lat="48.600324900" lon="9.143583300">
  <ele>435.000000</ele>
<time>2008-06-15T11:13:48Z</time>
  <name>TP0484</name>
</trkpt>
<trkpt lat="48.600303300" lon="9.143578300">
  <ele>436.000000</ele>
<time>2008-06-15T11:13:50Z</time>
  <name>TP0485</name>
</trkpt>
<trkpt lat="48.600311600" lon="9.143624900">
  <ele>437.000000</ele>
<time>2008-06-15T11:13:52Z</time>
  <name>TP0486</name>
</trkpt>
<trkpt lat="48.600296600" lon="9.143595000">
  <ele>438.000000</ele>
<time>2008-06-15T11:13:53Z</time>
  <name>TP0487</name>
</trkpt>
<trkpt lat="48.600314900" lon="9.143663300">
  <ele>439.000000</ele>
<time>2008-06-15T11:13:55Z</time>
  <name>TP0488</name>
</trkpt>
<trkpt lat="48.600311600" lon="9.143679900">
  <ele>440.000000</ele>
<time>2008-06-15T11:13:56Z</time>
  <name>TP0489</name>
</trkpt>
<trkpt lat="48.600309900" lon="9.143714900">
  <ele>440.000000</ele>
<time>2008-06-15T11:13:57Z</time>
  <name>TP0490</name>
</trkpt>
<trkpt lat="48.600301600" lon="9.143748300">
  <ele>440.000000</ele>
<time>2008-06-15T11:13:59Z</time>
  <name>TP0491</name>
</trkpt>
<trkpt lat="48.600305000" lon="9.143769900">
  <ele>441.000000</ele>
<time>2008-06-15T11:14:00Z</time>
  <name>TP0492</name>
</trkpt>
<trkpt lat="48.600313300" lon="9.143816600">
  <ele>440.000000</ele>
<time>2008-06-15T11:14:01Z</time>
  <name>TP0493</name>
</trkpt>
<trkpt lat="48.600320000" lon="9.143909900">
  <ele>441.000000</ele>
<time>2008-06-15T11:14:03Z</time>
  <name>TP0494</name>
</trkpt>
<trkpt lat="48.600350000" lon="9.143935000">
  <ele>440.000000</ele>
<time>2008-06-15T11:14:05Z</time>
  <name>TP0495</name>
</trkpt>
<trkpt lat="48.600356600" lon="9.143954900">
  <ele>439.000000</ele>
<time>2008-06-15T11:14:06Z</time>
  <name>TP0496</name>
</trkpt>
<trkpt lat="48.600358300" lon="9.144038300">
  <ele>438.000000</ele>
<time>2008-06-15T11:14:08Z</time>
  <name>TP0497</name>
</trkpt>
<trkpt lat="48.600358300" lon="9.144065000">
  <ele>438.000000</ele>
<time>2008-06-15T11:14:09Z</time>
  <name>TP0498</name>
</trkpt>
<trkpt lat="48.600361600" lon="9.144088300">
  <ele>438.000000</ele>
<time>2008-06-15T11:14:10Z</time>
  <name>TP0499</name>
</trkpt>
<trkpt lat="48.600311600" lon="9.144024900">
  <ele>439.000000</ele>
<time>2008-06-15T11:14:12Z</time>
  <name>TP0500</name>
</trkpt>
<trkpt lat="48.600301600" lon="9.144075000">
  <ele>440.000000</ele>
<time>2008-06-15T11:14:13Z</time>
  <name>TP0501</name>
</trkpt>
<trkpt lat="48.600314900" lon="9.144128300">
  <ele>440.000000</ele>
<time>2008-06-15T11:14:14Z</time>
  <name>TP0502</name>
</trkpt>
<trkpt lat="48.600309900" lon="9.144153300">
  <ele>441.000000</ele>
<time>2008-06-15T11:14:15Z</time>
  <name>TP0503</name>
</trkpt>
<trkpt lat="48.600308300" lon="9.144173300">
  <ele>442.000000</ele>
<time>2008-06-15T11:14:16Z</time>
  <name>TP0504</name>
</trkpt>
<trkpt lat="48.600333200" lon="9.144241600">
  <ele>444.000000</ele>
<time>2008-06-15T11:14:18Z</time>
  <name>TP0505</name>
</trkpt>
<trkpt lat="48.600351600" lon="9.144291600">
  <ele>444.000000</ele>
<time>2008-06-15T11:14:19Z</time>
  <name>TP0506</name>
</trkpt>
<trkpt lat="48.600356600" lon="9.144300000">
  <ele>446.000000</ele>
<time>2008-06-15T11:14:20Z</time>
  <name>TP0507</name>
</trkpt>
<trkpt lat="48.600379900" lon="9.144363300">
  <ele>446.000000</ele>
<time>2008-06-15T11:14:21Z</time>
  <name>TP0508</name>
</trkpt>
<trkpt lat="48.600383300" lon="9.144434900">
  <ele>447.000000</ele>
<time>2008-06-15T11:14:22Z</time>
  <name>TP0509</name>
</trkpt>
<trkpt lat="48.600414900" lon="9.144501600">
  <ele>447.000000</ele>
<time>2008-06-15T11:14:23Z</time>
  <name>TP0510</name>
</trkpt>
<trkpt lat="48.600431600" lon="9.144524900">
  <ele>446.000000</ele>
<time>2008-06-15T11:14:24Z</time>
  <name>TP0511</name>
</trkpt>
<trkpt lat="48.600468300" lon="9.144599900">
  <ele>446.000000</ele>
<time>2008-06-15T11:14:27Z</time>
  <name>TP0512</name>
</trkpt>
<trkpt lat="48.600464900" lon="9.144611600">
  <ele>446.000000</ele>
<time>2008-06-15T11:14:28Z</time>
  <name>TP0513</name>
</trkpt>
<trkpt lat="48.600453300" lon="9.144638300">
  <ele>446.000000</ele>
<time>2008-06-15T11:14:29Z</time>
  <name>TP0514</name>
</trkpt>
<trkpt lat="48.600448300" lon="9.144644900">
  <ele>445.000000</ele>
<time>2008-06-15T11:14:30Z</time>
  <name>TP0515</name>
</trkpt>
<trkpt lat="48.600445000" lon="9.144681600">
  <ele>445.000000</ele>
<time>2008-06-15T11:14:31Z</time>
  <name>TP0516</name>
</trkpt>
<trkpt lat="48.600469900" lon="9.144730000">
  <ele>444.000000</ele>
<time>2008-06-15T11:14:32Z</time>
  <name>TP0517</name>
</trkpt>
<trkpt lat="48.600471600" lon="9.144763300">
  <ele>445.000000</ele>
<time>2008-06-15T11:14:33Z</time>
  <name>TP0518</name>
</trkpt>
<trkpt lat="48.600486600" lon="9.144868300">
  <ele>443.000000</ele>
<time>2008-06-15T11:14:35Z</time>
  <name>TP0519</name>
</trkpt>
<trkpt lat="48.600479900" lon="9.144901600">
  <ele>443.000000</ele>
<time>2008-06-15T11:14:36Z</time>
  <name>TP0520</name>
</trkpt>
<trkpt lat="48.600448300" lon="9.144943300">
  <ele>443.000000</ele>
<time>2008-06-15T11:14:37Z</time>
  <name>TP0521</name>
</trkpt>
<trkpt lat="48.600449900" lon="9.144959900">
  <ele>443.000000</ele>
<time>2008-06-15T11:14:38Z</time>
  <name>TP0522</name>
</trkpt>
<trkpt lat="48.600443300" lon="9.144996600">
  <ele>443.000000</ele>
<time>2008-06-15T11:14:39Z</time>
  <name>TP0523</name>
</trkpt>
<trkpt lat="48.600439900" lon="9.145046600">
  <ele>443.000000</ele>
<time>2008-06-15T11:14:40Z</time>
  <name>TP0524</name>
</trkpt>
<trkpt lat="48.600434900" lon="9.145056600">
  <ele>443.000000</ele>
<time>2008-06-15T11:14:41Z</time>
  <name>TP0525</name>
</trkpt>
<trkpt lat="48.600423300" lon="9.145073300">
  <ele>443.000000</ele>
<time>2008-06-15T11:14:42Z</time>
  <name>TP0526</name>
</trkpt>
<trkpt lat="48.600403200" lon="9.145079900">
  <ele>443.000000</ele>
<time>2008-06-15T11:14:43Z</time>
  <name>TP0527</name>
</trkpt>
<trkpt lat="48.600414900" lon="9.145116600">
  <ele>443.000000</ele>
<time>2008-06-15T11:14:44Z</time>
  <name>TP0528</name>
</trkpt>
<trkpt lat="48.600445000" lon="9.145186600">
  <ele>443.000000</ele>
<time>2008-06-15T11:14:45Z</time>
  <name>TP0529</name>
</trkpt>
<trkpt lat="48.600449900" lon="9.145254900">
  <ele>443.000000</ele>
<time>2008-06-15T11:14:46Z</time>
  <name>TP0530</name>
</trkpt>
<trkpt lat="48.600443300" lon="9.145280000">
  <ele>443.000000</ele>
<time>2008-06-15T11:14:47Z</time>
  <name>TP0531</name>
</trkpt>
<trkpt lat="48.600433300" lon="9.145294900">
  <ele>443.000000</ele>
<time>2008-06-15T11:14:48Z</time>
  <name>TP0532</name>
</trkpt>
<trkpt lat="48.600403200" lon="9.145334900">
  <ele>442.000000</ele>
<time>2008-06-15T11:14:49Z</time>
  <name>TP0533</name>
</trkpt>
<trkpt lat="48.600386600" lon="9.145371600">
  <ele>442.000000</ele>
<time>2008-06-15T11:14:50Z</time>
  <name>TP0534</name>
</trkpt>
<trkpt lat="48.600411600" lon="9.145424900">
  <ele>442.000000</ele>
<time>2008-06-15T11:14:51Z</time>
  <name>TP0535</name>
</trkpt>
<trkpt lat="48.600414900" lon="9.145436600">
  <ele>442.000000</ele>
<time>2008-06-15T11:14:53Z</time>
  <name>TP0536</name>
</trkpt>
<trkpt lat="48.600443300" lon="9.145454900">
  <ele>444.000000</ele>
<time>2008-06-15T11:14:57Z</time>
  <name>TP0537</name>
</trkpt>
<trkpt lat="48.600491600" lon="9.145583300">
  <ele>445.000000</ele>
<time>2008-06-15T11:15:00Z</time>
  <name>TP0538</name>
</trkpt>
<trkpt lat="48.600491600" lon="9.145655000">
  <ele>445.000000</ele>
<time>2008-06-15T11:15:01Z</time>
  <name>TP0539</name>
</trkpt>
<trkpt lat="48.600486600" lon="9.145723300">
  <ele>445.000000</ele>
<time>2008-06-15T11:15:02Z</time>
  <name>TP0540</name>
</trkpt>
<trkpt lat="48.600466600" lon="9.145828300">
  <ele>445.000000</ele>
<time>2008-06-15T11:15:04Z</time>
  <name>TP0541</name>
</trkpt>
<trkpt lat="48.600464900" lon="9.145858300">
  <ele>445.000000</ele>
<time>2008-06-15T11:15:05Z</time>
  <name>TP0542</name>
</trkpt>
<trkpt lat="48.600473200" lon="9.145846600">
  <ele>445.000000</ele>
<time>2008-06-15T11:15:06Z</time>
  <name>TP0543</name>
</trkpt>
<trkpt lat="48.600469900" lon="9.145841600">
  <ele>444.000000</ele>
<time>2008-06-15T11:15:07Z</time>
  <name>TP0544</name>
</trkpt>
<trkpt lat="48.600469900" lon="9.145868300">
  <ele>444.000000</ele>
<time>2008-06-15T11:15:08Z</time>
  <name>TP0545</name>
</trkpt>
<trkpt lat="48.600460000" lon="9.145883300">
  <ele>444.000000</ele>
<time>2008-06-15T11:15:09Z</time>
  <name>TP0546</name>
</trkpt>
<trkpt lat="48.600466600" lon="9.145950000">
  <ele>444.000000</ele>
<time>2008-06-15T11:15:10Z</time>
  <name>TP0547</name>
</trkpt>
<trkpt lat="48.600475000" lon="9.146021600">
  <ele>444.000000</ele>
<time>2008-06-15T11:15:11Z</time>
  <name>TP0548</name>
</trkpt>
<trkpt lat="48.600494900" lon="9.146071600">
  <ele>444.000000</ele>
<time>2008-06-15T11:15:12Z</time>
  <name>TP0549</name>
</trkpt>
<trkpt lat="48.600479900" lon="9.146096600">
  <ele>444.000000</ele>
<time>2008-06-15T11:15:13Z</time>
  <name>TP0550</name>
</trkpt>
<trkpt lat="48.600490000" lon="9.146093300">
  <ele>444.000000</ele>
<time>2008-06-15T11:15:14Z</time>
  <name>TP0551</name>
</trkpt>
<trkpt lat="48.600506600" lon="9.146148300">
  <ele>444.000000</ele>
<time>2008-06-15T11:15:15Z</time>
  <name>TP0552</name>
</trkpt>
<trkpt lat="48.600501600" lon="9.146178300">
  <ele>444.000000</ele>
<time>2008-06-15T11:15:16Z</time>
  <name>TP0553</name>
</trkpt>
<trkpt lat="48.600499900" lon="9.146181600">
  <ele>445.000000</ele>
<time>2008-06-15T11:15:17Z</time>
  <name>TP0554</name>
</trkpt>
<trkpt lat="48.600503300" lon="9.146178300">
  <ele>445.000000</ele>
<time>2008-06-15T11:15:18Z</time>
  <name>TP0555</name>
</trkpt>
<trkpt lat="48.600508300" lon="9.146199900">
  <ele>446.000000</ele>
<time>2008-06-15T11:15:19Z</time>
  <name>TP0556</name>
</trkpt>
<trkpt lat="48.600508300" lon="9.146249900">
  <ele>446.000000</ele>
<time>2008-06-15T11:15:20Z</time>
  <name>TP0557</name>
</trkpt>
<trkpt lat="48.600521600" lon="9.146259900">
  <ele>446.000000</ele>
<time>2008-06-15T11:15:21Z</time>
  <name>TP0558</name>
</trkpt>
<trkpt lat="48.600513300" lon="9.146283300">
  <ele>446.000000</ele>
<time>2008-06-15T11:15:22Z</time>
  <name>TP0559</name>
</trkpt>
<trkpt lat="48.600513300" lon="9.146293300">
  <ele>447.000000</ele>
<time>2008-06-15T11:15:23Z</time>
  <name>TP0560</name>
</trkpt>
<trkpt lat="48.600536600" lon="9.146323300">
  <ele>447.000000</ele>
<time>2008-06-15T11:15:24Z</time>
  <name>TP0561</name>
</trkpt>
<trkpt lat="48.600543200" lon="9.146371600">
  <ele>447.000000</ele>
<time>2008-06-15T11:15:25Z</time>
  <name>TP0562</name>
</trkpt>
<trkpt lat="48.600548300" lon="9.146481600">
  <ele>447.000000</ele>
<time>2008-06-15T11:15:27Z</time>
  <name>TP0563</name>
</trkpt>
<trkpt lat="48.600553300" lon="9.146521600">
  <ele>446.000000</ele>
<time>2008-06-15T11:15:28Z</time>
  <name>TP0564</name>
</trkpt>
<trkpt lat="48.600533300" lon="9.146570000">
  <ele>446.000000</ele>
<time>2008-06-15T11:15:29Z</time>
  <name>TP0565</name>
</trkpt>
<trkpt lat="48.600545000" lon="9.146603300">
  <ele>446.000000</ele>
<time>2008-06-15T11:15:30Z</time>
  <name>TP0566</name>
</trkpt>
<trkpt lat="48.600511600" lon="9.146659900">
  <ele>445.000000</ele>
<time>2008-06-15T11:15:32Z</time>
  <name>TP0567</name>
</trkpt>
<trkpt lat="48.600504900" lon="9.146706600">
  <ele>445.000000</ele>
<time>2008-06-15T11:15:33Z</time>
  <name>TP0568</name>
</trkpt>
<trkpt lat="48.600521600" lon="9.146748300">
  <ele>444.000000</ele>
<time>2008-06-15T11:15:34Z</time>
  <name>TP0569</name>
</trkpt>
<trkpt lat="48.600551600" lon="9.146829900">
  <ele>444.000000</ele>
<time>2008-06-15T11:15:36Z</time>
  <name>TP0570</name>
</trkpt>
<trkpt lat="48.600589900" lon="9.146899900">
  <ele>444.000000</ele>
<time>2008-06-15T11:15:37Z</time>
  <name>TP0571</name>
</trkpt>
<trkpt lat="48.600568300" lon="9.146933300">
  <ele>444.000000</ele>
<time>2008-06-15T11:15:38Z</time>
  <name>TP0572</name>
</trkpt>
<trkpt lat="48.600588300" lon="9.146956600">
  <ele>443.000000</ele>
<time>2008-06-15T11:15:39Z</time>
  <name>TP0573</name>
</trkpt>
<trkpt lat="48.600600000" lon="9.147001600">
  <ele>443.000000</ele>
<time>2008-06-15T11:15:41Z</time>
  <name>TP0574</name>
</trkpt>
<trkpt lat="48.600603300" lon="9.147034900">
  <ele>443.000000</ele>
<time>2008-06-15T11:15:43Z</time>
  <name>TP0575</name>
</trkpt>
<trkpt lat="48.600618300" lon="9.147079900">
  <ele>443.000000</ele>
<time>2008-06-15T11:15:44Z</time>
  <name>TP0576</name>
</trkpt>
<trkpt lat="48.600615000" lon="9.147096600">
  <ele>444.000000</ele>
<time>2008-06-15T11:15:45Z</time>
  <name>TP0577</name>
</trkpt>
<trkpt lat="48.600653300" lon="9.147128300">
  <ele>444.000000</ele>
<time>2008-06-15T11:15:47Z</time>
  <name>TP0578</name>
</trkpt>
<trkpt lat="48.600670000" lon="9.147126600">
  <ele>445.000000</ele>
<time>2008-06-15T11:15:48Z</time>
  <name>TP0579</name>
</trkpt>
<trkpt lat="48.600656600" lon="9.147165000">
  <ele>445.000000</ele>
<time>2008-06-15T11:15:49Z</time>
  <name>TP0580</name>
</trkpt>
<trkpt lat="48.600628200" lon="9.147193300">
  <ele>445.000000</ele>
<time>2008-06-15T11:15:51Z</time>
  <name>TP0581</name>
</trkpt>
<trkpt lat="48.600619900" lon="9.147239900">
  <ele>444.000000</ele>
<time>2008-06-15T11:15:52Z</time>
  <name>TP0582</name>
</trkpt>
<trkpt lat="48.600624900" lon="9.147323300">
  <ele>443.000000</ele>
<time>2008-06-15T11:15:54Z</time>
  <name>TP0583</name>
</trkpt>
<trkpt lat="48.600648300" lon="9.147330000">
  <ele>443.000000</ele>
<time>2008-06-15T11:15:55Z</time>
  <name>TP0584</name>
</trkpt>
<trkpt lat="48.600646600" lon="9.147389900">
  <ele>443.000000</ele>
<time>2008-06-15T11:15:57Z</time>
  <name>TP0585</name>
</trkpt>
<trkpt lat="48.600664900" lon="9.147416600">
  <ele>442.000000</ele>
<time>2008-06-15T11:15:58Z</time>
  <name>TP0586</name>
</trkpt>
<trkpt lat="48.600663300" lon="9.147368300">
  <ele>444.000000</ele>
<time>2008-06-15T11:15:59Z</time>
  <name>TP0587</name>
</trkpt>
<trkpt lat="48.600678300" lon="9.147368300">
  <ele>446.000000</ele>
<time>2008-06-15T11:16:00Z</time>
  <name>TP0588</name>
</trkpt>
<trkpt lat="48.600655000" lon="9.147413300">
  <ele>445.000000</ele>
<time>2008-06-15T11:16:01Z</time>
  <name>TP0589</name>
</trkpt>
<trkpt lat="48.600644900" lon="9.147456600">
  <ele>445.000000</ele>
<time>2008-06-15T11:16:02Z</time>
  <name>TP0590</name>
</trkpt>
<trkpt lat="48.600655000" lon="9.147446600">
  <ele>446.000000</ele>
<time>2008-06-15T11:16:03Z</time>
  <name>TP0591</name>
</trkpt>
<trkpt lat="48.600666600" lon="9.147441600">
  <ele>446.000000</ele>
<time>2008-06-15T11:16:04Z</time>
  <name>TP0592</name>
</trkpt>
<trkpt lat="48.600664900" lon="9.147505000">
  <ele>448.000000</ele>
<time>2008-06-15T11:16:06Z</time>
  <name>TP0593</name>
</trkpt>
<trkpt lat="48.600644900" lon="9.147554900">
  <ele>447.000000</ele>
<time>2008-06-15T11:16:07Z</time>
  <name>TP0594</name>
</trkpt>
<trkpt lat="48.600653300" lon="9.147589900">
  <ele>446.000000</ele>
<time>2008-06-15T11:16:08Z</time>
  <name>TP0595</name>
</trkpt>
<trkpt lat="48.600701600" lon="9.147683300">
  <ele>444.000000</ele>
<time>2008-06-15T11:16:12Z</time>
  <name>TP0596</name>
</trkpt>
<trkpt lat="48.600694900" lon="9.147684900">
  <ele>444.000000</ele>
<time>2008-06-15T11:16:13Z</time>
  <name>TP0597</name>
</trkpt>
<trkpt lat="48.600685000" lon="9.147686600">
  <ele>444.000000</ele>
<time>2008-06-15T11:16:14Z</time>
  <name>TP0598</name>
</trkpt>
<trkpt lat="48.600683200" lon="9.147693300">
  <ele>444.000000</ele>
<time>2008-06-15T11:16:15Z</time>
  <name>TP0599</name>
</trkpt>
<trkpt lat="48.600678300" lon="9.147736600">
  <ele>444.000000</ele>
<time>2008-06-15T11:16:17Z</time>
  <name>TP0600</name>
</trkpt>
<trkpt lat="48.600673300" lon="9.147756600">
  <ele>444.000000</ele>
<time>2008-06-15T11:16:18Z</time>
  <name>TP0601</name>
</trkpt>
<trkpt lat="48.600693300" lon="9.147769900">
  <ele>443.000000</ele>
<time>2008-06-15T11:16:19Z</time>
  <name>TP0602</name>
</trkpt>
<trkpt lat="48.600716600" lon="9.147785000">
  <ele>443.000000</ele>
<time>2008-06-15T11:16:20Z</time>
  <name>TP0603</name>
</trkpt>
<trkpt lat="48.600719900" lon="9.147801600">
  <ele>443.000000</ele>
<time>2008-06-15T11:16:21Z</time>
  <name>TP0604</name>
</trkpt>
<trkpt lat="48.600718300" lon="9.147811600">
  <ele>443.000000</ele>
<time>2008-06-15T11:16:22Z</time>
  <name>TP0605</name>
</trkpt>
<trkpt lat="48.600693300" lon="9.147901600">
  <ele>442.000000</ele>
<time>2008-06-15T11:16:24Z</time>
  <name>TP0606</name>
</trkpt>
<trkpt lat="48.600728300" lon="9.147933300">
  <ele>442.000000</ele>
<time>2008-06-15T11:16:25Z</time>
  <name>TP0607</name>
</trkpt>
<trkpt lat="48.600759900" lon="9.147964900">
  <ele>442.000000</ele>
<time>2008-06-15T11:16:26Z</time>
  <name>TP0608</name>
</trkpt>
<trkpt lat="48.600753200" lon="9.148010000">
  <ele>443.000000</ele>
<time>2008-06-15T11:16:28Z</time>
  <name>TP0609</name>
</trkpt>
<trkpt lat="48.600753200" lon="9.148086600">
  <ele>443.000000</ele>
<time>2008-06-15T11:16:30Z</time>
  <name>TP0610</name>
</trkpt>
<trkpt lat="48.600789900" lon="9.148094900">
  <ele>443.000000</ele>
<time>2008-06-15T11:16:31Z</time>
  <name>TP0611</name>
</trkpt>
<trkpt lat="48.600799900" lon="9.148099900">
  <ele>443.000000</ele>
<time>2008-06-15T11:16:32Z</time>
  <name>TP0612</name>
</trkpt>
<trkpt lat="48.600799900" lon="9.148123300">
  <ele>443.000000</ele>
<time>2008-06-15T11:16:33Z</time>
  <name>TP0613</name>
</trkpt>
<trkpt lat="48.600803300" lon="9.148169900">
  <ele>444.000000</ele>
<time>2008-06-15T11:16:34Z</time>
  <name>TP0614</name>
</trkpt>
<trkpt lat="48.600818300" lon="9.148174900">
  <ele>444.000000</ele>
<time>2008-06-15T11:16:35Z</time>
  <name>TP0615</name>
</trkpt>
<trkpt lat="48.600795000" lon="9.148158300">
  <ele>445.000000</ele>
<time>2008-06-15T11:16:36Z</time>
  <name>TP0616</name>
</trkpt>
<trkpt lat="48.600791600" lon="9.148196600">
  <ele>446.000000</ele>
<time>2008-06-15T11:16:37Z</time>
  <name>TP0617</name>
</trkpt>
<trkpt lat="48.600818300" lon="9.148209900">
  <ele>446.000000</ele>
<time>2008-06-15T11:16:38Z</time>
  <name>TP0618</name>
</trkpt>
<trkpt lat="48.600811600" lon="9.148268300">
  <ele>447.000000</ele>
<time>2008-06-15T11:16:40Z</time>
  <name>TP0619</name>
</trkpt>
<trkpt lat="48.600806600" lon="9.148269900">
  <ele>447.000000</ele>
<time>2008-06-15T11:16:41Z</time>
  <name>TP0620</name>
</trkpt>
<trkpt lat="48.600799900" lon="9.148314900">
  <ele>447.000000</ele>
<time>2008-06-15T11:16:42Z</time>
  <name>TP0621</name>
</trkpt>
<trkpt lat="48.600819900" lon="9.148370000">
  <ele>447.000000</ele>
<time>2008-06-15T11:16:43Z</time>
  <name>TP0622</name>
</trkpt>
<trkpt lat="48.600846600" lon="9.148451600">
  <ele>448.000000</ele>
<time>2008-06-15T11:16:44Z</time>
  <name>TP0623</name>
</trkpt>
<trkpt lat="48.600844900" lon="9.148466600">
  <ele>448.000000</ele>
<time>2008-06-15T11:16:45Z</time>
  <name>TP0624</name>
</trkpt>
<trkpt lat="48.600866600" lon="9.148525000">
  <ele>449.000000</ele>
<time>2008-06-15T11:16:46Z</time>
  <name>TP0625</name>
</trkpt>
<trkpt lat="48.600874900" lon="9.148568300">
  <ele>449.000000</ele>
<time>2008-06-15T11:16:47Z</time>
  <name>TP0626</name>
</trkpt>
<trkpt lat="48.600893200" lon="9.148588300">
  <ele>449.000000</ele>
<time>2008-06-15T11:16:48Z</time>
  <name>TP0627</name>
</trkpt>
<trkpt lat="48.600899900" lon="9.148605000">
  <ele>449.000000</ele>
<time>2008-06-15T11:16:49Z</time>
  <name>TP0628</name>
</trkpt>
<trkpt lat="48.600921600" lon="9.148691600">
  <ele>450.000000</ele>
<time>2008-06-15T11:16:51Z</time>
  <name>TP0629</name>
</trkpt>
<trkpt lat="48.600919900" lon="9.148729900">
  <ele>450.000000</ele>
<time>2008-06-15T11:16:52Z</time>
  <name>TP0630</name>
</trkpt>
<trkpt lat="48.600913300" lon="9.148770000">
  <ele>450.000000</ele>
<time>2008-06-15T11:16:53Z</time>
  <name>TP0631</name>
</trkpt>
<trkpt lat="48.600906600" lon="9.148801600">
  <ele>450.000000</ele>
<time>2008-06-15T11:16:54Z</time>
  <name>TP0632</name>
</trkpt>
<trkpt lat="48.600889900" lon="9.148788300">
  <ele>451.000000</ele>
<time>2008-06-15T11:16:55Z</time>
  <name>TP0633</name>
</trkpt>
<trkpt lat="48.600901600" lon="9.148846600">
  <ele>452.000000</ele>
<time>2008-06-15T11:16:56Z</time>
  <name>TP0634</name>
</trkpt>
<trkpt lat="48.600886600" lon="9.148848300">
  <ele>452.000000</ele>
<time>2008-06-15T11:16:57Z</time>
  <name>TP0635</name>
</trkpt>
<trkpt lat="48.600888300" lon="9.148908300">
  <ele>453.000000</ele>
<time>2008-06-15T11:17:00Z</time>
  <name>TP0636</name>
</trkpt>
<trkpt lat="48.600878200" lon="9.148961600">
  <ele>453.000000</ele>
<time>2008-06-15T11:17:01Z</time>
  <name>TP0637</name>
</trkpt>
<trkpt lat="48.600861600" lon="9.148970000">
  <ele>454.000000</ele>
<time>2008-06-15T11:17:02Z</time>
  <name>TP0638</name>
</trkpt>
<trkpt lat="48.600869900" lon="9.149018300">
  <ele>454.000000</ele>
<time>2008-06-15T11:17:03Z</time>
  <name>TP0639</name>
</trkpt>
<trkpt lat="48.600873300" lon="9.149040000">
  <ele>454.000000</ele>
<time>2008-06-15T11:17:04Z</time>
  <name>TP0640</name>
</trkpt>
<trkpt lat="48.600884900" lon="9.149123300">
  <ele>454.000000</ele>
<time>2008-06-15T11:17:05Z</time>
  <name>TP0641</name>
</trkpt>
<trkpt lat="48.600893200" lon="9.149168300">
  <ele>454.000000</ele>
<time>2008-06-15T11:17:06Z</time>
  <name>TP0642</name>
</trkpt>
<trkpt lat="48.600891600" lon="9.149219900">
  <ele>453.000000</ele>
<time>2008-06-15T11:17:07Z</time>
  <name>TP0643</name>
</trkpt>
<trkpt lat="48.600888300" lon="9.149301600">
  <ele>453.000000</ele>
<time>2008-06-15T11:17:08Z</time>
  <name>TP0644</name>
</trkpt>
<trkpt lat="48.600918300" lon="9.149353300">
  <ele>453.000000</ele>
<time>2008-06-15T11:17:09Z</time>
  <name>TP0645</name>
</trkpt>
<trkpt lat="48.600929900" lon="9.149488300">
  <ele>453.000000</ele>
<time>2008-06-15T11:17:11Z</time>
  <name>TP0646</name>
</trkpt>
<trkpt lat="48.600919900" lon="9.149586600">
  <ele>452.000000</ele>
<time>2008-06-15T11:17:13Z</time>
  <name>TP0647</name>
</trkpt>
<trkpt lat="48.600935000" lon="9.149644900">
  <ele>452.000000</ele>
<time>2008-06-15T11:17:14Z</time>
  <name>TP0648</name>
</trkpt>
<trkpt lat="48.600939900" lon="9.149781600">
  <ele>451.000000</ele>
<time>2008-06-15T11:17:16Z</time>
  <name>TP0649</name>
</trkpt>
<trkpt lat="48.600936600" lon="9.149839900">
  <ele>451.000000</ele>
<time>2008-06-15T11:17:17Z</time>
  <name>TP0650</name>
</trkpt>
<trkpt lat="48.600906600" lon="9.149901600">
  <ele>450.000000</ele>
<time>2008-06-15T11:17:18Z</time>
  <name>TP0651</name>
</trkpt>
<trkpt lat="48.600913300" lon="9.149991600">
  <ele>449.000000</ele>
<time>2008-06-15T11:17:19Z</time>
  <name>TP0652</name>
</trkpt>
<trkpt lat="48.600911600" lon="9.150076600">
  <ele>449.000000</ele>
<time>2008-06-15T11:17:20Z</time>
  <name>TP0653</name>
</trkpt>
<trkpt lat="48.600935000" lon="9.150113300">
  <ele>449.000000</ele>
<time>2008-06-15T11:17:21Z</time>
  <name>TP0654</name>
</trkpt>
<trkpt lat="48.600939900" lon="9.150166600">
  <ele>449.000000</ele>
<time>2008-06-15T11:17:22Z</time>
  <name>TP0655</name>
</trkpt>
<trkpt lat="48.600953300" lon="9.150201600">
  <ele>449.000000</ele>
<time>2008-06-15T11:17:23Z</time>
  <name>TP0656</name>
</trkpt>
<trkpt lat="48.600913300" lon="9.150293300">
  <ele>448.000000</ele>
<time>2008-06-15T11:17:24Z</time>
  <name>TP0657</name>
</trkpt>
<trkpt lat="48.600914900" lon="9.150354900">
  <ele>448.000000</ele>
<time>2008-06-15T11:17:25Z</time>
  <name>TP0658</name>
</trkpt>
<trkpt lat="48.600904900" lon="9.150413300">
  <ele>449.000000</ele>
<time>2008-06-15T11:17:26Z</time>
  <name>TP0659</name>
</trkpt>
<trkpt lat="48.600908200" lon="9.150465000">
  <ele>448.000000</ele>
<time>2008-06-15T11:17:27Z</time>
  <name>TP0660</name>
</trkpt>
<trkpt lat="48.600908200" lon="9.150465000">
  <ele>448.000000</ele>
<time>2008-06-15T11:17:28Z</time>
  <name>TP0661</name>
</trkpt>
<trkpt lat="48.600923300" lon="9.150491600">
  <ele>448.000000</ele>
<time>2008-06-15T11:17:29Z</time>
  <name>TP0662</name>
</trkpt>
<trkpt lat="48.600948200" lon="9.150538300">
  <ele>448.000000</ele>
<time>2008-06-15T11:17:30Z</time>
  <name>TP0663</name>
</trkpt>
<trkpt lat="48.600958300" lon="9.150576600">
  <ele>447.000000</ele>
<time>2008-06-15T11:17:31Z</time>
  <name>TP0664</name>
</trkpt>
<trkpt lat="48.600971600" lon="9.150636600">
  <ele>447.000000</ele>
<time>2008-06-15T11:17:32Z</time>
  <name>TP0665</name>
</trkpt>
<trkpt lat="48.600989900" lon="9.150726600">
  <ele>447.000000</ele>
<time>2008-06-15T11:17:33Z</time>
  <name>TP0666</name>
</trkpt>
<trkpt lat="48.601011600" lon="9.150795000">
  <ele>447.000000</ele>
<time>2008-06-15T11:17:35Z</time>
  <name>TP0667</name>
</trkpt>
<trkpt lat="48.601028300" lon="9.150811600">
  <ele>447.000000</ele>
<time>2008-06-15T11:17:36Z</time>
  <name>TP0668</name>
</trkpt>
<trkpt lat="48.601046600" lon="9.150881600">
  <ele>446.000000</ele>
<time>2008-06-15T11:17:37Z</time>
  <name>TP0669</name>
</trkpt>
<trkpt lat="48.601046600" lon="9.150946600">
  <ele>446.000000</ele>
<time>2008-06-15T11:17:38Z</time>
  <name>TP0670</name>
</trkpt>
<trkpt lat="48.601066600" lon="9.150970000">
  <ele>446.000000</ele>
<time>2008-06-15T11:17:39Z</time>
  <name>TP0671</name>
</trkpt>
<trkpt lat="48.601056600" lon="9.151019900">
  <ele>446.000000</ele>
<time>2008-06-15T11:17:40Z</time>
  <name>TP0672</name>
</trkpt>
<trkpt lat="48.601054900" lon="9.151019900">
  <ele>446.000000</ele>
<time>2008-06-15T11:17:41Z</time>
  <name>TP0673</name>
</trkpt>
<trkpt lat="48.601088300" lon="9.151041600">
  <ele>446.000000</ele>
<time>2008-06-15T11:17:42Z</time>
  <name>TP0674</name>
</trkpt>
<trkpt lat="48.601065000" lon="9.151114900">
  <ele>446.000000</ele>
<time>2008-06-15T11:17:43Z</time>
  <name>TP0675</name>
</trkpt>
<trkpt lat="48.601126600" lon="9.151218300">
  <ele>447.000000</ele>
<time>2008-06-15T11:17:45Z</time>
  <name>TP0676</name>
</trkpt>
<trkpt lat="48.601121600" lon="9.151294900">
  <ele>447.000000</ele>
<time>2008-06-15T11:17:46Z</time>
  <name>TP0677</name>
</trkpt>
<trkpt lat="48.601108300" lon="9.151383300">
  <ele>448.000000</ele>
<time>2008-06-15T11:17:47Z</time>
  <name>TP0678</name>
</trkpt>
<trkpt lat="48.601164900" lon="9.151434900">
  <ele>447.000000</ele>
<time>2008-06-15T11:17:48Z</time>
  <name>TP0679</name>
</trkpt>
<trkpt lat="48.601163300" lon="9.151491600">
  <ele>446.000000</ele>
<time>2008-06-15T11:17:49Z</time>
  <name>TP0680</name>
</trkpt>
<trkpt lat="48.601198300" lon="9.151524900">
  <ele>446.000000</ele>
<time>2008-06-15T11:17:50Z</time>
  <name>TP0681</name>
</trkpt>
<trkpt lat="48.601186600" lon="9.151596600">
  <ele>446.000000</ele>
<time>2008-06-15T11:17:51Z</time>
  <name>TP0682</name>
</trkpt>
<trkpt lat="48.601196600" lon="9.151596600">
  <ele>446.000000</ele>
<time>2008-06-15T11:17:52Z</time>
  <name>TP0683</name>
</trkpt>
<trkpt lat="48.601211600" lon="9.151609900">
  <ele>446.000000</ele>
<time>2008-06-15T11:17:53Z</time>
  <name>TP0684</name>
</trkpt>
<trkpt lat="48.601216600" lon="9.151633300">
  <ele>446.000000</ele>
<time>2008-06-15T11:17:54Z</time>
  <name>TP0685</name>
</trkpt>
<trkpt lat="48.601228300" lon="9.151704900">
  <ele>447.000000</ele>
<time>2008-06-15T11:17:55Z</time>
  <name>TP0686</name>
</trkpt>
<trkpt lat="48.601261600" lon="9.151808300">
  <ele>447.000000</ele>
<time>2008-06-15T11:17:57Z</time>
  <name>TP0687</name>
</trkpt>
<trkpt lat="48.601268300" lon="9.151829900">
  <ele>446.000000</ele>
<time>2008-06-15T11:17:58Z</time>
  <name>TP0688</name>
</trkpt>
<trkpt lat="48.601278300" lon="9.151858300">
  <ele>446.000000</ele>
<time>2008-06-15T11:17:59Z</time>
  <name>TP0689</name>
</trkpt>
<trkpt lat="48.601288300" lon="9.151911600">
  <ele>445.000000</ele>
<time>2008-06-15T11:18:00Z</time>
  <name>TP0690</name>
</trkpt>
<trkpt lat="48.601311600" lon="9.151966600">
  <ele>445.000000</ele>
<time>2008-06-15T11:18:01Z</time>
  <name>TP0691</name>
</trkpt>
<trkpt lat="48.601319900" lon="9.152033300">
  <ele>445.000000</ele>
<time>2008-06-15T11:18:02Z</time>
  <name>TP0692</name>
</trkpt>
<trkpt lat="48.601326600" lon="9.152091600">
  <ele>446.000000</ele>
<time>2008-06-15T11:18:03Z</time>
  <name>TP0693</name>
</trkpt>
<trkpt lat="48.601321600" lon="9.152140000">
  <ele>446.000000</ele>
<time>2008-06-15T11:18:04Z</time>
  <name>TP0694</name>
</trkpt>
<trkpt lat="48.601316600" lon="9.152189900">
  <ele>446.000000</ele>
<time>2008-06-15T11:18:05Z</time>
  <name>TP0695</name>
</trkpt>
<trkpt lat="48.601356600" lon="9.152311600">
  <ele>446.000000</ele>
<time>2008-06-15T11:18:06Z</time>
  <name>TP0696</name>
</trkpt>
<trkpt lat="48.601396600" lon="9.152478300">
  <ele>445.000000</ele>
<time>2008-06-15T11:18:09Z</time>
  <name>TP0697</name>
</trkpt>
<trkpt lat="48.601393300" lon="9.152579900">
  <ele>443.000000</ele>
<time>2008-06-15T11:18:11Z</time>
  <name>TP0698</name>
</trkpt>
<trkpt lat="48.601398200" lon="9.152709900">
  <ele>442.000000</ele>
<time>2008-06-15T11:18:13Z</time>
  <name>TP0699</name>
</trkpt>
<trkpt lat="48.601396600" lon="9.152766600">
  <ele>441.000000</ele>
<time>2008-06-15T11:18:14Z</time>
  <name>TP0700</name>
</trkpt>
<trkpt lat="48.601394900" lon="9.152828300">
  <ele>440.000000</ele>
<time>2008-06-15T11:18:15Z</time>
  <name>TP0701</name>
</trkpt>
<trkpt lat="48.601359900" lon="9.153100000">
  <ele>438.000000</ele>
<time>2008-06-15T11:18:18Z</time>
  <name>TP0702</name>
</trkpt>
<trkpt lat="48.601383200" lon="9.153193300">
  <ele>438.000000</ele>
<time>2008-06-15T11:18:19Z</time>
  <name>TP0703</name>
</trkpt>
<trkpt lat="48.601416600" lon="9.153291600">
  <ele>438.000000</ele>
<time>2008-06-15T11:18:20Z</time>
  <name>TP0704</name>
</trkpt>
<trkpt lat="48.601398200" lon="9.153343300">
  <ele>437.000000</ele>
<time>2008-06-15T11:18:21Z</time>
  <name>TP0705</name>
</trkpt>
<trkpt lat="48.601374900" lon="9.153533300">
  <ele>436.000000</ele>
<time>2008-06-15T11:18:24Z</time>
  <name>TP0706</name>
</trkpt>
<trkpt lat="48.601359900" lon="9.153586600">
  <ele>436.000000</ele>
<time>2008-06-15T11:18:25Z</time>
  <name>TP0707</name>
</trkpt>
<trkpt lat="48.601345000" lon="9.153644900">
  <ele>435.000000</ele>
<time>2008-06-15T11:18:26Z</time>
  <name>TP0708</name>
</trkpt>
<trkpt lat="48.601313200" lon="9.153809900">
  <ele>434.000000</ele>
<time>2008-06-15T11:18:29Z</time>
  <name>TP0709</name>
</trkpt>
<trkpt lat="48.601309900" lon="9.153858300">
  <ele>433.000000</ele>
<time>2008-06-15T11:18:30Z</time>
  <name>TP0710</name>
</trkpt>
<trkpt lat="48.601303300" lon="9.153941600">
  <ele>433.000000</ele>
<time>2008-06-15T11:18:32Z</time>
  <name>TP0711</name>
</trkpt>
<trkpt lat="48.601304900" lon="9.154063300">
  <ele>432.000000</ele>
<time>2008-06-15T11:18:35Z</time>
  <name>TP0712</name>
</trkpt>
<trkpt lat="48.601301600" lon="9.154136600">
  <ele>432.000000</ele>
<time>2008-06-15T11:18:36Z</time>
  <name>TP0713</name>
</trkpt>
<trkpt lat="48.601319900" lon="9.154188300">
  <ele>431.000000</ele>
<time>2008-06-15T11:18:37Z</time>
  <name>TP0714</name>
</trkpt>
<trkpt lat="48.601339900" lon="9.154241600">
  <ele>430.000000</ele>
<time>2008-06-15T11:18:38Z</time>
  <name>TP0715</name>
</trkpt>
<trkpt lat="48.601388300" lon="9.154283300">
  <ele>430.000000</ele>
<time>2008-06-15T11:18:39Z</time>
  <name>TP0716</name>
</trkpt>
<trkpt lat="48.601448300" lon="9.154314900">
  <ele>429.000000</ele>
<time>2008-06-15T11:18:40Z</time>
  <name>TP0717</name>
</trkpt>
<trkpt lat="48.601483300" lon="9.154359900">
  <ele>430.000000</ele>
<time>2008-06-15T11:18:41Z</time>
  <name>TP0718</name>
</trkpt>
<trkpt lat="48.601474900" lon="9.154463300">
  <ele>429.000000</ele>
<time>2008-06-15T11:18:42Z</time>
  <name>TP0719</name>
</trkpt>
<trkpt lat="48.601463300" lon="9.154558300">
  <ele>429.000000</ele>
<time>2008-06-15T11:18:43Z</time>
  <name>TP0720</name>
</trkpt>
<trkpt lat="48.601498300" lon="9.154683300">
  <ele>428.000000</ele>
<time>2008-06-15T11:18:45Z</time>
  <name>TP0721</name>
</trkpt>
<trkpt lat="48.601503300" lon="9.154740000">
  <ele>427.000000</ele>
<time>2008-06-15T11:18:46Z</time>
  <name>TP0722</name>
</trkpt>
<trkpt lat="48.601513300" lon="9.154789900">
  <ele>427.000000</ele>
<time>2008-06-15T11:18:47Z</time>
  <name>TP0723</name>
</trkpt>
<trkpt lat="48.601540000" lon="9.154855000">
  <ele>426.000000</ele>
<time>2008-06-15T11:18:48Z</time>
  <name>TP0724</name>
</trkpt>
<trkpt lat="48.601536600" lon="9.154961600">
  <ele>427.000000</ele>
<time>2008-06-15T11:18:49Z</time>
  <name>TP0725</name>
</trkpt>
<trkpt lat="48.601606600" lon="9.155109900">
  <ele>427.000000</ele>
<time>2008-06-15T11:18:51Z</time>
  <name>TP0726</name>
</trkpt>
<trkpt lat="48.601613300" lon="9.155166600">
  <ele>427.000000</ele>
<time>2008-06-15T11:18:52Z</time>
  <name>TP0727</name>
</trkpt>
<trkpt lat="48.601631600" lon="9.155214900">
  <ele>427.000000</ele>
<time>2008-06-15T11:18:53Z</time>
  <name>TP0728</name>
</trkpt>
<trkpt lat="48.601661600" lon="9.155428300">
  <ele>427.000000</ele>
<time>2008-06-15T11:18:57Z</time>
  <name>TP0729</name>
</trkpt>
<trkpt lat="48.601688300" lon="9.155476600">
  <ele>427.000000</ele>
<time>2008-06-15T11:18:59Z</time>
  <name>TP0730</name>
</trkpt>
<trkpt lat="48.601738300" lon="9.155648300">
  <ele>428.000000</ele>
<time>2008-06-15T11:19:03Z</time>
  <name>TP0731</name>
</trkpt>
<trkpt lat="48.601751600" lon="9.155819900">
  <ele>429.000000</ele>
<time>2008-06-15T11:19:06Z</time>
  <name>TP0732</name>
</trkpt>
<trkpt lat="48.601773300" lon="9.155959900">
  <ele>429.000000</ele>
<time>2008-06-15T11:19:10Z</time>
  <name>TP0733</name>
</trkpt>
<trkpt lat="48.601783300" lon="9.156044900">
  <ele>429.000000</ele>
<time>2008-06-15T11:19:12Z</time>
  <name>TP0734</name>
</trkpt>
<trkpt lat="48.601779900" lon="9.156046600">
  <ele>430.000000</ele>
<time>2008-06-15T11:19:13Z</time>
  <name>TP0735</name>
</trkpt>
<trkpt lat="48.601773300" lon="9.156081600">
  <ele>430.000000</ele>
<time>2008-06-15T11:19:15Z</time>
  <name>TP0736</name>
</trkpt>
<trkpt lat="48.601756600" lon="9.156124900">
  <ele>430.000000</ele>
<time>2008-06-15T11:19:16Z</time>
  <name>TP0737</name>
</trkpt>
<trkpt lat="48.601748200" lon="9.156258300">
  <ele>430.000000</ele>
<time>2008-06-15T11:19:18Z</time>
  <name>TP0738</name>
</trkpt>
<trkpt lat="48.601709900" lon="9.156348300">
  <ele>430.000000</ele>
<time>2008-06-15T11:19:20Z</time>
  <name>TP0739</name>
</trkpt>
<trkpt lat="48.601680000" lon="9.156481600">
  <ele>431.000000</ele>
<time>2008-06-15T11:19:23Z</time>
  <name>TP0740</name>
</trkpt>
<trkpt lat="48.601643300" lon="9.156598300">
  <ele>431.000000</ele>
<time>2008-06-15T11:19:25Z</time>
  <name>TP0741</name>
</trkpt>
<trkpt lat="48.601633300" lon="9.156686600">
  <ele>431.000000</ele>
<time>2008-06-15T11:19:26Z</time>
  <name>TP0742</name>
</trkpt>
<trkpt lat="48.601589900" lon="9.156788300">
  <ele>432.000000</ele>
<time>2008-06-15T11:19:28Z</time>
  <name>TP0743</name>
</trkpt>
<trkpt lat="48.601376600" lon="9.157566600">
  <ele>433.000000</ele>
<time>2008-06-15T11:19:38Z</time>
  <name>TP0744</name>
</trkpt>
<trkpt lat="48.601341600" lon="9.157616600">
  <ele>434.000000</ele>
<time>2008-06-15T11:19:39Z</time>
  <name>TP0745</name>
</trkpt>
<trkpt lat="48.601233300" lon="9.157908300">
  <ele>435.000000</ele>
<time>2008-06-15T11:19:44Z</time>
  <name>TP0746</name>
</trkpt>
<trkpt lat="48.601205000" lon="9.158023300">
  <ele>435.000000</ele>
<time>2008-06-15T11:19:46Z</time>
  <name>TP0747</name>
</trkpt>
<trkpt lat="48.601184900" lon="9.158116600">
  <ele>435.000000</ele>
<time>2008-06-15T11:19:48Z</time>
  <name>TP0748</name>
</trkpt>
<trkpt lat="48.601176600" lon="9.158153300">
  <ele>435.000000</ele>
<time>2008-06-15T11:19:49Z</time>
  <name>TP0749</name>
</trkpt>
<trkpt lat="48.601164900" lon="9.158186600">
  <ele>435.000000</ele>
<time>2008-06-15T11:19:50Z</time>
  <name>TP0750</name>
</trkpt>
<trkpt lat="48.601168300" lon="9.158216600">
  <ele>435.000000</ele>
<time>2008-06-15T11:19:51Z</time>
  <name>TP0751</name>
</trkpt>
<trkpt lat="48.601175000" lon="9.158241600">
  <ele>435.000000</ele>
<time>2008-06-15T11:19:52Z</time>
  <name>TP0752</name>
</trkpt>
<trkpt lat="48.601181600" lon="9.158278300">
  <ele>435.000000</ele>
<time>2008-06-15T11:19:53Z</time>
  <name>TP0753</name>
</trkpt>
<trkpt lat="48.601181600" lon="9.158356600">
  <ele>435.000000</ele>
<time>2008-06-15T11:20:11Z</time>
  <name>TP0754</name>
</trkpt>
<trkpt lat="48.601190000" lon="9.158365000">
  <ele>435.000000</ele>
<time>2008-06-15T11:20:12Z</time>
  <name>TP0755</name>
</trkpt>
<trkpt lat="48.601203300" lon="9.158371600">
  <ele>435.000000</ele>
<time>2008-06-15T11:20:13Z</time>
  <name>TP0756</name>
</trkpt>
<trkpt lat="48.601216600" lon="9.158369900">
  <ele>435.000000</ele>
<time>2008-06-15T11:20:14Z</time>
  <name>TP0757</name>
</trkpt>
<trkpt lat="48.601234900" lon="9.158368300">
  <ele>435.000000</ele>
<time>2008-06-15T11:20:15Z</time>
  <name>TP0758</name>
</trkpt>
<trkpt lat="48.601286600" lon="9.158371600">
  <ele>435.000000</ele>
<time>2008-06-15T11:20:18Z</time>
  <name>TP0759</name>
</trkpt>
<trkpt lat="48.601330000" lon="9.158363300">
  <ele>435.000000</ele>
<time>2008-06-15T11:20:20Z</time>
  <name>TP0760</name>
</trkpt>
<trkpt lat="48.601471600" lon="9.158343300">
  <ele>435.000000</ele>
<time>2008-06-15T11:20:23Z</time>
  <name>TP0761</name>
</trkpt>
<trkpt lat="48.601543300" lon="9.158288300">
  <ele>435.000000</ele>
<time>2008-06-15T11:20:24Z</time>
  <name>TP0762</name>
</trkpt>
<trkpt lat="48.601751600" lon="9.158236600">
  <ele>435.000000</ele>
<time>2008-06-15T11:20:28Z</time>
  <name>TP0763</name>
</trkpt>
<trkpt lat="48.601960000" lon="9.158124900">
  <ele>435.000000</ele>
<time>2008-06-15T11:20:31Z</time>
  <name>TP0764</name>
</trkpt>
<trkpt lat="48.602181600" lon="9.157956600">
  <ele>435.000000</ele>
<time>2008-06-15T11:20:34Z</time>
  <name>TP0765</name>
</trkpt>
<trkpt lat="48.602291600" lon="9.157823300">
  <ele>435.000000</ele>
<time>2008-06-15T11:20:35Z</time>
  <name>TP0766</name>
</trkpt>
<trkpt lat="48.602373300" lon="9.157704900">
  <ele>435.000000</ele>
<time>2008-06-15T11:20:36Z</time>
  <name>TP0767</name>
</trkpt>
<trkpt lat="48.602441600" lon="9.157571600">
  <ele>435.000000</ele>
<time>2008-06-15T11:20:37Z</time>
  <name>TP0768</name>
</trkpt>
<trkpt lat="48.602743200" lon="9.157031600">
  <ele>435.000000</ele>
<time>2008-06-15T11:20:41Z</time>
  <name>TP0769</name>
</trkpt>
<trkpt lat="48.603261600" lon="9.155829900">
  <ele>435.000000</ele>
<time>2008-06-15T11:20:51Z</time>
  <name>TP0770</name>
</trkpt>
<trkpt lat="48.603521600" lon="9.155093300">
  <ele>435.000000</ele>
<time>2008-06-15T11:20:58Z</time>
  <name>TP0771</name>
</trkpt>
<trkpt lat="48.603740000" lon="9.154616600">
  <ele>434.000000</ele>
<time>2008-06-15T11:21:02Z</time>
  <name>TP0772</name>
</trkpt>
<trkpt lat="48.604193300" lon="9.153616600">
  <ele>433.000000</ele>
<time>2008-06-15T11:21:11Z</time>
  <name>TP0773</name>
</trkpt>
<trkpt lat="48.604373300" lon="9.153196600">
  <ele>430.000000</ele>
<time>2008-06-15T11:21:15Z</time>
  <name>TP0774</name>
</trkpt>
<trkpt lat="48.604759900" lon="9.152471600">
  <ele>426.000000</ele>
<time>2008-06-15T11:21:22Z</time>
  <name>TP0775</name>
</trkpt>
<trkpt lat="48.604833300" lon="9.152238300">
  <ele>426.000000</ele>
<time>2008-06-15T11:21:24Z</time>
  <name>TP0776</name>
</trkpt>
<trkpt lat="48.604958200" lon="9.151883300">
  <ele>424.000000</ele>
<time>2008-06-15T11:21:28Z</time>
  <name>TP0777</name>
</trkpt>
<trkpt lat="48.605011600" lon="9.151769900">
  <ele>423.000000</ele>
<time>2008-06-15T11:21:30Z</time>
  <name>TP0778</name>
</trkpt>
<trkpt lat="48.605016600" lon="9.151790000">
  <ele>422.000000</ele>
<time>2008-06-15T11:21:31Z</time>
  <name>TP0779</name>
</trkpt>
<trkpt lat="48.604941600" lon="9.151818300">
  <ele>421.000000</ele>
<time>2008-06-15T11:21:33Z</time>
  <name>TP0780</name>
</trkpt>
<trkpt lat="48.604936600" lon="9.151804900">
  <ele>420.000000</ele>
<time>2008-06-15T11:21:34Z</time>
  <name>TP0781</name>
</trkpt>
<trkpt lat="48.604958200" lon="9.151739900">
  <ele>422.000000</ele>
<time>2008-06-15T11:21:37Z</time>
  <name>TP0782</name>
</trkpt>
<trkpt lat="48.604883300" lon="9.151691600">
  <ele>420.000000</ele>
<time>2008-06-15T11:21:38Z</time>
  <name>TP0783</name>
</trkpt>
<trkpt lat="48.604875000" lon="9.151634900">
  <ele>417.000000</ele>
<time>2008-06-15T11:21:39Z</time>
  <name>TP0784</name>
</trkpt>
<trkpt lat="48.604829900" lon="9.151593300">
  <ele>413.000000</ele>
<time>2008-06-15T11:21:41Z</time>
  <name>TP0785</name>
</trkpt>
<trkpt lat="48.604820000" lon="9.151609900">
  <ele>412.000000</ele>
<time>2008-06-15T11:21:42Z</time>
  <name>TP0786</name>
</trkpt>
<trkpt lat="48.604809900" lon="9.151569900">
  <ele>410.000000</ele>
<time>2008-06-15T11:21:45Z</time>
  <name>TP0787</name>
</trkpt>
<trkpt lat="48.604778300" lon="9.151534900">
  <ele>407.000000</ele>
<time>2008-06-15T11:21:49Z</time>
  <name>TP0788</name>
</trkpt>
<trkpt lat="48.604776600" lon="9.151563300">
  <ele>406.000000</ele>
<time>2008-06-15T11:21:50Z</time>
  <name>TP0789</name>
</trkpt>
<trkpt lat="48.604748200" lon="9.151660000">
  <ele>403.000000</ele>
<time>2008-06-15T11:21:55Z</time>
  <name>TP0790</name>
</trkpt>
<trkpt lat="48.604741600" lon="9.151671600">
  <ele>403.000000</ele>
<time>2008-06-15T11:21:56Z</time>
  <name>TP0791</name>
</trkpt>
<trkpt lat="48.604738300" lon="9.151681600">
  <ele>402.000000</ele>
<time>2008-06-15T11:21:57Z</time>
  <name>TP0792</name>
</trkpt>
<trkpt lat="48.604720000" lon="9.151716600">
  <ele>401.000000</ele>
<time>2008-06-15T11:22:01Z</time>
  <name>TP0793</name>
</trkpt>
<trkpt lat="48.604705000" lon="9.151779900">
  <ele>401.000000</ele>
<time>2008-06-15T11:22:05Z</time>
  <name>TP0794</name>
</trkpt>
<trkpt lat="48.604694900" lon="9.151801600">
  <ele>401.000000</ele>
<time>2008-06-15T11:22:06Z</time>
  <name>TP0795</name>
</trkpt>
<trkpt lat="48.604678300" lon="9.151891600">
  <ele>401.000000</ele>
<time>2008-06-15T11:22:10Z</time>
  <name>TP0796</name>
</trkpt>
<trkpt lat="48.604668300" lon="9.151914900">
  <ele>401.000000</ele>
<time>2008-06-15T11:22:11Z</time>
  <name>TP0797</name>
</trkpt>
<trkpt lat="48.604666600" lon="9.151949900">
  <ele>401.000000</ele>
<time>2008-06-15T11:22:13Z</time>
  <name>TP0798</name>
</trkpt>
<trkpt lat="48.604656600" lon="9.151966600">
  <ele>401.000000</ele>
<time>2008-06-15T11:22:14Z</time>
  <name>TP0799</name>
</trkpt>
<trkpt lat="48.604646600" lon="9.151979900">
  <ele>401.000000</ele>
<time>2008-06-15T11:22:15Z</time>
  <name>TP0800</name>
</trkpt>
<trkpt lat="48.604643300" lon="9.152003300">
  <ele>401.000000</ele>
<time>2008-06-15T11:22:16Z</time>
  <name>TP0801</name>
</trkpt>
<trkpt lat="48.604621600" lon="9.152070000">
  <ele>401.000000</ele>
<time>2008-06-15T11:22:19Z</time>
  <name>TP0802</name>
</trkpt>
<trkpt lat="48.604613300" lon="9.152098300">
  <ele>400.000000</ele>
<time>2008-06-15T11:22:22Z</time>
  <name>TP0803</name>
</trkpt>
<trkpt lat="48.604606600" lon="9.152109900">
  <ele>401.000000</ele>
<time>2008-06-15T11:22:23Z</time>
  <name>TP0804</name>
</trkpt>
<trkpt lat="48.604595000" lon="9.152143300">
  <ele>401.000000</ele>
<time>2008-06-15T11:22:25Z</time>
  <name>TP0805</name>
</trkpt>
<trkpt lat="48.604589900" lon="9.152206600">
  <ele>399.000000</ele>
<time>2008-06-15T11:22:31Z</time>
  <name>TP0806</name>
</trkpt>
<trkpt lat="48.604573300" lon="9.152273300">
  <ele>399.000000</ele>
<time>2008-06-15T11:22:34Z</time>
  <name>TP0807</name>
</trkpt>
<trkpt lat="48.604565000" lon="9.152306600">
  <ele>399.000000</ele>
<time>2008-06-15T11:22:35Z</time>
  <name>TP0808</name>
</trkpt>
<trkpt lat="48.604566600" lon="9.152321600">
  <ele>399.000000</ele>
<time>2008-06-15T11:22:36Z</time>
  <name>TP0809</name>
</trkpt>
<trkpt lat="48.604559900" lon="9.152308300">
  <ele>398.000000</ele>
<time>2008-06-15T11:22:37Z</time>
  <name>TP0810</name>
</trkpt>
<trkpt lat="48.604583300" lon="9.152283300">
  <ele>398.000000</ele>
<time>2008-06-15T11:22:38Z</time>
  <name>TP0811</name>
</trkpt>
<trkpt lat="48.604593200" lon="9.152280000">
  <ele>398.000000</ele>
<time>2008-06-15T11:22:39Z</time>
  <name>TP0812</name>
</trkpt>
<trkpt lat="48.604573300" lon="9.152263300">
  <ele>398.000000</ele>
<time>2008-06-15T11:22:43Z</time>
  <name>TP0813</name>
</trkpt>
<trkpt lat="48.604566600" lon="9.152218300">
  <ele>398.000000</ele>
<time>2008-06-15T11:22:45Z</time>
  <name>TP0814</name>
</trkpt>
<trkpt lat="48.604584900" lon="9.152124900">
  <ele>397.000000</ele>
<time>2008-06-15T11:22:49Z</time>
  <name>TP0815</name>
</trkpt>
<trkpt lat="48.604596600" lon="9.152116600">
  <ele>397.000000</ele>
<time>2008-06-15T11:22:50Z</time>
  <name>TP0816</name>
</trkpt>
<trkpt lat="48.604599900" lon="9.152098300">
  <ele>396.000000</ele>
<time>2008-06-15T11:22:52Z</time>
  <name>TP0817</name>
</trkpt>
<trkpt lat="48.604581600" lon="9.152083300">
  <ele>396.000000</ele>
<time>2008-06-15T11:23:56Z</time>
  <name>TP0818</name>
</trkpt>
<trkpt lat="48.604574900" lon="9.152091600">
  <ele>396.000000</ele>
<time>2008-06-15T11:23:57Z</time>
  <name>TP0819</name>
</trkpt>
<trkpt lat="48.604565000" lon="9.152096600">
  <ele>396.000000</ele>
<time>2008-06-15T11:23:58Z</time>
  <name>TP0820</name>
</trkpt>
<trkpt lat="48.604566600" lon="9.152103300">
  <ele>396.000000</ele>
<time>2008-06-15T11:23:59Z</time>
  <name>TP0821</name>
</trkpt>
<trkpt lat="48.604563300" lon="9.152098300">
  <ele>396.000000</ele>
<time>2008-06-15T11:24:01Z</time>
  <name>TP0822</name>
</trkpt>
<trkpt lat="48.604573300" lon="9.152093300">
  <ele>396.000000</ele>
<time>2008-06-15T11:24:02Z</time>
  <name>TP0823</name>
</trkpt>
<trkpt lat="48.604584900" lon="9.152086600">
  <ele>396.000000</ele>
<time>2008-06-15T11:24:03Z</time>
  <name>TP0824</name>
</trkpt>
<trkpt lat="48.604586600" lon="9.152071600">
  <ele>396.000000</ele>
<time>2008-06-15T11:24:04Z</time>
  <name>TP0825</name>
</trkpt>
<trkpt lat="48.604588300" lon="9.152061600">
  <ele>396.000000</ele>
<time>2008-06-15T11:24:05Z</time>
  <name>TP0826</name>
</trkpt>
<trkpt lat="48.604596600" lon="9.152038300">
  <ele>396.000000</ele>
<time>2008-06-15T11:24:06Z</time>
  <name>TP0827</name>
</trkpt>
<trkpt lat="48.604603300" lon="9.152010000">
  <ele>396.000000</ele>
<time>2008-06-15T11:24:08Z</time>
  <name>TP0828</name>
</trkpt>
<trkpt lat="48.604613300" lon="9.151991600">
  <ele>396.000000</ele>
<time>2008-06-15T11:24:09Z</time>
  <name>TP0829</name>
</trkpt>
<trkpt lat="48.604621600" lon="9.151973300">
  <ele>396.000000</ele>
<time>2008-06-15T11:24:10Z</time>
  <name>TP0830</name>
</trkpt>
<trkpt lat="48.604629900" lon="9.151946600">
  <ele>396.000000</ele>
<time>2008-06-15T11:24:11Z</time>
  <name>TP0831</name>
</trkpt>
<trkpt lat="48.604638300" lon="9.151928300">
  <ele>396.000000</ele>
<time>2008-06-15T11:24:12Z</time>
  <name>TP0832</name>
</trkpt>
<trkpt lat="48.604644900" lon="9.151911600">
  <ele>396.000000</ele>
<time>2008-06-15T11:24:13Z</time>
  <name>TP0833</name>
</trkpt>
<trkpt lat="48.604659900" lon="9.151895000">
  <ele>396.000000</ele>
<time>2008-06-15T11:24:14Z</time>
  <name>TP0834</name>
</trkpt>
<trkpt lat="48.604676600" lon="9.151876600">
  <ele>396.000000</ele>
<time>2008-06-15T11:24:15Z</time>
  <name>TP0835</name>
</trkpt>
<trkpt lat="48.604696600" lon="9.151856600">
  <ele>396.000000</ele>
<time>2008-06-15T11:24:16Z</time>
  <name>TP0836</name>
</trkpt>
<trkpt lat="48.604708300" lon="9.151833300">
  <ele>395.000000</ele>
<time>2008-06-15T11:24:17Z</time>
  <name>TP0837</name>
</trkpt>
<trkpt lat="48.604713300" lon="9.151828300">
  <ele>395.000000</ele>
<time>2008-06-15T11:24:19Z</time>
  <name>TP0838</name>
</trkpt>
<trkpt lat="48.604721600" lon="9.151823300">
  <ele>395.000000</ele>
<time>2008-06-15T11:24:20Z</time>
  <name>TP0839</name>
</trkpt>
<trkpt lat="48.604731600" lon="9.151833300">
  <ele>395.000000</ele>
<time>2008-06-15T11:24:21Z</time>
  <name>TP0840</name>
</trkpt>
<trkpt lat="48.604746600" lon="9.151844900">
  <ele>395.000000</ele>
<time>2008-06-15T11:24:23Z</time>
  <name>TP0841</name>
</trkpt>
<trkpt lat="48.604758300" lon="9.151838300">
  <ele>395.000000</ele>
<time>2008-06-15T11:24:24Z</time>
  <name>TP0842</name>
</trkpt>
<trkpt lat="48.604778300" lon="9.151835000">
  <ele>395.000000</ele>
<time>2008-06-15T11:24:25Z</time>
  <name>TP0843</name>
</trkpt>
<trkpt lat="48.604831600" lon="9.151835000">
  <ele>395.000000</ele>
<time>2008-06-15T11:24:27Z</time>
  <name>TP0844</name>
</trkpt>
<trkpt lat="48.604853300" lon="9.151826600">
  <ele>395.000000</ele>
<time>2008-06-15T11:24:28Z</time>
  <name>TP0845</name>
</trkpt>
<trkpt lat="48.604951600" lon="9.151825000">
  <ele>394.000000</ele>
<time>2008-06-15T11:24:32Z</time>
  <name>TP0846</name>
</trkpt>
<trkpt lat="48.605011600" lon="9.151861600">
  <ele>394.000000</ele>
<time>2008-06-15T11:24:35Z</time>
  <name>TP0847</name>
</trkpt>
<trkpt lat="48.605039900" lon="9.151854900">
  <ele>394.000000</ele>
<time>2008-06-15T11:24:37Z</time>
  <name>TP0848</name>
</trkpt>
<trkpt lat="48.605100000" lon="9.151858300">
  <ele>394.000000</ele>
<time>2008-06-15T11:24:41Z</time>
  <name>TP0849</name>
</trkpt>
<trkpt lat="48.605093300" lon="9.151883300">
  <ele>394.000000</ele>
<time>2008-06-15T11:24:42Z</time>
  <name>TP0850</name>
</trkpt>
<trkpt lat="48.605101600" lon="9.151913300">
  <ele>394.000000</ele>
<time>2008-06-15T11:24:44Z</time>
  <name>TP0851</name>
</trkpt>
<trkpt lat="48.605086600" lon="9.151991600">
  <ele>394.000000</ele>
<time>2008-06-15T11:24:48Z</time>
  <name>TP0852</name>
</trkpt>
<trkpt lat="48.605059900" lon="9.152054900">
  <ele>394.000000</ele>
<time>2008-06-15T11:24:50Z</time>
  <name>TP0853</name>
</trkpt>
<trkpt lat="48.605044900" lon="9.152141600">
  <ele>395.000000</ele>
<time>2008-06-15T11:24:52Z</time>
  <name>TP0854</name>
</trkpt>
<trkpt lat="48.605018300" lon="9.152251600">
  <ele>395.000000</ele>
<time>2008-06-15T11:24:55Z</time>
  <name>TP0855</name>
</trkpt>
<trkpt lat="48.604988300" lon="9.152364900">
  <ele>395.000000</ele>
<time>2008-06-15T11:24:57Z</time>
  <name>TP0856</name>
</trkpt>
<trkpt lat="48.605000000" lon="9.152451600">
  <ele>395.000000</ele>
<time>2008-06-15T11:24:59Z</time>
  <name>TP0857</name>
</trkpt>
<trkpt lat="48.605015000" lon="9.152604900">
  <ele>395.000000</ele>
<time>2008-06-15T11:25:02Z</time>
  <name>TP0858</name>
</trkpt>
<trkpt lat="48.605039900" lon="9.152718300">
  <ele>395.000000</ele>
<time>2008-06-15T11:25:04Z</time>
  <name>TP0859</name>
</trkpt>
<trkpt lat="48.605064900" lon="9.152826600">
  <ele>395.000000</ele>
<time>2008-06-15T11:25:06Z</time>
  <name>TP0860</name>
</trkpt>
<trkpt lat="48.605088300" lon="9.153031600">
  <ele>395.000000</ele>
<time>2008-06-15T11:25:09Z</time>
  <name>TP0861</name>
</trkpt>
<trkpt lat="48.605121600" lon="9.153111600">
  <ele>395.000000</ele>
<time>2008-06-15T11:25:11Z</time>
  <name>TP0862</name>
</trkpt>
<trkpt lat="48.605123300" lon="9.153199900">
  <ele>395.000000</ele>
<time>2008-06-15T11:25:12Z</time>
  <name>TP0863</name>
</trkpt>
<trkpt lat="48.605155000" lon="9.153218300">
  <ele>395.000000</ele>
<time>2008-06-15T11:25:13Z</time>
  <name>TP0864</name>
</trkpt>
<trkpt lat="48.605149900" lon="9.153328300">
  <ele>395.000000</ele>
<time>2008-06-15T11:25:14Z</time>
  <name>TP0865</name>
</trkpt>
<trkpt lat="48.605228300" lon="9.153421600">
  <ele>395.000000</ele>
<time>2008-06-15T11:25:16Z</time>
  <name>TP0866</name>
</trkpt>
<trkpt lat="48.605266600" lon="9.153469900">
  <ele>395.000000</ele>
<time>2008-06-15T11:25:17Z</time>
  <name>TP0867</name>
</trkpt>
<trkpt lat="48.605293200" lon="9.153666600">
  <ele>395.000000</ele>
<time>2008-06-15T11:25:19Z</time>
  <name>TP0868</name>
</trkpt>
<trkpt lat="48.605326600" lon="9.153776600">
  <ele>395.000000</ele>
<time>2008-06-15T11:25:21Z</time>
  <name>TP0869</name>
</trkpt>
<trkpt lat="48.605389900" lon="9.153808300">
  <ele>395.000000</ele>
<time>2008-06-15T11:25:22Z</time>
  <name>TP0870</name>
</trkpt>
<trkpt lat="48.605420000" lon="9.153949900">
  <ele>395.000000</ele>
<time>2008-06-15T11:25:24Z</time>
  <name>TP0871</name>
</trkpt>
<trkpt lat="48.605521600" lon="9.154256600">
  <ele>394.000000</ele>
<time>2008-06-15T11:25:29Z</time>
  <name>TP0872</name>
</trkpt>
<trkpt lat="48.605561600" lon="9.154446600">
  <ele>394.000000</ele>
<time>2008-06-15T11:25:33Z</time>
  <name>TP0873</name>
</trkpt>
<trkpt lat="48.605553300" lon="9.154498300">
  <ele>395.000000</ele>
<time>2008-06-15T11:25:34Z</time>
  <name>TP0874</name>
</trkpt>
<trkpt lat="48.605554900" lon="9.154596600">
  <ele>395.000000</ele>
<time>2008-06-15T11:25:36Z</time>
  <name>TP0875</name>
</trkpt>
<trkpt lat="48.605618300" lon="9.154668300">
  <ele>395.000000</ele>
<time>2008-06-15T11:25:38Z</time>
  <name>TP0876</name>
</trkpt>
<trkpt lat="48.605713200" lon="9.154833300">
  <ele>394.000000</ele>
<time>2008-06-15T11:25:42Z</time>
  <name>TP0877</name>
</trkpt>
<trkpt lat="48.605804900" lon="9.155139900">
  <ele>393.000000</ele>
<time>2008-06-15T11:25:49Z</time>
  <name>TP0878</name>
</trkpt>
<trkpt lat="48.605829900" lon="9.155256600">
  <ele>393.000000</ele>
<time>2008-06-15T11:25:52Z</time>
  <name>TP0879</name>
</trkpt>
<trkpt lat="48.605851600" lon="9.155413300">
  <ele>392.000000</ele>
<time>2008-06-15T11:25:57Z</time>
  <name>TP0880</name>
</trkpt>
<trkpt lat="48.605848300" lon="9.155434900">
  <ele>392.000000</ele>
<time>2008-06-15T11:25:58Z</time>
  <name>TP0881</name>
</trkpt>
<trkpt lat="48.605870000" lon="9.155488300">
  <ele>392.000000</ele>
<time>2008-06-15T11:26:00Z</time>
  <name>TP0882</name>
</trkpt>
<trkpt lat="48.605904900" lon="9.155618300">
  <ele>391.000000</ele>
<time>2008-06-15T11:26:07Z</time>
  <name>TP0883</name>
</trkpt>
<trkpt lat="48.605898300" lon="9.155781600">
  <ele>391.000000</ele>
<time>2008-06-15T11:26:10Z</time>
  <name>TP0884</name>
</trkpt>
<trkpt lat="48.605885000" lon="9.155879900">
  <ele>391.000000</ele>
<time>2008-06-15T11:26:12Z</time>
  <name>TP0885</name>
</trkpt>
<trkpt lat="48.605891600" lon="9.155921600">
  <ele>391.000000</ele>
<time>2008-06-15T11:26:13Z</time>
  <name>TP0886</name>
</trkpt>
<trkpt lat="48.605886600" lon="9.155991600">
  <ele>391.000000</ele>
<time>2008-06-15T11:26:15Z</time>
  <name>TP0887</name>
</trkpt>
<trkpt lat="48.605883200" lon="9.156039900">
  <ele>391.000000</ele>
<time>2008-06-15T11:26:16Z</time>
  <name>TP0888</name>
</trkpt>
<trkpt lat="48.605861600" lon="9.156130000">
  <ele>391.000000</ele>
<time>2008-06-15T11:26:18Z</time>
  <name>TP0889</name>
</trkpt>
<trkpt lat="48.605853200" lon="9.156196600">
  <ele>390.000000</ele>
<time>2008-06-15T11:26:19Z</time>
  <name>TP0890</name>
</trkpt>
<trkpt lat="48.605815000" lon="9.156376600">
  <ele>390.000000</ele>
<time>2008-06-15T11:26:22Z</time>
  <name>TP0891</name>
</trkpt>
<trkpt lat="48.605770000" lon="9.156426600">
  <ele>390.000000</ele>
<time>2008-06-15T11:26:23Z</time>
  <name>TP0892</name>
</trkpt>
<trkpt lat="48.605708300" lon="9.156516600">
  <ele>390.000000</ele>
<time>2008-06-15T11:26:25Z</time>
  <name>TP0893</name>
</trkpt>
<trkpt lat="48.605593300" lon="9.156740000">
  <ele>390.000000</ele>
<time>2008-06-15T11:26:29Z</time>
  <name>TP0894</name>
</trkpt>
<trkpt lat="48.605498300" lon="9.157014900">
  <ele>389.000000</ele>
<time>2008-06-15T11:26:33Z</time>
  <name>TP0895</name>
</trkpt>
<trkpt lat="48.605386600" lon="9.157403300">
  <ele>389.000000</ele>
<time>2008-06-15T11:26:38Z</time>
  <name>TP0896</name>
</trkpt>
<trkpt lat="48.605263300" lon="9.158069900">
  <ele>389.000000</ele>
<time>2008-06-15T11:26:46Z</time>
  <name>TP0897</name>
</trkpt>
<trkpt lat="48.605244900" lon="9.158121600">
  <ele>389.000000</ele>
<time>2008-06-15T11:26:47Z</time>
  <name>TP0898</name>
</trkpt>
<trkpt lat="48.605225000" lon="9.158168300">
  <ele>389.000000</ele>
<time>2008-06-15T11:26:48Z</time>
  <name>TP0899</name>
</trkpt>
<trkpt lat="48.605221600" lon="9.158250000">
  <ele>389.000000</ele>
<time>2008-06-15T11:26:49Z</time>
  <name>TP0900</name>
</trkpt>
<trkpt lat="48.605161600" lon="9.158533300">
  <ele>389.000000</ele>
<time>2008-06-15T11:26:56Z</time>
  <name>TP0901</name>
</trkpt>
<trkpt lat="48.605138200" lon="9.158561600">
  <ele>389.000000</ele>
<time>2008-06-15T11:26:57Z</time>
  <name>TP0902</name>
</trkpt>
<trkpt lat="48.605128300" lon="9.158641600">
  <ele>389.000000</ele>
<time>2008-06-15T11:27:00Z</time>
  <name>TP0903</name>
</trkpt>
<trkpt lat="48.605103300" lon="9.158693300">
  <ele>389.000000</ele>
<time>2008-06-15T11:27:02Z</time>
  <name>TP0904</name>
</trkpt>
<trkpt lat="48.605071600" lon="9.158756600">
  <ele>389.000000</ele>
<time>2008-06-15T11:27:04Z</time>
  <name>TP0905</name>
</trkpt>
<trkpt lat="48.605064900" lon="9.158839900">
  <ele>390.000000</ele>
<time>2008-06-15T11:27:06Z</time>
  <name>TP0906</name>
</trkpt>
<trkpt lat="48.604994900" lon="9.159011600">
  <ele>390.000000</ele>
<time>2008-06-15T11:27:09Z</time>
  <name>TP0907</name>
</trkpt>
<trkpt lat="48.604973300" lon="9.159181600">
  <ele>391.000000</ele>
<time>2008-06-15T11:27:11Z</time>
  <name>TP0908</name>
</trkpt>
<trkpt lat="48.604973300" lon="9.159238300">
  <ele>391.000000</ele>
<time>2008-06-15T11:27:12Z</time>
  <name>TP0909</name>
</trkpt>
<trkpt lat="48.604960000" lon="9.159304900">
  <ele>391.000000</ele>
<time>2008-06-15T11:27:13Z</time>
  <name>TP0910</name>
</trkpt>
<trkpt lat="48.604928200" lon="9.159439900">
  <ele>392.000000</ele>
<time>2008-06-15T11:27:15Z</time>
  <name>TP0911</name>
</trkpt>
<trkpt lat="48.604908300" lon="9.159488300">
  <ele>392.000000</ele>
<time>2008-06-15T11:27:16Z</time>
  <name>TP0912</name>
</trkpt>
<trkpt lat="48.604878300" lon="9.159588300">
  <ele>393.000000</ele>
<time>2008-06-15T11:27:18Z</time>
  <name>TP0913</name>
</trkpt>
<trkpt lat="48.604873200" lon="9.159831600">
  <ele>394.000000</ele>
<time>2008-06-15T11:27:21Z</time>
  <name>TP0914</name>
</trkpt>
<trkpt lat="48.604866600" lon="9.160254900">
  <ele>395.000000</ele>
<time>2008-06-15T11:27:27Z</time>
  <name>TP0915</name>
</trkpt>
<trkpt lat="48.604875000" lon="9.160584900">
  <ele>395.000000</ele>
<time>2008-06-15T11:27:32Z</time>
  <name>TP0916</name>
</trkpt>
<trkpt lat="48.604891600" lon="9.160644900">
  <ele>395.000000</ele>
<time>2008-06-15T11:27:33Z</time>
  <name>TP0917</name>
</trkpt>
<trkpt lat="48.604915000" lon="9.160755000">
  <ele>395.000000</ele>
<time>2008-06-15T11:27:35Z</time>
  <name>TP0918</name>
</trkpt>
<trkpt lat="48.604888200" lon="9.160969900">
  <ele>395.000000</ele>
<time>2008-06-15T11:27:38Z</time>
  <name>TP0919</name>
</trkpt>
<trkpt lat="48.604876600" lon="9.161101600">
  <ele>395.000000</ele>
<time>2008-06-15T11:27:40Z</time>
  <name>TP0920</name>
</trkpt>
<trkpt lat="48.604869900" lon="9.161158300">
  <ele>394.000000</ele>
<time>2008-06-15T11:27:41Z</time>
  <name>TP0921</name>
</trkpt>
<trkpt lat="48.604846600" lon="9.161281600">
  <ele>394.000000</ele>
<time>2008-06-15T11:27:43Z</time>
  <name>TP0922</name>
</trkpt>
<trkpt lat="48.604831600" lon="9.161344900">
  <ele>394.000000</ele>
<time>2008-06-15T11:27:44Z</time>
  <name>TP0923</name>
</trkpt>
<trkpt lat="48.604829900" lon="9.161386600">
  <ele>394.000000</ele>
<time>2008-06-15T11:27:45Z</time>
  <name>TP0924</name>
</trkpt>
<trkpt lat="48.604816600" lon="9.161445000">
  <ele>394.000000</ele>
<time>2008-06-15T11:27:46Z</time>
  <name>TP0925</name>
</trkpt>
<trkpt lat="48.604821600" lon="9.161586600">
  <ele>395.000000</ele>
<time>2008-06-15T11:27:49Z</time>
  <name>TP0926</name>
</trkpt>
<trkpt lat="48.604803200" lon="9.161641600">
  <ele>396.000000</ele>
<time>2008-06-15T11:27:50Z</time>
  <name>TP0927</name>
</trkpt>
<trkpt lat="48.604811600" lon="9.161673300">
  <ele>396.000000</ele>
<time>2008-06-15T11:27:51Z</time>
  <name>TP0928</name>
</trkpt>
<trkpt lat="48.604826600" lon="9.161716600">
  <ele>396.000000</ele>
<time>2008-06-15T11:27:52Z</time>
  <name>TP0929</name>
</trkpt>
<trkpt lat="48.604816600" lon="9.161831600">
  <ele>397.000000</ele>
<time>2008-06-15T11:27:54Z</time>
  <name>TP0930</name>
</trkpt>
<trkpt lat="48.604794900" lon="9.161909900">
  <ele>397.000000</ele>
<time>2008-06-15T11:27:55Z</time>
  <name>TP0931</name>
</trkpt>
<trkpt lat="48.604793300" lon="9.161978300">
  <ele>397.000000</ele>
<time>2008-06-15T11:27:56Z</time>
  <name>TP0932</name>
</trkpt>
<trkpt lat="48.604801600" lon="9.162041600">
  <ele>398.000000</ele>
<time>2008-06-15T11:27:57Z</time>
  <name>TP0933</name>
</trkpt>
<trkpt lat="48.604790000" lon="9.162256600">
  <ele>398.000000</ele>
<time>2008-06-15T11:27:59Z</time>
  <name>TP0934</name>
</trkpt>
<trkpt lat="48.604748200" lon="9.162396600">
  <ele>398.000000</ele>
<time>2008-06-15T11:28:00Z</time>
  <name>TP0935</name>
</trkpt>
<trkpt lat="48.604759900" lon="9.162804900">
  <ele>398.000000</ele>
<time>2008-06-15T11:28:04Z</time>
  <name>TP0936</name>
</trkpt>
<trkpt lat="48.604813300" lon="9.162839900">
  <ele>398.000000</ele>
<time>2008-06-15T11:28:05Z</time>
  <name>TP0937</name>
</trkpt>
<trkpt lat="48.604899900" lon="9.162886600">
  <ele>399.000000</ele>
<time>2008-06-15T11:28:06Z</time>
  <name>TP0938</name>
</trkpt>
<trkpt lat="48.605023300" lon="9.163249900">
  <ele>398.000000</ele>
<time>2008-06-15T11:28:11Z</time>
  <name>TP0939</name>
</trkpt>
<trkpt lat="48.605079900" lon="9.163626600">
  <ele>397.000000</ele>
<time>2008-06-15T11:28:16Z</time>
  <name>TP0940</name>
</trkpt>
<trkpt lat="48.605193300" lon="9.164521600">
  <ele>394.000000</ele>
<time>2008-06-15T11:28:28Z</time>
  <name>TP0941</name>
</trkpt>
<trkpt lat="48.605256600" lon="9.164621600">
  <ele>394.000000</ele>
<time>2008-06-15T11:28:32Z</time>
  <name>TP0942</name>
</trkpt>
<trkpt lat="48.605286600" lon="9.164761600">
  <ele>393.000000</ele>
<time>2008-06-15T11:28:40Z</time>
  <name>TP0943</name>
</trkpt>
<trkpt lat="48.605286600" lon="9.164858300">
  <ele>393.000000</ele>
<time>2008-06-15T11:28:45Z</time>
  <name>TP0944</name>
</trkpt>
<trkpt lat="48.605273300" lon="9.164918300">
  <ele>392.000000</ele>
<time>2008-06-15T11:28:47Z</time>
  <name>TP0945</name>
</trkpt>
<trkpt lat="48.605268300" lon="9.164958300">
  <ele>392.000000</ele>
<time>2008-06-15T11:28:49Z</time>
  <name>TP0946</name>
</trkpt>
<trkpt lat="48.605278300" lon="9.164980000">
  <ele>392.000000</ele>
<time>2008-06-15T11:28:50Z</time>
  <name>TP0947</name>
</trkpt>
<trkpt lat="48.605278300" lon="9.165038300">
  <ele>391.000000</ele>
<time>2008-06-15T11:28:52Z</time>
  <name>TP0948</name>
</trkpt>
<trkpt lat="48.605284900" lon="9.165143300">
  <ele>391.000000</ele>
<time>2008-06-15T11:28:55Z</time>
  <name>TP0949</name>
</trkpt>
<trkpt lat="48.605291600" lon="9.165183300">
  <ele>391.000000</ele>
<time>2008-06-15T11:28:56Z</time>
  <name>TP0950</name>
</trkpt>
<trkpt lat="48.605288300" lon="9.165218300">
  <ele>391.000000</ele>
<time>2008-06-15T11:28:57Z</time>
  <name>TP0951</name>
</trkpt>
<trkpt lat="48.605288300" lon="9.165394900">
  <ele>390.000000</ele>
<time>2008-06-15T11:29:02Z</time>
  <name>TP0952</name>
</trkpt>
<trkpt lat="48.605278300" lon="9.165418300">
  <ele>390.000000</ele>
<time>2008-06-15T11:29:03Z</time>
  <name>TP0953</name>
</trkpt>
<trkpt lat="48.605265000" lon="9.165441600">
  <ele>390.000000</ele>
<time>2008-06-15T11:29:04Z</time>
  <name>TP0954</name>
</trkpt>
<trkpt lat="48.605258300" lon="9.165479900">
  <ele>390.000000</ele>
<time>2008-06-15T11:29:05Z</time>
  <name>TP0955</name>
</trkpt>
<trkpt lat="48.605253300" lon="9.165528300">
  <ele>390.000000</ele>
<time>2008-06-15T11:29:06Z</time>
  <name>TP0956</name>
</trkpt>
<trkpt lat="48.605210000" lon="9.165738300">
  <ele>390.000000</ele>
<time>2008-06-15T11:29:11Z</time>
  <name>TP0957</name>
</trkpt>
<trkpt lat="48.605163300" lon="9.166088300">
  <ele>388.000000</ele>
<time>2008-06-15T11:29:18Z</time>
  <name>TP0958</name>
</trkpt>
<trkpt lat="48.605103300" lon="9.166278300">
  <ele>388.000000</ele>
<time>2008-06-15T11:29:20Z</time>
  <name>TP0959</name>
</trkpt>
<trkpt lat="48.604953300" lon="9.166746600">
  <ele>388.000000</ele>
<time>2008-06-15T11:29:26Z</time>
  <name>TP0960</name>
</trkpt>
<trkpt lat="48.604726600" lon="9.167443300">
  <ele>387.000000</ele>
<time>2008-06-15T11:29:36Z</time>
  <name>TP0961</name>
</trkpt>
<trkpt lat="48.604726600" lon="9.167504900">
  <ele>386.000000</ele>
<time>2008-06-15T11:29:37Z</time>
  <name>TP0962</name>
</trkpt>
<trkpt lat="48.604729900" lon="9.167579900">
  <ele>386.000000</ele>
<time>2008-06-15T11:29:38Z</time>
  <name>TP0963</name>
</trkpt>
<trkpt lat="48.604709900" lon="9.167668300">
  <ele>386.000000</ele>
<time>2008-06-15T11:29:40Z</time>
  <name>TP0964</name>
</trkpt>
<trkpt lat="48.604729900" lon="9.167726600">
  <ele>386.000000</ele>
<time>2008-06-15T11:29:41Z</time>
  <name>TP0965</name>
</trkpt>
<trkpt lat="48.604754900" lon="9.167963300">
  <ele>385.000000</ele>
<time>2008-06-15T11:29:44Z</time>
  <name>TP0966</name>
</trkpt>
<trkpt lat="48.604763300" lon="9.168223300">
  <ele>384.000000</ele>
<time>2008-06-15T11:29:48Z</time>
  <name>TP0967</name>
</trkpt>
<trkpt lat="48.604758300" lon="9.168280000">
  <ele>383.000000</ele>
<time>2008-06-15T11:29:49Z</time>
  <name>TP0968</name>
</trkpt>
<trkpt lat="48.604751600" lon="9.168346600">
  <ele>383.000000</ele>
<time>2008-06-15T11:29:50Z</time>
  <name>TP0969</name>
</trkpt>
<trkpt lat="48.604775000" lon="9.168571600">
  <ele>382.000000</ele>
<time>2008-06-15T11:29:52Z</time>
  <name>TP0970</name>
</trkpt>
<trkpt lat="48.604805000" lon="9.169098300">
  <ele>380.000000</ele>
<time>2008-06-15T11:29:58Z</time>
  <name>TP0971</name>
</trkpt>
<trkpt lat="48.604811600" lon="9.169223300">
  <ele>379.000000</ele>
<time>2008-06-15T11:30:00Z</time>
  <name>TP0972</name>
</trkpt>
<trkpt lat="48.604814900" lon="9.169364900">
  <ele>379.000000</ele>
<time>2008-06-15T11:30:03Z</time>
  <name>TP0973</name>
</trkpt>
<trkpt lat="48.604821600" lon="9.169434900">
  <ele>379.000000</ele>
<time>2008-06-15T11:30:04Z</time>
  <name>TP0974</name>
</trkpt>
<trkpt lat="48.604794900" lon="9.169641600">
  <ele>379.000000</ele>
<time>2008-06-15T11:30:07Z</time>
  <name>TP0975</name>
</trkpt>
<trkpt lat="48.604783300" lon="9.169846600">
  <ele>378.000000</ele>
<time>2008-06-15T11:30:10Z</time>
  <name>TP0976</name>
</trkpt>
<trkpt lat="48.604790000" lon="9.170175000">
  <ele>377.000000</ele>
<time>2008-06-15T11:30:15Z</time>
  <name>TP0977</name>
</trkpt>
<trkpt lat="48.604834900" lon="9.170388300">
  <ele>376.000000</ele>
<time>2008-06-15T11:30:18Z</time>
  <name>TP0978</name>
</trkpt>
<trkpt lat="48.604926600" lon="9.170699900">
  <ele>375.000000</ele>
<time>2008-06-15T11:30:23Z</time>
  <name>TP0979</name>
</trkpt>
<trkpt lat="48.605113300" lon="9.171371600">
  <ele>373.000000</ele>
<time>2008-06-15T11:30:36Z</time>
  <name>TP0980</name>
</trkpt>
<trkpt lat="48.605153200" lon="9.171456600">
  <ele>373.000000</ele>
<time>2008-06-15T11:30:38Z</time>
  <name>TP0981</name>
</trkpt>
<trkpt lat="48.605203300" lon="9.171576600">
  <ele>372.000000</ele>
<time>2008-06-15T11:30:41Z</time>
  <name>TP0982</name>
</trkpt>
<trkpt lat="48.605225000" lon="9.171864900">
  <ele>371.000000</ele>
<time>2008-06-15T11:30:47Z</time>
  <name>TP0983</name>
</trkpt>
<trkpt lat="48.605263300" lon="9.171966600">
  <ele>371.000000</ele>
<time>2008-06-15T11:30:50Z</time>
  <name>TP0984</name>
</trkpt>
<trkpt lat="48.605313300" lon="9.172106600">
  <ele>371.000000</ele>
<time>2008-06-15T11:30:54Z</time>
  <name>TP0985</name>
</trkpt>
<trkpt lat="48.605318300" lon="9.172200000">
  <ele>371.000000</ele>
<time>2008-06-15T11:30:56Z</time>
  <name>TP0986</name>
</trkpt>
<trkpt lat="48.605318300" lon="9.172243300">
  <ele>371.000000</ele>
<time>2008-06-15T11:30:57Z</time>
  <name>TP0987</name>
</trkpt>
<trkpt lat="48.605343300" lon="9.172553300">
  <ele>370.000000</ele>
<time>2008-06-15T11:31:05Z</time>
  <name>TP0988</name>
</trkpt>
<trkpt lat="48.605346600" lon="9.172661600">
  <ele>370.000000</ele>
<time>2008-06-15T11:31:08Z</time>
  <name>TP0989</name>
</trkpt>
<trkpt lat="48.605353300" lon="9.172839900">
  <ele>370.000000</ele>
<time>2008-06-15T11:31:13Z</time>
  <name>TP0990</name>
</trkpt>
<trkpt lat="48.605361600" lon="9.172904900">
  <ele>370.000000</ele>
<time>2008-06-15T11:31:14Z</time>
  <name>TP0991</name>
</trkpt>
<trkpt lat="48.605378200" lon="9.172968300">
  <ele>370.000000</ele>
<time>2008-06-15T11:31:15Z</time>
  <name>TP0992</name>
</trkpt>
<trkpt lat="48.605403300" lon="9.173091600">
  <ele>371.000000</ele>
<time>2008-06-15T11:31:17Z</time>
  <name>TP0993</name>
</trkpt>
<trkpt lat="48.605381600" lon="9.173188300">
  <ele>372.000000</ele>
<time>2008-06-15T11:31:19Z</time>
  <name>TP0994</name>
</trkpt>
<trkpt lat="48.605361600" lon="9.173236600">
  <ele>372.000000</ele>
<time>2008-06-15T11:31:20Z</time>
  <name>TP0995</name>
</trkpt>
<trkpt lat="48.605346600" lon="9.173479900">
  <ele>373.000000</ele>
<time>2008-06-15T11:31:23Z</time>
  <name>TP0996</name>
</trkpt>
<trkpt lat="48.605328300" lon="9.173564900">
  <ele>374.000000</ele>
<time>2008-06-15T11:31:24Z</time>
  <name>TP0997</name>
</trkpt>
<trkpt lat="48.605249900" lon="9.173783300">
  <ele>373.000000</ele>
<time>2008-06-15T11:31:26Z</time>
  <name>TP0998</name>
</trkpt>
<trkpt lat="48.605240000" lon="9.173850000">
  <ele>373.000000</ele>
<time>2008-06-15T11:31:27Z</time>
  <name>TP0999</name>
</trkpt>
<trkpt lat="48.605319900" lon="9.174076600">
  <ele>369.000000</ele>
<time>2008-06-15T11:31:28Z</time>
  <name>TP1000</name>
</trkpt>
<trkpt lat="48.605371600" lon="9.174453300">
  <ele>365.000000</ele>
<time>2008-06-15T11:31:32Z</time>
  <name>TP1001</name>
</trkpt>
<trkpt lat="48.605365000" lon="9.174506600">
  <ele>365.000000</ele>
<time>2008-06-15T11:31:33Z</time>
  <name>TP1002</name>
</trkpt>
<trkpt lat="48.605359900" lon="9.174794900">
  <ele>361.000000</ele>
<time>2008-06-15T11:31:37Z</time>
  <name>TP1003</name>
</trkpt>
<trkpt lat="48.605333300" lon="9.174853300">
  <ele>361.000000</ele>
<time>2008-06-15T11:31:38Z</time>
  <name>TP1004</name>
</trkpt>
<trkpt lat="48.605358300" lon="9.174883300">
  <ele>360.000000</ele>
<time>2008-06-15T11:31:39Z</time>
  <name>TP1005</name>
</trkpt>
<trkpt lat="48.605333300" lon="9.174916600">
  <ele>360.000000</ele>
<time>2008-06-15T11:31:40Z</time>
  <name>TP1006</name>
</trkpt>
<trkpt lat="48.605328300" lon="9.174951600">
  <ele>360.000000</ele>
<time>2008-06-15T11:31:41Z</time>
  <name>TP1007</name>
</trkpt>
<trkpt lat="48.605359900" lon="9.174948300">
  <ele>359.000000</ele>
<time>2008-06-15T11:31:42Z</time>
  <name>TP1008</name>
</trkpt>
<trkpt lat="48.605374900" lon="9.175024900">
  <ele>358.000000</ele>
<time>2008-06-15T11:31:44Z</time>
  <name>TP1009</name>
</trkpt>
<trkpt lat="48.605406600" lon="9.175208300">
  <ele>355.000000</ele>
<time>2008-06-15T11:31:46Z</time>
  <name>TP1010</name>
</trkpt>
<trkpt lat="48.605374900" lon="9.175246600">
  <ele>354.000000</ele>
<time>2008-06-15T11:31:47Z</time>
  <name>TP1011</name>
</trkpt>
<trkpt lat="48.605266600" lon="9.175585000">
  <ele>354.000000</ele>
<time>2008-06-15T11:31:54Z</time>
  <name>TP1012</name>
</trkpt>
<trkpt lat="48.605243300" lon="9.175613300">
  <ele>354.000000</ele>
<time>2008-06-15T11:31:55Z</time>
  <name>TP1013</name>
</trkpt>
<trkpt lat="48.605229900" lon="9.175683300">
  <ele>354.000000</ele>
<time>2008-06-15T11:31:56Z</time>
  <name>TP1014</name>
</trkpt>
<trkpt lat="48.605184900" lon="9.175781600">
  <ele>354.000000</ele>
<time>2008-06-15T11:31:58Z</time>
  <name>TP1015</name>
</trkpt>
<trkpt lat="48.605163300" lon="9.175799900">
  <ele>355.000000</ele>
<time>2008-06-15T11:31:59Z</time>
  <name>TP1016</name>
</trkpt>
<trkpt lat="48.605131600" lon="9.175868300">
  <ele>355.000000</ele>
<time>2008-06-15T11:32:02Z</time>
  <name>TP1017</name>
</trkpt>
<trkpt lat="48.605093300" lon="9.175924900">
  <ele>356.000000</ele>
<time>2008-06-15T11:32:04Z</time>
  <name>TP1018</name>
</trkpt>
<trkpt lat="48.605096600" lon="9.175939900">
  <ele>356.000000</ele>
<time>2008-06-15T11:32:05Z</time>
  <name>TP1019</name>
</trkpt>
<trkpt lat="48.605034900" lon="9.176113300">
  <ele>357.000000</ele>
<time>2008-06-15T11:32:08Z</time>
  <name>TP1020</name>
</trkpt>
<trkpt lat="48.605038300" lon="9.176193300">
  <ele>357.000000</ele>
<time>2008-06-15T11:32:10Z</time>
  <name>TP1021</name>
</trkpt>
<trkpt lat="48.604973300" lon="9.176334900">
  <ele>358.000000</ele>
<time>2008-06-15T11:32:14Z</time>
  <name>TP1022</name>
</trkpt>
<trkpt lat="48.604946600" lon="9.176361600">
  <ele>358.000000</ele>
<time>2008-06-15T11:32:15Z</time>
  <name>TP1023</name>
</trkpt>
<trkpt lat="48.604938300" lon="9.176401600">
  <ele>358.000000</ele>
<time>2008-06-15T11:32:16Z</time>
  <name>TP1024</name>
</trkpt>
<trkpt lat="48.604901600" lon="9.176486600">
  <ele>359.000000</ele>
<time>2008-06-15T11:32:18Z</time>
  <name>TP1025</name>
</trkpt>
<trkpt lat="48.604811600" lon="9.176609900">
  <ele>359.000000</ele>
<time>2008-06-15T11:32:21Z</time>
  <name>TP1026</name>
</trkpt>
<trkpt lat="48.604751600" lon="9.176748300">
  <ele>360.000000</ele>
<time>2008-06-15T11:32:23Z</time>
  <name>TP1027</name>
</trkpt>
<trkpt lat="48.604744900" lon="9.176871600">
  <ele>360.000000</ele>
<time>2008-06-15T11:32:24Z</time>
  <name>TP1028</name>
</trkpt>
<trkpt lat="48.604680000" lon="9.177490000">
  <ele>361.000000</ele>
<time>2008-06-15T11:32:30Z</time>
  <name>TP1029</name>
</trkpt>
<trkpt lat="48.604663200" lon="9.177568300">
  <ele>361.000000</ele>
<time>2008-06-15T11:32:31Z</time>
  <name>TP1030</name>
</trkpt>
<trkpt lat="48.604668300" lon="9.177883300">
  <ele>362.000000</ele>
<time>2008-06-15T11:32:36Z</time>
  <name>TP1031</name>
</trkpt>
<trkpt lat="48.604693300" lon="9.178213300">
  <ele>363.000000</ele>
<time>2008-06-15T11:32:42Z</time>
  <name>TP1032</name>
</trkpt>
<trkpt lat="48.604720000" lon="9.178408300">
  <ele>364.000000</ele>
<time>2008-06-15T11:32:46Z</time>
  <name>TP1033</name>
</trkpt>
<trkpt lat="48.604753300" lon="9.178464900">
  <ele>364.000000</ele>
<time>2008-06-15T11:32:48Z</time>
  <name>TP1034</name>
</trkpt>
<trkpt lat="48.604775000" lon="9.178571600">
  <ele>364.000000</ele>
<time>2008-06-15T11:32:50Z</time>
  <name>TP1035</name>
</trkpt>
<trkpt lat="48.604781600" lon="9.178745000">
  <ele>365.000000</ele>
<time>2008-06-15T11:32:53Z</time>
  <name>TP1036</name>
</trkpt>
<trkpt lat="48.604759900" lon="9.178838300">
  <ele>365.000000</ele>
<time>2008-06-15T11:32:54Z</time>
  <name>TP1037</name>
</trkpt>
<trkpt lat="48.604750000" lon="9.179063300">
  <ele>365.000000</ele>
<time>2008-06-15T11:32:57Z</time>
  <name>TP1038</name>
</trkpt>
<trkpt lat="48.604775000" lon="9.179264900">
  <ele>365.000000</ele>
<time>2008-06-15T11:33:00Z</time>
  <name>TP1039</name>
</trkpt>
<trkpt lat="48.604796600" lon="9.179323300">
  <ele>365.000000</ele>
<time>2008-06-15T11:33:01Z</time>
  <name>TP1040</name>
</trkpt>
<trkpt lat="48.604821600" lon="9.179375000">
  <ele>365.000000</ele>
<time>2008-06-15T11:33:02Z</time>
  <name>TP1041</name>
</trkpt>
<trkpt lat="48.604851600" lon="9.179435000">
  <ele>365.000000</ele>
<time>2008-06-15T11:33:03Z</time>
  <name>TP1042</name>
</trkpt>
<trkpt lat="48.604875000" lon="9.179496600">
  <ele>365.000000</ele>
<time>2008-06-15T11:33:04Z</time>
  <name>TP1043</name>
</trkpt>
<trkpt lat="48.604919900" lon="9.179709900">
  <ele>365.000000</ele>
<time>2008-06-15T11:33:07Z</time>
  <name>TP1044</name>
</trkpt>
<trkpt lat="48.604951600" lon="9.179936600">
  <ele>365.000000</ele>
<time>2008-06-15T11:33:11Z</time>
  <name>TP1045</name>
</trkpt>
<trkpt lat="48.604974900" lon="9.179964900">
  <ele>365.000000</ele>
<time>2008-06-15T11:33:12Z</time>
  <name>TP1046</name>
</trkpt>
<trkpt lat="48.604993300" lon="9.180009900">
  <ele>365.000000</ele>
<time>2008-06-15T11:33:14Z</time>
  <name>TP1047</name>
</trkpt>
<trkpt lat="48.605038300" lon="9.180226600">
  <ele>365.000000</ele>
<time>2008-06-15T11:33:19Z</time>
  <name>TP1048</name>
</trkpt>
<trkpt lat="48.605086600" lon="9.180358300">
  <ele>365.000000</ele>
<time>2008-06-15T11:33:22Z</time>
  <name>TP1049</name>
</trkpt>
<trkpt lat="48.605389900" lon="9.181314900">
  <ele>362.000000</ele>
<time>2008-06-15T11:33:40Z</time>
  <name>TP1050</name>
</trkpt>
<trkpt lat="48.605420000" lon="9.181343300">
  <ele>362.000000</ele>
<time>2008-06-15T11:33:41Z</time>
  <name>TP1051</name>
</trkpt>
<trkpt lat="48.605454900" lon="9.181366600">
  <ele>362.000000</ele>
<time>2008-06-15T11:33:42Z</time>
  <name>TP1052</name>
</trkpt>
<trkpt lat="48.605584900" lon="9.181648300">
  <ele>361.000000</ele>
<time>2008-06-15T11:33:48Z</time>
  <name>TP1053</name>
</trkpt>
<trkpt lat="48.605718300" lon="9.181814900">
  <ele>361.000000</ele>
<time>2008-06-15T11:33:53Z</time>
  <name>TP1054</name>
</trkpt>
<trkpt lat="48.605841600" lon="9.182006600">
  <ele>361.000000</ele>
<time>2008-06-15T11:33:57Z</time>
  <name>TP1055</name>
</trkpt>
<trkpt lat="48.605926600" lon="9.182153300">
  <ele>361.000000</ele>
<time>2008-06-15T11:34:00Z</time>
  <name>TP1056</name>
</trkpt>
<trkpt lat="48.605971600" lon="9.182256600">
  <ele>360.000000</ele>
<time>2008-06-15T11:34:02Z</time>
  <name>TP1057</name>
</trkpt>
<trkpt lat="48.606006600" lon="9.182350000">
  <ele>360.000000</ele>
<time>2008-06-15T11:34:04Z</time>
  <name>TP1058</name>
</trkpt>
<trkpt lat="48.606078200" lon="9.182451600">
  <ele>360.000000</ele>
<time>2008-06-15T11:34:07Z</time>
  <name>TP1059</name>
</trkpt>
<trkpt lat="48.606099900" lon="9.182518300">
  <ele>360.000000</ele>
<time>2008-06-15T11:34:08Z</time>
  <name>TP1060</name>
</trkpt>
<trkpt lat="48.606121600" lon="9.182551600">
  <ele>360.000000</ele>
<time>2008-06-15T11:34:09Z</time>
  <name>TP1061</name>
</trkpt>
<trkpt lat="48.606159900" lon="9.182711600">
  <ele>360.000000</ele>
<time>2008-06-15T11:34:12Z</time>
  <name>TP1062</name>
</trkpt>
<trkpt lat="48.606174900" lon="9.182784900">
  <ele>361.000000</ele>
<time>2008-06-15T11:34:13Z</time>
  <name>TP1063</name>
</trkpt>
<trkpt lat="48.606229900" lon="9.182894900">
  <ele>361.000000</ele>
<time>2008-06-15T11:34:15Z</time>
  <name>TP1064</name>
</trkpt>
<trkpt lat="48.606256600" lon="9.182926600">
  <ele>361.000000</ele>
<time>2008-06-15T11:34:16Z</time>
  <name>TP1065</name>
</trkpt>
<trkpt lat="48.606321600" lon="9.183121600">
  <ele>362.000000</ele>
<time>2008-06-15T11:34:20Z</time>
  <name>TP1066</name>
</trkpt>
<trkpt lat="48.606354900" lon="9.183191600">
  <ele>362.000000</ele>
<time>2008-06-15T11:34:22Z</time>
  <name>TP1067</name>
</trkpt>
<trkpt lat="48.606390000" lon="9.183418300">
  <ele>363.000000</ele>
<time>2008-06-15T11:34:27Z</time>
  <name>TP1068</name>
</trkpt>
<trkpt lat="48.606383300" lon="9.183473300">
  <ele>363.000000</ele>
<time>2008-06-15T11:34:28Z</time>
  <name>TP1069</name>
</trkpt>
<trkpt lat="48.606381600" lon="9.183590000">
  <ele>364.000000</ele>
<time>2008-06-15T11:34:31Z</time>
  <name>TP1070</name>
</trkpt>
<trkpt lat="48.606383300" lon="9.183614900">
  <ele>364.000000</ele>
<time>2008-06-15T11:34:32Z</time>
  <name>TP1071</name>
</trkpt>
<trkpt lat="48.606400000" lon="9.183719900">
  <ele>365.000000</ele>
<time>2008-06-15T11:34:34Z</time>
  <name>TP1072</name>
</trkpt>
<trkpt lat="48.606438300" lon="9.183946600">
  <ele>366.000000</ele>
<time>2008-06-15T11:34:39Z</time>
  <name>TP1073</name>
</trkpt>
<trkpt lat="48.606436600" lon="9.184041600">
  <ele>367.000000</ele>
<time>2008-06-15T11:34:40Z</time>
  <name>TP1074</name>
</trkpt>
<trkpt lat="48.606423300" lon="9.184074900">
  <ele>367.000000</ele>
<time>2008-06-15T11:34:41Z</time>
  <name>TP1075</name>
</trkpt>
<trkpt lat="48.606418300" lon="9.184245000">
  <ele>367.000000</ele>
<time>2008-06-15T11:34:43Z</time>
  <name>TP1076</name>
</trkpt>
<trkpt lat="48.606404900" lon="9.184701600">
  <ele>368.000000</ele>
<time>2008-06-15T11:34:48Z</time>
  <name>TP1077</name>
</trkpt>
<trkpt lat="48.606406600" lon="9.184976600">
  <ele>368.000000</ele>
<time>2008-06-15T11:34:51Z</time>
  <name>TP1078</name>
</trkpt>
<trkpt lat="48.606428200" lon="9.185286600">
  <ele>368.000000</ele>
<time>2008-06-15T11:34:55Z</time>
  <name>TP1079</name>
</trkpt>
<trkpt lat="48.606456600" lon="9.185406600">
  <ele>368.000000</ele>
<time>2008-06-15T11:34:57Z</time>
  <name>TP1080</name>
</trkpt>
<trkpt lat="48.606464900" lon="9.185504900">
  <ele>368.000000</ele>
<time>2008-06-15T11:34:59Z</time>
  <name>TP1081</name>
</trkpt>
<trkpt lat="48.606471600" lon="9.185606600">
  <ele>368.000000</ele>
<time>2008-06-15T11:35:01Z</time>
  <name>TP1082</name>
</trkpt>
<trkpt lat="48.606479900" lon="9.185653300">
  <ele>368.000000</ele>
<time>2008-06-15T11:35:02Z</time>
  <name>TP1083</name>
</trkpt>
<trkpt lat="48.606496600" lon="9.185720000">
  <ele>369.000000</ele>
<time>2008-06-15T11:35:03Z</time>
  <name>TP1084</name>
</trkpt>
<trkpt lat="48.606521600" lon="9.185793300">
  <ele>369.000000</ele>
<time>2008-06-15T11:35:04Z</time>
  <name>TP1085</name>
</trkpt>
<trkpt lat="48.606556600" lon="9.185988300">
  <ele>369.000000</ele>
<time>2008-06-15T11:35:07Z</time>
  <name>TP1086</name>
</trkpt>
<trkpt lat="48.606629900" lon="9.186904900">
  <ele>371.000000</ele>
<time>2008-06-15T11:35:23Z</time>
  <name>TP1087</name>
</trkpt>
<trkpt lat="48.606671600" lon="9.187135000">
  <ele>371.000000</ele>
<time>2008-06-15T11:35:27Z</time>
  <name>TP1088</name>
</trkpt>
<trkpt lat="48.606701600" lon="9.187230000">
  <ele>371.000000</ele>
<time>2008-06-15T11:35:29Z</time>
  <name>TP1089</name>
</trkpt>
<trkpt lat="48.606719900" lon="9.187269900">
  <ele>371.000000</ele>
<time>2008-06-15T11:35:30Z</time>
  <name>TP1090</name>
</trkpt>
<trkpt lat="48.606759900" lon="9.187370000">
  <ele>370.000000</ele>
<time>2008-06-15T11:35:33Z</time>
  <name>TP1091</name>
</trkpt>
<trkpt lat="48.606886600" lon="9.187583300">
  <ele>369.000000</ele>
<time>2008-06-15T11:35:38Z</time>
  <name>TP1092</name>
</trkpt>
<trkpt lat="48.606944900" lon="9.187746600">
  <ele>368.000000</ele>
<time>2008-06-15T11:35:42Z</time>
  <name>TP1093</name>
</trkpt>
<trkpt lat="48.606950000" lon="9.187861600">
  <ele>368.000000</ele>
<time>2008-06-15T11:35:45Z</time>
  <name>TP1094</name>
</trkpt>
<trkpt lat="48.606968300" lon="9.187923300">
  <ele>368.000000</ele>
<time>2008-06-15T11:35:47Z</time>
  <name>TP1095</name>
</trkpt>
<trkpt lat="48.607018200" lon="9.187996600">
  <ele>368.000000</ele>
<time>2008-06-15T11:35:49Z</time>
  <name>TP1096</name>
</trkpt>
<trkpt lat="48.607061600" lon="9.188078300">
  <ele>368.000000</ele>
<time>2008-06-15T11:35:51Z</time>
  <name>TP1097</name>
</trkpt>
<trkpt lat="48.607145000" lon="9.188159900">
  <ele>368.000000</ele>
<time>2008-06-15T11:35:54Z</time>
  <name>TP1098</name>
</trkpt>
<trkpt lat="48.607185000" lon="9.188191600">
  <ele>368.000000</ele>
<time>2008-06-15T11:35:55Z</time>
  <name>TP1099</name>
</trkpt>
<trkpt lat="48.607249900" lon="9.188281600">
  <ele>367.000000</ele>
<time>2008-06-15T11:35:57Z</time>
  <name>TP1100</name>
</trkpt>
<trkpt lat="48.607309900" lon="9.188461600">
  <ele>367.000000</ele>
<time>2008-06-15T11:36:00Z</time>
  <name>TP1101</name>
</trkpt>
<trkpt lat="48.607488300" lon="9.188978300">
  <ele>365.000000</ele>
<time>2008-06-15T11:36:09Z</time>
  <name>TP1102</name>
</trkpt>
<trkpt lat="48.607543300" lon="9.189101600">
  <ele>365.000000</ele>
<time>2008-06-15T11:36:12Z</time>
  <name>TP1103</name>
</trkpt>
<trkpt lat="48.607568300" lon="9.189119900">
  <ele>365.000000</ele>
<time>2008-06-15T11:36:13Z</time>
  <name>TP1104</name>
</trkpt>
<trkpt lat="48.607636600" lon="9.189296600">
  <ele>366.000000</ele>
<time>2008-06-15T11:36:20Z</time>
  <name>TP1105</name>
</trkpt>
<trkpt lat="48.607671600" lon="9.189325000">
  <ele>366.000000</ele>
<time>2008-06-15T11:36:22Z</time>
  <name>TP1106</name>
</trkpt>
<trkpt lat="48.607709900" lon="9.189333300">
  <ele>366.000000</ele>
<time>2008-06-15T11:36:23Z</time>
  <name>TP1107</name>
</trkpt>
<trkpt lat="48.607736600" lon="9.189453300">
  <ele>366.000000</ele>
<time>2008-06-15T11:36:25Z</time>
  <name>TP1108</name>
</trkpt>
<trkpt lat="48.607760000" lon="9.189549900">
  <ele>366.000000</ele>
<time>2008-06-15T11:36:26Z</time>
  <name>TP1109</name>
</trkpt>
<trkpt lat="48.607849900" lon="9.189806600">
  <ele>367.000000</ele>
<time>2008-06-15T11:36:30Z</time>
  <name>TP1110</name>
</trkpt>
<trkpt lat="48.607860000" lon="9.189860000">
  <ele>367.000000</ele>
<time>2008-06-15T11:36:31Z</time>
  <name>TP1111</name>
</trkpt>
<trkpt lat="48.607893300" lon="9.189938300">
  <ele>367.000000</ele>
<time>2008-06-15T11:36:33Z</time>
  <name>TP1112</name>
</trkpt>
<trkpt lat="48.607943200" lon="9.190114900">
  <ele>368.000000</ele>
<time>2008-06-15T11:36:37Z</time>
  <name>TP1113</name>
</trkpt>
<trkpt lat="48.607943200" lon="9.190159900">
  <ele>368.000000</ele>
<time>2008-06-15T11:36:38Z</time>
  <name>TP1114</name>
</trkpt>
<trkpt lat="48.607904900" lon="9.190268300">
  <ele>368.000000</ele>
<time>2008-06-15T11:36:39Z</time>
  <name>TP1115</name>
</trkpt>
<trkpt lat="48.607911600" lon="9.190428300">
  <ele>369.000000</ele>
<time>2008-06-15T11:36:41Z</time>
  <name>TP1116</name>
</trkpt>
<trkpt lat="48.607931600" lon="9.190721600">
  <ele>369.000000</ele>
<time>2008-06-15T11:36:45Z</time>
  <name>TP1117</name>
</trkpt>
<trkpt lat="48.607956600" lon="9.190941600">
  <ele>369.000000</ele>
<time>2008-06-15T11:36:48Z</time>
  <name>TP1118</name>
</trkpt>
<trkpt lat="48.607970000" lon="9.191109900">
  <ele>369.000000</ele>
<time>2008-06-15T11:36:50Z</time>
  <name>TP1119</name>
</trkpt>
<trkpt lat="48.608009900" lon="9.191453300">
  <ele>369.000000</ele>
<time>2008-06-15T11:36:54Z</time>
  <name>TP1120</name>
</trkpt>
<trkpt lat="48.608031600" lon="9.191514900">
  <ele>369.000000</ele>
<time>2008-06-15T11:36:55Z</time>
  <name>TP1121</name>
</trkpt>
<trkpt lat="48.608064900" lon="9.191598300">
  <ele>369.000000</ele>
<time>2008-06-15T11:36:57Z</time>
  <name>TP1122</name>
</trkpt>
<trkpt lat="48.608086600" lon="9.191649900">
  <ele>369.000000</ele>
<time>2008-06-15T11:36:58Z</time>
  <name>TP1123</name>
</trkpt>
<trkpt lat="48.608111600" lon="9.191706600">
  <ele>368.000000</ele>
<time>2008-06-15T11:36:59Z</time>
  <name>TP1124</name>
</trkpt>
<trkpt lat="48.608148300" lon="9.191770000">
  <ele>368.000000</ele>
<time>2008-06-15T11:37:00Z</time>
  <name>TP1125</name>
</trkpt>
<trkpt lat="48.608253300" lon="9.192083300">
  <ele>367.000000</ele>
<time>2008-06-15T11:37:05Z</time>
  <name>TP1126</name>
</trkpt>
<trkpt lat="48.608254900" lon="9.192145000">
  <ele>368.000000</ele>
<time>2008-06-15T11:37:06Z</time>
  <name>TP1127</name>
</trkpt>
<trkpt lat="48.608348200" lon="9.192248300">
  <ele>368.000000</ele>
<time>2008-06-15T11:37:09Z</time>
  <name>TP1128</name>
</trkpt>
<trkpt lat="48.608476600" lon="9.192488300">
  <ele>368.000000</ele>
<time>2008-06-15T11:37:15Z</time>
  <name>TP1129</name>
</trkpt>
<trkpt lat="48.608553300" lon="9.192566600">
  <ele>368.000000</ele>
<time>2008-06-15T11:37:17Z</time>
  <name>TP1130</name>
</trkpt>
<trkpt lat="48.608703300" lon="9.192771600">
  <ele>368.000000</ele>
<time>2008-06-15T11:37:23Z</time>
  <name>TP1131</name>
</trkpt>
<trkpt lat="48.608781600" lon="9.192791600">
  <ele>369.000000</ele>
<time>2008-06-15T11:37:25Z</time>
  <name>TP1132</name>
</trkpt>
<trkpt lat="48.609004900" lon="9.192895000">
  <ele>370.000000</ele>
<time>2008-06-15T11:37:30Z</time>
  <name>TP1133</name>
</trkpt>
<trkpt lat="48.609148200" lon="9.192944900">
  <ele>370.000000</ele>
<time>2008-06-15T11:37:33Z</time>
  <name>TP1134</name>
</trkpt>
<trkpt lat="48.609258200" lon="9.192954900">
  <ele>370.000000</ele>
<time>2008-06-15T11:37:35Z</time>
  <name>TP1135</name>
</trkpt>
<trkpt lat="48.609459900" lon="9.193003300">
  <ele>371.000000</ele>
<time>2008-06-15T11:37:39Z</time>
  <name>TP1136</name>
</trkpt>
<trkpt lat="48.609544900" lon="9.193070000">
  <ele>371.000000</ele>
<time>2008-06-15T11:37:41Z</time>
  <name>TP1137</name>
</trkpt>
<trkpt lat="48.609708200" lon="9.193191600">
  <ele>371.000000</ele>
<time>2008-06-15T11:37:46Z</time>
  <name>TP1138</name>
</trkpt>
<trkpt lat="48.609731600" lon="9.193199900">
  <ele>371.000000</ele>
<time>2008-06-15T11:37:47Z</time>
  <name>TP1139</name>
</trkpt>
<trkpt lat="48.609816600" lon="9.193221600">
  <ele>372.000000</ele>
<time>2008-06-15T11:37:50Z</time>
  <name>TP1140</name>
</trkpt>
<trkpt lat="48.609899900" lon="9.193246600">
  <ele>372.000000</ele>
<time>2008-06-15T11:37:53Z</time>
  <name>TP1141</name>
</trkpt>
<trkpt lat="48.609971600" lon="9.193266600">
  <ele>373.000000</ele>
<time>2008-06-15T11:37:55Z</time>
  <name>TP1142</name>
</trkpt>
<trkpt lat="48.610016600" lon="9.193291600">
  <ele>373.000000</ele>
<time>2008-06-15T11:37:56Z</time>
  <name>TP1143</name>
</trkpt>
<trkpt lat="48.610086600" lon="9.193336600">
  <ele>373.000000</ele>
<time>2008-06-15T11:37:58Z</time>
  <name>TP1144</name>
</trkpt>
<trkpt lat="48.610108300" lon="9.193393300">
  <ele>373.000000</ele>
<time>2008-06-15T11:37:59Z</time>
  <name>TP1145</name>
</trkpt>
<trkpt lat="48.610185000" lon="9.193478300">
  <ele>373.000000</ele>
<time>2008-06-15T11:38:01Z</time>
  <name>TP1146</name>
</trkpt>
<trkpt lat="48.610263300" lon="9.193599900">
  <ele>372.000000</ele>
<time>2008-06-15T11:38:03Z</time>
  <name>TP1147</name>
</trkpt>
<trkpt lat="48.610329900" lon="9.193581600">
  <ele>372.000000</ele>
<time>2008-06-15T11:38:04Z</time>
  <name>TP1148</name>
</trkpt>
<trkpt lat="48.610381600" lon="9.193656600">
  <ele>372.000000</ele>
<time>2008-06-15T11:38:06Z</time>
  <name>TP1149</name>
</trkpt>
<trkpt lat="48.610436600" lon="9.193743300">
  <ele>372.000000</ele>
<time>2008-06-15T11:38:08Z</time>
  <name>TP1150</name>
</trkpt>
<trkpt lat="48.610461600" lon="9.193806600">
  <ele>371.000000</ele>
<time>2008-06-15T11:38:09Z</time>
  <name>TP1151</name>
</trkpt>
<trkpt lat="48.610473300" lon="9.193869900">
  <ele>371.000000</ele>
<time>2008-06-15T11:38:10Z</time>
  <name>TP1152</name>
</trkpt>
<trkpt lat="48.610493200" lon="9.193998300">
  <ele>371.000000</ele>
<time>2008-06-15T11:38:12Z</time>
  <name>TP1153</name>
</trkpt>
<trkpt lat="48.610508300" lon="9.194148300">
  <ele>370.000000</ele>
<time>2008-06-15T11:38:14Z</time>
  <name>TP1154</name>
</trkpt>
<trkpt lat="48.610531600" lon="9.194261600">
  <ele>369.000000</ele>
<time>2008-06-15T11:38:16Z</time>
  <name>TP1155</name>
</trkpt>
<trkpt lat="48.610636600" lon="9.194358300">
  <ele>368.000000</ele>
<time>2008-06-15T11:38:19Z</time>
  <name>TP1156</name>
</trkpt>
<trkpt lat="48.610678300" lon="9.194368300">
  <ele>368.000000</ele>
<time>2008-06-15T11:38:20Z</time>
  <name>TP1157</name>
</trkpt>
<trkpt lat="48.610738300" lon="9.194406600">
  <ele>368.000000</ele>
<time>2008-06-15T11:38:22Z</time>
  <name>TP1158</name>
</trkpt>
<trkpt lat="48.610761600" lon="9.194448300">
  <ele>368.000000</ele>
<time>2008-06-15T11:38:23Z</time>
  <name>TP1159</name>
</trkpt>
<trkpt lat="48.610763300" lon="9.194548300">
  <ele>368.000000</ele>
<time>2008-06-15T11:38:25Z</time>
  <name>TP1160</name>
</trkpt>
<trkpt lat="48.610769900" lon="9.194590000">
  <ele>368.000000</ele>
<time>2008-06-15T11:38:26Z</time>
  <name>TP1161</name>
</trkpt>
<trkpt lat="48.610818300" lon="9.194638300">
  <ele>368.000000</ele>
<time>2008-06-15T11:38:28Z</time>
  <name>TP1162</name>
</trkpt>
<trkpt lat="48.610874900" lon="9.194711600">
  <ele>368.000000</ele>
<time>2008-06-15T11:38:30Z</time>
  <name>TP1163</name>
</trkpt>
<trkpt lat="48.610939900" lon="9.194758300">
  <ele>368.000000</ele>
<time>2008-06-15T11:38:32Z</time>
  <name>TP1164</name>
</trkpt>
<trkpt lat="48.611016600" lon="9.194793300">
  <ele>367.000000</ele>
<time>2008-06-15T11:38:34Z</time>
  <name>TP1165</name>
</trkpt>
<trkpt lat="48.611116600" lon="9.194891600">
  <ele>367.000000</ele>
<time>2008-06-15T11:38:37Z</time>
  <name>TP1166</name>
</trkpt>
<trkpt lat="48.611138200" lon="9.194946600">
  <ele>367.000000</ele>
<time>2008-06-15T11:38:38Z</time>
  <name>TP1167</name>
</trkpt>
<trkpt lat="48.611214900" lon="9.195168300">
  <ele>367.000000</ele>
<time>2008-06-15T11:38:42Z</time>
  <name>TP1168</name>
</trkpt>
<trkpt lat="48.611246600" lon="9.195289900">
  <ele>368.000000</ele>
<time>2008-06-15T11:38:44Z</time>
  <name>TP1169</name>
</trkpt>
<trkpt lat="48.611298300" lon="9.195423300">
  <ele>368.000000</ele>
<time>2008-06-15T11:38:46Z</time>
  <name>TP1170</name>
</trkpt>
<trkpt lat="48.611324900" lon="9.195474900">
  <ele>368.000000</ele>
<time>2008-06-15T11:38:47Z</time>
  <name>TP1171</name>
</trkpt>
<trkpt lat="48.611358300" lon="9.195578300">
  <ele>368.000000</ele>
<time>2008-06-15T11:38:50Z</time>
  <name>TP1172</name>
</trkpt>
<trkpt lat="48.611463300" lon="9.195869900">
  <ele>368.000000</ele>
<time>2008-06-15T11:38:55Z</time>
  <name>TP1173</name>
</trkpt>
<trkpt lat="48.611464900" lon="9.196065000">
  <ele>368.000000</ele>
<time>2008-06-15T11:38:58Z</time>
  <name>TP1174</name>
</trkpt>
<trkpt lat="48.611458300" lon="9.196119900">
  <ele>368.000000</ele>
<time>2008-06-15T11:38:59Z</time>
  <name>TP1175</name>
</trkpt>
<trkpt lat="48.611445000" lon="9.196188300">
  <ele>368.000000</ele>
<time>2008-06-15T11:39:00Z</time>
  <name>TP1176</name>
</trkpt>
<trkpt lat="48.611443300" lon="9.196266600">
  <ele>368.000000</ele>
<time>2008-06-15T11:39:01Z</time>
  <name>TP1177</name>
</trkpt>
<trkpt lat="48.611431600" lon="9.196346600">
  <ele>368.000000</ele>
<time>2008-06-15T11:39:02Z</time>
  <name>TP1178</name>
</trkpt>
<trkpt lat="48.611375000" lon="9.196651600">
  <ele>367.000000</ele>
<time>2008-06-15T11:39:06Z</time>
  <name>TP1179</name>
</trkpt>
<trkpt lat="48.611331600" lon="9.196918300">
  <ele>366.000000</ele>
<time>2008-06-15T11:39:09Z</time>
  <name>TP1180</name>
</trkpt>
<trkpt lat="48.611236600" lon="9.197313300">
  <ele>364.000000</ele>
<time>2008-06-15T11:39:15Z</time>
  <name>TP1181</name>
</trkpt>
<trkpt lat="48.611231600" lon="9.197371600">
  <ele>364.000000</ele>
<time>2008-06-15T11:39:16Z</time>
  <name>TP1182</name>
</trkpt>
<trkpt lat="48.611228300" lon="9.197486600">
  <ele>364.000000</ele>
<time>2008-06-15T11:39:18Z</time>
  <name>TP1183</name>
</trkpt>
<trkpt lat="48.611238300" lon="9.197543300">
  <ele>364.000000</ele>
<time>2008-06-15T11:39:19Z</time>
  <name>TP1184</name>
</trkpt>
<trkpt lat="48.611271600" lon="9.197841600">
  <ele>365.000000</ele>
<time>2008-06-15T11:39:25Z</time>
  <name>TP1185</name>
</trkpt>
<trkpt lat="48.611296600" lon="9.197975000">
  <ele>365.000000</ele>
<time>2008-06-15T11:39:28Z</time>
  <name>TP1186</name>
</trkpt>
<trkpt lat="48.611306600" lon="9.198185000">
  <ele>364.000000</ele>
<time>2008-06-15T11:39:34Z</time>
  <name>TP1187</name>
</trkpt>
<trkpt lat="48.611320000" lon="9.198294900">
  <ele>364.000000</ele>
<time>2008-06-15T11:39:36Z</time>
  <name>TP1188</name>
</trkpt>
<trkpt lat="48.611329900" lon="9.198329900">
  <ele>364.000000</ele>
<time>2008-06-15T11:39:37Z</time>
  <name>TP1189</name>
</trkpt>
<trkpt lat="48.611396600" lon="9.198564900">
  <ele>363.000000</ele>
<time>2008-06-15T11:39:43Z</time>
  <name>TP1190</name>
</trkpt>
<trkpt lat="48.611401600" lon="9.198613300">
  <ele>363.000000</ele>
<time>2008-06-15T11:39:44Z</time>
  <name>TP1191</name>
</trkpt>
<trkpt lat="48.611416600" lon="9.198636600">
  <ele>363.000000</ele>
<time>2008-06-15T11:39:45Z</time>
  <name>TP1192</name>
</trkpt>
<trkpt lat="48.611446600" lon="9.198689900">
  <ele>362.000000</ele>
<time>2008-06-15T11:39:47Z</time>
  <name>TP1193</name>
</trkpt>
<trkpt lat="48.611464900" lon="9.198781600">
  <ele>362.000000</ele>
<time>2008-06-15T11:39:49Z</time>
  <name>TP1194</name>
</trkpt>
<trkpt lat="48.611524900" lon="9.198854900">
  <ele>362.000000</ele>
<time>2008-06-15T11:39:52Z</time>
  <name>TP1195</name>
</trkpt>
<trkpt lat="48.611594900" lon="9.199060000">
  <ele>361.000000</ele>
<time>2008-06-15T11:39:57Z</time>
  <name>TP1196</name>
</trkpt>
<trkpt lat="48.611633300" lon="9.199060000">
  <ele>361.000000</ele>
<time>2008-06-15T11:39:58Z</time>
  <name>TP1197</name>
</trkpt>
<trkpt lat="48.611655000" lon="9.199068300">
  <ele>361.000000</ele>
<time>2008-06-15T11:39:59Z</time>
  <name>TP1198</name>
</trkpt>
<trkpt lat="48.611676600" lon="9.199108300">
  <ele>361.000000</ele>
<time>2008-06-15T11:40:00Z</time>
  <name>TP1199</name>
</trkpt>
<trkpt lat="48.611703300" lon="9.199126600">
  <ele>360.000000</ele>
<time>2008-06-15T11:40:01Z</time>
  <name>TP1200</name>
</trkpt>
<trkpt lat="48.611770000" lon="9.199196600">
  <ele>360.000000</ele>
<time>2008-06-15T11:40:04Z</time>
  <name>TP1201</name>
</trkpt>
<trkpt lat="48.611859900" lon="9.199344900">
  <ele>359.000000</ele>
<time>2008-06-15T11:40:08Z</time>
  <name>TP1202</name>
</trkpt>
<trkpt lat="48.611871600" lon="9.199398300">
  <ele>359.000000</ele>
<time>2008-06-15T11:40:09Z</time>
  <name>TP1203</name>
</trkpt>
<trkpt lat="48.611893200" lon="9.199496600">
  <ele>359.000000</ele>
<time>2008-06-15T11:40:11Z</time>
  <name>TP1204</name>
</trkpt>
<trkpt lat="48.611895000" lon="9.199568300">
  <ele>358.000000</ele>
<time>2008-06-15T11:40:12Z</time>
  <name>TP1205</name>
</trkpt>
<trkpt lat="48.611899900" lon="9.199628300">
  <ele>358.000000</ele>
<time>2008-06-15T11:40:13Z</time>
  <name>TP1206</name>
</trkpt>
<trkpt lat="48.611928300" lon="9.199706600">
  <ele>358.000000</ele>
<time>2008-06-15T11:40:15Z</time>
  <name>TP1207</name>
</trkpt>
<trkpt lat="48.611963200" lon="9.199713300">
  <ele>357.000000</ele>
<time>2008-06-15T11:40:16Z</time>
  <name>TP1208</name>
</trkpt>
<trkpt lat="48.611974900" lon="9.199728300">
  <ele>357.000000</ele>
<time>2008-06-15T11:40:17Z</time>
  <name>TP1209</name>
</trkpt>
<trkpt lat="48.611974900" lon="9.199754900">
  <ele>357.000000</ele>
<time>2008-06-15T11:40:19Z</time>
  <name>TP1210</name>
</trkpt>
<trkpt lat="48.611988300" lon="9.199806600">
  <ele>357.000000</ele>
<time>2008-06-15T11:40:21Z</time>
  <name>TP1211</name>
</trkpt>
<trkpt lat="48.611995000" lon="9.199836600">
  <ele>357.000000</ele>
<time>2008-06-15T11:40:22Z</time>
  <name>TP1212</name>
</trkpt>
<trkpt lat="48.612001600" lon="9.199855000">
  <ele>357.000000</ele>
<time>2008-06-15T11:40:23Z</time>
  <name>TP1213</name>
</trkpt>
<trkpt lat="48.612021600" lon="9.199908300">
  <ele>357.000000</ele>
<time>2008-06-15T11:40:26Z</time>
  <name>TP1214</name>
</trkpt>
<trkpt lat="48.612023300" lon="9.199918300">
  <ele>357.000000</ele>
<time>2008-06-15T11:40:27Z</time>
  <name>TP1215</name>
</trkpt>
<trkpt lat="48.612029900" lon="9.199936600">
  <ele>357.000000</ele>
<time>2008-06-15T11:40:28Z</time>
  <name>TP1216</name>
</trkpt>
<trkpt lat="48.612023300" lon="9.199956600">
  <ele>357.000000</ele>
<time>2008-06-15T11:40:29Z</time>
  <name>TP1217</name>
</trkpt>
<trkpt lat="48.612036600" lon="9.199976600">
  <ele>357.000000</ele>
<time>2008-06-15T11:40:30Z</time>
  <name>TP1218</name>
</trkpt>
<trkpt lat="48.612063200" lon="9.199998300">
  <ele>358.000000</ele>
<time>2008-06-15T11:40:31Z</time>
  <name>TP1219</name>
</trkpt>
<trkpt lat="48.612023300" lon="9.199994900">
  <ele>358.000000</ele>
<time>2008-06-15T11:40:35Z</time>
  <name>TP1220</name>
</trkpt>
<trkpt lat="48.612023300" lon="9.200018300">
  <ele>359.000000</ele>
<time>2008-06-15T11:40:37Z</time>
  <name>TP1221</name>
</trkpt>
<trkpt lat="48.612048200" lon="9.200113300">
  <ele>359.000000</ele>
<time>2008-06-15T11:40:44Z</time>
  <name>TP1222</name>
</trkpt>
<trkpt lat="48.612044900" lon="9.200134900">
  <ele>359.000000</ele>
<time>2008-06-15T11:40:45Z</time>
  <name>TP1223</name>
</trkpt>
<trkpt lat="48.612073300" lon="9.200151600">
  <ele>360.000000</ele>
<time>2008-06-15T11:40:46Z</time>
  <name>TP1224</name>
</trkpt>
<trkpt lat="48.612081600" lon="9.200166600">
  <ele>360.000000</ele>
<time>2008-06-15T11:40:47Z</time>
  <name>TP1225</name>
</trkpt>
<trkpt lat="48.612086600" lon="9.200181600">
  <ele>360.000000</ele>
<time>2008-06-15T11:40:48Z</time>
  <name>TP1226</name>
</trkpt>
<trkpt lat="48.612094900" lon="9.200211600">
  <ele>360.000000</ele>
<time>2008-06-15T11:40:50Z</time>
  <name>TP1227</name>
</trkpt>
<trkpt lat="48.612101600" lon="9.200233300">
  <ele>360.000000</ele>
<time>2008-06-15T11:40:51Z</time>
  <name>TP1228</name>
</trkpt>
<trkpt lat="48.612093300" lon="9.200248300">
  <ele>360.000000</ele>
<time>2008-06-15T11:40:52Z</time>
  <name>TP1229</name>
</trkpt>
<trkpt lat="48.612086600" lon="9.200274900">
  <ele>360.000000</ele>
<time>2008-06-15T11:40:53Z</time>
  <name>TP1230</name>
</trkpt>
<trkpt lat="48.612103200" lon="9.200304900">
  <ele>360.000000</ele>
<time>2008-06-15T11:40:54Z</time>
  <name>TP1231</name>
</trkpt>
<trkpt lat="48.612124900" lon="9.200325000">
  <ele>360.000000</ele>
<time>2008-06-15T11:40:55Z</time>
  <name>TP1232</name>
</trkpt>
<trkpt lat="48.612135000" lon="9.200373300">
  <ele>360.000000</ele>
<time>2008-06-15T11:40:57Z</time>
  <name>TP1233</name>
</trkpt>
<trkpt lat="48.612151600" lon="9.200403300">
  <ele>360.000000</ele>
<time>2008-06-15T11:40:58Z</time>
  <name>TP1234</name>
</trkpt>
<trkpt lat="48.612168300" lon="9.200456600">
  <ele>360.000000</ele>
<time>2008-06-15T11:41:00Z</time>
  <name>TP1235</name>
</trkpt>
<trkpt lat="48.612163300" lon="9.200473300">
  <ele>360.000000</ele>
<time>2008-06-15T11:41:01Z</time>
  <name>TP1236</name>
</trkpt>
<trkpt lat="48.612151600" lon="9.200486600">
  <ele>360.000000</ele>
<time>2008-06-15T11:41:02Z</time>
  <name>TP1237</name>
</trkpt>
<trkpt lat="48.612139900" lon="9.200498300">
  <ele>360.000000</ele>
<time>2008-06-15T11:41:03Z</time>
  <name>TP1238</name>
</trkpt>
<trkpt lat="48.612129900" lon="9.200516600">
  <ele>360.000000</ele>
<time>2008-06-15T11:41:04Z</time>
  <name>TP1239</name>
</trkpt>
<trkpt lat="48.612131600" lon="9.200583300">
  <ele>361.000000</ele>
<time>2008-06-15T11:41:08Z</time>
  <name>TP1240</name>
</trkpt>
<trkpt lat="48.612139900" lon="9.200606600">
  <ele>361.000000</ele>
<time>2008-06-15T11:41:09Z</time>
  <name>TP1241</name>
</trkpt>
<trkpt lat="48.612121600" lon="9.200620000">
  <ele>361.000000</ele>
<time>2008-06-15T11:41:10Z</time>
  <name>TP1242</name>
</trkpt>
<trkpt lat="48.612133200" lon="9.200661600">
  <ele>361.000000</ele>
<time>2008-06-15T11:41:13Z</time>
  <name>TP1243</name>
</trkpt>
<trkpt lat="48.612141600" lon="9.200686600">
  <ele>361.000000</ele>
<time>2008-06-15T11:41:14Z</time>
  <name>TP1244</name>
</trkpt>
<trkpt lat="48.612138300" lon="9.200733300">
  <ele>361.000000</ele>
<time>2008-06-15T11:41:16Z</time>
  <name>TP1245</name>
</trkpt>
<trkpt lat="48.612148300" lon="9.200771600">
  <ele>361.000000</ele>
<time>2008-06-15T11:41:18Z</time>
  <name>TP1246</name>
</trkpt>
<trkpt lat="48.612160000" lon="9.200798300">
  <ele>361.000000</ele>
<time>2008-06-15T11:41:19Z</time>
  <name>TP1247</name>
</trkpt>
<trkpt lat="48.612168300" lon="9.200828300">
  <ele>361.000000</ele>
<time>2008-06-15T11:41:20Z</time>
  <name>TP1248</name>
</trkpt>
<trkpt lat="48.612188200" lon="9.200885000">
  <ele>362.000000</ele>
<time>2008-06-15T11:41:22Z</time>
  <name>TP1249</name>
</trkpt>
<trkpt lat="48.612193300" lon="9.200941600">
  <ele>362.000000</ele>
<time>2008-06-15T11:41:25Z</time>
  <name>TP1250</name>
</trkpt>
<trkpt lat="48.612184900" lon="9.200946600">
  <ele>362.000000</ele>
<time>2008-06-15T11:41:26Z</time>
  <name>TP1251</name>
</trkpt>
<trkpt lat="48.612191600" lon="9.200999900">
  <ele>362.000000</ele>
<time>2008-06-15T11:41:28Z</time>
  <name>TP1252</name>
</trkpt>
<trkpt lat="48.612194900" lon="9.201028300">
  <ele>362.000000</ele>
<time>2008-06-15T11:41:29Z</time>
  <name>TP1253</name>
</trkpt>
<trkpt lat="48.612188200" lon="9.201063300">
  <ele>363.000000</ele>
<time>2008-06-15T11:41:32Z</time>
  <name>TP1254</name>
</trkpt>
<trkpt lat="48.612193300" lon="9.201108300">
  <ele>363.000000</ele>
<time>2008-06-15T11:41:35Z</time>
  <name>TP1255</name>
</trkpt>
<trkpt lat="48.612208300" lon="9.201163300">
  <ele>363.000000</ele>
<time>2008-06-15T11:41:37Z</time>
  <name>TP1256</name>
</trkpt>
<trkpt lat="48.612209900" lon="9.201180000">
  <ele>363.000000</ele>
<time>2008-06-15T11:41:38Z</time>
  <name>TP1257</name>
</trkpt>
<trkpt lat="48.612214900" lon="9.201198300">
  <ele>363.000000</ele>
<time>2008-06-15T11:41:39Z</time>
  <name>TP1258</name>
</trkpt>
<trkpt lat="48.612201600" lon="9.201221600">
  <ele>364.000000</ele>
<time>2008-06-15T11:41:41Z</time>
  <name>TP1259</name>
</trkpt>
<trkpt lat="48.612213300" lon="9.201289900">
  <ele>364.000000</ele>
<time>2008-06-15T11:41:45Z</time>
  <name>TP1260</name>
</trkpt>
<trkpt lat="48.612209900" lon="9.201299900">
  <ele>364.000000</ele>
<time>2008-06-15T11:41:46Z</time>
  <name>TP1261</name>
</trkpt>
<trkpt lat="48.612205000" lon="9.201308300">
  <ele>364.000000</ele>
<time>2008-06-15T11:41:47Z</time>
  <name>TP1262</name>
</trkpt>
<trkpt lat="48.612196600" lon="9.201310000">
  <ele>364.000000</ele>
<time>2008-06-15T11:41:48Z</time>
  <name>TP1263</name>
</trkpt>
<trkpt lat="48.612196600" lon="9.201331600">
  <ele>364.000000</ele>
<time>2008-06-15T11:41:49Z</time>
  <name>TP1264</name>
</trkpt>
<trkpt lat="48.612213300" lon="9.201358300">
  <ele>364.000000</ele>
<time>2008-06-15T11:41:50Z</time>
  <name>TP1265</name>
</trkpt>
<trkpt lat="48.612223300" lon="9.201391600">
  <ele>364.000000</ele>
<time>2008-06-15T11:41:51Z</time>
  <name>TP1266</name>
</trkpt>
<trkpt lat="48.612228300" lon="9.201411600">
  <ele>364.000000</ele>
<time>2008-06-15T11:41:52Z</time>
  <name>TP1267</name>
</trkpt>
<trkpt lat="48.612233300" lon="9.201466600">
  <ele>365.000000</ele>
<time>2008-06-15T11:41:57Z</time>
  <name>TP1268</name>
</trkpt>
<trkpt lat="48.612228300" lon="9.201481600">
  <ele>365.000000</ele>
<time>2008-06-15T11:41:58Z</time>
  <name>TP1269</name>
</trkpt>
<trkpt lat="48.612231600" lon="9.201504900">
  <ele>365.000000</ele>
<time>2008-06-15T11:41:59Z</time>
  <name>TP1270</name>
</trkpt>
<trkpt lat="48.612228300" lon="9.201543300">
  <ele>366.000000</ele>
<time>2008-06-15T11:42:01Z</time>
  <name>TP1271</name>
</trkpt>
<trkpt lat="48.612228300" lon="9.201563300">
  <ele>366.000000</ele>
<time>2008-06-15T11:42:02Z</time>
  <name>TP1272</name>
</trkpt>
<trkpt lat="48.612221600" lon="9.201583300">
  <ele>366.000000</ele>
<time>2008-06-15T11:42:03Z</time>
  <name>TP1273</name>
</trkpt>
<trkpt lat="48.612188200" lon="9.201679900">
  <ele>366.000000</ele>
<time>2008-06-15T11:42:08Z</time>
  <name>TP1274</name>
</trkpt>
<trkpt lat="48.612201600" lon="9.201705000">
  <ele>367.000000</ele>
<time>2008-06-15T11:42:09Z</time>
  <name>TP1275</name>
</trkpt>
<trkpt lat="48.612199900" lon="9.201761600">
  <ele>367.000000</ele>
<time>2008-06-15T11:42:11Z</time>
  <name>TP1276</name>
</trkpt>
<trkpt lat="48.612194900" lon="9.201818300">
  <ele>367.000000</ele>
<time>2008-06-15T11:42:13Z</time>
  <name>TP1277</name>
</trkpt>
<trkpt lat="48.612193300" lon="9.201849900">
  <ele>367.000000</ele>
<time>2008-06-15T11:42:14Z</time>
  <name>TP1278</name>
</trkpt>
<trkpt lat="48.612179900" lon="9.201918300">
  <ele>367.000000</ele>
<time>2008-06-15T11:42:16Z</time>
  <name>TP1279</name>
</trkpt>
<trkpt lat="48.612175000" lon="9.201943300">
  <ele>367.000000</ele>
<time>2008-06-15T11:42:17Z</time>
  <name>TP1280</name>
</trkpt>
<trkpt lat="48.612154900" lon="9.201998300">
  <ele>367.000000</ele>
<time>2008-06-15T11:42:19Z</time>
  <name>TP1281</name>
</trkpt>
<trkpt lat="48.612160000" lon="9.202028300">
  <ele>367.000000</ele>
<time>2008-06-15T11:42:20Z</time>
  <name>TP1282</name>
</trkpt>
<trkpt lat="48.612158300" lon="9.202048300">
  <ele>367.000000</ele>
<time>2008-06-15T11:42:21Z</time>
  <name>TP1283</name>
</trkpt>
<trkpt lat="48.612154900" lon="9.202066600">
  <ele>367.000000</ele>
<time>2008-06-15T11:42:22Z</time>
  <name>TP1284</name>
</trkpt>
<trkpt lat="48.612158300" lon="9.202095000">
  <ele>368.000000</ele>
<time>2008-06-15T11:42:24Z</time>
  <name>TP1285</name>
</trkpt>
<trkpt lat="48.612160000" lon="9.202216600">
  <ele>368.000000</ele>
<time>2008-06-15T11:42:29Z</time>
  <name>TP1286</name>
</trkpt>
<trkpt lat="48.612141600" lon="9.202243300">
  <ele>369.000000</ele>
<time>2008-06-15T11:42:31Z</time>
  <name>TP1287</name>
</trkpt>
<trkpt lat="48.612126600" lon="9.202375000">
  <ele>371.000000</ele>
<time>2008-06-15T11:42:38Z</time>
  <name>TP1288</name>
</trkpt>
<trkpt lat="48.612116600" lon="9.202381600">
  <ele>372.000000</ele>
<time>2008-06-15T11:42:39Z</time>
  <name>TP1289</name>
</trkpt>
<trkpt lat="48.612121600" lon="9.202398300">
  <ele>373.000000</ele>
<time>2008-06-15T11:42:40Z</time>
  <name>TP1290</name>
</trkpt>
<trkpt lat="48.612118200" lon="9.202420000">
  <ele>373.000000</ele>
<time>2008-06-15T11:42:41Z</time>
  <name>TP1291</name>
</trkpt>
<trkpt lat="48.612114900" lon="9.202433300">
  <ele>374.000000</ele>
<time>2008-06-15T11:42:42Z</time>
  <name>TP1292</name>
</trkpt>
<trkpt lat="48.612113300" lon="9.202506600">
  <ele>372.000000</ele>
<time>2008-06-15T11:42:46Z</time>
  <name>TP1293</name>
</trkpt>
<trkpt lat="48.612136600" lon="9.202548300">
  <ele>373.000000</ele>
<time>2008-06-15T11:42:47Z</time>
  <name>TP1294</name>
</trkpt>
<trkpt lat="48.612169900" lon="9.202596600">
  <ele>373.000000</ele>
<time>2008-06-15T11:42:48Z</time>
  <name>TP1295</name>
</trkpt>
<trkpt lat="48.612168300" lon="9.202613300">
  <ele>373.000000</ele>
<time>2008-06-15T11:42:49Z</time>
  <name>TP1296</name>
</trkpt>
<trkpt lat="48.612160000" lon="9.202621600">
  <ele>373.000000</ele>
<time>2008-06-15T11:42:50Z</time>
  <name>TP1297</name>
</trkpt>
<trkpt lat="48.612168300" lon="9.202649900">
  <ele>373.000000</ele>
<time>2008-06-15T11:42:51Z</time>
  <name>TP1298</name>
</trkpt>
<trkpt lat="48.612168300" lon="9.202676600">
  <ele>373.000000</ele>
<time>2008-06-15T11:42:52Z</time>
  <name>TP1299</name>
</trkpt>
<trkpt lat="48.612156600" lon="9.202706600">
  <ele>373.000000</ele>
<time>2008-06-15T11:42:54Z</time>
  <name>TP1300</name>
</trkpt>
<trkpt lat="48.612181600" lon="9.202748300">
  <ele>374.000000</ele>
<time>2008-06-15T11:42:55Z</time>
  <name>TP1301</name>
</trkpt>
<trkpt lat="48.612208300" lon="9.202786600">
  <ele>374.000000</ele>
<time>2008-06-15T11:42:56Z</time>
  <name>TP1302</name>
</trkpt>
<trkpt lat="48.612211600" lon="9.202806600">
  <ele>374.000000</ele>
<time>2008-06-15T11:42:57Z</time>
  <name>TP1303</name>
</trkpt>
<trkpt lat="48.612218300" lon="9.202824900">
  <ele>374.000000</ele>
<time>2008-06-15T11:42:58Z</time>
  <name>TP1304</name>
</trkpt>
<trkpt lat="48.612209900" lon="9.202846600">
  <ele>375.000000</ele>
<time>2008-06-15T11:42:59Z</time>
  <name>TP1305</name>
</trkpt>
<trkpt lat="48.612216600" lon="9.202886600">
  <ele>375.000000</ele>
<time>2008-06-15T11:43:00Z</time>
  <name>TP1306</name>
</trkpt>
<trkpt lat="48.612230000" lon="9.202988300">
  <ele>375.000000</ele>
<time>2008-06-15T11:43:04Z</time>
  <name>TP1307</name>
</trkpt>
<trkpt lat="48.612251600" lon="9.203031600">
  <ele>375.000000</ele>
<time>2008-06-15T11:43:06Z</time>
  <name>TP1308</name>
</trkpt>
<trkpt lat="48.612238300" lon="9.203028300">
  <ele>375.000000</ele>
<time>2008-06-15T11:43:07Z</time>
  <name>TP1309</name>
</trkpt>
<trkpt lat="48.612223300" lon="9.203043300">
  <ele>375.000000</ele>
<time>2008-06-15T11:43:08Z</time>
  <name>TP1310</name>
</trkpt>
<trkpt lat="48.612231600" lon="9.203093300">
  <ele>375.000000</ele>
<time>2008-06-15T11:43:11Z</time>
  <name>TP1311</name>
</trkpt>
<trkpt lat="48.612241600" lon="9.203111600">
  <ele>375.000000</ele>
<time>2008-06-15T11:43:12Z</time>
  <name>TP1312</name>
</trkpt>
<trkpt lat="48.612241600" lon="9.203156600">
  <ele>375.000000</ele>
<time>2008-06-15T11:43:15Z</time>
  <name>TP1313</name>
</trkpt>
<trkpt lat="48.612243200" lon="9.203178300">
  <ele>376.000000</ele>
<time>2008-06-15T11:43:16Z</time>
  <name>TP1314</name>
</trkpt>
<trkpt lat="48.612246600" lon="9.203198300">
  <ele>376.000000</ele>
<time>2008-06-15T11:43:17Z</time>
  <name>TP1315</name>
</trkpt>
<trkpt lat="48.612260000" lon="9.203310000">
  <ele>376.000000</ele>
<time>2008-06-15T11:43:21Z</time>
  <name>TP1316</name>
</trkpt>
<trkpt lat="48.612278300" lon="9.203371600">
  <ele>376.000000</ele>
<time>2008-06-15T11:43:23Z</time>
  <name>TP1317</name>
</trkpt>
<trkpt lat="48.612276600" lon="9.203388300">
  <ele>376.000000</ele>
<time>2008-06-15T11:43:24Z</time>
  <name>TP1318</name>
</trkpt>
<trkpt lat="48.612276600" lon="9.203411600">
  <ele>376.000000</ele>
<time>2008-06-15T11:43:25Z</time>
  <name>TP1319</name>
</trkpt>
<trkpt lat="48.612239900" lon="9.203433300">
  <ele>376.000000</ele>
<time>2008-06-15T11:43:27Z</time>
  <name>TP1320</name>
</trkpt>
<trkpt lat="48.612221600" lon="9.203491600">
  <ele>375.000000</ele>
<time>2008-06-15T11:43:29Z</time>
  <name>TP1321</name>
</trkpt>
<trkpt lat="48.612206600" lon="9.203526600">
  <ele>375.000000</ele>
<time>2008-06-15T11:43:31Z</time>
  <name>TP1322</name>
</trkpt>
<trkpt lat="48.612201600" lon="9.203534900">
  <ele>376.000000</ele>
<time>2008-06-15T11:43:32Z</time>
  <name>TP1323</name>
</trkpt>
<trkpt lat="48.612201600" lon="9.203593300">
  <ele>376.000000</ele>
<time>2008-06-15T11:43:35Z</time>
  <name>TP1324</name>
</trkpt>
<trkpt lat="48.612205000" lon="9.203656600">
  <ele>376.000000</ele>
<time>2008-06-15T11:43:38Z</time>
  <name>TP1325</name>
</trkpt>
<trkpt lat="48.612209900" lon="9.203679900">
  <ele>376.000000</ele>
<time>2008-06-15T11:43:39Z</time>
  <name>TP1326</name>
</trkpt>
<trkpt lat="48.612275000" lon="9.203825000">
  <ele>376.000000</ele>
<time>2008-06-15T11:43:45Z</time>
  <name>TP1327</name>
</trkpt>
<trkpt lat="48.612248300" lon="9.203850000">
  <ele>377.000000</ele>
<time>2008-06-15T11:43:47Z</time>
  <name>TP1328</name>
</trkpt>
<trkpt lat="48.612254900" lon="9.203870000">
  <ele>377.000000</ele>
<time>2008-06-15T11:43:48Z</time>
  <name>TP1329</name>
</trkpt>
<trkpt lat="48.612301600" lon="9.203923300">
  <ele>378.000000</ele>
<time>2008-06-15T11:43:49Z</time>
  <name>TP1330</name>
</trkpt>
<trkpt lat="48.612279900" lon="9.203951600">
  <ele>379.000000</ele>
<time>2008-06-15T11:43:51Z</time>
  <name>TP1331</name>
</trkpt>
<trkpt lat="48.612288300" lon="9.204018300">
  <ele>379.000000</ele>
<time>2008-06-15T11:43:54Z</time>
  <name>TP1332</name>
</trkpt>
<trkpt lat="48.612301600" lon="9.204083300">
  <ele>377.000000</ele>
<time>2008-06-15T11:43:55Z</time>
  <name>TP1333</name>
</trkpt>
<trkpt lat="48.612271600" lon="9.204169900">
  <ele>375.000000</ele>
<time>2008-06-15T11:43:57Z</time>
  <name>TP1334</name>
</trkpt>
<trkpt lat="48.612269900" lon="9.204264900">
  <ele>374.000000</ele>
<time>2008-06-15T11:44:02Z</time>
  <name>TP1335</name>
</trkpt>
<trkpt lat="48.612269900" lon="9.204273300">
  <ele>374.000000</ele>
<time>2008-06-15T11:44:03Z</time>
  <name>TP1336</name>
</trkpt>
<trkpt lat="48.612271600" lon="9.204276600">
  <ele>374.000000</ele>
<time>2008-06-15T11:44:04Z</time>
  <name>TP1337</name>
</trkpt>
<trkpt lat="48.612219900" lon="9.204324900">
  <ele>375.000000</ele>
<time>2008-06-15T11:44:29Z</time>
  <name>TP1338</name>
</trkpt>
<trkpt lat="48.612260000" lon="9.204273300">
  <ele>375.000000</ele>
<time>2008-06-15T11:44:31Z</time>
  <name>TP1339</name>
</trkpt>
<trkpt lat="48.612245000" lon="9.204293300">
  <ele>375.000000</ele>
<time>2008-06-15T11:44:36Z</time>
  <name>TP1340</name>
</trkpt>
<trkpt lat="48.612239900" lon="9.204293300">
  <ele>375.000000</ele>
<time>2008-06-15T11:44:37Z</time>
  <name>TP1341</name>
</trkpt>
<trkpt lat="48.612238300" lon="9.204288300">
  <ele>375.000000</ele>
<time>2008-06-15T11:44:53Z</time>
  <name>TP1342</name>
</trkpt>
<trkpt lat="48.612238300" lon="9.204298300">
  <ele>375.000000</ele>
<time>2008-06-15T11:44:54Z</time>
  <name>TP1343</name>
</trkpt>
<trkpt lat="48.612236600" lon="9.204308300">
  <ele>375.000000</ele>
<time>2008-06-15T11:44:55Z</time>
  <name>TP1344</name>
</trkpt>
<trkpt lat="48.612230000" lon="9.204321600">
  <ele>375.000000</ele>
<time>2008-06-15T11:44:56Z</time>
  <name>TP1345</name>
</trkpt>
<trkpt lat="48.612206600" lon="9.204324900">
  <ele>375.000000</ele>
<time>2008-06-15T11:45:00Z</time>
  <name>TP1346</name>
</trkpt>
<trkpt lat="48.612196600" lon="9.204318300">
  <ele>375.000000</ele>
<time>2008-06-15T11:45:02Z</time>
  <name>TP1347</name>
</trkpt>
<trkpt lat="48.612226600" lon="9.204330000">
  <ele>375.000000</ele>
<time>2008-06-15T11:45:05Z</time>
  <name>TP1348</name>
</trkpt>
<trkpt lat="48.612213300" lon="9.204381600">
  <ele>375.000000</ele>
<time>2008-06-15T11:45:08Z</time>
  <name>TP1349</name>
</trkpt>
<trkpt lat="48.612234900" lon="9.204420000">
  <ele>375.000000</ele>
<time>2008-06-15T11:45:12Z</time>
  <name>TP1350</name>
</trkpt>
<trkpt lat="48.612249900" lon="9.204441600">
  <ele>375.000000</ele>
<time>2008-06-15T11:45:13Z</time>
  <name>TP1351</name>
</trkpt>
<trkpt lat="48.612246600" lon="9.204449900">
  <ele>375.000000</ele>
<time>2008-06-15T11:45:14Z</time>
  <name>TP1352</name>
</trkpt>
<trkpt lat="48.612264900" lon="9.204483300">
  <ele>375.000000</ele>
<time>2008-06-15T11:45:16Z</time>
  <name>TP1353</name>
</trkpt>
<trkpt lat="48.612286600" lon="9.204508300">
  <ele>375.000000</ele>
<time>2008-06-15T11:45:18Z</time>
  <name>TP1354</name>
</trkpt>
<trkpt lat="48.612321600" lon="9.204624900">
  <ele>375.000000</ele>
<time>2008-06-15T11:45:24Z</time>
  <name>TP1355</name>
</trkpt>
<trkpt lat="48.612354900" lon="9.204696600">
  <ele>375.000000</ele>
<time>2008-06-15T11:45:27Z</time>
  <name>TP1356</name>
</trkpt>
<trkpt lat="48.612374900" lon="9.204764900">
  <ele>375.000000</ele>
<time>2008-06-15T11:45:31Z</time>
  <name>TP1357</name>
</trkpt>
<trkpt lat="48.612389900" lon="9.204799900">
  <ele>375.000000</ele>
<time>2008-06-15T11:45:32Z</time>
  <name>TP1358</name>
</trkpt>
<trkpt lat="48.612383200" lon="9.204810000">
  <ele>375.000000</ele>
<time>2008-06-15T11:45:33Z</time>
  <name>TP1359</name>
</trkpt>
<trkpt lat="48.612371600" lon="9.204830000">
  <ele>375.000000</ele>
<time>2008-06-15T11:45:35Z</time>
  <name>TP1360</name>
</trkpt>
<trkpt lat="48.612339900" lon="9.204855000">
  <ele>376.000000</ele>
<time>2008-06-15T11:45:38Z</time>
  <name>TP1361</name>
</trkpt>
<trkpt lat="48.612339900" lon="9.204891600">
  <ele>376.000000</ele>
<time>2008-06-15T11:45:40Z</time>
  <name>TP1362</name>
</trkpt>
<trkpt lat="48.612339900" lon="9.204971600">
  <ele>376.000000</ele>
<time>2008-06-15T11:45:44Z</time>
  <name>TP1363</name>
</trkpt>
<trkpt lat="48.612349900" lon="9.205016600">
  <ele>376.000000</ele>
<time>2008-06-15T11:45:46Z</time>
  <name>TP1364</name>
</trkpt>
<trkpt lat="48.612354900" lon="9.205126600">
  <ele>376.000000</ele>
<time>2008-06-15T11:45:52Z</time>
  <name>TP1365</name>
</trkpt>
<trkpt lat="48.612341600" lon="9.205160000">
  <ele>376.000000</ele>
<time>2008-06-15T11:45:54Z</time>
  <name>TP1366</name>
</trkpt>
<trkpt lat="48.612343200" lon="9.205226600">
  <ele>377.000000</ele>
<time>2008-06-15T11:45:57Z</time>
  <name>TP1367</name>
</trkpt>
<trkpt lat="48.612341600" lon="9.205248300">
  <ele>377.000000</ele>
<time>2008-06-15T11:45:58Z</time>
  <name>TP1368</name>
</trkpt>
<trkpt lat="48.612336600" lon="9.205310000">
  <ele>377.000000</ele>
<time>2008-06-15T11:46:01Z</time>
  <name>TP1369</name>
</trkpt>
<trkpt lat="48.612334900" lon="9.205328300">
  <ele>377.000000</ele>
<time>2008-06-15T11:46:02Z</time>
  <name>TP1370</name>
</trkpt>
<trkpt lat="48.612334900" lon="9.205364900">
  <ele>378.000000</ele>
<time>2008-06-15T11:46:04Z</time>
  <name>TP1371</name>
</trkpt>
<trkpt lat="48.612316600" lon="9.205454900">
  <ele>379.000000</ele>
<time>2008-06-15T11:46:09Z</time>
  <name>TP1372</name>
</trkpt>
<trkpt lat="48.612311600" lon="9.205473300">
  <ele>379.000000</ele>
<time>2008-06-15T11:46:10Z</time>
  <name>TP1373</name>
</trkpt>
<trkpt lat="48.612283300" lon="9.205683300">
  <ele>379.000000</ele>
<time>2008-06-15T11:46:20Z</time>
  <name>TP1374</name>
</trkpt>
<trkpt lat="48.612266600" lon="9.205751600">
  <ele>380.000000</ele>
<time>2008-06-15T11:46:24Z</time>
  <name>TP1375</name>
</trkpt>
<trkpt lat="48.612263300" lon="9.205764900">
  <ele>380.000000</ele>
<time>2008-06-15T11:46:25Z</time>
  <name>TP1376</name>
</trkpt>
<trkpt lat="48.612243200" lon="9.205825000">
  <ele>381.000000</ele>
<time>2008-06-15T11:46:29Z</time>
  <name>TP1377</name>
</trkpt>
<trkpt lat="48.612233300" lon="9.205828300">
  <ele>382.000000</ele>
<time>2008-06-15T11:46:30Z</time>
  <name>TP1378</name>
</trkpt>
<trkpt lat="48.612224900" lon="9.205844900">
  <ele>382.000000</ele>
<time>2008-06-15T11:46:31Z</time>
  <name>TP1379</name>
</trkpt>
<trkpt lat="48.612218300" lon="9.205860000">
  <ele>382.000000</ele>
<time>2008-06-15T11:46:32Z</time>
  <name>TP1380</name>
</trkpt>
<trkpt lat="48.612209900" lon="9.205875000">
  <ele>382.000000</ele>
<time>2008-06-15T11:46:33Z</time>
  <name>TP1381</name>
</trkpt>
<trkpt lat="48.612201600" lon="9.205888300">
  <ele>382.000000</ele>
<time>2008-06-15T11:46:34Z</time>
  <name>TP1382</name>
</trkpt>
<trkpt lat="48.612168300" lon="9.205949900">
  <ele>383.000000</ele>
<time>2008-06-15T11:46:39Z</time>
  <name>TP1383</name>
</trkpt>
<trkpt lat="48.612160000" lon="9.206013300">
  <ele>384.000000</ele>
<time>2008-06-15T11:46:42Z</time>
  <name>TP1384</name>
</trkpt>
<trkpt lat="48.612138300" lon="9.206039900">
  <ele>384.000000</ele>
<time>2008-06-15T11:46:44Z</time>
  <name>TP1385</name>
</trkpt>
<trkpt lat="48.612135000" lon="9.206073300">
  <ele>384.000000</ele>
<time>2008-06-15T11:46:45Z</time>
  <name>TP1386</name>
</trkpt>
<trkpt lat="48.612083300" lon="9.206105000">
  <ele>382.000000</ele>
<time>2008-06-15T11:46:48Z</time>
  <name>TP1387</name>
</trkpt>
<trkpt lat="48.612086600" lon="9.206140000">
  <ele>383.000000</ele>
<time>2008-06-15T11:46:50Z</time>
  <name>TP1388</name>
</trkpt>
<trkpt lat="48.612043300" lon="9.206168300">
  <ele>383.000000</ele>
<time>2008-06-15T11:46:53Z</time>
  <name>TP1389</name>
</trkpt>
<trkpt lat="48.612054900" lon="9.206184900">
  <ele>384.000000</ele>
<time>2008-06-15T11:46:54Z</time>
  <name>TP1390</name>
</trkpt>
<trkpt lat="48.612033200" lon="9.206190000">
  <ele>384.000000</ele>
<time>2008-06-15T11:46:55Z</time>
  <name>TP1391</name>
</trkpt>
<trkpt lat="48.612009900" lon="9.206191600">
  <ele>384.000000</ele>
<time>2008-06-15T11:46:56Z</time>
  <name>TP1392</name>
</trkpt>
<trkpt lat="48.611974900" lon="9.206198300">
  <ele>384.000000</ele>
<time>2008-06-15T11:46:58Z</time>
  <name>TP1393</name>
</trkpt>
<trkpt lat="48.611961600" lon="9.206204900">
  <ele>384.000000</ele>
<time>2008-06-15T11:46:59Z</time>
  <name>TP1394</name>
</trkpt>
<trkpt lat="48.611914900" lon="9.206229900">
  <ele>384.000000</ele>
<time>2008-06-15T11:47:02Z</time>
  <name>TP1395</name>
</trkpt>
<trkpt lat="48.611883300" lon="9.206244900">
  <ele>384.000000</ele>
<time>2008-06-15T11:47:04Z</time>
  <name>TP1396</name>
</trkpt>
<trkpt lat="48.611796600" lon="9.206258300">
  <ele>384.000000</ele>
<time>2008-06-15T11:47:09Z</time>
  <name>TP1397</name>
</trkpt>
<trkpt lat="48.611700000" lon="9.206261600">
  <ele>384.000000</ele>
<time>2008-06-15T11:47:15Z</time>
  <name>TP1398</name>
</trkpt>
<trkpt lat="48.611643300" lon="9.206268300">
  <ele>384.000000</ele>
<time>2008-06-15T11:47:18Z</time>
  <name>TP1399</name>
</trkpt>
<trkpt lat="48.611551600" lon="9.206285000">
  <ele>384.000000</ele>
<time>2008-06-15T11:47:23Z</time>
  <name>TP1400</name>
</trkpt>
<trkpt lat="48.611434900" lon="9.206303300">
  <ele>383.000000</ele>
<time>2008-06-15T11:47:30Z</time>
  <name>TP1401</name>
</trkpt>
<trkpt lat="48.611416600" lon="9.206309900">
  <ele>384.000000</ele>
<time>2008-06-15T11:47:32Z</time>
  <name>TP1402</name>
</trkpt>
<trkpt lat="48.611406600" lon="9.206323300">
  <ele>384.000000</ele>
<time>2008-06-15T11:47:33Z</time>
  <name>TP1403</name>
</trkpt>
<trkpt lat="48.611369900" lon="9.206368300">
  <ele>385.000000</ele>
<time>2008-06-15T11:47:37Z</time>
  <name>TP1404</name>
</trkpt>
<trkpt lat="48.611363300" lon="9.206379900">
  <ele>385.000000</ele>
<time>2008-06-15T11:47:38Z</time>
  <name>TP1405</name>
</trkpt>
<trkpt lat="48.611353300" lon="9.206401600">
  <ele>386.000000</ele>
<time>2008-06-15T11:47:40Z</time>
  <name>TP1406</name>
</trkpt>
<trkpt lat="48.611331600" lon="9.206425000">
  <ele>386.000000</ele>
<time>2008-06-15T11:47:42Z</time>
  <name>TP1407</name>
</trkpt>
<trkpt lat="48.611329900" lon="9.206445000">
  <ele>386.000000</ele>
<time>2008-06-15T11:47:43Z</time>
  <name>TP1408</name>
</trkpt>
<trkpt lat="48.611313300" lon="9.206468300">
  <ele>387.000000</ele>
<time>2008-06-15T11:47:45Z</time>
  <name>TP1409</name>
</trkpt>
<trkpt lat="48.611278200" lon="9.206505000">
  <ele>388.000000</ele>
<time>2008-06-15T11:47:48Z</time>
  <name>TP1410</name>
</trkpt>
<trkpt lat="48.611286600" lon="9.206563300">
  <ele>388.000000</ele>
<time>2008-06-15T11:47:51Z</time>
  <name>TP1411</name>
</trkpt>
<trkpt lat="48.611311600" lon="9.206618300">
  <ele>389.000000</ele>
<time>2008-06-15T11:47:53Z</time>
  <name>TP1412</name>
</trkpt>
<trkpt lat="48.611338300" lon="9.206658300">
  <ele>389.000000</ele>
<time>2008-06-15T11:47:54Z</time>
  <name>TP1413</name>
</trkpt>
<trkpt lat="48.611416600" lon="9.206773300">
  <ele>391.000000</ele>
<time>2008-06-15T11:47:59Z</time>
  <name>TP1414</name>
</trkpt>
<trkpt lat="48.611438300" lon="9.206849900">
  <ele>392.000000</ele>
<time>2008-06-15T11:48:02Z</time>
  <name>TP1415</name>
</trkpt>
<trkpt lat="48.611446600" lon="9.206874900">
  <ele>392.000000</ele>
<time>2008-06-15T11:48:03Z</time>
  <name>TP1416</name>
</trkpt>
<trkpt lat="48.611446600" lon="9.206894900">
  <ele>392.000000</ele>
<time>2008-06-15T11:48:04Z</time>
  <name>TP1417</name>
</trkpt>
<trkpt lat="48.611463300" lon="9.207053300">
  <ele>390.000000</ele>
<time>2008-06-15T11:48:11Z</time>
  <name>TP1418</name>
</trkpt>
<trkpt lat="48.611475000" lon="9.207091600">
  <ele>390.000000</ele>
<time>2008-06-15T11:48:13Z</time>
  <name>TP1419</name>
</trkpt>
<trkpt lat="48.611484900" lon="9.207129900">
  <ele>390.000000</ele>
<time>2008-06-15T11:48:15Z</time>
  <name>TP1420</name>
</trkpt>
<trkpt lat="48.611488200" lon="9.207144900">
  <ele>390.000000</ele>
<time>2008-06-15T11:48:16Z</time>
  <name>TP1421</name>
</trkpt>
<trkpt lat="48.611493300" lon="9.207160000">
  <ele>390.000000</ele>
<time>2008-06-15T11:48:17Z</time>
  <name>TP1422</name>
</trkpt>
<trkpt lat="48.611503300" lon="9.207181600">
  <ele>390.000000</ele>
<time>2008-06-15T11:48:19Z</time>
  <name>TP1423</name>
</trkpt>
<trkpt lat="48.611499900" lon="9.207214900">
  <ele>390.000000</ele>
<time>2008-06-15T11:48:21Z</time>
  <name>TP1424</name>
</trkpt>
<trkpt lat="48.611523300" lon="9.207331600">
  <ele>391.000000</ele>
<time>2008-06-15T11:48:29Z</time>
  <name>TP1425</name>
</trkpt>
<trkpt lat="48.611509900" lon="9.207364900">
  <ele>391.000000</ele>
<time>2008-06-15T11:48:32Z</time>
  <name>TP1426</name>
</trkpt>
<trkpt lat="48.611546600" lon="9.207479900">
  <ele>392.000000</ele>
<time>2008-06-15T11:48:40Z</time>
  <name>TP1427</name>
</trkpt>
<trkpt lat="48.611568300" lon="9.207511600">
  <ele>392.000000</ele>
<time>2008-06-15T11:48:45Z</time>
  <name>TP1428</name>
</trkpt>
<trkpt lat="48.611576600" lon="9.207571600">
  <ele>392.000000</ele>
<time>2008-06-15T11:48:50Z</time>
  <name>TP1429</name>
</trkpt>
<trkpt lat="48.611583300" lon="9.207609900">
  <ele>393.000000</ele>
<time>2008-06-15T11:48:52Z</time>
  <name>TP1430</name>
</trkpt>
<trkpt lat="48.611601600" lon="9.207675000">
  <ele>392.000000</ele>
<time>2008-06-15T11:48:54Z</time>
  <name>TP1431</name>
</trkpt>
<trkpt lat="48.611611600" lon="9.207701600">
  <ele>392.000000</ele>
<time>2008-06-15T11:48:55Z</time>
  <name>TP1432</name>
</trkpt>
<trkpt lat="48.611674900" lon="9.207853300">
  <ele>392.000000</ele>
<time>2008-06-15T11:49:00Z</time>
  <name>TP1433</name>
</trkpt>
<trkpt lat="48.611773300" lon="9.208076600">
  <ele>392.000000</ele>
<time>2008-06-15T11:49:05Z</time>
  <name>TP1434</name>
</trkpt>
<trkpt lat="48.611779900" lon="9.208113300">
  <ele>392.000000</ele>
<time>2008-06-15T11:49:06Z</time>
  <name>TP1435</name>
</trkpt>
<trkpt lat="48.611943300" lon="9.208498300">
  <ele>393.000000</ele>
<time>2008-06-15T11:49:19Z</time>
  <name>TP1436</name>
</trkpt>
<trkpt lat="48.611974900" lon="9.208573300">
  <ele>393.000000</ele>
<time>2008-06-15T11:49:22Z</time>
  <name>TP1437</name>
</trkpt>
<trkpt lat="48.612033200" lon="9.208668300">
  <ele>394.000000</ele>
<time>2008-06-15T11:49:27Z</time>
  <name>TP1438</name>
</trkpt>
<trkpt lat="48.612061600" lon="9.208758300">
  <ele>394.000000</ele>
<time>2008-06-15T11:49:29Z</time>
  <name>TP1439</name>
</trkpt>
<trkpt lat="48.612083300" lon="9.208806600">
  <ele>394.000000</ele>
<time>2008-06-15T11:49:30Z</time>
  <name>TP1440</name>
</trkpt>
<trkpt lat="48.612161600" lon="9.209018300">
  <ele>395.000000</ele>
<time>2008-06-15T11:49:36Z</time>
  <name>TP1441</name>
</trkpt>
<trkpt lat="48.612158300" lon="9.209055000">
  <ele>395.000000</ele>
<time>2008-06-15T11:49:37Z</time>
  <name>TP1442</name>
</trkpt>
<trkpt lat="48.612173200" lon="9.209094900">
  <ele>395.000000</ele>
<time>2008-06-15T11:49:38Z</time>
  <name>TP1443</name>
</trkpt>
<trkpt lat="48.612178300" lon="9.209144900">
  <ele>395.000000</ele>
<time>2008-06-15T11:49:41Z</time>
  <name>TP1444</name>
</trkpt>
<trkpt lat="48.612178300" lon="9.209161600">
  <ele>395.000000</ele>
<time>2008-06-15T11:49:42Z</time>
  <name>TP1445</name>
</trkpt>
<trkpt lat="48.612198300" lon="9.209191600">
  <ele>396.000000</ele>
<time>2008-06-15T11:49:43Z</time>
  <name>TP1446</name>
</trkpt>
<trkpt lat="48.612208300" lon="9.209259900">
  <ele>396.000000</ele>
<time>2008-06-15T11:49:45Z</time>
  <name>TP1447</name>
</trkpt>
<trkpt lat="48.612213300" lon="9.209315000">
  <ele>396.000000</ele>
<time>2008-06-15T11:49:47Z</time>
  <name>TP1448</name>
</trkpt>
<trkpt lat="48.612211600" lon="9.209376600">
  <ele>395.000000</ele>
<time>2008-06-15T11:50:52Z</time>
  <name>TP1449</name>
</trkpt>
<trkpt lat="48.612214900" lon="9.209395000">
  <ele>395.000000</ele>
<time>2008-06-15T11:50:54Z</time>
  <name>TP1450</name>
</trkpt>
<trkpt lat="48.612216600" lon="9.209423300">
  <ele>395.000000</ele>
<time>2008-06-15T11:50:55Z</time>
  <name>TP1451</name>
</trkpt>
<trkpt lat="48.612219900" lon="9.209446600">
  <ele>395.000000</ele>
<time>2008-06-15T11:50:56Z</time>
  <name>TP1452</name>
</trkpt>
<trkpt lat="48.612230000" lon="9.209494900">
  <ele>395.000000</ele>
<time>2008-06-15T11:50:58Z</time>
  <name>TP1453</name>
</trkpt>
<trkpt lat="48.612231600" lon="9.209560000">
  <ele>395.000000</ele>
<time>2008-06-15T11:51:01Z</time>
  <name>TP1454</name>
</trkpt>
<trkpt lat="48.612234900" lon="9.209586600">
  <ele>395.000000</ele>
<time>2008-06-15T11:51:02Z</time>
  <name>TP1455</name>
</trkpt>
<trkpt lat="48.612234900" lon="9.209608300">
  <ele>395.000000</ele>
<time>2008-06-15T11:51:03Z</time>
  <name>TP1456</name>
</trkpt>
<trkpt lat="48.612254900" lon="9.209706600">
  <ele>396.000000</ele>
<time>2008-06-15T11:51:07Z</time>
  <name>TP1457</name>
</trkpt>
<trkpt lat="48.612273200" lon="9.209778300">
  <ele>396.000000</ele>
<time>2008-06-15T11:51:10Z</time>
  <name>TP1458</name>
</trkpt>
<trkpt lat="48.612268300" lon="9.209791600">
  <ele>396.000000</ele>
<time>2008-06-15T11:51:11Z</time>
  <name>TP1459</name>
</trkpt>
<trkpt lat="48.612275000" lon="9.209836600">
  <ele>396.000000</ele>
<time>2008-06-15T11:51:13Z</time>
  <name>TP1460</name>
</trkpt>
<trkpt lat="48.612268300" lon="9.209869900">
  <ele>396.000000</ele>
<time>2008-06-15T11:51:16Z</time>
  <name>TP1461</name>
</trkpt>
<trkpt lat="48.612256600" lon="9.209866600">
  <ele>396.000000</ele>
<time>2008-06-15T11:51:18Z</time>
  <name>TP1462</name>
</trkpt>
<trkpt lat="48.612243200" lon="9.209873300">
  <ele>396.000000</ele>
<time>2008-06-15T11:51:19Z</time>
  <name>TP1463</name>
</trkpt>
<trkpt lat="48.612238300" lon="9.209873300">
  <ele>396.000000</ele>
<time>2008-06-15T11:51:20Z</time>
  <name>TP1464</name>
</trkpt>
<trkpt lat="48.612231600" lon="9.209886600">
  <ele>396.000000</ele>
<time>2008-06-15T11:51:21Z</time>
  <name>TP1465</name>
</trkpt>
<trkpt lat="48.612234900" lon="9.209939900">
  <ele>396.000000</ele>
<time>2008-06-15T11:51:23Z</time>
  <name>TP1466</name>
</trkpt>
<trkpt lat="48.612233300" lon="9.209958300">
  <ele>396.000000</ele>
<time>2008-06-15T11:51:24Z</time>
  <name>TP1467</name>
</trkpt>
<trkpt lat="48.612228300" lon="9.209995000">
  <ele>396.000000</ele>
<time>2008-06-15T11:51:25Z</time>
  <name>TP1468</name>
</trkpt>
<trkpt lat="48.612206600" lon="9.210005000">
  <ele>396.000000</ele>
<time>2008-06-15T11:51:26Z</time>
  <name>TP1469</name>
</trkpt>
<trkpt lat="48.612228300" lon="9.210040000">
  <ele>396.000000</ele>
<time>2008-06-15T11:51:27Z</time>
  <name>TP1470</name>
</trkpt>
<trkpt lat="48.612258200" lon="9.210083300">
  <ele>396.000000</ele>
<time>2008-06-15T11:51:28Z</time>
  <name>TP1471</name>
</trkpt>
<trkpt lat="48.612283300" lon="9.210121600">
  <ele>396.000000</ele>
<time>2008-06-15T11:51:29Z</time>
  <name>TP1472</name>
</trkpt>
<trkpt lat="48.612315000" lon="9.210206600">
  <ele>396.000000</ele>
<time>2008-06-15T11:51:31Z</time>
  <name>TP1473</name>
</trkpt>
<trkpt lat="48.612366600" lon="9.210318300">
  <ele>396.000000</ele>
<time>2008-06-15T11:51:33Z</time>
  <name>TP1474</name>
</trkpt>
<trkpt lat="48.612433300" lon="9.210478300">
  <ele>396.000000</ele>
<time>2008-06-15T11:51:36Z</time>
  <name>TP1475</name>
</trkpt>
<trkpt lat="48.612781600" lon="9.211253300">
  <ele>395.000000</ele>
<time>2008-06-15T11:51:51Z</time>
  <name>TP1476</name>
</trkpt>
<trkpt lat="48.612821600" lon="9.211344900">
  <ele>394.000000</ele>
<time>2008-06-15T11:51:53Z</time>
  <name>TP1477</name>
</trkpt>
<trkpt lat="48.612876600" lon="9.211439900">
  <ele>394.000000</ele>
<time>2008-06-15T11:51:55Z</time>
  <name>TP1478</name>
</trkpt>
<trkpt lat="48.612896600" lon="9.211488300">
  <ele>394.000000</ele>
<time>2008-06-15T11:51:56Z</time>
  <name>TP1479</name>
</trkpt>
<trkpt lat="48.612958200" lon="9.211663300">
  <ele>393.000000</ele>
<time>2008-06-15T11:52:00Z</time>
  <name>TP1480</name>
</trkpt>
<trkpt lat="48.612953300" lon="9.211700000">
  <ele>392.000000</ele>
<time>2008-06-15T11:52:01Z</time>
  <name>TP1481</name>
</trkpt>
<trkpt lat="48.612948300" lon="9.211736600">
  <ele>392.000000</ele>
<time>2008-06-15T11:52:02Z</time>
  <name>TP1482</name>
</trkpt>
<trkpt lat="48.612939900" lon="9.211770000">
  <ele>392.000000</ele>
<time>2008-06-15T11:52:03Z</time>
  <name>TP1483</name>
</trkpt>
<trkpt lat="48.612945000" lon="9.211814900">
  <ele>391.000000</ele>
<time>2008-06-15T11:52:04Z</time>
  <name>TP1484</name>
</trkpt>
<trkpt lat="48.612934900" lon="9.211851600">
  <ele>390.000000</ele>
<time>2008-06-15T11:52:05Z</time>
  <name>TP1485</name>
</trkpt>
<trkpt lat="48.612914900" lon="9.211888300">
  <ele>390.000000</ele>
<time>2008-06-15T11:52:06Z</time>
  <name>TP1486</name>
</trkpt>
<trkpt lat="48.612890000" lon="9.211916600">
  <ele>390.000000</ele>
<time>2008-06-15T11:52:07Z</time>
  <name>TP1487</name>
</trkpt>
<trkpt lat="48.612859900" lon="9.211936600">
  <ele>390.000000</ele>
<time>2008-06-15T11:52:08Z</time>
  <name>TP1488</name>
</trkpt>
<trkpt lat="48.612788300" lon="9.211946600">
  <ele>390.000000</ele>
<time>2008-06-15T11:52:10Z</time>
  <name>TP1489</name>
</trkpt>
<trkpt lat="48.612741600" lon="9.211931600">
  <ele>390.000000</ele>
<time>2008-06-15T11:52:11Z</time>
  <name>TP1490</name>
</trkpt>
<trkpt lat="48.612646600" lon="9.211911600">
  <ele>390.000000</ele>
<time>2008-06-15T11:52:13Z</time>
  <name>TP1491</name>
</trkpt>
<trkpt lat="48.612568300" lon="9.211893300">
  <ele>390.000000</ele>
<time>2008-06-15T11:52:15Z</time>
  <name>TP1492</name>
</trkpt>
<trkpt lat="48.612691600" lon="9.212051600">
  <ele>390.000000</ele>
<time>2008-06-15T11:52:16Z</time>
  <name>TP1493</name>
</trkpt>
<trkpt lat="48.612661600" lon="9.212119900">
  <ele>389.000000</ele>
<time>2008-06-15T11:52:17Z</time>
  <name>TP1494</name>
</trkpt>
<trkpt lat="48.612651600" lon="9.212149900">
  <ele>389.000000</ele>
<time>2008-06-15T11:52:18Z</time>
  <name>TP1495</name>
</trkpt>
<trkpt lat="48.612658300" lon="9.212178300">
  <ele>389.000000</ele>
<time>2008-06-15T11:52:19Z</time>
  <name>TP1496</name>
</trkpt>
<trkpt lat="48.612618300" lon="9.212219900">
  <ele>388.000000</ele>
<time>2008-06-15T11:52:21Z</time>
  <name>TP1497</name>
</trkpt>
<trkpt lat="48.612599900" lon="9.212240000">
  <ele>388.000000</ele>
<time>2008-06-15T11:52:22Z</time>
  <name>TP1498</name>
</trkpt>
<trkpt lat="48.612584900" lon="9.212261600">
  <ele>388.000000</ele>
<time>2008-06-15T11:52:23Z</time>
  <name>TP1499</name>
</trkpt>
<trkpt lat="48.612561600" lon="9.212304900">
  <ele>388.000000</ele>
<time>2008-06-15T11:52:25Z</time>
  <name>TP1500</name>
</trkpt>
<trkpt lat="48.612551600" lon="9.212328300">
  <ele>389.000000</ele>
<time>2008-06-15T11:52:26Z</time>
  <name>TP1501</name>
</trkpt>
<trkpt lat="48.612548300" lon="9.212355000">
  <ele>389.000000</ele>
<time>2008-06-15T11:52:27Z</time>
  <name>TP1502</name>
</trkpt>
<trkpt lat="48.612546600" lon="9.212368300">
  <ele>389.000000</ele>
<time>2008-06-15T11:52:28Z</time>
  <name>TP1503</name>
</trkpt>
<trkpt lat="48.612541600" lon="9.212406600">
  <ele>389.000000</ele>
<time>2008-06-15T11:52:30Z</time>
  <name>TP1504</name>
</trkpt>
<trkpt lat="48.612540000" lon="9.212426600">
  <ele>390.000000</ele>
<time>2008-06-15T11:52:31Z</time>
  <name>TP1505</name>
</trkpt>
<trkpt lat="48.612514900" lon="9.212431600">
  <ele>390.000000</ele>
<time>2008-06-15T11:52:32Z</time>
  <name>TP1506</name>
</trkpt>
<trkpt lat="48.612498300" lon="9.212444900">
  <ele>390.000000</ele>
<time>2008-06-15T11:52:33Z</time>
  <name>TP1507</name>
</trkpt>
<trkpt lat="48.612481600" lon="9.212460000">
  <ele>390.000000</ele>
<time>2008-06-15T11:52:34Z</time>
  <name>TP1508</name>
</trkpt>
<trkpt lat="48.612498300" lon="9.212486600">
  <ele>390.000000</ele>
<time>2008-06-15T11:52:35Z</time>
  <name>TP1509</name>
</trkpt>
<trkpt lat="48.612498300" lon="9.212541600">
  <ele>389.000000</ele>
<time>2008-06-15T11:52:37Z</time>
  <name>TP1510</name>
</trkpt>
<trkpt lat="48.612504900" lon="9.212566600">
  <ele>388.000000</ele>
<time>2008-06-15T11:52:38Z</time>
  <name>TP1511</name>
</trkpt>
<trkpt lat="48.612568300" lon="9.212701600">
  <ele>388.000000</ele>
<time>2008-06-15T11:52:43Z</time>
  <name>TP1512</name>
</trkpt>
<trkpt lat="48.612576600" lon="9.212726600">
  <ele>387.000000</ele>
<time>2008-06-15T11:52:44Z</time>
  <name>TP1513</name>
</trkpt>
<trkpt lat="48.612598300" lon="9.212755000">
  <ele>387.000000</ele>
<time>2008-06-15T11:52:45Z</time>
  <name>TP1514</name>
</trkpt>
<trkpt lat="48.612634900" lon="9.212804900">
  <ele>387.000000</ele>
<time>2008-06-15T11:52:47Z</time>
  <name>TP1515</name>
</trkpt>
<trkpt lat="48.612619900" lon="9.212818300">
  <ele>386.000000</ele>
<time>2008-06-15T11:52:48Z</time>
  <name>TP1516</name>
</trkpt>
<trkpt lat="48.612631600" lon="9.212863300">
  <ele>385.000000</ele>
<time>2008-06-15T11:52:50Z</time>
  <name>TP1517</name>
</trkpt>
<trkpt lat="48.612681600" lon="9.213016600">
  <ele>382.000000</ele>
<time>2008-06-15T11:52:56Z</time>
  <name>TP1518</name>
</trkpt>
<trkpt lat="48.612684900" lon="9.213073300">
  <ele>383.000000</ele>
<time>2008-06-15T11:52:58Z</time>
  <name>TP1519</name>
</trkpt>
<trkpt lat="48.612698300" lon="9.213095000">
  <ele>382.000000</ele>
<time>2008-06-15T11:52:59Z</time>
  <name>TP1520</name>
</trkpt>
<trkpt lat="48.612721600" lon="9.213156600">
  <ele>381.000000</ele>
<time>2008-06-15T11:53:02Z</time>
  <name>TP1521</name>
</trkpt>
<trkpt lat="48.612736600" lon="9.213258300">
  <ele>381.000000</ele>
<time>2008-06-15T11:53:06Z</time>
  <name>TP1522</name>
</trkpt>
<trkpt lat="48.612716600" lon="9.213356600">
  <ele>383.000000</ele>
<time>2008-06-15T11:53:10Z</time>
  <name>TP1523</name>
</trkpt>
<trkpt lat="48.612714900" lon="9.213466600">
  <ele>384.000000</ele>
<time>2008-06-15T11:53:14Z</time>
  <name>TP1524</name>
</trkpt>
<trkpt lat="48.612711600" lon="9.213486600">
  <ele>384.000000</ele>
<time>2008-06-15T11:53:15Z</time>
  <name>TP1525</name>
</trkpt>
<trkpt lat="48.612718300" lon="9.213511600">
  <ele>384.000000</ele>
<time>2008-06-15T11:53:16Z</time>
  <name>TP1526</name>
</trkpt>
<trkpt lat="48.612711600" lon="9.213524900">
  <ele>384.000000</ele>
<time>2008-06-15T11:53:17Z</time>
  <name>TP1527</name>
</trkpt>
<trkpt lat="48.612704900" lon="9.213544900">
  <ele>385.000000</ele>
<time>2008-06-15T11:53:18Z</time>
  <name>TP1528</name>
</trkpt>
<trkpt lat="48.612688300" lon="9.213576600">
  <ele>385.000000</ele>
<time>2008-06-15T11:53:20Z</time>
  <name>TP1529</name>
</trkpt>
<trkpt lat="48.612666600" lon="9.213626600">
  <ele>385.000000</ele>
<time>2008-06-15T11:53:23Z</time>
  <name>TP1530</name>
</trkpt>
<trkpt lat="48.612656600" lon="9.213641600">
  <ele>385.000000</ele>
<time>2008-06-15T11:53:24Z</time>
  <name>TP1531</name>
</trkpt>
<trkpt lat="48.612646600" lon="9.213655000">
  <ele>385.000000</ele>
<time>2008-06-15T11:53:25Z</time>
  <name>TP1532</name>
</trkpt>
<trkpt lat="48.612634900" lon="9.213666600">
  <ele>385.000000</ele>
<time>2008-06-15T11:53:26Z</time>
  <name>TP1533</name>
</trkpt>
<trkpt lat="48.612623200" lon="9.213708300">
  <ele>385.000000</ele>
<time>2008-06-15T11:53:28Z</time>
  <name>TP1534</name>
</trkpt>
<trkpt lat="48.612613300" lon="9.213719900">
  <ele>385.000000</ele>
<time>2008-06-15T11:53:29Z</time>
  <name>TP1535</name>
</trkpt>
<trkpt lat="48.612628300" lon="9.213750000">
  <ele>386.000000</ele>
<time>2008-06-15T11:53:30Z</time>
  <name>TP1536</name>
</trkpt>
<trkpt lat="48.612589900" lon="9.213775000">
  <ele>386.000000</ele>
<time>2008-06-15T11:53:32Z</time>
  <name>TP1537</name>
</trkpt>
<trkpt lat="48.612470000" lon="9.213816600">
  <ele>387.000000</ele>
<time>2008-06-15T11:53:40Z</time>
  <name>TP1538</name>
</trkpt>
<trkpt lat="48.612461600" lon="9.213804900">
  <ele>388.000000</ele>
<time>2008-06-15T11:53:41Z</time>
  <name>TP1539</name>
</trkpt>
<trkpt lat="48.612448300" lon="9.213793300">
  <ele>389.000000</ele>
<time>2008-06-15T11:53:42Z</time>
  <name>TP1540</name>
</trkpt>
<trkpt lat="48.612436600" lon="9.213776600">
  <ele>389.000000</ele>
<time>2008-06-15T11:53:43Z</time>
  <name>TP1541</name>
</trkpt>
<trkpt lat="48.612421600" lon="9.213760000">
  <ele>389.000000</ele>
<time>2008-06-15T11:53:44Z</time>
  <name>TP1542</name>
</trkpt>
<trkpt lat="48.612411600" lon="9.213738300">
  <ele>389.000000</ele>
<time>2008-06-15T11:53:45Z</time>
  <name>TP1543</name>
</trkpt>
<trkpt lat="48.612404900" lon="9.213713300">
  <ele>389.000000</ele>
<time>2008-06-15T11:53:46Z</time>
  <name>TP1544</name>
</trkpt>
<trkpt lat="48.612376600" lon="9.213613300">
  <ele>390.000000</ele>
<time>2008-06-15T11:53:50Z</time>
  <name>TP1545</name>
</trkpt>
<trkpt lat="48.612356600" lon="9.213505000">
  <ele>390.000000</ele>
<time>2008-06-15T11:53:54Z</time>
  <name>TP1546</name>
</trkpt>
<trkpt lat="48.612338300" lon="9.213464900">
  <ele>391.000000</ele>
<time>2008-06-15T11:53:56Z</time>
  <name>TP1547</name>
</trkpt>
<trkpt lat="48.612324900" lon="9.213448300">
  <ele>391.000000</ele>
<time>2008-06-15T11:53:57Z</time>
  <name>TP1548</name>
</trkpt>
<trkpt lat="48.612313200" lon="9.213431600">
  <ele>391.000000</ele>
<time>2008-06-15T11:53:58Z</time>
  <name>TP1549</name>
</trkpt>
<trkpt lat="48.612294900" lon="9.213428300">
  <ele>393.000000</ele>
<time>2008-06-15T11:53:59Z</time>
  <name>TP1550</name>
</trkpt>
<trkpt lat="48.612278300" lon="9.213418300">
  <ele>393.000000</ele>
<time>2008-06-15T11:54:00Z</time>
  <name>TP1551</name>
</trkpt>
<trkpt lat="48.612231600" lon="9.213383300">
  <ele>393.000000</ele>
<time>2008-06-15T11:54:03Z</time>
  <name>TP1552</name>
</trkpt>
<trkpt lat="48.612205000" lon="9.213354900">
  <ele>394.000000</ele>
<time>2008-06-15T11:54:05Z</time>
  <name>TP1553</name>
</trkpt>
<trkpt lat="48.612178300" lon="9.213331600">
  <ele>393.000000</ele>
<time>2008-06-15T11:54:07Z</time>
  <name>TP1554</name>
</trkpt>
<trkpt lat="48.612163300" lon="9.213326600">
  <ele>393.000000</ele>
<time>2008-06-15T11:54:08Z</time>
  <name>TP1555</name>
</trkpt>
<trkpt lat="48.612136600" lon="9.213326600">
  <ele>393.000000</ele>
<time>2008-06-15T11:54:10Z</time>
  <name>TP1556</name>
</trkpt>
<trkpt lat="48.612121600" lon="9.213321600">
  <ele>393.000000</ele>
<time>2008-06-15T11:54:11Z</time>
  <name>TP1557</name>
</trkpt>
<trkpt lat="48.612093300" lon="9.213306600">
  <ele>393.000000</ele>
<time>2008-06-15T11:54:13Z</time>
  <name>TP1558</name>
</trkpt>
<trkpt lat="48.612048200" lon="9.213278300">
  <ele>393.000000</ele>
<time>2008-06-15T11:54:16Z</time>
  <name>TP1559</name>
</trkpt>
<trkpt lat="48.612033200" lon="9.213270000">
  <ele>393.000000</ele>
<time>2008-06-15T11:54:17Z</time>
  <name>TP1560</name>
</trkpt>
<trkpt lat="48.612016600" lon="9.213264900">
  <ele>393.000000</ele>
<time>2008-06-15T11:54:18Z</time>
  <name>TP1561</name>
</trkpt>
<trkpt lat="48.611986600" lon="9.213261600">
  <ele>394.000000</ele>
<time>2008-06-15T11:54:20Z</time>
  <name>TP1562</name>
</trkpt>
<trkpt lat="48.611971600" lon="9.213253300">
  <ele>394.000000</ele>
<time>2008-06-15T11:54:21Z</time>
  <name>TP1563</name>
</trkpt>
<trkpt lat="48.611929900" lon="9.213235000">
  <ele>394.000000</ele>
<time>2008-06-15T11:54:24Z</time>
  <name>TP1564</name>
</trkpt>
<trkpt lat="48.611899900" lon="9.213223300">
  <ele>394.000000</ele>
<time>2008-06-15T11:54:26Z</time>
  <name>TP1565</name>
</trkpt>
<trkpt lat="48.611871600" lon="9.213208300">
  <ele>395.000000</ele>
<time>2008-06-15T11:54:28Z</time>
  <name>TP1566</name>
</trkpt>
<trkpt lat="48.611856600" lon="9.213198300">
  <ele>395.000000</ele>
<time>2008-06-15T11:54:29Z</time>
  <name>TP1567</name>
</trkpt>
<trkpt lat="48.611841600" lon="9.213190000">
  <ele>395.000000</ele>
<time>2008-06-15T11:54:30Z</time>
  <name>TP1568</name>
</trkpt>
<trkpt lat="48.611826600" lon="9.213186600">
  <ele>395.000000</ele>
<time>2008-06-15T11:54:31Z</time>
  <name>TP1569</name>
</trkpt>
<trkpt lat="48.611773300" lon="9.213181600">
  <ele>395.000000</ele>
<time>2008-06-15T11:54:34Z</time>
  <name>TP1570</name>
</trkpt>
<trkpt lat="48.611759900" lon="9.213178300">
  <ele>395.000000</ele>
<time>2008-06-15T11:54:35Z</time>
  <name>TP1571</name>
</trkpt>
<trkpt lat="48.611746600" lon="9.213171600">
  <ele>395.000000</ele>
<time>2008-06-15T11:54:36Z</time>
  <name>TP1572</name>
</trkpt>
<trkpt lat="48.611698200" lon="9.213140000">
  <ele>396.000000</ele>
<time>2008-06-15T11:54:40Z</time>
  <name>TP1573</name>
</trkpt>
<trkpt lat="48.611681600" lon="9.213136600">
  <ele>396.000000</ele>
<time>2008-06-15T11:54:41Z</time>
  <name>TP1574</name>
</trkpt>
<trkpt lat="48.611658300" lon="9.213133300">
  <ele>396.000000</ele>
<time>2008-06-15T11:54:43Z</time>
  <name>TP1575</name>
</trkpt>
<trkpt lat="48.611619900" lon="9.213118300">
  <ele>397.000000</ele>
<time>2008-06-15T11:54:46Z</time>
  <name>TP1576</name>
</trkpt>
<trkpt lat="48.611573300" lon="9.213085000">
  <ele>396.000000</ele>
<time>2008-06-15T11:54:51Z</time>
  <name>TP1577</name>
</trkpt>
<trkpt lat="48.611564900" lon="9.213073300">
  <ele>396.000000</ele>
<time>2008-06-15T11:54:52Z</time>
  <name>TP1578</name>
</trkpt>
<trkpt lat="48.611558200" lon="9.213063300">
  <ele>396.000000</ele>
<time>2008-06-15T11:54:53Z</time>
  <name>TP1579</name>
</trkpt>
<trkpt lat="48.611543200" lon="9.213054900">
  <ele>396.000000</ele>
<time>2008-06-15T11:54:54Z</time>
  <name>TP1580</name>
</trkpt>
<trkpt lat="48.611533300" lon="9.213044900">
  <ele>396.000000</ele>
<time>2008-06-15T11:54:55Z</time>
  <name>TP1581</name>
</trkpt>
<trkpt lat="48.611523300" lon="9.213036600">
  <ele>396.000000</ele>
<time>2008-06-15T11:54:56Z</time>
  <name>TP1582</name>
</trkpt>
<trkpt lat="48.611515000" lon="9.213026600">
  <ele>396.000000</ele>
<time>2008-06-15T11:54:57Z</time>
  <name>TP1583</name>
</trkpt>
<trkpt lat="48.611488200" lon="9.213035000">
  <ele>397.000000</ele>
<time>2008-06-15T11:54:58Z</time>
  <name>TP1584</name>
</trkpt>
<trkpt lat="48.611476600" lon="9.213026600">
  <ele>397.000000</ele>
<time>2008-06-15T11:54:59Z</time>
  <name>TP1585</name>
</trkpt>
<trkpt lat="48.611443300" lon="9.213021600">
  <ele>397.000000</ele>
<time>2008-06-15T11:55:01Z</time>
  <name>TP1586</name>
</trkpt>
<trkpt lat="48.611429900" lon="9.213016600">
  <ele>397.000000</ele>
<time>2008-06-15T11:55:02Z</time>
  <name>TP1587</name>
</trkpt>
<trkpt lat="48.611364900" lon="9.212963300">
  <ele>399.000000</ele>
<time>2008-06-15T11:55:08Z</time>
  <name>TP1588</name>
</trkpt>
<trkpt lat="48.611354900" lon="9.212953300">
  <ele>399.000000</ele>
<time>2008-06-15T11:55:09Z</time>
  <name>TP1589</name>
</trkpt>
<trkpt lat="48.611335000" lon="9.212933300">
  <ele>400.000000</ele>
<time>2008-06-15T11:55:11Z</time>
  <name>TP1590</name>
</trkpt>
<trkpt lat="48.611288300" lon="9.212905000">
  <ele>401.000000</ele>
<time>2008-06-15T11:55:15Z</time>
  <name>TP1591</name>
</trkpt>
<trkpt lat="48.611265000" lon="9.212895000">
  <ele>401.000000</ele>
<time>2008-06-15T11:55:17Z</time>
  <name>TP1592</name>
</trkpt>
<trkpt lat="48.611253300" lon="9.212886600">
  <ele>401.000000</ele>
<time>2008-06-15T11:55:18Z</time>
  <name>TP1593</name>
</trkpt>
<trkpt lat="48.611235000" lon="9.212868300">
  <ele>402.000000</ele>
<time>2008-06-15T11:55:20Z</time>
  <name>TP1594</name>
</trkpt>
<trkpt lat="48.611226600" lon="9.212858300">
  <ele>402.000000</ele>
<time>2008-06-15T11:55:21Z</time>
  <name>TP1595</name>
</trkpt>
<trkpt lat="48.611210000" lon="9.212836600">
  <ele>402.000000</ele>
<time>2008-06-15T11:55:23Z</time>
  <name>TP1596</name>
</trkpt>
<trkpt lat="48.611198300" lon="9.212831600">
  <ele>403.000000</ele>
<time>2008-06-15T11:55:24Z</time>
  <name>TP1597</name>
</trkpt>
<trkpt lat="48.611165000" lon="9.212823300">
  <ele>404.000000</ele>
<time>2008-06-15T11:55:27Z</time>
  <name>TP1598</name>
</trkpt>
<trkpt lat="48.611136600" lon="9.212823300">
  <ele>404.000000</ele>
<time>2008-06-15T11:55:29Z</time>
  <name>TP1599</name>
</trkpt>
<trkpt lat="48.611123200" lon="9.212826600">
  <ele>404.000000</ele>
<time>2008-06-15T11:55:30Z</time>
  <name>TP1600</name>
</trkpt>
<trkpt lat="48.611111600" lon="9.212835000">
  <ele>404.000000</ele>
<time>2008-06-15T11:55:31Z</time>
  <name>TP1601</name>
</trkpt>
<trkpt lat="48.611083300" lon="9.212866600">
  <ele>403.000000</ele>
<time>2008-06-15T11:55:33Z</time>
  <name>TP1602</name>
</trkpt>
<trkpt lat="48.611083300" lon="9.212878300">
  <ele>403.000000</ele>
<time>2008-06-15T11:55:34Z</time>
  <name>TP1603</name>
</trkpt>
<trkpt lat="48.611078300" lon="9.212881600">
  <ele>403.000000</ele>
<time>2008-06-15T11:55:36Z</time>
  <name>TP1604</name>
</trkpt>
<trkpt lat="48.611068200" lon="9.212883300">
  <ele>402.000000</ele>
<time>2008-06-15T11:55:37Z</time>
  <name>TP1605</name>
</trkpt>
<trkpt lat="48.611081600" lon="9.212874900">
  <ele>402.000000</ele>
<time>2008-06-15T11:55:39Z</time>
  <name>TP1606</name>
</trkpt>
<trkpt lat="48.611098300" lon="9.212874900">
  <ele>402.000000</ele>
<time>2008-06-15T11:55:41Z</time>
  <name>TP1607</name>
</trkpt>
<trkpt lat="48.611104900" lon="9.212866600">
  <ele>403.000000</ele>
<time>2008-06-15T11:55:42Z</time>
  <name>TP1608</name>
</trkpt>
<trkpt lat="48.611121600" lon="9.212854900">
  <ele>404.000000</ele>
<time>2008-06-15T11:55:44Z</time>
  <name>TP1609</name>
</trkpt>
<trkpt lat="48.611128300" lon="9.212841600">
  <ele>404.000000</ele>
<time>2008-06-15T11:55:45Z</time>
  <name>TP1610</name>
</trkpt>
<trkpt lat="48.611126600" lon="9.212831600">
  <ele>404.000000</ele>
<time>2008-06-15T11:55:46Z</time>
  <name>TP1611</name>
</trkpt>
<trkpt lat="48.611119900" lon="9.212829900">
  <ele>403.000000</ele>
<time>2008-06-15T11:55:48Z</time>
  <name>TP1612</name>
</trkpt>
<trkpt lat="48.611111600" lon="9.212836600">
  <ele>403.000000</ele>
<time>2008-06-15T11:55:49Z</time>
  <name>TP1613</name>
</trkpt>
<trkpt lat="48.611089900" lon="9.212861600">
  <ele>402.000000</ele>
<time>2008-06-15T11:55:52Z</time>
  <name>TP1614</name>
</trkpt>
<trkpt lat="48.611070000" lon="9.212873300">
  <ele>402.000000</ele>
<time>2008-06-15T11:55:54Z</time>
  <name>TP1615</name>
</trkpt>
<trkpt lat="48.611063300" lon="9.212888300">
  <ele>402.000000</ele>
<time>2008-06-15T11:55:55Z</time>
  <name>TP1616</name>
</trkpt>
<trkpt lat="48.611055000" lon="9.212901600">
  <ele>402.000000</ele>
<time>2008-06-15T11:55:56Z</time>
  <name>TP1617</name>
</trkpt>
<trkpt lat="48.611048300" lon="9.212918300">
  <ele>402.000000</ele>
<time>2008-06-15T11:55:57Z</time>
  <name>TP1618</name>
</trkpt>
<trkpt lat="48.611029900" lon="9.212938300">
  <ele>402.000000</ele>
<time>2008-06-15T11:55:59Z</time>
  <name>TP1619</name>
</trkpt>
<trkpt lat="48.611006600" lon="9.212975000">
  <ele>402.000000</ele>
<time>2008-06-15T11:56:02Z</time>
  <name>TP1620</name>
</trkpt>
<trkpt lat="48.611000000" lon="9.212988300">
  <ele>402.000000</ele>
<time>2008-06-15T11:56:03Z</time>
  <name>TP1621</name>
</trkpt>
<trkpt lat="48.610988300" lon="9.213004900">
  <ele>404.000000</ele>
<time>2008-06-15T11:56:05Z</time>
  <name>TP1622</name>
</trkpt>
<trkpt lat="48.610985000" lon="9.213016600">
  <ele>406.000000</ele>
<time>2008-06-15T11:56:07Z</time>
  <name>TP1623</name>
</trkpt>
<trkpt lat="48.610959900" lon="9.213046600">
  <ele>407.000000</ele>
<time>2008-06-15T11:56:10Z</time>
  <name>TP1624</name>
</trkpt>
<trkpt lat="48.610956600" lon="9.213053300">
  <ele>407.000000</ele>
<time>2008-06-15T11:56:11Z</time>
  <name>TP1625</name>
</trkpt>
<trkpt lat="48.610919900" lon="9.213081600">
  <ele>408.000000</ele>
<time>2008-06-15T11:56:14Z</time>
  <name>TP1626</name>
</trkpt>
<trkpt lat="48.610916600" lon="9.213099900">
  <ele>408.000000</ele>
<time>2008-06-15T11:56:15Z</time>
  <name>TP1627</name>
</trkpt>
<trkpt lat="48.610911600" lon="9.213114900">
  <ele>408.000000</ele>
<time>2008-06-15T11:56:16Z</time>
  <name>TP1628</name>
</trkpt>
<trkpt lat="48.610894900" lon="9.213133300">
  <ele>408.000000</ele>
<time>2008-06-15T11:56:18Z</time>
  <name>TP1629</name>
</trkpt>
<trkpt lat="48.610885000" lon="9.213151600">
  <ele>408.000000</ele>
<time>2008-06-15T11:56:20Z</time>
  <name>TP1630</name>
</trkpt>
<trkpt lat="48.610878300" lon="9.213159900">
  <ele>408.000000</ele>
<time>2008-06-15T11:56:21Z</time>
  <name>TP1631</name>
</trkpt>
<trkpt lat="48.610871600" lon="9.213166600">
  <ele>409.000000</ele>
<time>2008-06-15T11:56:22Z</time>
  <name>TP1632</name>
</trkpt>
<trkpt lat="48.610868300" lon="9.213178300">
  <ele>409.000000</ele>
<time>2008-06-15T11:56:23Z</time>
  <name>TP1633</name>
</trkpt>
<trkpt lat="48.610861600" lon="9.213186600">
  <ele>410.000000</ele>
<time>2008-06-15T11:56:24Z</time>
  <name>TP1634</name>
</trkpt>
<trkpt lat="48.610854900" lon="9.213194900">
  <ele>410.000000</ele>
<time>2008-06-15T11:56:25Z</time>
  <name>TP1635</name>
</trkpt>
<trkpt lat="48.610828200" lon="9.213226600">
  <ele>410.000000</ele>
<time>2008-06-15T11:56:28Z</time>
  <name>TP1636</name>
</trkpt>
<trkpt lat="48.610791600" lon="9.213245000">
  <ele>408.000000</ele>
<time>2008-06-15T11:56:29Z</time>
  <name>TP1637</name>
</trkpt>
<trkpt lat="48.610771600" lon="9.213251600">
  <ele>407.000000</ele>
<time>2008-06-15T11:56:30Z</time>
  <name>TP1638</name>
</trkpt>
<trkpt lat="48.610768300" lon="9.213264900">
  <ele>407.000000</ele>
<time>2008-06-15T11:56:31Z</time>
  <name>TP1639</name>
</trkpt>
<trkpt lat="48.610760000" lon="9.213271600">
  <ele>407.000000</ele>
<time>2008-06-15T11:56:32Z</time>
  <name>TP1640</name>
</trkpt>
<trkpt lat="48.610745000" lon="9.213278300">
  <ele>408.000000</ele>
<time>2008-06-15T11:56:34Z</time>
  <name>TP1641</name>
</trkpt>
<trkpt lat="48.610708300" lon="9.213309900">
  <ele>408.000000</ele>
<time>2008-06-15T11:56:38Z</time>
  <name>TP1642</name>
</trkpt>
<trkpt lat="48.610698300" lon="9.213311600">
  <ele>408.000000</ele>
<time>2008-06-15T11:56:39Z</time>
  <name>TP1643</name>
</trkpt>
<trkpt lat="48.610681600" lon="9.213324900">
  <ele>408.000000</ele>
<time>2008-06-15T11:56:40Z</time>
  <name>TP1644</name>
</trkpt>
<trkpt lat="48.610664900" lon="9.213333300">
  <ele>407.000000</ele>
<time>2008-06-15T11:56:41Z</time>
  <name>TP1645</name>
</trkpt>
<trkpt lat="48.610651600" lon="9.213338300">
  <ele>407.000000</ele>
<time>2008-06-15T11:56:42Z</time>
  <name>TP1646</name>
</trkpt>
<trkpt lat="48.610641600" lon="9.213343300">
  <ele>408.000000</ele>
<time>2008-06-15T11:56:43Z</time>
  <name>TP1647</name>
</trkpt>
<trkpt lat="48.610633200" lon="9.213356600">
  <ele>408.000000</ele>
<time>2008-06-15T11:56:44Z</time>
  <name>TP1648</name>
</trkpt>
<trkpt lat="48.610611600" lon="9.213359900">
  <ele>408.000000</ele>
<time>2008-06-15T11:56:46Z</time>
  <name>TP1649</name>
</trkpt>
<trkpt lat="48.610571600" lon="9.213393300">
  <ele>408.000000</ele>
<time>2008-06-15T11:56:50Z</time>
  <name>TP1650</name>
</trkpt>
<trkpt lat="48.610573300" lon="9.213411600">
  <ele>409.000000</ele>
<time>2008-06-15T11:56:51Z</time>
  <name>TP1651</name>
</trkpt>
<trkpt lat="48.610568300" lon="9.213429900">
  <ele>409.000000</ele>
<time>2008-06-15T11:56:52Z</time>
  <name>TP1652</name>
</trkpt>
<trkpt lat="48.610568300" lon="9.213463300">
  <ele>409.000000</ele>
<time>2008-06-15T11:56:55Z</time>
  <name>TP1653</name>
</trkpt>
<trkpt lat="48.610556600" lon="9.213470000">
  <ele>409.000000</ele>
<time>2008-06-15T11:56:56Z</time>
  <name>TP1654</name>
</trkpt>
<trkpt lat="48.610536600" lon="9.213506600">
  <ele>410.000000</ele>
<time>2008-06-15T11:56:59Z</time>
  <name>TP1655</name>
</trkpt>
<trkpt lat="48.610528300" lon="9.213524900">
  <ele>410.000000</ele>
<time>2008-06-15T11:57:00Z</time>
  <name>TP1656</name>
</trkpt>
<trkpt lat="48.610521600" lon="9.213531600">
  <ele>410.000000</ele>
<time>2008-06-15T11:57:01Z</time>
  <name>TP1657</name>
</trkpt>
<trkpt lat="48.610510000" lon="9.213546600">
  <ele>410.000000</ele>
<time>2008-06-15T11:57:02Z</time>
  <name>TP1658</name>
</trkpt>
<trkpt lat="48.610504900" lon="9.213561600">
  <ele>410.000000</ele>
<time>2008-06-15T11:57:03Z</time>
  <name>TP1659</name>
</trkpt>
<trkpt lat="48.610493200" lon="9.213566600">
  <ele>410.000000</ele>
<time>2008-06-15T11:57:04Z</time>
  <name>TP1660</name>
</trkpt>
<trkpt lat="48.610480000" lon="9.213581600">
  <ele>410.000000</ele>
<time>2008-06-15T11:57:05Z</time>
  <name>TP1661</name>
</trkpt>
<trkpt lat="48.610463300" lon="9.213611600">
  <ele>410.000000</ele>
<time>2008-06-15T11:57:07Z</time>
  <name>TP1662</name>
</trkpt>
<trkpt lat="48.610434900" lon="9.213639900">
  <ele>411.000000</ele>
<time>2008-06-15T11:57:09Z</time>
  <name>TP1663</name>
</trkpt>
<trkpt lat="48.610421600" lon="9.213648300">
  <ele>411.000000</ele>
<time>2008-06-15T11:57:10Z</time>
  <name>TP1664</name>
</trkpt>
<trkpt lat="48.610401600" lon="9.213664900">
  <ele>411.000000</ele>
<time>2008-06-15T11:57:12Z</time>
  <name>TP1665</name>
</trkpt>
<trkpt lat="48.610386600" lon="9.213686600">
  <ele>411.000000</ele>
<time>2008-06-15T11:57:14Z</time>
  <name>TP1666</name>
</trkpt>
<trkpt lat="48.610369900" lon="9.213708300">
  <ele>411.000000</ele>
<time>2008-06-15T11:57:16Z</time>
  <name>TP1667</name>
</trkpt>
<trkpt lat="48.610363300" lon="9.213719900">
  <ele>411.000000</ele>
<time>2008-06-15T11:57:17Z</time>
  <name>TP1668</name>
</trkpt>
<trkpt lat="48.610338200" lon="9.213731600">
  <ele>410.000000</ele>
<time>2008-06-15T11:57:18Z</time>
  <name>TP1669</name>
</trkpt>
<trkpt lat="48.610318300" lon="9.213751600">
  <ele>410.000000</ele>
<time>2008-06-15T11:57:20Z</time>
  <name>TP1670</name>
</trkpt>
<trkpt lat="48.610306600" lon="9.213758300">
  <ele>410.000000</ele>
<time>2008-06-15T11:57:21Z</time>
  <name>TP1671</name>
</trkpt>
<trkpt lat="48.610293300" lon="9.213764900">
  <ele>410.000000</ele>
<time>2008-06-15T11:57:22Z</time>
  <name>TP1672</name>
</trkpt>
<trkpt lat="48.610278300" lon="9.213775000">
  <ele>410.000000</ele>
<time>2008-06-15T11:57:23Z</time>
  <name>TP1673</name>
</trkpt>
<trkpt lat="48.610243300" lon="9.213763300">
  <ele>411.000000</ele>
<time>2008-06-15T11:57:24Z</time>
  <name>TP1674</name>
</trkpt>
<trkpt lat="48.610238300" lon="9.213779900">
  <ele>411.000000</ele>
<time>2008-06-15T11:57:25Z</time>
  <name>TP1675</name>
</trkpt>
<trkpt lat="48.610223300" lon="9.213816600">
  <ele>411.000000</ele>
<time>2008-06-15T11:57:27Z</time>
  <name>TP1676</name>
</trkpt>
<trkpt lat="48.610209900" lon="9.213841600">
  <ele>411.000000</ele>
<time>2008-06-15T11:57:28Z</time>
  <name>TP1677</name>
</trkpt>
<trkpt lat="48.610194900" lon="9.213845000">
  <ele>412.000000</ele>
<time>2008-06-15T11:57:29Z</time>
  <name>TP1678</name>
</trkpt>
<trkpt lat="48.610194900" lon="9.213861600">
  <ele>412.000000</ele>
<time>2008-06-15T11:57:30Z</time>
  <name>TP1679</name>
</trkpt>
<trkpt lat="48.610188300" lon="9.213871600">
  <ele>412.000000</ele>
<time>2008-06-15T11:57:31Z</time>
  <name>TP1680</name>
</trkpt>
<trkpt lat="48.610179900" lon="9.213909900">
  <ele>412.000000</ele>
<time>2008-06-15T11:57:35Z</time>
  <name>TP1681</name>
</trkpt>
<trkpt lat="48.610168300" lon="9.213925000">
  <ele>412.000000</ele>
<time>2008-06-15T11:57:36Z</time>
  <name>TP1682</name>
</trkpt>
<trkpt lat="48.610154900" lon="9.213966600">
  <ele>412.000000</ele>
<time>2008-06-15T11:57:40Z</time>
  <name>TP1683</name>
</trkpt>
<trkpt lat="48.610133300" lon="9.214005000">
  <ele>412.000000</ele>
<time>2008-06-15T11:57:42Z</time>
  <name>TP1684</name>
</trkpt>
<trkpt lat="48.610115000" lon="9.214041600">
  <ele>411.000000</ele>
<time>2008-06-15T11:57:44Z</time>
  <name>TP1685</name>
</trkpt>
<trkpt lat="48.610108300" lon="9.214059900">
  <ele>411.000000</ele>
<time>2008-06-15T11:57:45Z</time>
  <name>TP1686</name>
</trkpt>
<trkpt lat="48.610104900" lon="9.214078300">
  <ele>411.000000</ele>
<time>2008-06-15T11:57:46Z</time>
  <name>TP1687</name>
</trkpt>
<trkpt lat="48.610104900" lon="9.214100000">
  <ele>410.000000</ele>
<time>2008-06-15T11:57:47Z</time>
  <name>TP1688</name>
</trkpt>
<trkpt lat="48.610104900" lon="9.214118300">
  <ele>410.000000</ele>
<time>2008-06-15T11:57:48Z</time>
  <name>TP1689</name>
</trkpt>
<trkpt lat="48.610103300" lon="9.214136600">
  <ele>411.000000</ele>
<time>2008-06-15T11:57:49Z</time>
  <name>TP1690</name>
</trkpt>
<trkpt lat="48.610101600" lon="9.214153300">
  <ele>411.000000</ele>
<time>2008-06-15T11:57:50Z</time>
  <name>TP1691</name>
</trkpt>
<trkpt lat="48.610098300" lon="9.214170000">
  <ele>411.000000</ele>
<time>2008-06-15T11:57:51Z</time>
  <name>TP1692</name>
</trkpt>
<trkpt lat="48.610096600" lon="9.214185000">
  <ele>411.000000</ele>
<time>2008-06-15T11:57:52Z</time>
  <name>TP1693</name>
</trkpt>
<trkpt lat="48.610096600" lon="9.214196600">
  <ele>412.000000</ele>
<time>2008-06-15T11:57:53Z</time>
  <name>TP1694</name>
</trkpt>
<trkpt lat="48.610094900" lon="9.214211600">
  <ele>412.000000</ele>
<time>2008-06-15T11:57:54Z</time>
  <name>TP1695</name>
</trkpt>
<trkpt lat="48.610093300" lon="9.214228300">
  <ele>412.000000</ele>
<time>2008-06-15T11:57:55Z</time>
  <name>TP1696</name>
</trkpt>
<trkpt lat="48.610093300" lon="9.214244900">
  <ele>412.000000</ele>
<time>2008-06-15T11:57:56Z</time>
  <name>TP1697</name>
</trkpt>
<trkpt lat="48.610094900" lon="9.214261600">
  <ele>412.000000</ele>
<time>2008-06-15T11:57:57Z</time>
  <name>TP1698</name>
</trkpt>
<trkpt lat="48.610098300" lon="9.214278300">
  <ele>412.000000</ele>
<time>2008-06-15T11:57:58Z</time>
  <name>TP1699</name>
</trkpt>
<trkpt lat="48.610101600" lon="9.214293300">
  <ele>413.000000</ele>
<time>2008-06-15T11:57:59Z</time>
  <name>TP1700</name>
</trkpt>
<trkpt lat="48.610100000" lon="9.214311600">
  <ele>413.000000</ele>
<time>2008-06-15T11:58:00Z</time>
  <name>TP1701</name>
</trkpt>
<trkpt lat="48.610096600" lon="9.214326600">
  <ele>413.000000</ele>
<time>2008-06-15T11:58:01Z</time>
  <name>TP1702</name>
</trkpt>
<trkpt lat="48.610091600" lon="9.214361600">
  <ele>413.000000</ele>
<time>2008-06-15T11:58:03Z</time>
  <name>TP1703</name>
</trkpt>
<trkpt lat="48.610089900" lon="9.214380000">
  <ele>413.000000</ele>
<time>2008-06-15T11:58:04Z</time>
  <name>TP1704</name>
</trkpt>
<trkpt lat="48.610091600" lon="9.214405000">
  <ele>413.000000</ele>
<time>2008-06-15T11:58:06Z</time>
  <name>TP1705</name>
</trkpt>
<trkpt lat="48.610094900" lon="9.214418300">
  <ele>413.000000</ele>
<time>2008-06-15T11:58:07Z</time>
  <name>TP1706</name>
</trkpt>
<trkpt lat="48.610100000" lon="9.214444900">
  <ele>413.000000</ele>
<time>2008-06-15T11:58:09Z</time>
  <name>TP1707</name>
</trkpt>
<trkpt lat="48.610100000" lon="9.214466600">
  <ele>413.000000</ele>
<time>2008-06-15T11:58:10Z</time>
  <name>TP1708</name>
</trkpt>
<trkpt lat="48.610100000" lon="9.214491600">
  <ele>413.000000</ele>
<time>2008-06-15T11:58:11Z</time>
  <name>TP1709</name>
</trkpt>
<trkpt lat="48.610096600" lon="9.214514900">
  <ele>412.000000</ele>
<time>2008-06-15T11:58:12Z</time>
  <name>TP1710</name>
</trkpt>
<trkpt lat="48.610093300" lon="9.214528300">
  <ele>413.000000</ele>
<time>2008-06-15T11:58:13Z</time>
  <name>TP1711</name>
</trkpt>
<trkpt lat="48.610091600" lon="9.214555000">
  <ele>412.000000</ele>
<time>2008-06-15T11:58:14Z</time>
  <name>TP1712</name>
</trkpt>
<trkpt lat="48.610091600" lon="9.214574900">
  <ele>413.000000</ele>
<time>2008-06-15T11:58:15Z</time>
  <name>TP1713</name>
</trkpt>
<trkpt lat="48.610093300" lon="9.214593300">
  <ele>413.000000</ele>
<time>2008-06-15T11:58:16Z</time>
  <name>TP1714</name>
</trkpt>
<trkpt lat="48.610096600" lon="9.214609900">
  <ele>413.000000</ele>
<time>2008-06-15T11:58:17Z</time>
  <name>TP1715</name>
</trkpt>
<trkpt lat="48.610104900" lon="9.214623300">
  <ele>413.000000</ele>
<time>2008-06-15T11:58:18Z</time>
  <name>TP1716</name>
</trkpt>
<trkpt lat="48.610111600" lon="9.214636600">
  <ele>414.000000</ele>
<time>2008-06-15T11:58:19Z</time>
  <name>TP1717</name>
</trkpt>
<trkpt lat="48.610115000" lon="9.214656600">
  <ele>414.000000</ele>
<time>2008-06-15T11:58:20Z</time>
  <name>TP1718</name>
</trkpt>
<trkpt lat="48.610113200" lon="9.214678300">
  <ele>414.000000</ele>
<time>2008-06-15T11:58:21Z</time>
  <name>TP1719</name>
</trkpt>
<trkpt lat="48.610101600" lon="9.214759900">
  <ele>415.000000</ele>
<time>2008-06-15T11:58:26Z</time>
  <name>TP1720</name>
</trkpt>
<trkpt lat="48.610101600" lon="9.214781600">
  <ele>415.000000</ele>
<time>2008-06-15T11:58:27Z</time>
  <name>TP1721</name>
</trkpt>
<trkpt lat="48.610104900" lon="9.214786600">
  <ele>416.000000</ele>
<time>2008-06-15T11:58:28Z</time>
  <name>TP1722</name>
</trkpt>
<trkpt lat="48.610113200" lon="9.214838300">
  <ele>417.000000</ele>
<time>2008-06-15T11:58:31Z</time>
  <name>TP1723</name>
</trkpt>
<trkpt lat="48.610113200" lon="9.214856600">
  <ele>417.000000</ele>
<time>2008-06-15T11:58:32Z</time>
  <name>TP1724</name>
</trkpt>
<trkpt lat="48.610113200" lon="9.214885000">
  <ele>418.000000</ele>
<time>2008-06-15T11:58:34Z</time>
  <name>TP1725</name>
</trkpt>
<trkpt lat="48.610106600" lon="9.214943300">
  <ele>418.000000</ele>
<time>2008-06-15T11:58:37Z</time>
  <name>TP1726</name>
</trkpt>
<trkpt lat="48.610103300" lon="9.214963300">
  <ele>418.000000</ele>
<time>2008-06-15T11:58:38Z</time>
  <name>TP1727</name>
</trkpt>
<trkpt lat="48.610103300" lon="9.214984900">
  <ele>418.000000</ele>
<time>2008-06-15T11:58:39Z</time>
  <name>TP1728</name>
</trkpt>
<trkpt lat="48.610113200" lon="9.215061600">
  <ele>418.000000</ele>
<time>2008-06-15T11:58:43Z</time>
  <name>TP1729</name>
</trkpt>
<trkpt lat="48.610109900" lon="9.215078300">
  <ele>418.000000</ele>
<time>2008-06-15T11:58:44Z</time>
  <name>TP1730</name>
</trkpt>
<trkpt lat="48.610103300" lon="9.215111600">
  <ele>418.000000</ele>
<time>2008-06-15T11:58:46Z</time>
  <name>TP1731</name>
</trkpt>
<trkpt lat="48.610101600" lon="9.215130000">
  <ele>418.000000</ele>
<time>2008-06-15T11:58:47Z</time>
  <name>TP1732</name>
</trkpt>
<trkpt lat="48.610098300" lon="9.215221600">
  <ele>419.000000</ele>
<time>2008-06-15T11:58:52Z</time>
  <name>TP1733</name>
</trkpt>
<trkpt lat="48.610100000" lon="9.215241600">
  <ele>419.000000</ele>
<time>2008-06-15T11:58:53Z</time>
  <name>TP1734</name>
</trkpt>
<trkpt lat="48.610106600" lon="9.215278300">
  <ele>419.000000</ele>
<time>2008-06-15T11:58:55Z</time>
  <name>TP1735</name>
</trkpt>
<trkpt lat="48.610109900" lon="9.215330000">
  <ele>419.000000</ele>
<time>2008-06-15T11:58:58Z</time>
  <name>TP1736</name>
</trkpt>
<trkpt lat="48.610109900" lon="9.215346600">
  <ele>419.000000</ele>
<time>2008-06-15T11:58:59Z</time>
  <name>TP1737</name>
</trkpt>
<trkpt lat="48.610106600" lon="9.215363300">
  <ele>420.000000</ele>
<time>2008-06-15T11:59:00Z</time>
  <name>TP1738</name>
</trkpt>
<trkpt lat="48.610098300" lon="9.215403300">
  <ele>419.000000</ele>
<time>2008-06-15T11:59:02Z</time>
  <name>TP1739</name>
</trkpt>
<trkpt lat="48.610093300" lon="9.215416600">
  <ele>419.000000</ele>
<time>2008-06-15T11:59:03Z</time>
  <name>TP1740</name>
</trkpt>
<trkpt lat="48.610094900" lon="9.215435000">
  <ele>420.000000</ele>
<time>2008-06-15T11:59:04Z</time>
  <name>TP1741</name>
</trkpt>
<trkpt lat="48.610100000" lon="9.215451600">
  <ele>420.000000</ele>
<time>2008-06-15T11:59:05Z</time>
  <name>TP1742</name>
</trkpt>
<trkpt lat="48.610106600" lon="9.215466600">
  <ele>420.000000</ele>
<time>2008-06-15T11:59:06Z</time>
  <name>TP1743</name>
</trkpt>
<trkpt lat="48.610113200" lon="9.215483300">
  <ele>420.000000</ele>
<time>2008-06-15T11:59:07Z</time>
  <name>TP1744</name>
</trkpt>
<trkpt lat="48.610116600" lon="9.215499900">
  <ele>420.000000</ele>
<time>2008-06-15T11:59:08Z</time>
  <name>TP1745</name>
</trkpt>
<trkpt lat="48.610116600" lon="9.215518300">
  <ele>420.000000</ele>
<time>2008-06-15T11:59:09Z</time>
  <name>TP1746</name>
</trkpt>
<trkpt lat="48.610113200" lon="9.215533300">
  <ele>420.000000</ele>
<time>2008-06-15T11:59:10Z</time>
  <name>TP1747</name>
</trkpt>
<trkpt lat="48.610108300" lon="9.215546600">
  <ele>420.000000</ele>
<time>2008-06-15T11:59:11Z</time>
  <name>TP1748</name>
</trkpt>
<trkpt lat="48.610103300" lon="9.215563300">
  <ele>420.000000</ele>
<time>2008-06-15T11:59:12Z</time>
  <name>TP1749</name>
</trkpt>
<trkpt lat="48.610098300" lon="9.215575000">
  <ele>421.000000</ele>
<time>2008-06-15T11:59:13Z</time>
  <name>TP1750</name>
</trkpt>
<trkpt lat="48.610098300" lon="9.215589900">
  <ele>421.000000</ele>
<time>2008-06-15T11:59:14Z</time>
  <name>TP1751</name>
</trkpt>
<trkpt lat="48.610100000" lon="9.215606600">
  <ele>421.000000</ele>
<time>2008-06-15T11:59:15Z</time>
  <name>TP1752</name>
</trkpt>
<trkpt lat="48.610113200" lon="9.215701600">
  <ele>421.000000</ele>
<time>2008-06-15T11:59:20Z</time>
  <name>TP1753</name>
</trkpt>
<trkpt lat="48.610115000" lon="9.215719900">
  <ele>421.000000</ele>
<time>2008-06-15T11:59:21Z</time>
  <name>TP1754</name>
</trkpt>
<trkpt lat="48.610115000" lon="9.215736600">
  <ele>421.000000</ele>
<time>2008-06-15T11:59:22Z</time>
  <name>TP1755</name>
</trkpt>
<trkpt lat="48.610113200" lon="9.215753300">
  <ele>421.000000</ele>
<time>2008-06-15T11:59:23Z</time>
  <name>TP1756</name>
</trkpt>
<trkpt lat="48.610109900" lon="9.215768300">
  <ele>421.000000</ele>
<time>2008-06-15T11:59:24Z</time>
  <name>TP1757</name>
</trkpt>
<trkpt lat="48.610109900" lon="9.215785000">
  <ele>421.000000</ele>
<time>2008-06-15T11:59:25Z</time>
  <name>TP1758</name>
</trkpt>
<trkpt lat="48.610109900" lon="9.215801600">
  <ele>422.000000</ele>
<time>2008-06-15T11:59:26Z</time>
  <name>TP1759</name>
</trkpt>
<trkpt lat="48.610106600" lon="9.215835000">
  <ele>422.000000</ele>
<time>2008-06-15T11:59:28Z</time>
  <name>TP1760</name>
</trkpt>
<trkpt lat="48.610104900" lon="9.215851600">
  <ele>422.000000</ele>
<time>2008-06-15T11:59:29Z</time>
  <name>TP1761</name>
</trkpt>
<trkpt lat="48.610106600" lon="9.215866600">
  <ele>422.000000</ele>
<time>2008-06-15T11:59:30Z</time>
  <name>TP1762</name>
</trkpt>
<trkpt lat="48.610106600" lon="9.215881600">
  <ele>422.000000</ele>
<time>2008-06-15T11:59:31Z</time>
  <name>TP1763</name>
</trkpt>
<trkpt lat="48.610106600" lon="9.215896600">
  <ele>422.000000</ele>
<time>2008-06-15T11:59:32Z</time>
  <name>TP1764</name>
</trkpt>
<trkpt lat="48.610104900" lon="9.215911600">
  <ele>422.000000</ele>
<time>2008-06-15T11:59:33Z</time>
  <name>TP1765</name>
</trkpt>
<trkpt lat="48.610101600" lon="9.215925000">
  <ele>422.000000</ele>
<time>2008-06-15T11:59:34Z</time>
  <name>TP1766</name>
</trkpt>
<trkpt lat="48.610103300" lon="9.215951600">
  <ele>422.000000</ele>
<time>2008-06-15T11:59:36Z</time>
  <name>TP1767</name>
</trkpt>
<trkpt lat="48.610106600" lon="9.215968300">
  <ele>422.000000</ele>
<time>2008-06-15T11:59:37Z</time>
  <name>TP1768</name>
</trkpt>
<trkpt lat="48.610109900" lon="9.216016600">
  <ele>422.000000</ele>
<time>2008-06-15T11:59:40Z</time>
  <name>TP1769</name>
</trkpt>
<trkpt lat="48.610109900" lon="9.216049900">
  <ele>422.000000</ele>
<time>2008-06-15T11:59:42Z</time>
  <name>TP1770</name>
</trkpt>
<trkpt lat="48.610108300" lon="9.216066600">
  <ele>423.000000</ele>
<time>2008-06-15T11:59:43Z</time>
  <name>TP1771</name>
</trkpt>
<trkpt lat="48.610104900" lon="9.216083300">
  <ele>423.000000</ele>
<time>2008-06-15T11:59:44Z</time>
  <name>TP1772</name>
</trkpt>
<trkpt lat="48.610104900" lon="9.216100000">
  <ele>423.000000</ele>
<time>2008-06-15T11:59:45Z</time>
  <name>TP1773</name>
</trkpt>
<trkpt lat="48.610106600" lon="9.216134900">
  <ele>423.000000</ele>
<time>2008-06-15T11:59:47Z</time>
  <name>TP1774</name>
</trkpt>
<trkpt lat="48.610104900" lon="9.216153300">
  <ele>423.000000</ele>
<time>2008-06-15T11:59:48Z</time>
  <name>TP1775</name>
</trkpt>
<trkpt lat="48.610094900" lon="9.216208300">
  <ele>423.000000</ele>
<time>2008-06-15T11:59:51Z</time>
  <name>TP1776</name>
</trkpt>
<trkpt lat="48.610093300" lon="9.216228300">
  <ele>423.000000</ele>
<time>2008-06-15T11:59:52Z</time>
  <name>TP1777</name>
</trkpt>
<trkpt lat="48.610093300" lon="9.216245000">
  <ele>423.000000</ele>
<time>2008-06-15T11:59:53Z</time>
  <name>TP1778</name>
</trkpt>
<trkpt lat="48.610086600" lon="9.216276600">
  <ele>424.000000</ele>
<time>2008-06-15T11:59:55Z</time>
  <name>TP1779</name>
</trkpt>
<trkpt lat="48.610084900" lon="9.216293300">
  <ele>424.000000</ele>
<time>2008-06-15T11:59:56Z</time>
  <name>TP1780</name>
</trkpt>
<trkpt lat="48.610083300" lon="9.216308300">
  <ele>424.000000</ele>
<time>2008-06-15T11:59:57Z</time>
  <name>TP1781</name>
</trkpt>
<trkpt lat="48.610083300" lon="9.216326600">
  <ele>424.000000</ele>
<time>2008-06-15T11:59:58Z</time>
  <name>TP1782</name>
</trkpt>
<trkpt lat="48.610088300" lon="9.216373300">
  <ele>425.000000</ele>
<time>2008-06-15T12:00:01Z</time>
  <name>TP1783</name>
</trkpt>
<trkpt lat="48.610088300" lon="9.216389900">
  <ele>425.000000</ele>
<time>2008-06-15T12:00:02Z</time>
  <name>TP1784</name>
</trkpt>
<trkpt lat="48.610088300" lon="9.216409900">
  <ele>425.000000</ele>
<time>2008-06-15T12:00:03Z</time>
  <name>TP1785</name>
</trkpt>
<trkpt lat="48.610088300" lon="9.216428300">
  <ele>425.000000</ele>
<time>2008-06-15T12:00:04Z</time>
  <name>TP1786</name>
</trkpt>
<trkpt lat="48.610084900" lon="9.216441600">
  <ele>425.000000</ele>
<time>2008-06-15T12:00:05Z</time>
  <name>TP1787</name>
</trkpt>
<trkpt lat="48.610083300" lon="9.216465000">
  <ele>425.000000</ele>
<time>2008-06-15T12:00:06Z</time>
  <name>TP1788</name>
</trkpt>
<trkpt lat="48.610058200" lon="9.216521600">
  <ele>425.000000</ele>
<time>2008-06-15T12:00:10Z</time>
  <name>TP1789</name>
</trkpt>
<trkpt lat="48.610051600" lon="9.216536600">
  <ele>425.000000</ele>
<time>2008-06-15T12:00:11Z</time>
  <name>TP1790</name>
</trkpt>
<trkpt lat="48.610048300" lon="9.216551600">
  <ele>425.000000</ele>
<time>2008-06-15T12:00:12Z</time>
  <name>TP1791</name>
</trkpt>
<trkpt lat="48.610048300" lon="9.216570000">
  <ele>425.000000</ele>
<time>2008-06-15T12:00:13Z</time>
  <name>TP1792</name>
</trkpt>
<trkpt lat="48.610046600" lon="9.216586600">
  <ele>425.000000</ele>
<time>2008-06-15T12:00:14Z</time>
  <name>TP1793</name>
</trkpt>
<trkpt lat="48.610034900" lon="9.216651600">
  <ele>426.000000</ele>
<time>2008-06-15T12:00:18Z</time>
  <name>TP1794</name>
</trkpt>
<trkpt lat="48.610030000" lon="9.216666600">
  <ele>426.000000</ele>
<time>2008-06-15T12:00:19Z</time>
  <name>TP1795</name>
</trkpt>
<trkpt lat="48.610023300" lon="9.216683300">
  <ele>426.000000</ele>
<time>2008-06-15T12:00:20Z</time>
  <name>TP1796</name>
</trkpt>
<trkpt lat="48.610014900" lon="9.216696600">
  <ele>426.000000</ele>
<time>2008-06-15T12:00:21Z</time>
  <name>TP1797</name>
</trkpt>
<trkpt lat="48.610008300" lon="9.216713300">
  <ele>426.000000</ele>
<time>2008-06-15T12:00:22Z</time>
  <name>TP1798</name>
</trkpt>
<trkpt lat="48.609994900" lon="9.216745000">
  <ele>426.000000</ele>
<time>2008-06-15T12:00:24Z</time>
  <name>TP1799</name>
</trkpt>
<trkpt lat="48.609976600" lon="9.216768300">
  <ele>425.000000</ele>
<time>2008-06-15T12:00:26Z</time>
  <name>TP1800</name>
</trkpt>
<trkpt lat="48.609966600" lon="9.216774900">
  <ele>426.000000</ele>
<time>2008-06-15T12:00:27Z</time>
  <name>TP1801</name>
</trkpt>
<trkpt lat="48.609958300" lon="9.216789900">
  <ele>425.000000</ele>
<time>2008-06-15T12:00:28Z</time>
  <name>TP1802</name>
</trkpt>
<trkpt lat="48.609948300" lon="9.216805000">
  <ele>425.000000</ele>
<time>2008-06-15T12:00:29Z</time>
  <name>TP1803</name>
</trkpt>
<trkpt lat="48.609931600" lon="9.216830000">
  <ele>425.000000</ele>
<time>2008-06-15T12:00:31Z</time>
  <name>TP1804</name>
</trkpt>
<trkpt lat="48.609914900" lon="9.216861600">
  <ele>425.000000</ele>
<time>2008-06-15T12:00:33Z</time>
  <name>TP1805</name>
</trkpt>
<trkpt lat="48.609909900" lon="9.216879900">
  <ele>425.000000</ele>
<time>2008-06-15T12:00:34Z</time>
  <name>TP1806</name>
</trkpt>
<trkpt lat="48.609905000" lon="9.216896600">
  <ele>425.000000</ele>
<time>2008-06-15T12:00:35Z</time>
  <name>TP1807</name>
</trkpt>
<trkpt lat="48.609896600" lon="9.216911600">
  <ele>425.000000</ele>
<time>2008-06-15T12:00:36Z</time>
  <name>TP1808</name>
</trkpt>
<trkpt lat="48.609869900" lon="9.216956600">
  <ele>425.000000</ele>
<time>2008-06-15T12:00:39Z</time>
  <name>TP1809</name>
</trkpt>
<trkpt lat="48.609859900" lon="9.216990000">
  <ele>424.000000</ele>
<time>2008-06-15T12:00:44Z</time>
  <name>TP1810</name>
</trkpt>
<trkpt lat="48.609865000" lon="9.216988300">
  <ele>424.000000</ele>
<time>2008-06-15T12:00:47Z</time>
  <name>TP1811</name>
</trkpt>
<trkpt lat="48.609868300" lon="9.216973300">
  <ele>424.000000</ele>
<time>2008-06-15T12:00:48Z</time>
  <name>TP1812</name>
</trkpt>
<trkpt lat="48.609865000" lon="9.216958300">
  <ele>424.000000</ele>
<time>2008-06-15T12:00:49Z</time>
  <name>TP1813</name>
</trkpt>
<trkpt lat="48.609861600" lon="9.216951600">
  <ele>425.000000</ele>
<time>2008-06-15T12:00:50Z</time>
  <name>TP1814</name>
</trkpt>
<trkpt lat="48.609850000" lon="9.216943300">
  <ele>425.000000</ele>
<time>2008-06-15T12:01:15Z</time>
  <name>TP1815</name>
</trkpt>
<trkpt lat="48.609839900" lon="9.216949900">
  <ele>426.000000</ele>
<time>2008-06-15T12:01:23Z</time>
  <name>TP1816</name>
</trkpt>
<trkpt lat="48.609836600" lon="9.216955000">
  <ele>426.000000</ele>
<time>2008-06-15T12:01:44Z</time>
  <name>TP1817</name>
</trkpt>
<trkpt lat="48.609824900" lon="9.216974900">
  <ele>426.000000</ele>
<time>2008-06-15T12:02:19Z</time>
  <name>TP1818</name>
</trkpt>
<trkpt lat="48.609828300" lon="9.216971600">
  <ele>426.000000</ele>
<time>2008-06-15T12:02:20Z</time>
  <name>TP1819</name>
</trkpt>
<trkpt lat="48.609826600" lon="9.216968300">
  <ele>425.000000</ele>
<time>2008-06-15T12:02:26Z</time>
  <name>TP1820</name>
</trkpt>
<trkpt lat="48.609829900" lon="9.216961600">
  <ele>425.000000</ele>
<time>2008-06-15T12:02:27Z</time>
  <name>TP1821</name>
</trkpt>
<trkpt lat="48.609833200" lon="9.216958300">
  <ele>425.000000</ele>
<time>2008-06-15T12:02:28Z</time>
  <name>TP1822</name>
</trkpt>
<trkpt lat="48.609838300" lon="9.216953300">
  <ele>425.000000</ele>
<time>2008-06-15T12:02:29Z</time>
  <name>TP1823</name>
</trkpt>
<trkpt lat="48.609843300" lon="9.216943300">
  <ele>426.000000</ele>
<time>2008-06-15T12:02:41Z</time>
  <name>TP1824</name>
</trkpt>
<trkpt lat="48.609844900" lon="9.216939900">
  <ele>426.000000</ele>
<time>2008-06-15T12:03:06Z</time>
  <name>TP1825</name>
</trkpt>
<trkpt lat="48.609850000" lon="9.216931600">
  <ele>426.000000</ele>
<time>2008-06-15T12:03:35Z</time>
  <name>TP1826</name>
</trkpt>
<trkpt lat="48.609856600" lon="9.216939900">
  <ele>425.000000</ele>
<time>2008-06-15T12:03:36Z</time>
  <name>TP1827</name>
</trkpt>
<trkpt lat="48.609859900" lon="9.216953300">
  <ele>425.000000</ele>
<time>2008-06-15T12:03:37Z</time>
  <name>TP1828</name>
</trkpt>
<trkpt lat="48.609859900" lon="9.216974900">
  <ele>425.000000</ele>
<time>2008-06-15T12:03:40Z</time>
  <name>TP1829</name>
</trkpt>
<trkpt lat="48.609854900" lon="9.216983300">
  <ele>425.000000</ele>
<time>2008-06-15T12:03:45Z</time>
  <name>TP1830</name>
</trkpt>
<trkpt lat="48.609848200" lon="9.216996600">
  <ele>425.000000</ele>
<time>2008-06-15T12:03:46Z</time>
  <name>TP1831</name>
</trkpt>
<trkpt lat="48.609818300" lon="9.217053300">
  <ele>426.000000</ele>
<time>2008-06-15T12:03:49Z</time>
  <name>TP1832</name>
</trkpt>
<trkpt lat="48.609765000" lon="9.217153300">
  <ele>426.000000</ele>
<time>2008-06-15T12:03:53Z</time>
  <name>TP1833</name>
</trkpt>
<trkpt lat="48.609751600" lon="9.217180000">
  <ele>426.000000</ele>
<time>2008-06-15T12:03:54Z</time>
  <name>TP1834</name>
</trkpt>
<trkpt lat="48.609738300" lon="9.217199900">
  <ele>427.000000</ele>
<time>2008-06-15T12:03:55Z</time>
  <name>TP1835</name>
</trkpt>
<trkpt lat="48.609693200" lon="9.217283300">
  <ele>426.000000</ele>
<time>2008-06-15T12:03:58Z</time>
  <name>TP1836</name>
</trkpt>
<trkpt lat="48.609680000" lon="9.217310000">
  <ele>426.000000</ele>
<time>2008-06-15T12:03:59Z</time>
  <name>TP1837</name>
</trkpt>
<trkpt lat="48.609651600" lon="9.217359900">
  <ele>426.000000</ele>
<time>2008-06-15T12:04:01Z</time>
  <name>TP1838</name>
</trkpt>
<trkpt lat="48.609571600" lon="9.217483300">
  <ele>427.000000</ele>
<time>2008-06-15T12:04:06Z</time>
  <name>TP1839</name>
</trkpt>
<trkpt lat="48.609541600" lon="9.217543300">
  <ele>427.000000</ele>
<time>2008-06-15T12:04:08Z</time>
  <name>TP1840</name>
</trkpt>
<trkpt lat="48.609354900" lon="9.218006600">
  <ele>427.000000</ele>
<time>2008-06-15T12:04:23Z</time>
  <name>TP1841</name>
</trkpt>
<trkpt lat="48.609301600" lon="9.218123300">
  <ele>428.000000</ele>
<time>2008-06-15T12:04:27Z</time>
  <name>TP1842</name>
</trkpt>
<trkpt lat="48.609273200" lon="9.218179900">
  <ele>428.000000</ele>
<time>2008-06-15T12:04:29Z</time>
  <name>TP1843</name>
</trkpt>
<trkpt lat="48.609205000" lon="9.218319900">
  <ele>429.000000</ele>
<time>2008-06-15T12:04:34Z</time>
  <name>TP1844</name>
</trkpt>
<trkpt lat="48.609186600" lon="9.218340000">
  <ele>429.000000</ele>
<time>2008-06-15T12:04:35Z</time>
  <name>TP1845</name>
</trkpt>
<trkpt lat="48.609118200" lon="9.218406600">
  <ele>430.000000</ele>
<time>2008-06-15T12:04:39Z</time>
  <name>TP1846</name>
</trkpt>
<trkpt lat="48.609105000" lon="9.218413300">
  <ele>430.000000</ele>
<time>2008-06-15T12:04:40Z</time>
  <name>TP1847</name>
</trkpt>
<trkpt lat="48.609101600" lon="9.218418300">
  <ele>431.000000</ele>
<time>2008-06-15T12:04:46Z</time>
  <name>TP1848</name>
</trkpt>
<trkpt lat="48.609105000" lon="9.218414900">
  <ele>431.000000</ele>
<time>2008-06-15T12:04:47Z</time>
  <name>TP1849</name>
</trkpt>
<trkpt lat="48.609105000" lon="9.218408300">
  <ele>431.000000</ele>
<time>2008-06-15T12:04:48Z</time>
  <name>TP1850</name>
</trkpt>
<trkpt lat="48.609098300" lon="9.218403300">
  <ele>431.000000</ele>
<time>2008-06-15T12:04:50Z</time>
  <name>TP1851</name>
</trkpt>
<trkpt lat="48.609091600" lon="9.218406600">
  <ele>431.000000</ele>
<time>2008-06-15T12:05:53Z</time>
  <name>TP1852</name>
</trkpt>
<trkpt lat="48.609084900" lon="9.218423300">
  <ele>431.000000</ele>
<time>2008-06-15T12:06:43Z</time>
  <name>TP1853</name>
</trkpt>
<trkpt lat="48.609081600" lon="9.218428300">
  <ele>432.000000</ele>
<time>2008-06-15T12:07:20Z</time>
  <name>TP1854</name>
</trkpt>
<trkpt lat="48.609071600" lon="9.218438300">
  <ele>432.000000</ele>
<time>2008-06-15T12:08:05Z</time>
  <name>TP1855</name>
</trkpt>
<trkpt lat="48.609076600" lon="9.218446600">
  <ele>432.000000</ele>
<time>2008-06-15T12:08:27Z</time>
  <name>TP1856</name>
</trkpt>
<trkpt lat="48.609078200" lon="9.218451600">
  <ele>432.000000</ele>
<time>2008-06-15T12:08:38Z</time>
  <name>TP1857</name>
</trkpt>
<trkpt lat="48.609073300" lon="9.218441600">
  <ele>432.000000</ele>
<time>2008-06-15T12:08:40Z</time>
  <name>TP1858</name>
</trkpt>
<trkpt lat="48.609066600" lon="9.218436600">
  <ele>432.000000</ele>
<time>2008-06-15T12:08:55Z</time>
  <name>TP1859</name>
</trkpt>
<trkpt lat="48.609059900" lon="9.218449900">
  <ele>432.000000</ele>
<time>2008-06-15T12:09:02Z</time>
  <name>TP1860</name>
</trkpt>
<trkpt lat="48.609043300" lon="9.218466600">
  <ele>432.000000</ele>
<time>2008-06-15T12:09:13Z</time>
  <name>TP1861</name>
</trkpt>
<trkpt lat="48.609035000" lon="9.218473300">
  <ele>433.000000</ele>
<time>2008-06-15T12:10:14Z</time>
  <name>TP1862</name>
</trkpt>
<trkpt lat="48.609038300" lon="9.218473300">
  <ele>432.000000</ele>
<time>2008-06-15T12:10:15Z</time>
  <name>TP1863</name>
</trkpt>
<trkpt lat="48.609046600" lon="9.218469900">
  <ele>432.000000</ele>
<time>2008-06-15T12:10:31Z</time>
  <name>TP1864</name>
</trkpt>
<trkpt lat="48.609048200" lon="9.218465000">
  <ele>432.000000</ele>
<time>2008-06-15T12:10:44Z</time>
  <name>TP1865</name>
</trkpt>
<trkpt lat="48.609053300" lon="9.218463300">
  <ele>432.000000</ele>
<time>2008-06-15T12:10:45Z</time>
  <name>TP1866</name>
</trkpt>
<trkpt lat="48.609058300" lon="9.218458300">
  <ele>432.000000</ele>
<time>2008-06-15T12:10:46Z</time>
  <name>TP1867</name>
</trkpt>
<trkpt lat="48.609061600" lon="9.218456600">
  <ele>433.000000</ele>
<time>2008-06-15T12:10:47Z</time>
  <name>TP1868</name>
</trkpt>
<trkpt lat="48.609065000" lon="9.218456600">
  <ele>433.000000</ele>
<time>2008-06-15T12:10:52Z</time>
  <name>TP1869</name>
</trkpt>
<trkpt lat="48.609061600" lon="9.218448300">
  <ele>433.000000</ele>
<time>2008-06-15T12:11:12Z</time>
  <name>TP1870</name>
</trkpt>
<trkpt lat="48.609063200" lon="9.218448300">
  <ele>433.000000</ele>
<time>2008-06-15T12:11:24Z</time>
  <name>TP1871</name>
</trkpt>
<trkpt lat="48.609061600" lon="9.218441600">
  <ele>433.000000</ele>
<time>2008-06-15T12:11:25Z</time>
  <name>TP1872</name>
</trkpt>
<trkpt lat="48.609056600" lon="9.218438300">
  <ele>433.000000</ele>
<time>2008-06-15T12:11:42Z</time>
  <name>TP1873</name>
</trkpt>
<trkpt lat="48.609058300" lon="9.218445000">
  <ele>433.000000</ele>
<time>2008-06-15T12:11:43Z</time>
  <name>TP1874</name>
</trkpt>
<trkpt lat="48.609066600" lon="9.218446600">
  <ele>433.000000</ele>
<time>2008-06-15T12:11:44Z</time>
  <name>TP1875</name>
</trkpt>
<trkpt lat="48.609081600" lon="9.218455000">
  <ele>432.000000</ele>
<time>2008-06-15T12:11:47Z</time>
  <name>TP1876</name>
</trkpt>
<trkpt lat="48.609081600" lon="9.218453300">
  <ele>433.000000</ele>
<time>2008-06-15T12:11:48Z</time>
  <name>TP1877</name>
</trkpt>
<trkpt lat="48.609080000" lon="9.218456600">
  <ele>433.000000</ele>
<time>2008-06-15T12:11:53Z</time>
  <name>TP1878</name>
</trkpt>
<trkpt lat="48.609076600" lon="9.218458300">
  <ele>432.000000</ele>
<time>2008-06-15T12:11:55Z</time>
  <name>TP1879</name>
</trkpt>
<trkpt lat="48.609081600" lon="9.218451600">
  <ele>433.000000</ele>
<time>2008-06-15T12:12:37Z</time>
  <name>TP1880</name>
</trkpt>
<trkpt lat="48.609080000" lon="9.218443300">
  <ele>433.000000</ele>
<time>2008-06-15T12:12:38Z</time>
  <name>TP1881</name>
</trkpt>
<trkpt lat="48.609076600" lon="9.218438300">
  <ele>433.000000</ele>
<time>2008-06-15T12:12:39Z</time>
  <name>TP1882</name>
</trkpt>
<trkpt lat="48.609081600" lon="9.218441600">
  <ele>433.000000</ele>
<time>2008-06-15T12:12:59Z</time>
  <name>TP1883</name>
</trkpt>
<trkpt lat="48.609088300" lon="9.218433300">
  <ele>433.000000</ele>
<time>2008-06-15T12:13:05Z</time>
  <name>TP1884</name>
</trkpt>
<trkpt lat="48.609086600" lon="9.218420000">
  <ele>433.000000</ele>
<time>2008-06-15T12:13:23Z</time>
  <name>TP1885</name>
</trkpt>
<trkpt lat="48.609083300" lon="9.218416600">
  <ele>433.000000</ele>
<time>2008-06-15T12:13:30Z</time>
  <name>TP1886</name>
</trkpt>
<trkpt lat="48.609080000" lon="9.218421600">
  <ele>433.000000</ele>
<time>2008-06-15T12:13:38Z</time>
  <name>TP1887</name>
</trkpt>
<trkpt lat="48.609078200" lon="9.218428300">
  <ele>433.000000</ele>
<time>2008-06-15T12:13:39Z</time>
  <name>TP1888</name>
</trkpt>
<trkpt lat="48.609088300" lon="9.218428300">
  <ele>433.000000</ele>
<time>2008-06-15T12:14:02Z</time>
  <name>TP1889</name>
</trkpt>
<trkpt lat="48.609101600" lon="9.218413300">
  <ele>433.000000</ele>
<time>2008-06-15T12:14:17Z</time>
  <name>TP1890</name>
</trkpt>
<trkpt lat="48.609096600" lon="9.218414900">
  <ele>433.000000</ele>
<time>2008-06-15T12:14:18Z</time>
  <name>TP1891</name>
</trkpt>
<trkpt lat="48.609091600" lon="9.218421600">
  <ele>433.000000</ele>
<time>2008-06-15T12:14:19Z</time>
  <name>TP1892</name>
</trkpt>
<trkpt lat="48.609086600" lon="9.218433300">
  <ele>433.000000</ele>
<time>2008-06-15T12:14:20Z</time>
  <name>TP1893</name>
</trkpt>
<trkpt lat="48.609069900" lon="9.218466600">
  <ele>433.000000</ele>
<time>2008-06-15T12:14:22Z</time>
  <name>TP1894</name>
</trkpt>
<trkpt lat="48.609056600" lon="9.218484900">
  <ele>433.000000</ele>
<time>2008-06-15T12:14:23Z</time>
  <name>TP1895</name>
</trkpt>
<trkpt lat="48.609041600" lon="9.218504900">
  <ele>432.000000</ele>
<time>2008-06-15T12:14:24Z</time>
  <name>TP1896</name>
</trkpt>
<trkpt lat="48.608981600" lon="9.218561600">
  <ele>432.000000</ele>
<time>2008-06-15T12:14:27Z</time>
  <name>TP1897</name>
</trkpt>
<trkpt lat="48.608959900" lon="9.218578300">
  <ele>432.000000</ele>
<time>2008-06-15T12:14:28Z</time>
  <name>TP1898</name>
</trkpt>
<trkpt lat="48.608940000" lon="9.218598300">
  <ele>432.000000</ele>
<time>2008-06-15T12:14:29Z</time>
  <name>TP1899</name>
</trkpt>
<trkpt lat="48.608914900" lon="9.218620000">
  <ele>432.000000</ele>
<time>2008-06-15T12:14:30Z</time>
  <name>TP1900</name>
</trkpt>
<trkpt lat="48.608859900" lon="9.218649900">
  <ele>432.000000</ele>
<time>2008-06-15T12:14:32Z</time>
  <name>TP1901</name>
</trkpt>
<trkpt lat="48.608724900" lon="9.218694900">
  <ele>432.000000</ele>
<time>2008-06-15T12:14:36Z</time>
  <name>TP1902</name>
</trkpt>
<trkpt lat="48.608493300" lon="9.218809900">
  <ele>432.000000</ele>
<time>2008-06-15T12:14:43Z</time>
  <name>TP1903</name>
</trkpt>
<trkpt lat="48.608096600" lon="9.218943300">
  <ele>431.000000</ele>
<time>2008-06-15T12:14:52Z</time>
  <name>TP1904</name>
</trkpt>
<trkpt lat="48.607961600" lon="9.218986600">
  <ele>430.000000</ele>
<time>2008-06-15T12:14:54Z</time>
  <name>TP1905</name>
</trkpt>
<trkpt lat="48.607846600" lon="9.219016600">
  <ele>430.000000</ele>
<time>2008-06-15T12:14:56Z</time>
  <name>TP1906</name>
</trkpt>
<trkpt lat="48.607673300" lon="9.219068300">
  <ele>429.000000</ele>
<time>2008-06-15T12:14:59Z</time>
  <name>TP1907</name>
</trkpt>
<trkpt lat="48.607648200" lon="9.219073300">
  <ele>429.000000</ele>
<time>2008-06-15T12:15:00Z</time>
  <name>TP1908</name>
</trkpt>
<trkpt lat="48.607440000" lon="9.219113300">
  <ele>428.000000</ele>
<time>2008-06-15T12:15:03Z</time>
  <name>TP1909</name>
</trkpt>
<trkpt lat="48.607276600" lon="9.219133300">
  <ele>428.000000</ele>
<time>2008-06-15T12:15:05Z</time>
  <name>TP1910</name>
</trkpt>
<trkpt lat="48.606478300" lon="9.219358300">
  <ele>420.000000</ele>
<time>2008-06-15T12:15:14Z</time>
  <name>TP1911</name>
</trkpt>
<trkpt lat="48.605606600" lon="9.219758300">
  <ele>419.000000</ele>
<time>2008-06-15T12:15:25Z</time>
  <name>TP1912</name>
</trkpt>
<trkpt lat="48.605268300" lon="9.219930000">
  <ele>418.000000</ele>
<time>2008-06-15T12:15:32Z</time>
  <name>TP1913</name>
</trkpt>
<trkpt lat="48.605249900" lon="9.219940000">
  <ele>418.000000</ele>
<time>2008-06-15T12:15:33Z</time>
  <name>TP1914</name>
</trkpt>
<trkpt lat="48.605234900" lon="9.219943300">
  <ele>418.000000</ele>
<time>2008-06-15T12:15:34Z</time>
  <name>TP1915</name>
</trkpt>
<trkpt lat="48.605188300" lon="9.219968300">
  <ele>415.000000</ele>
<time>2008-06-15T12:16:08Z</time>
  <name>TP1916</name>
</trkpt>
<trkpt lat="48.605183300" lon="9.219953300">
  <ele>415.000000</ele>
<time>2008-06-15T12:16:09Z</time>
  <name>TP1917</name>
</trkpt>
<trkpt lat="48.605176600" lon="9.219940000">
  <ele>415.000000</ele>
<time>2008-06-15T12:16:10Z</time>
  <name>TP1918</name>
</trkpt>
<trkpt lat="48.605166600" lon="9.219928300">
  <ele>415.000000</ele>
<time>2008-06-15T12:16:11Z</time>
  <name>TP1919</name>
</trkpt>
<trkpt lat="48.605146600" lon="9.219924900">
  <ele>415.000000</ele>
<time>2008-06-15T12:16:12Z</time>
  <name>TP1920</name>
</trkpt>
<trkpt lat="48.605125000" lon="9.219921600">
  <ele>415.000000</ele>
<time>2008-06-15T12:16:13Z</time>
  <name>TP1921</name>
</trkpt>
<trkpt lat="48.605091600" lon="9.219889900">
  <ele>415.000000</ele>
<time>2008-06-15T12:16:15Z</time>
  <name>TP1922</name>
</trkpt>
<trkpt lat="48.605074900" lon="9.219870000">
  <ele>415.000000</ele>
<time>2008-06-15T12:16:16Z</time>
  <name>TP1923</name>
</trkpt>
<trkpt lat="48.605053300" lon="9.219851600">
  <ele>415.000000</ele>
<time>2008-06-15T12:16:17Z</time>
  <name>TP1924</name>
</trkpt>
<trkpt lat="48.605021600" lon="9.219811600">
  <ele>414.000000</ele>
<time>2008-06-15T12:16:19Z</time>
  <name>TP1925</name>
</trkpt>
<trkpt lat="48.605008300" lon="9.219771600">
  <ele>414.000000</ele>
<time>2008-06-15T12:16:21Z</time>
  <name>TP1926</name>
</trkpt>
<trkpt lat="48.604989900" lon="9.219749900">
  <ele>413.000000</ele>
<time>2008-06-15T12:16:23Z</time>
  <name>TP1927</name>
</trkpt>
<trkpt lat="48.604983300" lon="9.219731600">
  <ele>413.000000</ele>
<time>2008-06-15T12:16:24Z</time>
  <name>TP1928</name>
</trkpt>
<trkpt lat="48.604981600" lon="9.219711600">
  <ele>413.000000</ele>
<time>2008-06-15T12:16:25Z</time>
  <name>TP1929</name>
</trkpt>
<trkpt lat="48.604979900" lon="9.219693300">
  <ele>413.000000</ele>
<time>2008-06-15T12:16:26Z</time>
  <name>TP1930</name>
</trkpt>
<trkpt lat="48.604978300" lon="9.219670000">
  <ele>413.000000</ele>
<time>2008-06-15T12:16:27Z</time>
  <name>TP1931</name>
</trkpt>
<trkpt lat="48.604976600" lon="9.219646600">
  <ele>413.000000</ele>
<time>2008-06-15T12:16:28Z</time>
  <name>TP1932</name>
</trkpt>
<trkpt lat="48.604974900" lon="9.219623300">
  <ele>413.000000</ele>
<time>2008-06-15T12:16:29Z</time>
  <name>TP1933</name>
</trkpt>
<trkpt lat="48.604971600" lon="9.219596600">
  <ele>413.000000</ele>
<time>2008-06-15T12:16:30Z</time>
  <name>TP1934</name>
</trkpt>
<trkpt lat="48.604968300" lon="9.219568300">
  <ele>413.000000</ele>
<time>2008-06-15T12:16:31Z</time>
  <name>TP1935</name>
</trkpt>
<trkpt lat="48.604964900" lon="9.219541600">
  <ele>413.000000</ele>
<time>2008-06-15T12:16:32Z</time>
  <name>TP1936</name>
</trkpt>
<trkpt lat="48.604956600" lon="9.219516600">
  <ele>414.000000</ele>
<time>2008-06-15T12:16:33Z</time>
  <name>TP1937</name>
</trkpt>
<trkpt lat="48.604948300" lon="9.219495000">
  <ele>414.000000</ele>
<time>2008-06-15T12:16:34Z</time>
  <name>TP1938</name>
</trkpt>
<trkpt lat="48.604931600" lon="9.219454900">
  <ele>414.000000</ele>
<time>2008-06-15T12:16:36Z</time>
  <name>TP1939</name>
</trkpt>
<trkpt lat="48.604928200" lon="9.219434900">
  <ele>414.000000</ele>
<time>2008-06-15T12:16:37Z</time>
  <name>TP1940</name>
</trkpt>
<trkpt lat="48.604919900" lon="9.219363300">
  <ele>414.000000</ele>
<time>2008-06-15T12:16:40Z</time>
  <name>TP1941</name>
</trkpt>
<trkpt lat="48.604901600" lon="9.219310000">
  <ele>414.000000</ele>
<time>2008-06-15T12:16:42Z</time>
  <name>TP1942</name>
</trkpt>
<trkpt lat="48.604879900" lon="9.219253300">
  <ele>414.000000</ele>
<time>2008-06-15T12:16:44Z</time>
  <name>TP1943</name>
</trkpt>
<trkpt lat="48.604753300" lon="9.218900000">
  <ele>415.000000</ele>
<time>2008-06-15T12:16:55Z</time>
  <name>TP1944</name>
</trkpt>
<trkpt lat="48.604721600" lon="9.218834900">
  <ele>415.000000</ele>
<time>2008-06-15T12:16:57Z</time>
  <name>TP1945</name>
</trkpt>
<trkpt lat="48.604691600" lon="9.218764900">
  <ele>415.000000</ele>
<time>2008-06-15T12:16:59Z</time>
  <name>TP1946</name>
</trkpt>
<trkpt lat="48.604648200" lon="9.218658300">
  <ele>415.000000</ele>
<time>2008-06-15T12:17:02Z</time>
  <name>TP1947</name>
</trkpt>
<trkpt lat="48.604400000" lon="9.218218300">
  <ele>415.000000</ele>
<time>2008-06-15T12:17:16Z</time>
  <name>TP1948</name>
</trkpt>
<trkpt lat="48.604348300" lon="9.218129900">
  <ele>416.000000</ele>
<time>2008-06-15T12:17:19Z</time>
  <name>TP1949</name>
</trkpt>
<trkpt lat="48.604206600" lon="9.217876600">
  <ele>415.000000</ele>
<time>2008-06-15T12:17:27Z</time>
  <name>TP1950</name>
</trkpt>
<trkpt lat="48.604194900" lon="9.217849900">
  <ele>415.000000</ele>
<time>2008-06-15T12:17:28Z</time>
  <name>TP1951</name>
</trkpt>
<trkpt lat="48.604184900" lon="9.217826600">
  <ele>415.000000</ele>
<time>2008-06-15T12:17:29Z</time>
  <name>TP1952</name>
</trkpt>
<trkpt lat="48.604171600" lon="9.217813300">
  <ele>415.000000</ele>
<time>2008-06-15T12:17:30Z</time>
  <name>TP1953</name>
</trkpt>
<trkpt lat="48.604160000" lon="9.217803300">
  <ele>415.000000</ele>
<time>2008-06-15T12:17:31Z</time>
  <name>TP1954</name>
</trkpt>
<trkpt lat="48.604151600" lon="9.217811600">
  <ele>415.000000</ele>
<time>2008-06-15T12:17:32Z</time>
  <name>TP1955</name>
</trkpt>
<trkpt lat="48.604161600" lon="9.217836600">
  <ele>415.000000</ele>
<time>2008-06-15T12:17:33Z</time>
  <name>TP1956</name>
</trkpt>
<trkpt lat="48.604171600" lon="9.217860000">
  <ele>414.000000</ele>
<time>2008-06-15T12:17:34Z</time>
  <name>TP1957</name>
</trkpt>
<trkpt lat="48.604184900" lon="9.217881600">
  <ele>414.000000</ele>
<time>2008-06-15T12:17:35Z</time>
  <name>TP1958</name>
</trkpt>
<trkpt lat="48.604198300" lon="9.217903300">
  <ele>414.000000</ele>
<time>2008-06-15T12:17:36Z</time>
  <name>TP1959</name>
</trkpt>
<trkpt lat="48.604230000" lon="9.217966600">
  <ele>414.000000</ele>
<time>2008-06-15T12:17:39Z</time>
  <name>TP1960</name>
</trkpt>
<trkpt lat="48.604243200" lon="9.217981600">
  <ele>414.000000</ele>
<time>2008-06-15T12:17:40Z</time>
  <name>TP1961</name>
</trkpt>
<trkpt lat="48.604260000" lon="9.217991600">
  <ele>414.000000</ele>
<time>2008-06-15T12:17:41Z</time>
  <name>TP1962</name>
</trkpt>
<trkpt lat="48.604276600" lon="9.217983300">
  <ele>414.000000</ele>
<time>2008-06-15T12:17:42Z</time>
  <name>TP1963</name>
</trkpt>
<trkpt lat="48.604293300" lon="9.217971600">
  <ele>414.000000</ele>
<time>2008-06-15T12:17:43Z</time>
  <name>TP1964</name>
</trkpt>
<trkpt lat="48.604308300" lon="9.217954900">
  <ele>414.000000</ele>
<time>2008-06-15T12:17:44Z</time>
  <name>TP1965</name>
</trkpt>
<trkpt lat="48.604321600" lon="9.217936600">
  <ele>414.000000</ele>
<time>2008-06-15T12:17:45Z</time>
  <name>TP1966</name>
</trkpt>
<trkpt lat="48.604333300" lon="9.217918300">
  <ele>414.000000</ele>
<time>2008-06-15T12:17:46Z</time>
  <name>TP1967</name>
</trkpt>
<trkpt lat="48.604343300" lon="9.217895000">
  <ele>414.000000</ele>
<time>2008-06-15T12:17:47Z</time>
  <name>TP1968</name>
</trkpt>
<trkpt lat="48.604370000" lon="9.217819900">
  <ele>414.000000</ele>
<time>2008-06-15T12:17:50Z</time>
  <name>TP1969</name>
</trkpt>
<trkpt lat="48.604386600" lon="9.217743300">
  <ele>415.000000</ele>
<time>2008-06-15T12:17:53Z</time>
  <name>TP1970</name>
</trkpt>
<trkpt lat="48.604414900" lon="9.217416600">
  <ele>416.000000</ele>
<time>2008-06-15T12:18:05Z</time>
  <name>TP1971</name>
</trkpt>
<trkpt lat="48.604418300" lon="9.217363300">
  <ele>417.000000</ele>
<time>2008-06-15T12:18:07Z</time>
  <name>TP1972</name>
</trkpt>
<trkpt lat="48.604421600" lon="9.217338300">
  <ele>417.000000</ele>
<time>2008-06-15T12:18:08Z</time>
  <name>TP1973</name>
</trkpt>
<trkpt lat="48.604458300" lon="9.217116600">
  <ele>418.000000</ele>
<time>2008-06-15T12:18:17Z</time>
  <name>TP1974</name>
</trkpt>
<trkpt lat="48.604461600" lon="9.217089900">
  <ele>418.000000</ele>
<time>2008-06-15T12:18:18Z</time>
  <name>TP1975</name>
</trkpt>
<trkpt lat="48.604471600" lon="9.216928300">
  <ele>419.000000</ele>
<time>2008-06-15T12:18:24Z</time>
  <name>TP1976</name>
</trkpt>
<trkpt lat="48.604496600" lon="9.216738300">
  <ele>419.000000</ele>
<time>2008-06-15T12:18:31Z</time>
  <name>TP1977</name>
</trkpt>
<trkpt lat="48.604508200" lon="9.216663300">
  <ele>419.000000</ele>
<time>2008-06-15T12:18:34Z</time>
  <name>TP1978</name>
</trkpt>
<trkpt lat="48.604513300" lon="9.216609900">
  <ele>420.000000</ele>
<time>2008-06-15T12:18:36Z</time>
  <name>TP1979</name>
</trkpt>
<trkpt lat="48.604523200" lon="9.216455000">
  <ele>420.000000</ele>
<time>2008-06-15T12:18:42Z</time>
  <name>TP1980</name>
</trkpt>
<trkpt lat="48.604523200" lon="9.216431600">
  <ele>420.000000</ele>
<time>2008-06-15T12:18:43Z</time>
  <name>TP1981</name>
</trkpt>
<trkpt lat="48.604525000" lon="9.216406600">
  <ele>420.000000</ele>
<time>2008-06-15T12:18:44Z</time>
  <name>TP1982</name>
</trkpt>
<trkpt lat="48.604540000" lon="9.216331600">
  <ele>420.000000</ele>
<time>2008-06-15T12:18:47Z</time>
  <name>TP1983</name>
</trkpt>
<trkpt lat="48.604551600" lon="9.216283300">
  <ele>421.000000</ele>
<time>2008-06-15T12:18:49Z</time>
  <name>TP1984</name>
</trkpt>
<trkpt lat="48.604554900" lon="9.216259900">
  <ele>421.000000</ele>
<time>2008-06-15T12:18:50Z</time>
  <name>TP1985</name>
</trkpt>
<trkpt lat="48.604559900" lon="9.216208300">
  <ele>421.000000</ele>
<time>2008-06-15T12:18:52Z</time>
  <name>TP1986</name>
</trkpt>
<trkpt lat="48.604568300" lon="9.216133300">
  <ele>421.000000</ele>
<time>2008-06-15T12:18:55Z</time>
  <name>TP1987</name>
</trkpt>
<trkpt lat="48.604581600" lon="9.216058300">
  <ele>421.000000</ele>
<time>2008-06-15T12:18:58Z</time>
  <name>TP1988</name>
</trkpt>
<trkpt lat="48.604595000" lon="9.215985000">
  <ele>422.000000</ele>
<time>2008-06-15T12:19:01Z</time>
  <name>TP1989</name>
</trkpt>
<trkpt lat="48.604599900" lon="9.215934900">
  <ele>422.000000</ele>
<time>2008-06-15T12:19:03Z</time>
  <name>TP1990</name>
</trkpt>
<trkpt lat="48.604604900" lon="9.215883300">
  <ele>422.000000</ele>
<time>2008-06-15T12:19:05Z</time>
  <name>TP1991</name>
</trkpt>
<trkpt lat="48.604619900" lon="9.215813300">
  <ele>422.000000</ele>
<time>2008-06-15T12:19:08Z</time>
  <name>TP1992</name>
</trkpt>
<trkpt lat="48.604621600" lon="9.215788300">
  <ele>422.000000</ele>
<time>2008-06-15T12:19:09Z</time>
  <name>TP1993</name>
</trkpt>
<trkpt lat="48.604623300" lon="9.215763300">
  <ele>422.000000</ele>
<time>2008-06-15T12:19:10Z</time>
  <name>TP1994</name>
</trkpt>
<trkpt lat="48.604626600" lon="9.215684900">
  <ele>422.000000</ele>
<time>2008-06-15T12:19:13Z</time>
  <name>TP1995</name>
</trkpt>
<trkpt lat="48.604629900" lon="9.215660000">
  <ele>422.000000</ele>
<time>2008-06-15T12:19:14Z</time>
  <name>TP1996</name>
</trkpt>
<trkpt lat="48.604643300" lon="9.215614900">
  <ele>423.000000</ele>
<time>2008-06-15T12:19:16Z</time>
  <name>TP1997</name>
</trkpt>
<trkpt lat="48.604654900" lon="9.215568300">
  <ele>423.000000</ele>
<time>2008-06-15T12:19:18Z</time>
  <name>TP1998</name>
</trkpt>
<trkpt lat="48.604666600" lon="9.215498300">
  <ele>423.000000</ele>
<time>2008-06-15T12:19:21Z</time>
  <name>TP1999</name>
</trkpt>
<trkpt lat="48.604671600" lon="9.215476600">
  <ele>423.000000</ele>
<time>2008-06-15T12:19:22Z</time>
  <name>TP2000</name>
</trkpt>
<trkpt lat="48.604686600" lon="9.215381600">
  <ele>423.000000</ele>
<time>2008-06-15T12:19:26Z</time>
  <name>TP2001</name>
</trkpt>
<trkpt lat="48.604714900" lon="9.215181600">
  <ele>423.000000</ele>
<time>2008-06-15T12:19:34Z</time>
  <name>TP2002</name>
</trkpt>
<trkpt lat="48.604728300" lon="9.215114900">
  <ele>424.000000</ele>
<time>2008-06-15T12:19:37Z</time>
  <name>TP2003</name>
</trkpt>
<trkpt lat="48.604733200" lon="9.215066600">
  <ele>424.000000</ele>
<time>2008-06-15T12:19:39Z</time>
  <name>TP2004</name>
</trkpt>
<trkpt lat="48.604738300" lon="9.215044900">
  <ele>424.000000</ele>
<time>2008-06-15T12:19:40Z</time>
  <name>TP2005</name>
</trkpt>
<trkpt lat="48.604744900" lon="9.215023300">
  <ele>424.000000</ele>
<time>2008-06-15T12:19:41Z</time>
  <name>TP2006</name>
</trkpt>
<trkpt lat="48.604748200" lon="9.214998300">
  <ele>424.000000</ele>
<time>2008-06-15T12:19:42Z</time>
  <name>TP2007</name>
</trkpt>
<trkpt lat="48.604756600" lon="9.214926600">
  <ele>425.000000</ele>
<time>2008-06-15T12:19:46Z</time>
  <name>TP2008</name>
</trkpt>
<trkpt lat="48.604771600" lon="9.214868300">
  <ele>425.000000</ele>
<time>2008-06-15T12:19:49Z</time>
  <name>TP2009</name>
</trkpt>
<trkpt lat="48.604790000" lon="9.214806600">
  <ele>426.000000</ele>
<time>2008-06-15T12:19:52Z</time>
  <name>TP2010</name>
</trkpt>
<trkpt lat="48.604793300" lon="9.214784900">
  <ele>426.000000</ele>
<time>2008-06-15T12:19:53Z</time>
  <name>TP2011</name>
</trkpt>
<trkpt lat="48.604794900" lon="9.214738300">
  <ele>426.000000</ele>
<time>2008-06-15T12:19:55Z</time>
  <name>TP2012</name>
</trkpt>
<trkpt lat="48.604799900" lon="9.214718300">
  <ele>426.000000</ele>
<time>2008-06-15T12:19:56Z</time>
  <name>TP2013</name>
</trkpt>
<trkpt lat="48.604806600" lon="9.214698300">
  <ele>426.000000</ele>
<time>2008-06-15T12:19:57Z</time>
  <name>TP2014</name>
</trkpt>
<trkpt lat="48.604814900" lon="9.214678300">
  <ele>426.000000</ele>
<time>2008-06-15T12:19:58Z</time>
  <name>TP2015</name>
</trkpt>
<trkpt lat="48.604818200" lon="9.214658300">
  <ele>426.000000</ele>
<time>2008-06-15T12:19:59Z</time>
  <name>TP2016</name>
</trkpt>
<trkpt lat="48.604823300" lon="9.214613300">
  <ele>426.000000</ele>
<time>2008-06-15T12:20:01Z</time>
  <name>TP2017</name>
</trkpt>
<trkpt lat="48.604828300" lon="9.214591600">
  <ele>426.000000</ele>
<time>2008-06-15T12:20:02Z</time>
  <name>TP2018</name>
</trkpt>
<trkpt lat="48.604848300" lon="9.214529900">
  <ele>427.000000</ele>
<time>2008-06-15T12:20:05Z</time>
  <name>TP2019</name>
</trkpt>
<trkpt lat="48.604864900" lon="9.214465000">
  <ele>427.000000</ele>
<time>2008-06-15T12:20:08Z</time>
  <name>TP2020</name>
</trkpt>
<trkpt lat="48.604894900" lon="9.214356600">
  <ele>428.000000</ele>
<time>2008-06-15T12:20:13Z</time>
  <name>TP2021</name>
</trkpt>
<trkpt lat="48.604939900" lon="9.214173300">
  <ele>429.000000</ele>
<time>2008-06-15T12:20:21Z</time>
  <name>TP2022</name>
</trkpt>
<trkpt lat="48.604961600" lon="9.214106600">
  <ele>429.000000</ele>
<time>2008-06-15T12:20:24Z</time>
  <name>TP2023</name>
</trkpt>
<trkpt lat="48.605009900" lon="9.213893300">
  <ele>430.000000</ele>
<time>2008-06-15T12:20:33Z</time>
  <name>TP2024</name>
</trkpt>
<trkpt lat="48.605036600" lon="9.213801600">
  <ele>431.000000</ele>
<time>2008-06-15T12:20:37Z</time>
  <name>TP2025</name>
</trkpt>
<trkpt lat="48.605039900" lon="9.213775000">
  <ele>431.000000</ele>
<time>2008-06-15T12:20:38Z</time>
  <name>TP2026</name>
</trkpt>
<trkpt lat="48.605048300" lon="9.213701600">
  <ele>431.000000</ele>
<time>2008-06-15T12:20:41Z</time>
  <name>TP2027</name>
</trkpt>
<trkpt lat="48.605071600" lon="9.213608300">
  <ele>431.000000</ele>
<time>2008-06-15T12:20:45Z</time>
  <name>TP2028</name>
</trkpt>
<trkpt lat="48.605101600" lon="9.213493300">
  <ele>432.000000</ele>
<time>2008-06-15T12:20:50Z</time>
  <name>TP2029</name>
</trkpt>
<trkpt lat="48.605121600" lon="9.213375000">
  <ele>432.000000</ele>
<time>2008-06-15T12:20:55Z</time>
  <name>TP2030</name>
</trkpt>
<trkpt lat="48.605129900" lon="9.213326600">
  <ele>433.000000</ele>
<time>2008-06-15T12:20:57Z</time>
  <name>TP2031</name>
</trkpt>
<trkpt lat="48.605156600" lon="9.213074900">
  <ele>434.000000</ele>
<time>2008-06-15T12:21:07Z</time>
  <name>TP2032</name>
</trkpt>
<trkpt lat="48.605166600" lon="9.213026600">
  <ele>434.000000</ele>
<time>2008-06-15T12:21:09Z</time>
  <name>TP2033</name>
</trkpt>
<trkpt lat="48.605170000" lon="9.213001600">
  <ele>434.000000</ele>
<time>2008-06-15T12:21:10Z</time>
  <name>TP2034</name>
</trkpt>
<trkpt lat="48.605176600" lon="9.212901600">
  <ele>434.000000</ele>
<time>2008-06-15T12:21:14Z</time>
  <name>TP2035</name>
</trkpt>
<trkpt lat="48.605183300" lon="9.212755000">
  <ele>435.000000</ele>
<time>2008-06-15T12:21:20Z</time>
  <name>TP2036</name>
</trkpt>
<trkpt lat="48.605186600" lon="9.212704900">
  <ele>435.000000</ele>
<time>2008-06-15T12:21:22Z</time>
  <name>TP2037</name>
</trkpt>
<trkpt lat="48.605195000" lon="9.212626600">
  <ele>435.000000</ele>
<time>2008-06-15T12:21:25Z</time>
  <name>TP2038</name>
</trkpt>
<trkpt lat="48.605218300" lon="9.212458300">
  <ele>436.000000</ele>
<time>2008-06-15T12:21:32Z</time>
  <name>TP2039</name>
</trkpt>
<trkpt lat="48.605223200" lon="9.212359900">
  <ele>436.000000</ele>
<time>2008-06-15T12:21:36Z</time>
  <name>TP2040</name>
</trkpt>
<trkpt lat="48.605225000" lon="9.212310000">
  <ele>436.000000</ele>
<time>2008-06-15T12:21:38Z</time>
  <name>TP2041</name>
</trkpt>
<trkpt lat="48.605236600" lon="9.212164900">
  <ele>436.000000</ele>
<time>2008-06-15T12:21:44Z</time>
  <name>TP2042</name>
</trkpt>
<trkpt lat="48.605241600" lon="9.212098300">
  <ele>437.000000</ele>
<time>2008-06-15T12:21:47Z</time>
  <name>TP2043</name>
</trkpt>
<trkpt lat="48.605251600" lon="9.212055000">
  <ele>437.000000</ele>
<time>2008-06-15T12:21:49Z</time>
  <name>TP2044</name>
</trkpt>
<trkpt lat="48.605253300" lon="9.212031600">
  <ele>437.000000</ele>
<time>2008-06-15T12:21:50Z</time>
  <name>TP2045</name>
</trkpt>
<trkpt lat="48.605256600" lon="9.212008300">
  <ele>437.000000</ele>
<time>2008-06-15T12:21:51Z</time>
  <name>TP2046</name>
</trkpt>
<trkpt lat="48.605265000" lon="9.211961600">
  <ele>437.000000</ele>
<time>2008-06-15T12:21:53Z</time>
  <name>TP2047</name>
</trkpt>
<trkpt lat="48.605280000" lon="9.211893300">
  <ele>438.000000</ele>
<time>2008-06-15T12:21:56Z</time>
  <name>TP2048</name>
</trkpt>
<trkpt lat="48.605286600" lon="9.211848300">
  <ele>438.000000</ele>
<time>2008-06-15T12:21:58Z</time>
  <name>TP2049</name>
</trkpt>
<trkpt lat="48.605298300" lon="9.211766600">
  <ele>438.000000</ele>
<time>2008-06-15T12:22:02Z</time>
  <name>TP2050</name>
</trkpt>
<trkpt lat="48.605313300" lon="9.211683300">
  <ele>439.000000</ele>
<time>2008-06-15T12:22:06Z</time>
  <name>TP2051</name>
</trkpt>
<trkpt lat="48.605314900" lon="9.211661600">
  <ele>439.000000</ele>
<time>2008-06-15T12:22:07Z</time>
  <name>TP2052</name>
</trkpt>
<trkpt lat="48.605316600" lon="9.211641600">
  <ele>439.000000</ele>
<time>2008-06-15T12:22:08Z</time>
  <name>TP2053</name>
</trkpt>
<trkpt lat="48.605321600" lon="9.211599900">
  <ele>439.000000</ele>
<time>2008-06-15T12:22:10Z</time>
  <name>TP2054</name>
</trkpt>
<trkpt lat="48.605343300" lon="9.211501600">
  <ele>439.000000</ele>
<time>2008-06-15T12:22:15Z</time>
  <name>TP2055</name>
</trkpt>
<trkpt lat="48.605354900" lon="9.211461600">
  <ele>441.000000</ele>
<time>2008-06-15T12:22:18Z</time>
  <name>TP2056</name>
</trkpt>
<trkpt lat="48.605356600" lon="9.211445000">
  <ele>441.000000</ele>
<time>2008-06-15T12:22:19Z</time>
  <name>TP2057</name>
</trkpt>
<trkpt lat="48.605358300" lon="9.211429900">
  <ele>441.000000</ele>
<time>2008-06-15T12:22:20Z</time>
  <name>TP2058</name>
</trkpt>
<trkpt lat="48.605363200" lon="9.211416600">
  <ele>441.000000</ele>
<time>2008-06-15T12:22:21Z</time>
  <name>TP2059</name>
</trkpt>
<trkpt lat="48.605369900" lon="9.211401600">
  <ele>441.000000</ele>
<time>2008-06-15T12:22:22Z</time>
  <name>TP2060</name>
</trkpt>
<trkpt lat="48.605378200" lon="9.211385000">
  <ele>441.000000</ele>
<time>2008-06-15T12:22:23Z</time>
  <name>TP2061</name>
</trkpt>
<trkpt lat="48.605381600" lon="9.211366600">
  <ele>442.000000</ele>
<time>2008-06-15T12:22:24Z</time>
  <name>TP2062</name>
</trkpt>
<trkpt lat="48.605386600" lon="9.211328300">
  <ele>442.000000</ele>
<time>2008-06-15T12:22:26Z</time>
  <name>TP2063</name>
</trkpt>
<trkpt lat="48.605391600" lon="9.211313300">
  <ele>442.000000</ele>
<time>2008-06-15T12:22:27Z</time>
  <name>TP2064</name>
</trkpt>
<trkpt lat="48.605399900" lon="9.211283300">
  <ele>442.000000</ele>
<time>2008-06-15T12:22:29Z</time>
  <name>TP2065</name>
</trkpt>
<trkpt lat="48.605401600" lon="9.211263300">
  <ele>442.000000</ele>
<time>2008-06-15T12:22:30Z</time>
  <name>TP2066</name>
</trkpt>
<trkpt lat="48.605404900" lon="9.211245000">
  <ele>442.000000</ele>
<time>2008-06-15T12:22:31Z</time>
  <name>TP2067</name>
</trkpt>
<trkpt lat="48.605429900" lon="9.211156600">
  <ele>442.000000</ele>
<time>2008-06-15T12:22:36Z</time>
  <name>TP2068</name>
</trkpt>
<trkpt lat="48.605421600" lon="9.211131600">
  <ele>442.000000</ele>
<time>2008-06-15T12:22:38Z</time>
  <name>TP2069</name>
</trkpt>
<trkpt lat="48.605414900" lon="9.211131600">
  <ele>441.000000</ele>
<time>2008-06-15T12:22:39Z</time>
  <name>TP2070</name>
</trkpt>
<trkpt lat="48.605408300" lon="9.211140000">
  <ele>441.000000</ele>
<time>2008-06-15T12:22:40Z</time>
  <name>TP2071</name>
</trkpt>
<trkpt lat="48.605404900" lon="9.211154900">
  <ele>441.000000</ele>
<time>2008-06-15T12:22:41Z</time>
  <name>TP2072</name>
</trkpt>
<trkpt lat="48.605403300" lon="9.211173300">
  <ele>441.000000</ele>
<time>2008-06-15T12:22:42Z</time>
  <name>TP2073</name>
</trkpt>
<trkpt lat="48.605391600" lon="9.211239900">
  <ele>441.000000</ele>
<time>2008-06-15T12:22:45Z</time>
  <name>TP2074</name>
</trkpt>
<trkpt lat="48.605383300" lon="9.211263300">
  <ele>441.000000</ele>
<time>2008-06-15T12:22:46Z</time>
  <name>TP2075</name>
</trkpt>
<trkpt lat="48.605368300" lon="9.211278300">
  <ele>441.000000</ele>
<time>2008-06-15T12:22:47Z</time>
  <name>TP2076</name>
</trkpt>
<trkpt lat="48.605356600" lon="9.211288300">
  <ele>441.000000</ele>
<time>2008-06-15T12:22:48Z</time>
  <name>TP2077</name>
</trkpt>
<trkpt lat="48.605346600" lon="9.211296600">
  <ele>441.000000</ele>
<time>2008-06-15T12:22:49Z</time>
  <name>TP2078</name>
</trkpt>
<trkpt lat="48.605348300" lon="9.211311600">
  <ele>441.000000</ele>
<time>2008-06-15T12:22:50Z</time>
  <name>TP2079</name>
</trkpt>
<trkpt lat="48.605361600" lon="9.211326600">
  <ele>440.000000</ele>
<time>2008-06-15T12:22:51Z</time>
  <name>TP2080</name>
</trkpt>
<trkpt lat="48.605376600" lon="9.211323300">
  <ele>441.000000</ele>
<time>2008-06-15T12:22:52Z</time>
  <name>TP2081</name>
</trkpt>
<trkpt lat="48.605386600" lon="9.211306600">
  <ele>441.000000</ele>
<time>2008-06-15T12:22:53Z</time>
  <name>TP2082</name>
</trkpt>
<trkpt lat="48.605393300" lon="9.211284900">
  <ele>441.000000</ele>
<time>2008-06-15T12:22:54Z</time>
  <name>TP2083</name>
</trkpt>
<trkpt lat="48.605441600" lon="9.211014900">
  <ele>441.000000</ele>
<time>2008-06-15T12:23:05Z</time>
  <name>TP2084</name>
</trkpt>
<trkpt lat="48.605450000" lon="9.210983300">
  <ele>441.000000</ele>
<time>2008-06-15T12:23:07Z</time>
  <name>TP2085</name>
</trkpt>
<trkpt lat="48.605456600" lon="9.210961600">
  <ele>441.000000</ele>
<time>2008-06-15T12:23:08Z</time>
  <name>TP2086</name>
</trkpt>
<trkpt lat="48.605466600" lon="9.210914900">
  <ele>441.000000</ele>
<time>2008-06-15T12:23:10Z</time>
  <name>TP2087</name>
</trkpt>
<trkpt lat="48.605498300" lon="9.210803300">
  <ele>441.000000</ele>
<time>2008-06-15T12:23:15Z</time>
  <name>TP2088</name>
</trkpt>
<trkpt lat="48.605531600" lon="9.210661600">
  <ele>441.000000</ele>
<time>2008-06-15T12:23:21Z</time>
  <name>TP2089</name>
</trkpt>
<trkpt lat="48.605539900" lon="9.210609900">
  <ele>441.000000</ele>
<time>2008-06-15T12:23:23Z</time>
  <name>TP2090</name>
</trkpt>
<trkpt lat="48.605553300" lon="9.210559900">
  <ele>441.000000</ele>
<time>2008-06-15T12:23:25Z</time>
  <name>TP2091</name>
</trkpt>
<trkpt lat="48.605611600" lon="9.210355000">
  <ele>441.000000</ele>
<time>2008-06-15T12:23:33Z</time>
  <name>TP2092</name>
</trkpt>
<trkpt lat="48.605616600" lon="9.210328300">
  <ele>441.000000</ele>
<time>2008-06-15T12:23:34Z</time>
  <name>TP2093</name>
</trkpt>
<trkpt lat="48.605703300" lon="9.209976600">
  <ele>440.000000</ele>
<time>2008-06-15T12:23:47Z</time>
  <name>TP2094</name>
</trkpt>
<trkpt lat="48.605718300" lon="9.209925000">
  <ele>440.000000</ele>
<time>2008-06-15T12:23:49Z</time>
  <name>TP2095</name>
</trkpt>
<trkpt lat="48.605754900" lon="9.209788300">
  <ele>440.000000</ele>
<time>2008-06-15T12:23:54Z</time>
  <name>TP2096</name>
</trkpt>
<trkpt lat="48.605770000" lon="9.209735000">
  <ele>441.000000</ele>
<time>2008-06-15T12:23:56Z</time>
  <name>TP2097</name>
</trkpt>
<trkpt lat="48.605899900" lon="9.209308300">
  <ele>443.000000</ele>
<time>2008-06-15T12:24:13Z</time>
  <name>TP2098</name>
</trkpt>
<trkpt lat="48.605958300" lon="9.209033300">
  <ele>443.000000</ele>
<time>2008-06-15T12:24:23Z</time>
  <name>TP2099</name>
</trkpt>
<trkpt lat="48.605969900" lon="9.208931600">
  <ele>443.000000</ele>
<time>2008-06-15T12:24:27Z</time>
  <name>TP2100</name>
</trkpt>
<trkpt lat="48.605969900" lon="9.208909900">
  <ele>443.000000</ele>
<time>2008-06-15T12:24:28Z</time>
  <name>TP2101</name>
</trkpt>
<trkpt lat="48.605963300" lon="9.208906600">
  <ele>443.000000</ele>
<time>2008-06-15T12:24:45Z</time>
  <name>TP2102</name>
</trkpt>
<trkpt lat="48.605964900" lon="9.208905000">
  <ele>444.000000</ele>
<time>2008-06-15T12:24:57Z</time>
  <name>TP2103</name>
</trkpt>
<trkpt lat="48.605963300" lon="9.208909900">
  <ele>444.000000</ele>
<time>2008-06-15T12:24:58Z</time>
  <name>TP2104</name>
</trkpt>
<trkpt lat="48.605964900" lon="9.208919900">
  <ele>444.000000</ele>
<time>2008-06-15T12:24:59Z</time>
  <name>TP2105</name>
</trkpt>
<trkpt lat="48.605961600" lon="9.208919900">
  <ele>444.000000</ele>
<time>2008-06-15T12:25:19Z</time>
  <name>TP2106</name>
</trkpt>
<trkpt lat="48.605966600" lon="9.208888300">
  <ele>444.000000</ele>
<time>2008-06-15T12:25:37Z</time>
  <name>TP2107</name>
</trkpt>
<trkpt lat="48.605969900" lon="9.208868300">
  <ele>444.000000</ele>
<time>2008-06-15T12:25:38Z</time>
  <name>TP2108</name>
</trkpt>
<trkpt lat="48.605978300" lon="9.208793300">
  <ele>445.000000</ele>
<time>2008-06-15T12:25:41Z</time>
  <name>TP2109</name>
</trkpt>
<trkpt lat="48.605976600" lon="9.208766600">
  <ele>445.000000</ele>
<time>2008-06-15T12:25:42Z</time>
  <name>TP2110</name>
</trkpt>
<trkpt lat="48.605959900" lon="9.208520000">
  <ele>445.000000</ele>
<time>2008-06-15T12:25:50Z</time>
  <name>TP2111</name>
</trkpt>
<trkpt lat="48.605946600" lon="9.208423300">
  <ele>445.000000</ele>
<time>2008-06-15T12:25:53Z</time>
  <name>TP2112</name>
</trkpt>
<trkpt lat="48.605918300" lon="9.208291600">
  <ele>445.000000</ele>
<time>2008-06-15T12:25:57Z</time>
  <name>TP2113</name>
</trkpt>
<trkpt lat="48.605774900" lon="9.207714900">
  <ele>445.000000</ele>
<time>2008-06-15T12:26:14Z</time>
  <name>TP2114</name>
</trkpt>
<trkpt lat="48.605758300" lon="9.207611600">
  <ele>445.000000</ele>
<time>2008-06-15T12:26:17Z</time>
  <name>TP2115</name>
</trkpt>
<trkpt lat="48.605759900" lon="9.207574900">
  <ele>445.000000</ele>
<time>2008-06-15T12:26:18Z</time>
  <name>TP2116</name>
</trkpt>
<trkpt lat="48.605766600" lon="9.207539900">
  <ele>445.000000</ele>
<time>2008-06-15T12:26:19Z</time>
  <name>TP2117</name>
</trkpt>
<trkpt lat="48.605778300" lon="9.207504900">
  <ele>445.000000</ele>
<time>2008-06-15T12:26:20Z</time>
  <name>TP2118</name>
</trkpt>
<trkpt lat="48.605793300" lon="9.207475000">
  <ele>446.000000</ele>
<time>2008-06-15T12:26:21Z</time>
  <name>TP2119</name>
</trkpt>
<trkpt lat="48.605811600" lon="9.207449900">
  <ele>445.000000</ele>
<time>2008-06-15T12:26:22Z</time>
  <name>TP2120</name>
</trkpt>
<trkpt lat="48.605834900" lon="9.207431600">
  <ele>446.000000</ele>
<time>2008-06-15T12:26:23Z</time>
  <name>TP2121</name>
</trkpt>
<trkpt lat="48.605859900" lon="9.207418300">
  <ele>446.000000</ele>
<time>2008-06-15T12:26:24Z</time>
  <name>TP2122</name>
</trkpt>
<trkpt lat="48.606025000" lon="9.207354900">
  <ele>445.000000</ele>
<time>2008-06-15T12:26:29Z</time>
  <name>TP2123</name>
</trkpt>
<trkpt lat="48.606096600" lon="9.207335000">
  <ele>445.000000</ele>
<time>2008-06-15T12:26:31Z</time>
  <name>TP2124</name>
</trkpt>
<trkpt lat="48.606574900" lon="9.207111600">
  <ele>443.000000</ele>
<time>2008-06-15T12:26:42Z</time>
  <name>TP2125</name>
</trkpt>
<trkpt lat="48.606623300" lon="9.207073300">
  <ele>442.000000</ele>
<time>2008-06-15T12:26:43Z</time>
  <name>TP2126</name>
</trkpt>
<trkpt lat="48.606670000" lon="9.207028300">
  <ele>442.000000</ele>
<time>2008-06-15T12:26:44Z</time>
  <name>TP2127</name>
</trkpt>
<trkpt lat="48.606711600" lon="9.206976600">
  <ele>442.000000</ele>
<time>2008-06-15T12:26:45Z</time>
  <name>TP2128</name>
</trkpt>
<trkpt lat="48.606749900" lon="9.206919900">
  <ele>442.000000</ele>
<time>2008-06-15T12:26:46Z</time>
  <name>TP2129</name>
</trkpt>
<trkpt lat="48.606783300" lon="9.206861600">
  <ele>442.000000</ele>
<time>2008-06-15T12:26:47Z</time>
  <name>TP2130</name>
</trkpt>
<trkpt lat="48.606833300" lon="9.206736600">
  <ele>442.000000</ele>
<time>2008-06-15T12:26:49Z</time>
  <name>TP2131</name>
</trkpt>
<trkpt lat="48.606866600" lon="9.206631600">
  <ele>441.000000</ele>
<time>2008-06-15T12:26:51Z</time>
  <name>TP2132</name>
</trkpt>
<trkpt lat="48.606876600" lon="9.206585000">
  <ele>441.000000</ele>
<time>2008-06-15T12:26:53Z</time>
  <name>TP2133</name>
</trkpt>
<trkpt lat="48.606873300" lon="9.206594900">
  <ele>442.000000</ele>
<time>2008-06-15T12:27:30Z</time>
  <name>TP2134</name>
</trkpt>
<trkpt lat="48.606966600" lon="9.206368300">
  <ele>442.000000</ele>
<time>2008-06-15T12:27:37Z</time>
  <name>TP2135</name>
</trkpt>
<trkpt lat="48.606983300" lon="9.206324900">
  <ele>442.000000</ele>
<time>2008-06-15T12:27:38Z</time>
  <name>TP2136</name>
</trkpt>
<trkpt lat="48.607539900" lon="9.204946600">
  <ele>434.000000</ele>
<time>2008-06-15T12:27:58Z</time>
  <name>TP2137</name>
</trkpt>
<trkpt lat="48.607584900" lon="9.204766600">
  <ele>433.000000</ele>
<time>2008-06-15T12:28:00Z</time>
  <name>TP2138</name>
</trkpt>
<trkpt lat="48.607599900" lon="9.204669900">
  <ele>433.000000</ele>
<time>2008-06-15T12:28:01Z</time>
  <name>TP2139</name>
</trkpt>
<trkpt lat="48.607609900" lon="9.204573300">
  <ele>433.000000</ele>
<time>2008-06-15T12:28:02Z</time>
  <name>TP2140</name>
</trkpt>
<trkpt lat="48.607618300" lon="9.204376600">
  <ele>432.000000</ele>
<time>2008-06-15T12:28:04Z</time>
  <name>TP2141</name>
</trkpt>
<trkpt lat="48.607614900" lon="9.204186600">
  <ele>431.000000</ele>
<time>2008-06-15T12:28:06Z</time>
  <name>TP2142</name>
</trkpt>
<trkpt lat="48.607580000" lon="9.203878300">
  <ele>430.000000</ele>
<time>2008-06-15T12:28:10Z</time>
  <name>TP2143</name>
</trkpt>
<trkpt lat="48.607556600" lon="9.203741600">
  <ele>430.000000</ele>
<time>2008-06-15T12:28:12Z</time>
  <name>TP2144</name>
</trkpt>
<trkpt lat="48.607466600" lon="9.203349900">
  <ele>428.000000</ele>
<time>2008-06-15T12:28:18Z</time>
  <name>TP2145</name>
</trkpt>
<trkpt lat="48.607446600" lon="9.203281600">
  <ele>428.000000</ele>
<time>2008-06-15T12:28:19Z</time>
  <name>TP2146</name>
</trkpt>
<trkpt lat="48.607406600" lon="9.203145000">
  <ele>427.000000</ele>
<time>2008-06-15T12:28:21Z</time>
  <name>TP2147</name>
</trkpt>
<trkpt lat="48.607301600" lon="9.202853300">
  <ele>426.000000</ele>
<time>2008-06-15T12:28:25Z</time>
  <name>TP2148</name>
</trkpt>
<trkpt lat="48.606950000" lon="9.202035000">
  <ele>422.000000</ele>
<time>2008-06-15T12:28:35Z</time>
  <name>TP2149</name>
</trkpt>
<trkpt lat="48.606780000" lon="9.201706600">
  <ele>420.000000</ele>
<time>2008-06-15T12:28:39Z</time>
  <name>TP2150</name>
</trkpt>
<trkpt lat="48.606743300" lon="9.201628300">
  <ele>420.000000</ele>
<time>2008-06-15T12:28:40Z</time>
  <name>TP2151</name>
</trkpt>
<trkpt lat="48.606710000" lon="9.201571600">
  <ele>420.000000</ele>
<time>2008-06-15T12:28:41Z</time>
  <name>TP2152</name>
</trkpt>
<trkpt lat="48.606663300" lon="9.201516600">
  <ele>420.000000</ele>
<time>2008-06-15T12:28:43Z</time>
  <name>TP2153</name>
</trkpt>
<trkpt lat="48.606591600" lon="9.201439900">
  <ele>420.000000</ele>
<time>2008-06-15T12:28:46Z</time>
  <name>TP2154</name>
</trkpt>
<trkpt lat="48.606486600" lon="9.201488300">
  <ele>421.000000</ele>
<time>2008-06-15T12:28:47Z</time>
  <name>TP2155</name>
</trkpt>
<trkpt lat="48.606398300" lon="9.201359900">
  <ele>421.000000</ele>
<time>2008-06-15T12:28:50Z</time>
  <name>TP2156</name>
</trkpt>
<trkpt lat="48.606378300" lon="9.201199900">
  <ele>421.000000</ele>
<time>2008-06-15T12:28:52Z</time>
  <name>TP2157</name>
</trkpt>
<trkpt lat="48.606366600" lon="9.201123300">
  <ele>422.000000</ele>
<time>2008-06-15T12:28:53Z</time>
  <name>TP2158</name>
</trkpt>
<trkpt lat="48.606266600" lon="9.200935000">
  <ele>422.000000</ele>
<time>2008-06-15T12:28:56Z</time>
  <name>TP2159</name>
</trkpt>
<trkpt lat="48.606171600" lon="9.200780000">
  <ele>422.000000</ele>
<time>2008-06-15T12:28:58Z</time>
  <name>TP2160</name>
</trkpt>
<trkpt lat="48.606131600" lon="9.200696600">
  <ele>422.000000</ele>
<time>2008-06-15T12:28:59Z</time>
  <name>TP2161</name>
</trkpt>
<trkpt lat="48.605713200" lon="9.199793300">
  <ele>417.000000</ele>
<time>2008-06-15T12:29:09Z</time>
  <name>TP2162</name>
</trkpt>
<trkpt lat="48.605591600" lon="9.199661600">
  <ele>416.000000</ele>
<time>2008-06-15T12:29:11Z</time>
  <name>TP2163</name>
</trkpt>
<trkpt lat="48.605526600" lon="9.199610000">
  <ele>416.000000</ele>
<time>2008-06-15T12:29:12Z</time>
  <name>TP2164</name>
</trkpt>
<trkpt lat="48.605408300" lon="9.199531600">
  <ele>417.000000</ele>
<time>2008-06-15T12:29:14Z</time>
  <name>TP2165</name>
</trkpt>
<trkpt lat="48.605249900" lon="9.199431600">
  <ele>417.000000</ele>
<time>2008-06-15T12:29:17Z</time>
  <name>TP2166</name>
</trkpt>
<trkpt lat="48.605143300" lon="9.199316600">
  <ele>417.000000</ele>
<time>2008-06-15T12:29:20Z</time>
  <name>TP2167</name>
</trkpt>
<trkpt lat="48.605051600" lon="9.199200000">
  <ele>417.000000</ele>
<time>2008-06-15T12:29:23Z</time>
  <name>TP2168</name>
</trkpt>
<trkpt lat="48.605031600" lon="9.199149900">
  <ele>417.000000</ele>
<time>2008-06-15T12:29:24Z</time>
  <name>TP2169</name>
</trkpt>
<trkpt lat="48.604988300" lon="9.199130000">
  <ele>418.000000</ele>
<time>2008-06-15T12:29:25Z</time>
  <name>TP2170</name>
</trkpt>
<trkpt lat="48.604963300" lon="9.199088300">
  <ele>417.000000</ele>
<time>2008-06-15T12:29:26Z</time>
  <name>TP2171</name>
</trkpt>
<trkpt lat="48.604946600" lon="9.199038300">
  <ele>418.000000</ele>
<time>2008-06-15T12:29:27Z</time>
  <name>TP2172</name>
</trkpt>
<trkpt lat="48.604911600" lon="9.198938300">
  <ele>418.000000</ele>
<time>2008-06-15T12:29:29Z</time>
  <name>TP2173</name>
</trkpt>
<trkpt lat="48.604906600" lon="9.198873300">
  <ele>417.000000</ele>
<time>2008-06-15T12:29:30Z</time>
  <name>TP2174</name>
</trkpt>
<trkpt lat="48.604909900" lon="9.198805000">
  <ele>417.000000</ele>
<time>2008-06-15T12:29:31Z</time>
  <name>TP2175</name>
</trkpt>
<trkpt lat="48.604911600" lon="9.198739900">
  <ele>416.000000</ele>
<time>2008-06-15T12:29:32Z</time>
  <name>TP2176</name>
</trkpt>
<trkpt lat="48.604928200" lon="9.198656600">
  <ele>416.000000</ele>
<time>2008-06-15T12:29:33Z</time>
  <name>TP2177</name>
</trkpt>
<trkpt lat="48.604951600" lon="9.198571600">
  <ele>416.000000</ele>
<time>2008-06-15T12:29:34Z</time>
  <name>TP2178</name>
</trkpt>
<trkpt lat="48.604946600" lon="9.198338300">
  <ele>417.000000</ele>
<time>2008-06-15T12:29:37Z</time>
  <name>TP2179</name>
</trkpt>
<trkpt lat="48.604968300" lon="9.198223300">
  <ele>416.000000</ele>
<time>2008-06-15T12:29:39Z</time>
  <name>TP2180</name>
</trkpt>
<trkpt lat="48.605013200" lon="9.198066600">
  <ele>417.000000</ele>
<time>2008-06-15T12:29:41Z</time>
  <name>TP2181</name>
</trkpt>
<trkpt lat="48.605039900" lon="9.197991600">
  <ele>417.000000</ele>
<time>2008-06-15T12:29:42Z</time>
  <name>TP2182</name>
</trkpt>
<trkpt lat="48.605088300" lon="9.197808300">
  <ele>416.000000</ele>
<time>2008-06-15T12:29:45Z</time>
  <name>TP2183</name>
</trkpt>
<trkpt lat="48.605103300" lon="9.197771600">
  <ele>416.000000</ele>
<time>2008-06-15T12:29:46Z</time>
  <name>TP2184</name>
</trkpt>
<trkpt lat="48.605094900" lon="9.197758300">
  <ele>416.000000</ele>
<time>2008-06-15T12:29:47Z</time>
  <name>TP2185</name>
</trkpt>
<trkpt lat="48.605089900" lon="9.197740000">
  <ele>415.000000</ele>
<time>2008-06-15T12:29:48Z</time>
  <name>TP2186</name>
</trkpt>
<trkpt lat="48.605085000" lon="9.197716600">
  <ele>415.000000</ele>
<time>2008-06-15T12:29:49Z</time>
  <name>TP2187</name>
</trkpt>
<trkpt lat="48.605070000" lon="9.197708300">
  <ele>415.000000</ele>
<time>2008-06-15T12:29:50Z</time>
  <name>TP2188</name>
</trkpt>
<trkpt lat="48.605048300" lon="9.197715000">
  <ele>415.000000</ele>
<time>2008-06-15T12:29:51Z</time>
  <name>TP2189</name>
</trkpt>
<trkpt lat="48.605083200" lon="9.197633300">
  <ele>414.000000</ele>
<time>2008-06-15T12:29:53Z</time>
  <name>TP2190</name>
</trkpt>
<trkpt lat="48.605073300" lon="9.197611600">
  <ele>414.000000</ele>
<time>2008-06-15T12:29:55Z</time>
  <name>TP2191</name>
</trkpt>
<trkpt lat="48.605064900" lon="9.197591600">
  <ele>414.000000</ele>
<time>2008-06-15T12:29:56Z</time>
  <name>TP2192</name>
</trkpt>
<trkpt lat="48.605043300" lon="9.197536600">
  <ele>414.000000</ele>
<time>2008-06-15T12:29:58Z</time>
  <name>TP2193</name>
</trkpt>
<trkpt lat="48.604964900" lon="9.197509900">
  <ele>414.000000</ele>
<time>2008-06-15T12:30:00Z</time>
  <name>TP2194</name>
</trkpt>
<trkpt lat="48.604903300" lon="9.197341600">
  <ele>414.000000</ele>
<time>2008-06-15T12:30:04Z</time>
  <name>TP2195</name>
</trkpt>
<trkpt lat="48.604875000" lon="9.197308300">
  <ele>414.000000</ele>
<time>2008-06-15T12:30:05Z</time>
  <name>TP2196</name>
</trkpt>
<trkpt lat="48.604735000" lon="9.197138300">
  <ele>414.000000</ele>
<time>2008-06-15T12:30:10Z</time>
  <name>TP2197</name>
</trkpt>
<trkpt lat="48.604599900" lon="9.196953300">
  <ele>415.000000</ele>
<time>2008-06-15T12:30:15Z</time>
  <name>TP2198</name>
</trkpt>
<trkpt lat="48.604513300" lon="9.196804900">
  <ele>415.000000</ele>
<time>2008-06-15T12:30:19Z</time>
  <name>TP2199</name>
</trkpt>
<trkpt lat="48.604504900" lon="9.196693300">
  <ele>416.000000</ele>
<time>2008-06-15T12:30:21Z</time>
  <name>TP2200</name>
</trkpt>
<trkpt lat="48.604503300" lon="9.196424900">
  <ele>415.000000</ele>
<time>2008-06-15T12:30:24Z</time>
  <name>TP2201</name>
</trkpt>
<trkpt lat="48.604448300" lon="9.196186600">
  <ele>415.000000</ele>
<time>2008-06-15T12:30:27Z</time>
  <name>TP2202</name>
</trkpt>
<trkpt lat="48.604366600" lon="9.196051600">
  <ele>416.000000</ele>
<time>2008-06-15T12:30:30Z</time>
  <name>TP2203</name>
</trkpt>
<trkpt lat="48.604356600" lon="9.196031600">
  <ele>416.000000</ele>
<time>2008-06-15T12:30:31Z</time>
  <name>TP2204</name>
</trkpt>
<trkpt lat="48.604318300" lon="9.195861600">
  <ele>416.000000</ele>
<time>2008-06-15T12:30:35Z</time>
  <name>TP2205</name>
</trkpt>
<trkpt lat="48.604245000" lon="9.195781600">
  <ele>417.000000</ele>
<time>2008-06-15T12:30:37Z</time>
  <name>TP2206</name>
</trkpt>
<trkpt lat="48.604130000" lon="9.195645000">
  <ele>418.000000</ele>
<time>2008-06-15T12:30:40Z</time>
  <name>TP2207</name>
</trkpt>
<trkpt lat="48.604060000" lon="9.195561600">
  <ele>418.000000</ele>
<time>2008-06-15T12:30:42Z</time>
  <name>TP2208</name>
</trkpt>
<trkpt lat="48.604054900" lon="9.195438300">
  <ele>418.000000</ele>
<time>2008-06-15T12:30:43Z</time>
  <name>TP2209</name>
</trkpt>
<trkpt lat="48.604033200" lon="9.195336600">
  <ele>418.000000</ele>
<time>2008-06-15T12:30:44Z</time>
  <name>TP2210</name>
</trkpt>
<trkpt lat="48.604009900" lon="9.195108300">
  <ele>418.000000</ele>
<time>2008-06-15T12:30:47Z</time>
  <name>TP2211</name>
</trkpt>
<trkpt lat="48.603953300" lon="9.194398300">
  <ele>418.000000</ele>
<time>2008-06-15T12:30:58Z</time>
  <name>TP2212</name>
</trkpt>
<trkpt lat="48.603979900" lon="9.194308300">
  <ele>418.000000</ele>
<time>2008-06-15T12:30:59Z</time>
  <name>TP2213</name>
</trkpt>
<trkpt lat="48.603938300" lon="9.194211600">
  <ele>418.000000</ele>
<time>2008-06-15T12:31:01Z</time>
  <name>TP2214</name>
</trkpt>
<trkpt lat="48.603898300" lon="9.194174900">
  <ele>418.000000</ele>
<time>2008-06-15T12:31:02Z</time>
  <name>TP2215</name>
</trkpt>
<trkpt lat="48.603746600" lon="9.193836600">
  <ele>418.000000</ele>
<time>2008-06-15T12:31:09Z</time>
  <name>TP2216</name>
</trkpt>
<trkpt lat="48.603699900" lon="9.193750000">
  <ele>418.000000</ele>
<time>2008-06-15T12:31:11Z</time>
  <name>TP2217</name>
</trkpt>
<trkpt lat="48.603685000" lon="9.193621600">
  <ele>418.000000</ele>
<time>2008-06-15T12:31:13Z</time>
  <name>TP2218</name>
</trkpt>
<trkpt lat="48.603601600" lon="9.193105000">
  <ele>416.000000</ele>
<time>2008-06-15T12:31:22Z</time>
  <name>TP2219</name>
</trkpt>
<trkpt lat="48.603596600" lon="9.193061600">
  <ele>416.000000</ele>
<time>2008-06-15T12:31:23Z</time>
  <name>TP2220</name>
</trkpt>
<trkpt lat="48.603573300" lon="9.192975000">
  <ele>416.000000</ele>
<time>2008-06-15T12:31:25Z</time>
  <name>TP2221</name>
</trkpt>
<trkpt lat="48.603421600" lon="9.192586600">
  <ele>416.000000</ele>
<time>2008-06-15T12:31:34Z</time>
  <name>TP2222</name>
</trkpt>
<trkpt lat="48.603419900" lon="9.192539900">
  <ele>416.000000</ele>
<time>2008-06-15T12:31:35Z</time>
  <name>TP2223</name>
</trkpt>
<trkpt lat="48.603384900" lon="9.192470000">
  <ele>417.000000</ele>
<time>2008-06-15T12:31:37Z</time>
  <name>TP2224</name>
</trkpt>
<trkpt lat="48.603368300" lon="9.192439900">
  <ele>417.000000</ele>
<time>2008-06-15T12:31:38Z</time>
  <name>TP2225</name>
</trkpt>
<trkpt lat="48.603320000" lon="9.192380000">
  <ele>417.000000</ele>
<time>2008-06-15T12:31:40Z</time>
  <name>TP2226</name>
</trkpt>
<trkpt lat="48.603250000" lon="9.192299900">
  <ele>418.000000</ele>
<time>2008-06-15T12:31:43Z</time>
  <name>TP2227</name>
</trkpt>
<trkpt lat="48.603224900" lon="9.192113300">
  <ele>418.000000</ele>
<time>2008-06-15T12:31:47Z</time>
  <name>TP2228</name>
</trkpt>
<trkpt lat="48.603213300" lon="9.192069900">
  <ele>418.000000</ele>
<time>2008-06-15T12:31:48Z</time>
  <name>TP2229</name>
</trkpt>
<trkpt lat="48.603159900" lon="9.191990000">
  <ele>417.000000</ele>
<time>2008-06-15T12:31:50Z</time>
  <name>TP2230</name>
</trkpt>
<trkpt lat="48.603061600" lon="9.192006600">
  <ele>418.000000</ele>
<time>2008-06-15T12:31:51Z</time>
  <name>TP2231</name>
</trkpt>
<trkpt lat="48.603028300" lon="9.191983300">
  <ele>418.000000</ele>
<time>2008-06-15T12:31:52Z</time>
  <name>TP2232</name>
</trkpt>
<trkpt lat="48.603066600" lon="9.191889900">
  <ele>418.000000</ele>
<time>2008-06-15T12:31:54Z</time>
  <name>TP2233</name>
</trkpt>
<trkpt lat="48.603056600" lon="9.191844900">
  <ele>418.000000</ele>
<time>2008-06-15T12:31:55Z</time>
  <name>TP2234</name>
</trkpt>
<trkpt lat="48.603010000" lon="9.191816600">
  <ele>418.000000</ele>
<time>2008-06-15T12:31:56Z</time>
  <name>TP2235</name>
</trkpt>
<trkpt lat="48.603048300" lon="9.191716600">
  <ele>418.000000</ele>
<time>2008-06-15T12:31:57Z</time>
  <name>TP2236</name>
</trkpt>
<trkpt lat="48.603093200" lon="9.191644900">
  <ele>420.000000</ele>
<time>2008-06-15T12:31:59Z</time>
  <name>TP2237</name>
</trkpt>
<trkpt lat="48.603086600" lon="9.191611600">
  <ele>421.000000</ele>
<time>2008-06-15T12:32:00Z</time>
  <name>TP2238</name>
</trkpt>
<trkpt lat="48.603053300" lon="9.191525000">
  <ele>422.000000</ele>
<time>2008-06-15T12:32:02Z</time>
  <name>TP2239</name>
</trkpt>
<trkpt lat="48.603054900" lon="9.191405000">
  <ele>422.000000</ele>
<time>2008-06-15T12:32:04Z</time>
  <name>TP2240</name>
</trkpt>
<trkpt lat="48.603044900" lon="9.191276600">
  <ele>422.000000</ele>
<time>2008-06-15T12:32:05Z</time>
  <name>TP2241</name>
</trkpt>
<trkpt lat="48.603033300" lon="9.191196600">
  <ele>423.000000</ele>
<time>2008-06-15T12:32:06Z</time>
  <name>TP2242</name>
</trkpt>
<trkpt lat="48.603021600" lon="9.191133300">
  <ele>423.000000</ele>
<time>2008-06-15T12:32:07Z</time>
  <name>TP2243</name>
</trkpt>
<trkpt lat="48.602995000" lon="9.191083300">
  <ele>423.000000</ele>
<time>2008-06-15T12:32:08Z</time>
  <name>TP2244</name>
</trkpt>
<trkpt lat="48.602968200" lon="9.191010000">
  <ele>424.000000</ele>
<time>2008-06-15T12:32:10Z</time>
  <name>TP2245</name>
</trkpt>
<trkpt lat="48.602956600" lon="9.190958300">
  <ele>424.000000</ele>
<time>2008-06-15T12:32:11Z</time>
  <name>TP2246</name>
</trkpt>
<trkpt lat="48.602934900" lon="9.190915000">
  <ele>424.000000</ele>
<time>2008-06-15T12:32:12Z</time>
  <name>TP2247</name>
</trkpt>
<trkpt lat="48.602916600" lon="9.190861600">
  <ele>425.000000</ele>
<time>2008-06-15T12:32:13Z</time>
  <name>TP2248</name>
</trkpt>
<trkpt lat="48.602878300" lon="9.190766600">
  <ele>425.000000</ele>
<time>2008-06-15T12:32:15Z</time>
  <name>TP2249</name>
</trkpt>
<trkpt lat="48.602863300" lon="9.190713300">
  <ele>425.000000</ele>
<time>2008-06-15T12:32:16Z</time>
  <name>TP2250</name>
</trkpt>
<trkpt lat="48.602864900" lon="9.190661600">
  <ele>424.000000</ele>
<time>2008-06-15T12:32:17Z</time>
  <name>TP2251</name>
</trkpt>
<trkpt lat="48.602831600" lon="9.190614900">
  <ele>424.000000</ele>
<time>2008-06-15T12:32:18Z</time>
  <name>TP2252</name>
</trkpt>
<trkpt lat="48.602826600" lon="9.190538300">
  <ele>424.000000</ele>
<time>2008-06-15T12:32:19Z</time>
  <name>TP2253</name>
</trkpt>
<trkpt lat="48.602808300" lon="9.190474900">
  <ele>425.000000</ele>
<time>2008-06-15T12:32:20Z</time>
  <name>TP2254</name>
</trkpt>
<trkpt lat="48.602773300" lon="9.190433300">
  <ele>425.000000</ele>
<time>2008-06-15T12:32:21Z</time>
  <name>TP2255</name>
</trkpt>
<trkpt lat="48.602731600" lon="9.190398300">
  <ele>425.000000</ele>
<time>2008-06-15T12:32:22Z</time>
  <name>TP2256</name>
</trkpt>
<trkpt lat="48.602739900" lon="9.190359900">
  <ele>425.000000</ele>
<time>2008-06-15T12:32:23Z</time>
  <name>TP2257</name>
</trkpt>
<trkpt lat="48.602709900" lon="9.190221600">
  <ele>426.000000</ele>
<time>2008-06-15T12:32:26Z</time>
  <name>TP2258</name>
</trkpt>
<trkpt lat="48.602711600" lon="9.190054900">
  <ele>427.000000</ele>
<time>2008-06-15T12:32:28Z</time>
  <name>TP2259</name>
</trkpt>
<trkpt lat="48.602693300" lon="9.189946600">
  <ele>426.000000</ele>
<time>2008-06-15T12:32:30Z</time>
  <name>TP2260</name>
</trkpt>
<trkpt lat="48.602658200" lon="9.189860000">
  <ele>426.000000</ele>
<time>2008-06-15T12:32:32Z</time>
  <name>TP2261</name>
</trkpt>
<trkpt lat="48.602634900" lon="9.189823300">
  <ele>426.000000</ele>
<time>2008-06-15T12:32:33Z</time>
  <name>TP2262</name>
</trkpt>
<trkpt lat="48.602603200" lon="9.189786600">
  <ele>427.000000</ele>
<time>2008-06-15T12:32:34Z</time>
  <name>TP2263</name>
</trkpt>
<trkpt lat="48.602569900" lon="9.189748300">
  <ele>427.000000</ele>
<time>2008-06-15T12:32:35Z</time>
  <name>TP2264</name>
</trkpt>
<trkpt lat="48.602566600" lon="9.189678300">
  <ele>427.000000</ele>
<time>2008-06-15T12:32:36Z</time>
  <name>TP2265</name>
</trkpt>
<trkpt lat="48.602588200" lon="9.189529900">
  <ele>427.000000</ele>
<time>2008-06-15T12:32:38Z</time>
  <name>TP2266</name>
</trkpt>
<trkpt lat="48.602568300" lon="9.189481600">
  <ele>427.000000</ele>
<time>2008-06-15T12:32:39Z</time>
  <name>TP2267</name>
</trkpt>
<trkpt lat="48.602544900" lon="9.189444900">
  <ele>427.000000</ele>
<time>2008-06-15T12:32:40Z</time>
  <name>TP2268</name>
</trkpt>
<trkpt lat="48.602496600" lon="9.189430000">
  <ele>427.000000</ele>
<time>2008-06-15T12:32:41Z</time>
  <name>TP2269</name>
</trkpt>
<trkpt lat="48.602451600" lon="9.189396600">
  <ele>428.000000</ele>
<time>2008-06-15T12:32:42Z</time>
  <name>TP2270</name>
</trkpt>
<trkpt lat="48.602478300" lon="9.189268300">
  <ele>428.000000</ele>
<time>2008-06-15T12:32:43Z</time>
  <name>TP2271</name>
</trkpt>
<trkpt lat="48.602468300" lon="9.189195000">
  <ele>428.000000</ele>
<time>2008-06-15T12:32:44Z</time>
  <name>TP2272</name>
</trkpt>
<trkpt lat="48.602416600" lon="9.189174900">
  <ele>428.000000</ele>
<time>2008-06-15T12:32:45Z</time>
  <name>TP2273</name>
</trkpt>
<trkpt lat="48.602310000" lon="9.189038300">
  <ele>428.000000</ele>
<time>2008-06-15T12:32:48Z</time>
  <name>TP2274</name>
</trkpt>
<trkpt lat="48.602319900" lon="9.188979900">
  <ele>428.000000</ele>
<time>2008-06-15T12:32:49Z</time>
  <name>TP2275</name>
</trkpt>
<trkpt lat="48.602373300" lon="9.188873300">
  <ele>428.000000</ele>
<time>2008-06-15T12:32:50Z</time>
  <name>TP2276</name>
</trkpt>
<trkpt lat="48.602378200" lon="9.188796600">
  <ele>428.000000</ele>
<time>2008-06-15T12:32:51Z</time>
  <name>TP2277</name>
</trkpt>
<trkpt lat="48.602349900" lon="9.188711600">
  <ele>428.000000</ele>
<time>2008-06-15T12:32:52Z</time>
  <name>TP2278</name>
</trkpt>
<trkpt lat="48.602296600" lon="9.188639900">
  <ele>428.000000</ele>
<time>2008-06-15T12:32:53Z</time>
  <name>TP2279</name>
</trkpt>
<trkpt lat="48.602283300" lon="9.188578300">
  <ele>428.000000</ele>
<time>2008-06-15T12:32:54Z</time>
  <name>TP2280</name>
</trkpt>
<trkpt lat="48.602251600" lon="9.188541600">
  <ele>428.000000</ele>
<time>2008-06-15T12:32:55Z</time>
  <name>TP2281</name>
</trkpt>
<trkpt lat="48.602236600" lon="9.188524900">
  <ele>428.000000</ele>
<time>2008-06-15T12:32:56Z</time>
  <name>TP2282</name>
</trkpt>
<trkpt lat="48.602249900" lon="9.188453300">
  <ele>428.000000</ele>
<time>2008-06-15T12:32:57Z</time>
  <name>TP2283</name>
</trkpt>
<trkpt lat="48.602221600" lon="9.188411600">
  <ele>428.000000</ele>
<time>2008-06-15T12:32:58Z</time>
  <name>TP2284</name>
</trkpt>
<trkpt lat="48.602191600" lon="9.188381600">
  <ele>427.000000</ele>
<time>2008-06-15T12:32:59Z</time>
  <name>TP2285</name>
</trkpt>
<trkpt lat="48.602193300" lon="9.188324900">
  <ele>427.000000</ele>
<time>2008-06-15T12:33:00Z</time>
  <name>TP2286</name>
</trkpt>
<trkpt lat="48.602123300" lon="9.188284900">
  <ele>426.000000</ele>
<time>2008-06-15T12:33:01Z</time>
  <name>TP2287</name>
</trkpt>
<trkpt lat="48.602078300" lon="9.188231600">
  <ele>426.000000</ele>
<time>2008-06-15T12:33:02Z</time>
  <name>TP2288</name>
</trkpt>
<trkpt lat="48.601991600" lon="9.188118300">
  <ele>423.000000</ele>
<time>2008-06-15T12:33:04Z</time>
  <name>TP2289</name>
</trkpt>
<trkpt lat="48.601908300" lon="9.188070000">
  <ele>423.000000</ele>
<time>2008-06-15T12:33:06Z</time>
  <name>TP2290</name>
</trkpt>
<trkpt lat="48.601886600" lon="9.188031600">
  <ele>423.000000</ele>
<time>2008-06-15T12:33:07Z</time>
  <name>TP2291</name>
</trkpt>
<trkpt lat="48.601876600" lon="9.187996600">
  <ele>422.000000</ele>
<time>2008-06-15T12:33:08Z</time>
  <name>TP2292</name>
</trkpt>
<trkpt lat="48.601890000" lon="9.187923300">
  <ele>422.000000</ele>
<time>2008-06-15T12:33:09Z</time>
  <name>TP2293</name>
</trkpt>
<trkpt lat="48.601883300" lon="9.187838300">
  <ele>422.000000</ele>
<time>2008-06-15T12:33:11Z</time>
  <name>TP2294</name>
</trkpt>
<trkpt lat="48.601866600" lon="9.187804900">
  <ele>422.000000</ele>
<time>2008-06-15T12:33:12Z</time>
  <name>TP2295</name>
</trkpt>
<trkpt lat="48.601846600" lon="9.187771600">
  <ele>422.000000</ele>
<time>2008-06-15T12:33:13Z</time>
  <name>TP2296</name>
</trkpt>
<trkpt lat="48.601814900" lon="9.187733300">
  <ele>422.000000</ele>
<time>2008-06-15T12:33:14Z</time>
  <name>TP2297</name>
</trkpt>
<trkpt lat="48.601791600" lon="9.187576600">
  <ele>421.000000</ele>
<time>2008-06-15T12:33:17Z</time>
  <name>TP2298</name>
</trkpt>
<trkpt lat="48.601758300" lon="9.187576600">
  <ele>422.000000</ele>
<time>2008-06-15T12:33:18Z</time>
  <name>TP2299</name>
</trkpt>
<trkpt lat="48.601691600" lon="9.187516600">
  <ele>421.000000</ele>
<time>2008-06-15T12:33:20Z</time>
  <name>TP2300</name>
</trkpt>
<trkpt lat="48.601706600" lon="9.187471600">
  <ele>422.000000</ele>
<time>2008-06-15T12:33:21Z</time>
  <name>TP2301</name>
</trkpt>
<trkpt lat="48.601729900" lon="9.187413300">
  <ele>422.000000</ele>
<time>2008-06-15T12:33:22Z</time>
  <name>TP2302</name>
</trkpt>
<trkpt lat="48.601746600" lon="9.187338300">
  <ele>422.000000</ele>
<time>2008-06-15T12:33:23Z</time>
  <name>TP2303</name>
</trkpt>
<trkpt lat="48.601738300" lon="9.187161600">
  <ele>421.000000</ele>
<time>2008-06-15T12:33:26Z</time>
  <name>TP2304</name>
</trkpt>
<trkpt lat="48.601723300" lon="9.187123300">
  <ele>421.000000</ele>
<time>2008-06-15T12:33:27Z</time>
  <name>TP2305</name>
</trkpt>
<trkpt lat="48.601713300" lon="9.187075000">
  <ele>422.000000</ele>
<time>2008-06-15T12:33:28Z</time>
  <name>TP2306</name>
</trkpt>
<trkpt lat="48.601703300" lon="9.187028300">
  <ele>421.000000</ele>
<time>2008-06-15T12:33:29Z</time>
  <name>TP2307</name>
</trkpt>
<trkpt lat="48.601674900" lon="9.186995000">
  <ele>421.000000</ele>
<time>2008-06-15T12:33:30Z</time>
  <name>TP2308</name>
</trkpt>
<trkpt lat="48.601619900" lon="9.186974900">
  <ele>421.000000</ele>
<time>2008-06-15T12:33:31Z</time>
  <name>TP2309</name>
</trkpt>
<trkpt lat="48.601558300" lon="9.186926600">
  <ele>420.000000</ele>
<time>2008-06-15T12:33:33Z</time>
  <name>TP2310</name>
</trkpt>
<trkpt lat="48.601606600" lon="9.186846600">
  <ele>420.000000</ele>
<time>2008-06-15T12:33:34Z</time>
  <name>TP2311</name>
</trkpt>
<trkpt lat="48.601628300" lon="9.186738300">
  <ele>420.000000</ele>
<time>2008-06-15T12:33:36Z</time>
  <name>TP2312</name>
</trkpt>
<trkpt lat="48.601610000" lon="9.186688300">
  <ele>420.000000</ele>
<time>2008-06-15T12:33:37Z</time>
  <name>TP2313</name>
</trkpt>
<trkpt lat="48.601591600" lon="9.186648300">
  <ele>420.000000</ele>
<time>2008-06-15T12:33:38Z</time>
  <name>TP2314</name>
</trkpt>
<trkpt lat="48.601588300" lon="9.186633300">
  <ele>421.000000</ele>
<time>2008-06-15T12:33:39Z</time>
  <name>TP2315</name>
</trkpt>
<trkpt lat="48.601580000" lon="9.186608300">
  <ele>421.000000</ele>
<time>2008-06-15T12:33:40Z</time>
  <name>TP2316</name>
</trkpt>
<trkpt lat="48.601514900" lon="9.186603300">
  <ele>421.000000</ele>
<time>2008-06-15T12:33:41Z</time>
  <name>TP2317</name>
</trkpt>
<trkpt lat="48.601508300" lon="9.186566600">
  <ele>421.000000</ele>
<time>2008-06-15T12:33:42Z</time>
  <name>TP2318</name>
</trkpt>
<trkpt lat="48.601541600" lon="9.186474900">
  <ele>420.000000</ele>
<time>2008-06-15T12:33:43Z</time>
  <name>TP2319</name>
</trkpt>
<trkpt lat="48.601468200" lon="9.186438300">
  <ele>420.000000</ele>
<time>2008-06-15T12:33:44Z</time>
  <name>TP2320</name>
</trkpt>
<trkpt lat="48.601386600" lon="9.186441600">
  <ele>420.000000</ele>
<time>2008-06-15T12:33:45Z</time>
  <name>TP2321</name>
</trkpt>
<trkpt lat="48.601351600" lon="9.186413300">
  <ele>419.000000</ele>
<time>2008-06-15T12:33:46Z</time>
  <name>TP2322</name>
</trkpt>
<trkpt lat="48.601303300" lon="9.186340000">
  <ele>419.000000</ele>
<time>2008-06-15T12:33:48Z</time>
  <name>TP2323</name>
</trkpt>
<trkpt lat="48.601249900" lon="9.186198300">
  <ele>418.000000</ele>
<time>2008-06-15T12:33:52Z</time>
  <name>TP2324</name>
</trkpt>
<trkpt lat="48.601230000" lon="9.186163300">
  <ele>418.000000</ele>
<time>2008-06-15T12:33:53Z</time>
  <name>TP2325</name>
</trkpt>
<trkpt lat="48.601199900" lon="9.186140000">
  <ele>418.000000</ele>
<time>2008-06-15T12:33:54Z</time>
  <name>TP2326</name>
</trkpt>
<trkpt lat="48.601228300" lon="9.186023300">
  <ele>419.000000</ele>
<time>2008-06-15T12:33:56Z</time>
  <name>TP2327</name>
</trkpt>
<trkpt lat="48.601260000" lon="9.185944900">
  <ele>418.000000</ele>
<time>2008-06-15T12:33:57Z</time>
  <name>TP2328</name>
</trkpt>
<trkpt lat="48.601301600" lon="9.185888300">
  <ele>419.000000</ele>
<time>2008-06-15T12:33:58Z</time>
  <name>TP2329</name>
</trkpt>
<trkpt lat="48.601276600" lon="9.185856600">
  <ele>419.000000</ele>
<time>2008-06-15T12:33:59Z</time>
  <name>TP2330</name>
</trkpt>
<trkpt lat="48.601275000" lon="9.185816600">
  <ele>418.000000</ele>
<time>2008-06-15T12:34:00Z</time>
  <name>TP2331</name>
</trkpt>
<trkpt lat="48.601334900" lon="9.185758300">
  <ele>419.000000</ele>
<time>2008-06-15T12:34:01Z</time>
  <name>TP2332</name>
</trkpt>
<trkpt lat="48.601321600" lon="9.185733300">
  <ele>419.000000</ele>
<time>2008-06-15T12:34:02Z</time>
  <name>TP2333</name>
</trkpt>
<trkpt lat="48.601306600" lon="9.185709900">
  <ele>419.000000</ele>
<time>2008-06-15T12:34:03Z</time>
  <name>TP2334</name>
</trkpt>
<trkpt lat="48.601298300" lon="9.185698300">
  <ele>419.000000</ele>
<time>2008-06-15T12:34:04Z</time>
  <name>TP2335</name>
</trkpt>
<trkpt lat="48.601298300" lon="9.185681600">
  <ele>419.000000</ele>
<time>2008-06-15T12:34:05Z</time>
  <name>TP2336</name>
</trkpt>
<trkpt lat="48.601263300" lon="9.185695000">
  <ele>420.000000</ele>
<time>2008-06-15T12:34:16Z</time>
  <name>TP2337</name>
</trkpt>
<trkpt lat="48.601253300" lon="9.185703300">
  <ele>420.000000</ele>
<time>2008-06-15T12:34:36Z</time>
  <name>TP2338</name>
</trkpt>
<trkpt lat="48.601271600" lon="9.185678300">
  <ele>420.000000</ele>
<time>2008-06-15T12:34:37Z</time>
  <name>TP2339</name>
</trkpt>
<trkpt lat="48.601281600" lon="9.185668300">
  <ele>420.000000</ele>
<time>2008-06-15T12:34:38Z</time>
  <name>TP2340</name>
</trkpt>
<trkpt lat="48.601284900" lon="9.185651600">
  <ele>420.000000</ele>
<time>2008-06-15T12:34:39Z</time>
  <name>TP2341</name>
</trkpt>
<trkpt lat="48.601279900" lon="9.185635000">
  <ele>420.000000</ele>
<time>2008-06-15T12:34:40Z</time>
  <name>TP2342</name>
</trkpt>
<trkpt lat="48.601283300" lon="9.185604900">
  <ele>420.000000</ele>
<time>2008-06-15T12:34:42Z</time>
  <name>TP2343</name>
</trkpt>
<trkpt lat="48.601298300" lon="9.185563300">
  <ele>420.000000</ele>
<time>2008-06-15T12:34:43Z</time>
  <name>TP2344</name>
</trkpt>
<trkpt lat="48.601356600" lon="9.185456600">
  <ele>420.000000</ele>
<time>2008-06-15T12:34:46Z</time>
  <name>TP2345</name>
</trkpt>
<trkpt lat="48.601383200" lon="9.185369900">
  <ele>420.000000</ele>
<time>2008-06-15T12:34:47Z</time>
  <name>TP2346</name>
</trkpt>
<trkpt lat="48.601401600" lon="9.185326600">
  <ele>420.000000</ele>
<time>2008-06-15T12:34:48Z</time>
  <name>TP2347</name>
</trkpt>
<trkpt lat="48.601418300" lon="9.185253300">
  <ele>420.000000</ele>
<time>2008-06-15T12:34:49Z</time>
  <name>TP2348</name>
</trkpt>
<trkpt lat="48.601448300" lon="9.185146600">
  <ele>420.000000</ele>
<time>2008-06-15T12:34:50Z</time>
  <name>TP2349</name>
</trkpt>
<trkpt lat="48.601476600" lon="9.185033300">
  <ele>420.000000</ele>
<time>2008-06-15T12:34:51Z</time>
  <name>TP2350</name>
</trkpt>
<trkpt lat="48.601456600" lon="9.184958300">
  <ele>421.000000</ele>
<time>2008-06-15T12:34:52Z</time>
  <name>TP2351</name>
</trkpt>
<trkpt lat="48.601493300" lon="9.184868300">
  <ele>421.000000</ele>
<time>2008-06-15T12:34:53Z</time>
  <name>TP2352</name>
</trkpt>
<trkpt lat="48.601519900" lon="9.184803300">
  <ele>421.000000</ele>
<time>2008-06-15T12:34:54Z</time>
  <name>TP2353</name>
</trkpt>
<trkpt lat="48.601728300" lon="9.184231600">
  <ele>420.000000</ele>
<time>2008-06-15T12:35:02Z</time>
  <name>TP2354</name>
</trkpt>
<trkpt lat="48.601761600" lon="9.184125000">
  <ele>420.000000</ele>
<time>2008-06-15T12:35:03Z</time>
  <name>TP2355</name>
</trkpt>
<trkpt lat="48.601863300" lon="9.183816600">
  <ele>418.000000</ele>
<time>2008-06-15T12:35:06Z</time>
  <name>TP2356</name>
</trkpt>
<trkpt lat="48.601941600" lon="9.183538300">
  <ele>417.000000</ele>
<time>2008-06-15T12:35:08Z</time>
  <name>TP2357</name>
</trkpt>
<trkpt lat="48.602034900" lon="9.183281600">
  <ele>417.000000</ele>
<time>2008-06-15T12:35:11Z</time>
  <name>TP2358</name>
</trkpt>
<trkpt lat="48.602061600" lon="9.183206600">
  <ele>418.000000</ele>
<time>2008-06-15T12:35:12Z</time>
  <name>TP2359</name>
</trkpt>
<trkpt lat="48.602100000" lon="9.183123300">
  <ele>419.000000</ele>
<time>2008-06-15T12:35:14Z</time>
  <name>TP2360</name>
</trkpt>
<trkpt lat="48.602115000" lon="9.183113300">
  <ele>419.000000</ele>
<time>2008-06-15T12:35:15Z</time>
  <name>TP2361</name>
</trkpt>
<trkpt lat="48.602093300" lon="9.183023300">
  <ele>420.000000</ele>
<time>2008-06-15T12:35:16Z</time>
  <name>TP2362</name>
</trkpt>
<trkpt lat="48.602101600" lon="9.182994900">
  <ele>420.000000</ele>
<time>2008-06-15T12:35:18Z</time>
  <name>TP2363</name>
</trkpt>
<trkpt lat="48.602138300" lon="9.182951600">
  <ele>420.000000</ele>
<time>2008-06-15T12:35:20Z</time>
  <name>TP2364</name>
</trkpt>
<trkpt lat="48.602159900" lon="9.182931600">
  <ele>420.000000</ele>
<time>2008-06-15T12:35:21Z</time>
  <name>TP2365</name>
</trkpt>
<trkpt lat="48.602183200" lon="9.182903300">
  <ele>420.000000</ele>
<time>2008-06-15T12:35:22Z</time>
  <name>TP2366</name>
</trkpt>
<trkpt lat="48.602213300" lon="9.182886600">
  <ele>420.000000</ele>
<time>2008-06-15T12:35:23Z</time>
  <name>TP2367</name>
</trkpt>
<trkpt lat="48.602223300" lon="9.182848300">
  <ele>420.000000</ele>
<time>2008-06-15T12:35:24Z</time>
  <name>TP2368</name>
</trkpt>
<trkpt lat="48.602304900" lon="9.182644900">
  <ele>418.000000</ele>
<time>2008-06-15T12:35:29Z</time>
  <name>TP2369</name>
</trkpt>
<trkpt lat="48.602380000" lon="9.182529900">
  <ele>416.000000</ele>
<time>2008-06-15T12:35:32Z</time>
  <name>TP2370</name>
</trkpt>
<trkpt lat="48.602391600" lon="9.182504900">
  <ele>416.000000</ele>
<time>2008-06-15T12:35:33Z</time>
  <name>TP2371</name>
</trkpt>
<trkpt lat="48.602399900" lon="9.182476600">
  <ele>416.000000</ele>
<time>2008-06-15T12:35:35Z</time>
  <name>TP2372</name>
</trkpt>
<trkpt lat="48.602399900" lon="9.182476600">
  <ele>415.000000</ele>
<time>2008-06-15T12:35:55Z</time>
  <name>TP2373</name>
</trkpt>
<trkpt lat="48.602414900" lon="9.182490000">
  <ele>415.000000</ele>
<time>2008-06-15T12:35:58Z</time>
  <name>TP2374</name>
</trkpt>
<trkpt lat="48.602429900" lon="9.182483300">
  <ele>415.000000</ele>
<time>2008-06-15T12:36:00Z</time>
  <name>TP2375</name>
</trkpt>
<trkpt lat="48.602453300" lon="9.182443300">
  <ele>415.000000</ele>
<time>2008-06-15T12:36:02Z</time>
  <name>TP2376</name>
</trkpt>
<trkpt lat="48.602489900" lon="9.182408300">
  <ele>415.000000</ele>
<time>2008-06-15T12:36:04Z</time>
  <name>TP2377</name>
</trkpt>
<trkpt lat="48.602489900" lon="9.182401600">
  <ele>415.000000</ele>
<time>2008-06-15T12:36:05Z</time>
  <name>TP2378</name>
</trkpt>
<trkpt lat="48.602521600" lon="9.182405000">
  <ele>415.000000</ele>
<time>2008-06-15T12:36:07Z</time>
  <name>TP2379</name>
</trkpt>
<trkpt lat="48.602544900" lon="9.182405000">
  <ele>415.000000</ele>
<time>2008-06-15T12:36:09Z</time>
  <name>TP2380</name>
</trkpt>
<trkpt lat="48.602571600" lon="9.182431600">
  <ele>415.000000</ele>
<time>2008-06-15T12:36:11Z</time>
  <name>TP2381</name>
</trkpt>
<trkpt lat="48.602583300" lon="9.182436600">
  <ele>415.000000</ele>
<time>2008-06-15T12:36:12Z</time>
  <name>TP2382</name>
</trkpt>
<trkpt lat="48.602628300" lon="9.182506600">
  <ele>415.000000</ele>
<time>2008-06-15T12:36:13Z</time>
  <name>TP2383</name>
</trkpt>
<trkpt lat="48.602679900" lon="9.182654900">
  <ele>415.000000</ele>
<time>2008-06-15T12:36:16Z</time>
  <name>TP2384</name>
</trkpt>
<trkpt lat="48.602716600" lon="9.182794900">
  <ele>415.000000</ele>
<time>2008-06-15T12:36:18Z</time>
  <name>TP2385</name>
</trkpt>
<trkpt lat="48.602726600" lon="9.182883300">
  <ele>415.000000</ele>
<time>2008-06-15T12:36:20Z</time>
  <name>TP2386</name>
</trkpt>
<trkpt lat="48.602726600" lon="9.182928300">
  <ele>415.000000</ele>
<time>2008-06-15T12:36:21Z</time>
  <name>TP2387</name>
</trkpt>
<trkpt lat="48.602768300" lon="9.183061600">
  <ele>415.000000</ele>
<time>2008-06-15T12:36:22Z</time>
  <name>TP2388</name>
</trkpt>
<trkpt lat="48.602848300" lon="9.183323300">
  <ele>415.000000</ele>
<time>2008-06-15T12:36:25Z</time>
  <name>TP2389</name>
</trkpt>
<trkpt lat="48.602863300" lon="9.183446600">
  <ele>416.000000</ele>
<time>2008-06-15T12:36:27Z</time>
  <name>TP2390</name>
</trkpt>
<trkpt lat="48.602870000" lon="9.183661600">
  <ele>416.000000</ele>
<time>2008-06-15T12:36:30Z</time>
  <name>TP2391</name>
</trkpt>
<trkpt lat="48.602824900" lon="9.183689900">
  <ele>415.000000</ele>
<time>2008-06-15T12:36:31Z</time>
  <name>TP2392</name>
</trkpt>
<trkpt lat="48.602848300" lon="9.183926600">
  <ele>416.000000</ele>
<time>2008-06-15T12:36:34Z</time>
  <name>TP2393</name>
</trkpt>
<trkpt lat="48.602925000" lon="9.184169900">
  <ele>416.000000</ele>
<time>2008-06-15T12:36:36Z</time>
  <name>TP2394</name>
</trkpt>
<trkpt lat="48.603001600" lon="9.184375000">
  <ele>416.000000</ele>
<time>2008-06-15T12:36:38Z</time>
  <name>TP2395</name>
</trkpt>
<trkpt lat="48.603139900" lon="9.184706600">
  <ele>416.000000</ele>
<time>2008-06-15T12:36:41Z</time>
  <name>TP2396</name>
</trkpt>
<trkpt lat="48.603226600" lon="9.184984900">
  <ele>416.000000</ele>
<time>2008-06-15T12:36:45Z</time>
  <name>TP2397</name>
</trkpt>
<trkpt lat="48.603375000" lon="9.185448300">
  <ele>415.000000</ele>
<time>2008-06-15T12:36:51Z</time>
  <name>TP2398</name>
</trkpt>
<trkpt lat="48.603598200" lon="9.186208300">
  <ele>414.000000</ele>
<time>2008-06-15T12:37:03Z</time>
  <name>TP2399</name>
</trkpt>
<trkpt lat="48.603618300" lon="9.186281600">
  <ele>414.000000</ele>
<time>2008-06-15T12:37:04Z</time>
  <name>TP2400</name>
</trkpt>
<trkpt lat="48.603698300" lon="9.186466600">
  <ele>414.000000</ele>
<time>2008-06-15T12:37:06Z</time>
  <name>TP2401</name>
</trkpt>
<trkpt lat="48.603755000" lon="9.186586600">
  <ele>414.000000</ele>
<time>2008-06-15T12:37:07Z</time>
  <name>TP2402</name>
</trkpt>
<trkpt lat="48.603834900" lon="9.186881600">
  <ele>414.000000</ele>
<time>2008-06-15T12:37:10Z</time>
  <name>TP2403</name>
</trkpt>
<trkpt lat="48.604066600" lon="9.187813300">
  <ele>412.000000</ele>
<time>2008-06-15T12:37:23Z</time>
  <name>TP2404</name>
</trkpt>
<trkpt lat="48.604071600" lon="9.187908300">
  <ele>412.000000</ele>
<time>2008-06-15T12:37:25Z</time>
  <name>TP2405</name>
</trkpt>
<trkpt lat="48.604090000" lon="9.188000000">
  <ele>411.000000</ele>
<time>2008-06-15T12:37:27Z</time>
  <name>TP2406</name>
</trkpt>
<trkpt lat="48.604096600" lon="9.188085000">
  <ele>411.000000</ele>
<time>2008-06-15T12:37:29Z</time>
  <name>TP2407</name>
</trkpt>
<trkpt lat="48.604161600" lon="9.188413300">
  <ele>409.000000</ele>
<time>2008-06-15T12:37:35Z</time>
  <name>TP2408</name>
</trkpt>
<trkpt lat="48.604171600" lon="9.188515000">
  <ele>409.000000</ele>
<time>2008-06-15T12:37:38Z</time>
  <name>TP2409</name>
</trkpt>
<trkpt lat="48.604171600" lon="9.188571600">
  <ele>409.000000</ele>
<time>2008-06-15T12:37:40Z</time>
  <name>TP2410</name>
</trkpt>
<trkpt lat="48.604204900" lon="9.188708300">
  <ele>409.000000</ele>
<time>2008-06-15T12:37:43Z</time>
  <name>TP2411</name>
</trkpt>
<trkpt lat="48.604236600" lon="9.188768300">
  <ele>409.000000</ele>
<time>2008-06-15T12:37:44Z</time>
  <name>TP2412</name>
</trkpt>
<trkpt lat="48.604245000" lon="9.188839900">
  <ele>408.000000</ele>
<time>2008-06-15T12:37:46Z</time>
  <name>TP2413</name>
</trkpt>
<trkpt lat="48.604248300" lon="9.188936600">
  <ele>408.000000</ele>
<time>2008-06-15T12:37:49Z</time>
  <name>TP2414</name>
</trkpt>
<trkpt lat="48.604266600" lon="9.188993300">
  <ele>408.000000</ele>
<time>2008-06-15T12:37:50Z</time>
  <name>TP2415</name>
</trkpt>
<trkpt lat="48.604300000" lon="9.189146600">
  <ele>408.000000</ele>
<time>2008-06-15T12:37:53Z</time>
  <name>TP2416</name>
</trkpt>
<trkpt lat="48.604373300" lon="9.189373300">
  <ele>407.000000</ele>
<time>2008-06-15T12:37:57Z</time>
  <name>TP2417</name>
</trkpt>
<trkpt lat="48.604381600" lon="9.189423300">
  <ele>407.000000</ele>
<time>2008-06-15T12:37:58Z</time>
  <name>TP2418</name>
</trkpt>
<trkpt lat="48.604376600" lon="9.189444900">
  <ele>407.000000</ele>
<time>2008-06-15T12:37:59Z</time>
  <name>TP2419</name>
</trkpt>
<trkpt lat="48.604370000" lon="9.189459900">
  <ele>408.000000</ele>
<time>2008-06-15T12:38:00Z</time>
  <name>TP2420</name>
</trkpt>
<trkpt lat="48.604393300" lon="9.189551600">
  <ele>408.000000</ele>
<time>2008-06-15T12:38:02Z</time>
  <name>TP2421</name>
</trkpt>
<trkpt lat="48.604446600" lon="9.189720000">
  <ele>408.000000</ele>
<time>2008-06-15T12:38:06Z</time>
  <name>TP2422</name>
</trkpt>
<trkpt lat="48.604436600" lon="9.189774900">
  <ele>408.000000</ele>
<time>2008-06-15T12:38:08Z</time>
  <name>TP2423</name>
</trkpt>
<trkpt lat="48.604425000" lon="9.189794900">
  <ele>407.000000</ele>
<time>2008-06-15T12:38:09Z</time>
  <name>TP2424</name>
</trkpt>
<trkpt lat="48.604429900" lon="9.189834900">
  <ele>407.000000</ele>
<time>2008-06-15T12:38:10Z</time>
  <name>TP2425</name>
</trkpt>
<trkpt lat="48.604455000" lon="9.189898300">
  <ele>407.000000</ele>
<time>2008-06-15T12:38:11Z</time>
  <name>TP2426</name>
</trkpt>
<trkpt lat="48.604491600" lon="9.189988300">
  <ele>408.000000</ele>
<time>2008-06-15T12:38:13Z</time>
  <name>TP2427</name>
</trkpt>
<trkpt lat="48.604519900" lon="9.190043300">
  <ele>408.000000</ele>
<time>2008-06-15T12:38:14Z</time>
  <name>TP2428</name>
</trkpt>
<trkpt lat="48.604525000" lon="9.190081600">
  <ele>408.000000</ele>
<time>2008-06-15T12:38:15Z</time>
  <name>TP2429</name>
</trkpt>
<trkpt lat="48.604549900" lon="9.190141600">
  <ele>408.000000</ele>
<time>2008-06-15T12:38:17Z</time>
  <name>TP2430</name>
</trkpt>
<trkpt lat="48.604558300" lon="9.190168300">
  <ele>408.000000</ele>
<time>2008-06-15T12:38:18Z</time>
  <name>TP2431</name>
</trkpt>
<trkpt lat="48.604568300" lon="9.190200000">
  <ele>408.000000</ele>
<time>2008-06-15T12:38:19Z</time>
  <name>TP2432</name>
</trkpt>
<trkpt lat="48.604603300" lon="9.190266600">
  <ele>408.000000</ele>
<time>2008-06-15T12:38:21Z</time>
  <name>TP2433</name>
</trkpt>
<trkpt lat="48.604635000" lon="9.190306600">
  <ele>408.000000</ele>
<time>2008-06-15T12:38:22Z</time>
  <name>TP2434</name>
</trkpt>
<trkpt lat="48.604661600" lon="9.190365000">
  <ele>408.000000</ele>
<time>2008-06-15T12:38:24Z</time>
  <name>TP2435</name>
</trkpt>
<trkpt lat="48.604714900" lon="9.190479900">
  <ele>407.000000</ele>
<time>2008-06-15T12:38:27Z</time>
  <name>TP2436</name>
</trkpt>
<trkpt lat="48.604714900" lon="9.190506600">
  <ele>407.000000</ele>
<time>2008-06-15T12:38:28Z</time>
  <name>TP2437</name>
</trkpt>
<trkpt lat="48.604706600" lon="9.190569900">
  <ele>407.000000</ele>
<time>2008-06-15T12:38:31Z</time>
  <name>TP2438</name>
</trkpt>
<trkpt lat="48.604713300" lon="9.190641600">
  <ele>406.000000</ele>
<time>2008-06-15T12:38:33Z</time>
  <name>TP2439</name>
</trkpt>
<trkpt lat="48.604711600" lon="9.190696600">
  <ele>406.000000</ele>
<time>2008-06-15T12:38:35Z</time>
  <name>TP2440</name>
</trkpt>
<trkpt lat="48.604721600" lon="9.190783300">
  <ele>406.000000</ele>
<time>2008-06-15T12:38:37Z</time>
  <name>TP2441</name>
</trkpt>
<trkpt lat="48.604714900" lon="9.190814900">
  <ele>406.000000</ele>
<time>2008-06-15T12:38:38Z</time>
  <name>TP2442</name>
</trkpt>
<trkpt lat="48.604733200" lon="9.190913300">
  <ele>406.000000</ele>
<time>2008-06-15T12:38:40Z</time>
  <name>TP2443</name>
</trkpt>
<trkpt lat="48.604723300" lon="9.190923300">
  <ele>406.000000</ele>
<time>2008-06-15T12:38:41Z</time>
  <name>TP2444</name>
</trkpt>
<trkpt lat="48.604723300" lon="9.191023300">
  <ele>405.000000</ele>
<time>2008-06-15T12:38:44Z</time>
  <name>TP2445</name>
</trkpt>
<trkpt lat="48.604736600" lon="9.191160000">
  <ele>405.000000</ele>
<time>2008-06-15T12:38:48Z</time>
  <name>TP2446</name>
</trkpt>
<trkpt lat="48.604758300" lon="9.191298300">
  <ele>405.000000</ele>
<time>2008-06-15T12:38:51Z</time>
  <name>TP2447</name>
</trkpt>
<trkpt lat="48.604796600" lon="9.191486600">
  <ele>404.000000</ele>
<time>2008-06-15T12:38:54Z</time>
  <name>TP2448</name>
</trkpt>
<trkpt lat="48.604853300" lon="9.191661600">
  <ele>404.000000</ele>
<time>2008-06-15T12:38:57Z</time>
  <name>TP2449</name>
</trkpt>
<trkpt lat="48.604903300" lon="9.191786600">
  <ele>404.000000</ele>
<time>2008-06-15T12:39:00Z</time>
  <name>TP2450</name>
</trkpt>
<trkpt lat="48.604946600" lon="9.191963300">
  <ele>403.000000</ele>
<time>2008-06-15T12:39:03Z</time>
  <name>TP2451</name>
</trkpt>
<trkpt lat="48.605073300" lon="9.192240000">
  <ele>403.000000</ele>
<time>2008-06-15T12:39:07Z</time>
  <name>TP2452</name>
</trkpt>
<trkpt lat="48.605091600" lon="9.192368300">
  <ele>401.000000</ele>
<time>2008-06-15T12:39:09Z</time>
  <name>TP2453</name>
</trkpt>
<trkpt lat="48.605113300" lon="9.192421600">
  <ele>401.000000</ele>
<time>2008-06-15T12:39:10Z</time>
  <name>TP2454</name>
</trkpt>
<trkpt lat="48.605168200" lon="9.192505000">
  <ele>400.000000</ele>
<time>2008-06-15T12:39:12Z</time>
  <name>TP2455</name>
</trkpt>
<trkpt lat="48.605156600" lon="9.192496600">
  <ele>400.000000</ele>
<time>2008-06-15T12:39:13Z</time>
  <name>TP2456</name>
</trkpt>
<trkpt lat="48.605168200" lon="9.192536600">
  <ele>400.000000</ele>
<time>2008-06-15T12:39:14Z</time>
  <name>TP2457</name>
</trkpt>
<trkpt lat="48.605179900" lon="9.192566600">
  <ele>400.000000</ele>
<time>2008-06-15T12:39:15Z</time>
  <name>TP2458</name>
</trkpt>
<trkpt lat="48.605183300" lon="9.192598300">
  <ele>400.000000</ele>
<time>2008-06-15T12:39:16Z</time>
  <name>TP2459</name>
</trkpt>
<trkpt lat="48.605183300" lon="9.192651600">
  <ele>401.000000</ele>
<time>2008-06-15T12:39:17Z</time>
  <name>TP2460</name>
</trkpt>
<trkpt lat="48.605204900" lon="9.192713300">
  <ele>401.000000</ele>
<time>2008-06-15T12:39:18Z</time>
  <name>TP2461</name>
</trkpt>
<trkpt lat="48.605229900" lon="9.192771600">
  <ele>402.000000</ele>
<time>2008-06-15T12:39:20Z</time>
  <name>TP2462</name>
</trkpt>
<trkpt lat="48.605234900" lon="9.192803300">
  <ele>402.000000</ele>
<time>2008-06-15T12:39:21Z</time>
  <name>TP2463</name>
</trkpt>
<trkpt lat="48.605258300" lon="9.192871600">
  <ele>402.000000</ele>
<time>2008-06-15T12:39:22Z</time>
  <name>TP2464</name>
</trkpt>
<trkpt lat="48.605299900" lon="9.192986600">
  <ele>403.000000</ele>
<time>2008-06-15T12:39:24Z</time>
  <name>TP2465</name>
</trkpt>
<trkpt lat="48.605308200" lon="9.193021600">
  <ele>403.000000</ele>
<time>2008-06-15T12:39:25Z</time>
  <name>TP2466</name>
</trkpt>
<trkpt lat="48.605310000" lon="9.193080000">
  <ele>403.000000</ele>
<time>2008-06-15T12:39:29Z</time>
  <name>TP2467</name>
</trkpt>
<trkpt lat="48.605310000" lon="9.193171600">
  <ele>402.000000</ele>
<time>2008-06-15T12:39:33Z</time>
  <name>TP2468</name>
</trkpt>
<trkpt lat="48.605306600" lon="9.193211600">
  <ele>402.000000</ele>
<time>2008-06-15T12:39:35Z</time>
  <name>TP2469</name>
</trkpt>
<trkpt lat="48.605311600" lon="9.193248300">
  <ele>402.000000</ele>
<time>2008-06-15T12:39:36Z</time>
  <name>TP2470</name>
</trkpt>
<trkpt lat="48.605323300" lon="9.193396600">
  <ele>402.000000</ele>
<time>2008-06-15T12:39:42Z</time>
  <name>TP2471</name>
</trkpt>
<trkpt lat="48.605328300" lon="9.193428300">
  <ele>402.000000</ele>
<time>2008-06-15T12:39:43Z</time>
  <name>TP2472</name>
</trkpt>
<trkpt lat="48.605331600" lon="9.193459900">
  <ele>401.000000</ele>
<time>2008-06-15T12:39:44Z</time>
  <name>TP2473</name>
</trkpt>
<trkpt lat="48.605336600" lon="9.193491600">
  <ele>401.000000</ele>
<time>2008-06-15T12:39:45Z</time>
  <name>TP2474</name>
</trkpt>
<trkpt lat="48.605339900" lon="9.193541600">
  <ele>401.000000</ele>
<time>2008-06-15T12:39:47Z</time>
  <name>TP2475</name>
</trkpt>
<trkpt lat="48.605336600" lon="9.193601600">
  <ele>401.000000</ele>
<time>2008-06-15T12:39:50Z</time>
  <name>TP2476</name>
</trkpt>
<trkpt lat="48.605339900" lon="9.193673300">
  <ele>401.000000</ele>
<time>2008-06-15T12:39:53Z</time>
  <name>TP2477</name>
</trkpt>
<trkpt lat="48.605343300" lon="9.193723300">
  <ele>401.000000</ele>
<time>2008-06-15T12:39:55Z</time>
  <name>TP2478</name>
</trkpt>
<trkpt lat="48.605356600" lon="9.193796600">
  <ele>400.000000</ele>
<time>2008-06-15T12:39:57Z</time>
  <name>TP2479</name>
</trkpt>
<trkpt lat="48.605369900" lon="9.193875000">
  <ele>400.000000</ele>
<time>2008-06-15T12:39:59Z</time>
  <name>TP2480</name>
</trkpt>
<trkpt lat="48.605399900" lon="9.193991600">
  <ele>400.000000</ele>
<time>2008-06-15T12:40:02Z</time>
  <name>TP2481</name>
</trkpt>
<trkpt lat="48.605418300" lon="9.194030000">
  <ele>400.000000</ele>
<time>2008-06-15T12:40:03Z</time>
  <name>TP2482</name>
</trkpt>
<trkpt lat="48.605456600" lon="9.194135000">
  <ele>400.000000</ele>
<time>2008-06-15T12:40:07Z</time>
  <name>TP2483</name>
</trkpt>
<trkpt lat="48.605471600" lon="9.194163300">
  <ele>400.000000</ele>
<time>2008-06-15T12:40:08Z</time>
  <name>TP2484</name>
</trkpt>
<trkpt lat="48.605508300" lon="9.194291600">
  <ele>400.000000</ele>
<time>2008-06-15T12:40:13Z</time>
  <name>TP2485</name>
</trkpt>
<trkpt lat="48.605520000" lon="9.194313300">
  <ele>400.000000</ele>
<time>2008-06-15T12:40:14Z</time>
  <name>TP2486</name>
</trkpt>
<trkpt lat="48.605518200" lon="9.194304900">
  <ele>400.000000</ele>
<time>2008-06-15T12:40:15Z</time>
  <name>TP2487</name>
</trkpt>
<trkpt lat="48.605624900" lon="9.194444900">
  <ele>400.000000</ele>
<time>2008-06-15T12:40:21Z</time>
  <name>TP2488</name>
</trkpt>
<trkpt lat="48.605664900" lon="9.194504900">
  <ele>400.000000</ele>
<time>2008-06-15T12:40:23Z</time>
  <name>TP2489</name>
</trkpt>
<trkpt lat="48.605675000" lon="9.194530000">
  <ele>400.000000</ele>
<time>2008-06-15T12:40:24Z</time>
  <name>TP2490</name>
</trkpt>
<trkpt lat="48.605804900" lon="9.194699900">
  <ele>400.000000</ele>
<time>2008-06-15T12:40:32Z</time>
  <name>TP2491</name>
</trkpt>
<trkpt lat="48.605833300" lon="9.194711600">
  <ele>400.000000</ele>
<time>2008-06-15T12:40:33Z</time>
  <name>TP2492</name>
</trkpt>
<trkpt lat="48.605881600" lon="9.194756600">
  <ele>400.000000</ele>
<time>2008-06-15T12:40:36Z</time>
  <name>TP2493</name>
</trkpt>
<trkpt lat="48.605898300" lon="9.194768300">
  <ele>400.000000</ele>
<time>2008-06-15T12:40:37Z</time>
  <name>TP2494</name>
</trkpt>
<trkpt lat="48.605903300" lon="9.194796600">
  <ele>400.000000</ele>
<time>2008-06-15T12:40:38Z</time>
  <name>TP2495</name>
</trkpt>
<trkpt lat="48.605913300" lon="9.194808300">
  <ele>400.000000</ele>
<time>2008-06-15T12:40:39Z</time>
  <name>TP2496</name>
</trkpt>
<trkpt lat="48.605923200" lon="9.194844900">
  <ele>400.000000</ele>
<time>2008-06-15T12:40:40Z</time>
  <name>TP2497</name>
</trkpt>
<trkpt lat="48.605943300" lon="9.194871600">
  <ele>400.000000</ele>
<time>2008-06-15T12:40:41Z</time>
  <name>TP2498</name>
</trkpt>
<trkpt lat="48.605963300" lon="9.194899900">
  <ele>400.000000</ele>
<time>2008-06-15T12:40:42Z</time>
  <name>TP2499</name>
</trkpt>
<trkpt lat="48.605983300" lon="9.194921600">
  <ele>400.000000</ele>
<time>2008-06-15T12:40:43Z</time>
  <name>TP2500</name>
</trkpt>
<trkpt lat="48.606048300" lon="9.194976600">
  <ele>400.000000</ele>
<time>2008-06-15T12:40:46Z</time>
  <name>TP2501</name>
</trkpt>
<trkpt lat="48.606104900" lon="9.195008300">
  <ele>400.000000</ele>
<time>2008-06-15T12:40:49Z</time>
  <name>TP2502</name>
</trkpt>
<trkpt lat="48.606198300" lon="9.195076600">
  <ele>400.000000</ele>
<time>2008-06-15T12:40:53Z</time>
  <name>TP2503</name>
</trkpt>
<trkpt lat="48.606328300" lon="9.195203300">
  <ele>400.000000</ele>
<time>2008-06-15T12:40:57Z</time>
  <name>TP2504</name>
</trkpt>
<trkpt lat="48.606345000" lon="9.195224900">
  <ele>400.000000</ele>
<time>2008-06-15T12:40:58Z</time>
  <name>TP2505</name>
</trkpt>
<trkpt lat="48.606403300" lon="9.195271600">
  <ele>400.000000</ele>
<time>2008-06-15T12:41:01Z</time>
  <name>TP2506</name>
</trkpt>
<trkpt lat="48.606601600" lon="9.195526600">
  <ele>400.000000</ele>
<time>2008-06-15T12:41:07Z</time>
  <name>TP2507</name>
</trkpt>
<trkpt lat="48.606950000" lon="9.196021600">
  <ele>400.000000</ele>
<time>2008-06-15T12:41:16Z</time>
  <name>TP2508</name>
</trkpt>
<trkpt lat="48.607293300" lon="9.196508300">
  <ele>399.000000</ele>
<time>2008-06-15T12:41:23Z</time>
  <name>TP2509</name>
</trkpt>
<trkpt lat="48.607614900" lon="9.196983300">
  <ele>399.000000</ele>
<time>2008-06-15T12:41:31Z</time>
  <name>TP2510</name>
</trkpt>
<trkpt lat="48.607661600" lon="9.197088300">
  <ele>399.000000</ele>
<time>2008-06-15T12:41:34Z</time>
  <name>TP2511</name>
</trkpt>
<trkpt lat="48.607705000" lon="9.197181600">
  <ele>398.000000</ele>
<time>2008-06-15T12:41:36Z</time>
  <name>TP2512</name>
</trkpt>
<trkpt lat="48.607723300" lon="9.197238300">
  <ele>398.000000</ele>
<time>2008-06-15T12:41:37Z</time>
  <name>TP2513</name>
</trkpt>
<trkpt lat="48.607738300" lon="9.197296600">
  <ele>398.000000</ele>
<time>2008-06-15T12:41:39Z</time>
  <name>TP2514</name>
</trkpt>
<trkpt lat="48.607768300" lon="9.197384900">
  <ele>397.000000</ele>
<time>2008-06-15T12:41:42Z</time>
  <name>TP2515</name>
</trkpt>
<trkpt lat="48.607788200" lon="9.197418300">
  <ele>397.000000</ele>
<time>2008-06-15T12:41:44Z</time>
  <name>TP2516</name>
</trkpt>
<trkpt lat="48.607814900" lon="9.197421600">
  <ele>397.000000</ele>
<time>2008-06-15T12:41:46Z</time>
  <name>TP2517</name>
</trkpt>
<trkpt lat="48.607879900" lon="9.197483300">
  <ele>397.000000</ele>
<time>2008-06-15T12:41:49Z</time>
  <name>TP2518</name>
</trkpt>
<trkpt lat="48.608023300" lon="9.197698300">
  <ele>396.000000</ele>
<time>2008-06-15T12:41:55Z</time>
  <name>TP2519</name>
</trkpt>
<trkpt lat="48.608143300" lon="9.197878300">
  <ele>395.000000</ele>
<time>2008-06-15T12:41:58Z</time>
  <name>TP2520</name>
</trkpt>
<trkpt lat="48.608248300" lon="9.198011600">
  <ele>395.000000</ele>
<time>2008-06-15T12:42:01Z</time>
  <name>TP2521</name>
</trkpt>
<trkpt lat="48.608324900" lon="9.198086600">
  <ele>395.000000</ele>
<time>2008-06-15T12:42:04Z</time>
  <name>TP2522</name>
</trkpt>
<trkpt lat="48.608384900" lon="9.198136600">
  <ele>395.000000</ele>
<time>2008-06-15T12:42:06Z</time>
  <name>TP2523</name>
</trkpt>
<trkpt lat="48.608441600" lon="9.198171600">
  <ele>395.000000</ele>
<time>2008-06-15T12:42:08Z</time>
  <name>TP2524</name>
</trkpt>
<trkpt lat="48.608471600" lon="9.198156600">
  <ele>395.000000</ele>
<time>2008-06-15T12:42:09Z</time>
  <name>TP2525</name>
</trkpt>
<trkpt lat="48.608576600" lon="9.198185000">
  <ele>396.000000</ele>
<time>2008-06-15T12:42:14Z</time>
  <name>TP2526</name>
</trkpt>
<trkpt lat="48.608593300" lon="9.198185000">
  <ele>396.000000</ele>
<time>2008-06-15T12:42:15Z</time>
  <name>TP2527</name>
</trkpt>
<trkpt lat="48.608615000" lon="9.198199900">
  <ele>396.000000</ele>
<time>2008-06-15T12:42:16Z</time>
  <name>TP2528</name>
</trkpt>
<trkpt lat="48.608633300" lon="9.198199900">
  <ele>396.000000</ele>
<time>2008-06-15T12:42:17Z</time>
  <name>TP2529</name>
</trkpt>
<trkpt lat="48.608671600" lon="9.198209900">
  <ele>396.000000</ele>
<time>2008-06-15T12:42:19Z</time>
  <name>TP2530</name>
</trkpt>
<trkpt lat="48.608855000" lon="9.198168300">
  <ele>397.000000</ele>
<time>2008-06-15T12:42:28Z</time>
  <name>TP2531</name>
</trkpt>
<trkpt lat="48.608886600" lon="9.198111600">
  <ele>397.000000</ele>
<time>2008-06-15T12:42:29Z</time>
  <name>TP2532</name>
</trkpt>
<trkpt lat="48.608911600" lon="9.198115000">
  <ele>397.000000</ele>
<time>2008-06-15T12:42:30Z</time>
  <name>TP2533</name>
</trkpt>
<trkpt lat="48.608973300" lon="9.198074900">
  <ele>397.000000</ele>
<time>2008-06-15T12:42:33Z</time>
  <name>TP2534</name>
</trkpt>
<trkpt lat="48.609035000" lon="9.197995000">
  <ele>398.000000</ele>
<time>2008-06-15T12:42:36Z</time>
  <name>TP2535</name>
</trkpt>
<trkpt lat="48.609081600" lon="9.197916600">
  <ele>398.000000</ele>
<time>2008-06-15T12:42:39Z</time>
  <name>TP2536</name>
</trkpt>
<trkpt lat="48.609123300" lon="9.197918300">
  <ele>399.000000</ele>
<time>2008-06-15T12:42:41Z</time>
  <name>TP2537</name>
</trkpt>
<trkpt lat="48.609158300" lon="9.197901600">
  <ele>399.000000</ele>
<time>2008-06-15T12:42:43Z</time>
  <name>TP2538</name>
</trkpt>
<trkpt lat="48.609176600" lon="9.197901600">
  <ele>399.000000</ele>
<time>2008-06-15T12:42:44Z</time>
  <name>TP2539</name>
</trkpt>
<trkpt lat="48.609188200" lon="9.197919900">
  <ele>399.000000</ele>
<time>2008-06-15T12:42:45Z</time>
  <name>TP2540</name>
</trkpt>
<trkpt lat="48.609379900" lon="9.198051600">
  <ele>399.000000</ele>
<time>2008-06-15T12:42:50Z</time>
  <name>TP2541</name>
</trkpt>
<trkpt lat="48.609419900" lon="9.198084900">
  <ele>399.000000</ele>
<time>2008-06-15T12:42:52Z</time>
  <name>TP2542</name>
</trkpt>
<trkpt lat="48.609446600" lon="9.198108300">
  <ele>400.000000</ele>
<time>2008-06-15T12:42:53Z</time>
  <name>TP2543</name>
</trkpt>
<trkpt lat="48.609488300" lon="9.198171600">
  <ele>400.000000</ele>
<time>2008-06-15T12:42:54Z</time>
  <name>TP2544</name>
</trkpt>
<trkpt lat="48.609551600" lon="9.198290000">
  <ele>399.000000</ele>
<time>2008-06-15T12:42:56Z</time>
  <name>TP2545</name>
</trkpt>
<trkpt lat="48.609559900" lon="9.198321600">
  <ele>399.000000</ele>
<time>2008-06-15T12:42:57Z</time>
  <name>TP2546</name>
</trkpt>
<trkpt lat="48.609579900" lon="9.198428300">
  <ele>399.000000</ele>
<time>2008-06-15T12:42:59Z</time>
  <name>TP2547</name>
</trkpt>
<trkpt lat="48.609611600" lon="9.198526600">
  <ele>399.000000</ele>
<time>2008-06-15T12:43:00Z</time>
  <name>TP2548</name>
</trkpt>
<trkpt lat="48.609684900" lon="9.198735000">
  <ele>398.000000</ele>
<time>2008-06-15T12:43:03Z</time>
  <name>TP2549</name>
</trkpt>
<trkpt lat="48.609786600" lon="9.199038300">
  <ele>397.000000</ele>
<time>2008-06-15T12:43:07Z</time>
  <name>TP2550</name>
</trkpt>
<trkpt lat="48.609844900" lon="9.199200000">
  <ele>397.000000</ele>
<time>2008-06-15T12:43:09Z</time>
  <name>TP2551</name>
</trkpt>
<trkpt lat="48.609871600" lon="9.199250000">
  <ele>397.000000</ele>
<time>2008-06-15T12:43:10Z</time>
  <name>TP2552</name>
</trkpt>
<trkpt lat="48.609908300" lon="9.199303300">
  <ele>397.000000</ele>
<time>2008-06-15T12:43:11Z</time>
  <name>TP2553</name>
</trkpt>
<trkpt lat="48.610003200" lon="9.199460000">
  <ele>397.000000</ele>
<time>2008-06-15T12:43:16Z</time>
  <name>TP2554</name>
</trkpt>
<trkpt lat="48.610181600" lon="9.199775000">
  <ele>397.000000</ele>
<time>2008-06-15T12:43:21Z</time>
  <name>TP2555</name>
</trkpt>
<trkpt lat="48.610358300" lon="9.200048300">
  <ele>396.000000</ele>
<time>2008-06-15T12:43:25Z</time>
  <name>TP2556</name>
</trkpt>
<trkpt lat="48.611163300" lon="9.201543300">
  <ele>396.000000</ele>
<time>2008-06-15T12:43:45Z</time>
  <name>TP2557</name>
</trkpt>
<trkpt lat="48.612086600" lon="9.203496600">
  <ele>390.000000</ele>
<time>2008-06-15T12:44:05Z</time>
  <name>TP2558</name>
</trkpt>
<trkpt lat="48.612136600" lon="9.203588300">
  <ele>389.000000</ele>
<time>2008-06-15T12:44:07Z</time>
  <name>TP2559</name>
</trkpt>
<trkpt lat="48.612176600" lon="9.203628300">
  <ele>389.000000</ele>
<time>2008-06-15T12:44:11Z</time>
  <name>TP2560</name>
</trkpt>
<trkpt lat="48.612190000" lon="9.203628300">
  <ele>389.000000</ele>
<time>2008-06-15T12:44:12Z</time>
  <name>TP2561</name>
</trkpt>
<trkpt lat="48.612209900" lon="9.203598300">
  <ele>389.000000</ele>
<time>2008-06-15T12:44:14Z</time>
  <name>TP2562</name>
</trkpt>
<trkpt lat="48.612221600" lon="9.203583300">
  <ele>389.000000</ele>
<time>2008-06-15T12:44:15Z</time>
  <name>TP2563</name>
</trkpt>
<trkpt lat="48.612228300" lon="9.203571600">
  <ele>389.000000</ele>
<time>2008-06-15T12:44:16Z</time>
  <name>TP2564</name>
</trkpt>
<trkpt lat="48.612243200" lon="9.203549900">
  <ele>388.000000</ele>
<time>2008-06-15T12:44:17Z</time>
  <name>TP2565</name>
</trkpt>
<trkpt lat="48.612261600" lon="9.203508300">
  <ele>388.000000</ele>
<time>2008-06-15T12:44:19Z</time>
  <name>TP2566</name>
</trkpt>
<trkpt lat="48.612263300" lon="9.203488300">
  <ele>388.000000</ele>
<time>2008-06-15T12:44:20Z</time>
  <name>TP2567</name>
</trkpt>
<trkpt lat="48.612271600" lon="9.203461600">
  <ele>388.000000</ele>
<time>2008-06-15T12:44:21Z</time>
  <name>TP2568</name>
</trkpt>
<trkpt lat="48.612253300" lon="9.203201600">
  <ele>387.000000</ele>
<time>2008-06-15T12:44:26Z</time>
  <name>TP2569</name>
</trkpt>
<trkpt lat="48.612233300" lon="9.203139900">
  <ele>387.000000</ele>
<time>2008-06-15T12:44:27Z</time>
  <name>TP2570</name>
</trkpt>
<trkpt lat="48.612176600" lon="9.203031600">
  <ele>387.000000</ele>
<time>2008-06-15T12:44:29Z</time>
  <name>TP2571</name>
</trkpt>
<trkpt lat="48.612090000" lon="9.202801600">
  <ele>387.000000</ele>
<time>2008-06-15T12:44:33Z</time>
  <name>TP2572</name>
</trkpt>
<trkpt lat="48.612096600" lon="9.202671600">
  <ele>387.000000</ele>
<time>2008-06-15T12:44:35Z</time>
  <name>TP2573</name>
</trkpt>
<trkpt lat="48.612108300" lon="9.202509900">
  <ele>387.000000</ele>
<time>2008-06-15T12:44:37Z</time>
  <name>TP2574</name>
</trkpt>
<trkpt lat="48.612128300" lon="9.202411600">
  <ele>387.000000</ele>
<time>2008-06-15T12:44:38Z</time>
  <name>TP2575</name>
</trkpt>
<trkpt lat="48.612146600" lon="9.202283300">
  <ele>387.000000</ele>
<time>2008-06-15T12:44:40Z</time>
  <name>TP2576</name>
</trkpt>
<trkpt lat="48.612144900" lon="9.202233300">
  <ele>387.000000</ele>
<time>2008-06-15T12:44:41Z</time>
  <name>TP2577</name>
</trkpt>
<trkpt lat="48.612164900" lon="9.201986600">
  <ele>387.000000</ele>
<time>2008-06-15T12:44:43Z</time>
  <name>TP2578</name>
</trkpt>
<trkpt lat="48.612133200" lon="9.201821600">
  <ele>387.000000</ele>
<time>2008-06-15T12:44:44Z</time>
  <name>TP2579</name>
</trkpt>
<trkpt lat="48.612108300" lon="9.201728300">
  <ele>387.000000</ele>
<time>2008-06-15T12:44:45Z</time>
  <name>TP2580</name>
</trkpt>
<trkpt lat="48.612098300" lon="9.201636600">
  <ele>387.000000</ele>
<time>2008-06-15T12:44:46Z</time>
  <name>TP2581</name>
</trkpt>
<trkpt lat="48.612068300" lon="9.201541600">
  <ele>387.000000</ele>
<time>2008-06-15T12:44:47Z</time>
  <name>TP2582</name>
</trkpt>
<trkpt lat="48.612050000" lon="9.201241600">
  <ele>386.000000</ele>
<time>2008-06-15T12:44:49Z</time>
  <name>TP2583</name>
</trkpt>
<trkpt lat="48.612093300" lon="9.200791600">
  <ele>384.000000</ele>
<time>2008-06-15T12:44:51Z</time>
  <name>TP2584</name>
</trkpt>
<trkpt lat="48.612124900" lon="9.200551600">
  <ele>383.000000</ele>
<time>2008-06-15T12:44:52Z</time>
  <name>TP2585</name>
</trkpt>
<trkpt lat="48.612065000" lon="9.199908300">
  <ele>383.000000</ele>
<time>2008-06-15T12:44:58Z</time>
  <name>TP2586</name>
</trkpt>
<trkpt lat="48.612044900" lon="9.199596600">
  <ele>382.000000</ele>
<time>2008-06-15T12:45:01Z</time>
  <name>TP2587</name>
</trkpt>
<trkpt lat="48.612011600" lon="9.199518300">
  <ele>382.000000</ele>
<time>2008-06-15T12:45:02Z</time>
  <name>TP2588</name>
</trkpt>
<trkpt lat="48.611946600" lon="9.199348300">
  <ele>381.000000</ele>
<time>2008-06-15T12:45:04Z</time>
  <name>TP2589</name>
</trkpt>
<trkpt lat="48.611911600" lon="9.199296600">
  <ele>381.000000</ele>
<time>2008-06-15T12:45:05Z</time>
  <name>TP2590</name>
</trkpt>
<trkpt lat="48.611706600" lon="9.198790000">
  <ele>379.000000</ele>
<time>2008-06-15T12:45:12Z</time>
  <name>TP2591</name>
</trkpt>
<trkpt lat="48.611609900" lon="9.198595000">
  <ele>378.000000</ele>
<time>2008-06-15T12:45:15Z</time>
  <name>TP2592</name>
</trkpt>
<trkpt lat="48.611561600" lon="9.198479900">
  <ele>378.000000</ele>
<time>2008-06-15T12:45:17Z</time>
  <name>TP2593</name>
</trkpt>
<trkpt lat="48.611498300" lon="9.198384900">
  <ele>377.000000</ele>
<time>2008-06-15T12:45:19Z</time>
  <name>TP2594</name>
</trkpt>
<trkpt lat="48.611434900" lon="9.198301600">
  <ele>377.000000</ele>
<time>2008-06-15T12:45:21Z</time>
  <name>TP2595</name>
</trkpt>
<trkpt lat="48.611363300" lon="9.198151600">
  <ele>376.000000</ele>
<time>2008-06-15T12:45:24Z</time>
  <name>TP2596</name>
</trkpt>
<trkpt lat="48.611306600" lon="9.198078300">
  <ele>375.000000</ele>
<time>2008-06-15T12:45:26Z</time>
  <name>TP2597</name>
</trkpt>
<trkpt lat="48.611254900" lon="9.198028300">
  <ele>375.000000</ele>
<time>2008-06-15T12:45:28Z</time>
  <name>TP2598</name>
</trkpt>
<trkpt lat="48.611193200" lon="9.197996600">
  <ele>374.000000</ele>
<time>2008-06-15T12:45:30Z</time>
  <name>TP2599</name>
</trkpt>
<trkpt lat="48.611146600" lon="9.197950000">
  <ele>374.000000</ele>
<time>2008-06-15T12:45:32Z</time>
  <name>TP2600</name>
</trkpt>
<trkpt lat="48.611159900" lon="9.197903300">
  <ele>374.000000</ele>
<time>2008-06-15T12:45:33Z</time>
  <name>TP2601</name>
</trkpt>
<trkpt lat="48.611173300" lon="9.197874900">
  <ele>374.000000</ele>
<time>2008-06-15T12:45:34Z</time>
  <name>TP2602</name>
</trkpt>
<trkpt lat="48.611168300" lon="9.197868300">
  <ele>374.000000</ele>
<time>2008-06-15T12:45:35Z</time>
  <name>TP2603</name>
</trkpt>
<trkpt lat="48.611158300" lon="9.197814900">
  <ele>374.000000</ele>
<time>2008-06-15T12:45:36Z</time>
  <name>TP2604</name>
</trkpt>
<trkpt lat="48.611178200" lon="9.197713300">
  <ele>374.000000</ele>
<time>2008-06-15T12:45:38Z</time>
  <name>TP2605</name>
</trkpt>
<trkpt lat="48.611216600" lon="9.197666600">
  <ele>374.000000</ele>
<time>2008-06-15T12:45:39Z</time>
  <name>TP2606</name>
</trkpt>
<trkpt lat="48.611238300" lon="9.197589900">
  <ele>374.000000</ele>
<time>2008-06-15T12:45:40Z</time>
  <name>TP2607</name>
</trkpt>
<trkpt lat="48.611254900" lon="9.197526600">
  <ele>373.000000</ele>
<time>2008-06-15T12:45:41Z</time>
  <name>TP2608</name>
</trkpt>
<trkpt lat="48.611276600" lon="9.197448300">
  <ele>373.000000</ele>
<time>2008-06-15T12:45:43Z</time>
  <name>TP2609</name>
</trkpt>
<trkpt lat="48.611311600" lon="9.197319900">
  <ele>372.000000</ele>
<time>2008-06-15T12:45:47Z</time>
  <name>TP2610</name>
</trkpt>
<trkpt lat="48.611344900" lon="9.197201600">
  <ele>371.000000</ele>
<time>2008-06-15T12:45:49Z</time>
  <name>TP2611</name>
</trkpt>
<trkpt lat="48.611364900" lon="9.197158300">
  <ele>371.000000</ele>
<time>2008-06-15T12:45:50Z</time>
  <name>TP2612</name>
</trkpt>
<trkpt lat="48.611375000" lon="9.197089900">
  <ele>371.000000</ele>
<time>2008-06-15T12:45:52Z</time>
  <name>TP2613</name>
</trkpt>
<trkpt lat="48.611406600" lon="9.196946600">
  <ele>370.000000</ele>
<time>2008-06-15T12:45:57Z</time>
  <name>TP2614</name>
</trkpt>
<trkpt lat="48.611403200" lon="9.196904900">
  <ele>370.000000</ele>
<time>2008-06-15T12:45:59Z</time>
  <name>TP2615</name>
</trkpt>
<trkpt lat="48.611399900" lon="9.196875000">
  <ele>370.000000</ele>
<time>2008-06-15T12:46:00Z</time>
  <name>TP2616</name>
</trkpt>
<trkpt lat="48.611406600" lon="9.196886600">
  <ele>369.000000</ele>
<time>2008-06-15T12:46:01Z</time>
  <name>TP2617</name>
</trkpt>
<trkpt lat="48.611416600" lon="9.196821600">
  <ele>368.000000</ele>
<time>2008-06-15T12:46:02Z</time>
  <name>TP2618</name>
</trkpt>
<trkpt lat="48.611436600" lon="9.196741600">
  <ele>366.000000</ele>
<time>2008-06-15T12:46:04Z</time>
  <name>TP2619</name>
</trkpt>
<trkpt lat="48.611460000" lon="9.196661600">
  <ele>366.000000</ele>
<time>2008-06-15T12:46:05Z</time>
  <name>TP2620</name>
</trkpt>
<trkpt lat="48.611464900" lon="9.196619900">
  <ele>364.000000</ele>
<time>2008-06-15T12:46:06Z</time>
  <name>TP2621</name>
</trkpt>
<trkpt lat="48.611458300" lon="9.196598300">
  <ele>363.000000</ele>
<time>2008-06-15T12:46:07Z</time>
  <name>TP2622</name>
</trkpt>
<trkpt lat="48.611479900" lon="9.196563300">
  <ele>363.000000</ele>
<time>2008-06-15T12:46:08Z</time>
  <name>TP2623</name>
</trkpt>
<trkpt lat="48.611486600" lon="9.196498300">
  <ele>362.000000</ele>
<time>2008-06-15T12:46:09Z</time>
  <name>TP2624</name>
</trkpt>
<trkpt lat="48.611484900" lon="9.196441600">
  <ele>362.000000</ele>
<time>2008-06-15T12:46:10Z</time>
  <name>TP2625</name>
</trkpt>
<trkpt lat="48.611481600" lon="9.196329900">
  <ele>361.000000</ele>
<time>2008-06-15T12:46:11Z</time>
  <name>TP2626</name>
</trkpt>
<trkpt lat="48.611468300" lon="9.196273300">
  <ele>360.000000</ele>
<time>2008-06-15T12:46:12Z</time>
  <name>TP2627</name>
</trkpt>
<trkpt lat="48.611466600" lon="9.196203300">
  <ele>360.000000</ele>
<time>2008-06-15T12:46:13Z</time>
  <name>TP2628</name>
</trkpt>
<trkpt lat="48.611443300" lon="9.196088300">
  <ele>359.000000</ele>
<time>2008-06-15T12:46:15Z</time>
  <name>TP2629</name>
</trkpt>
<trkpt lat="48.611484900" lon="9.196003300">
  <ele>358.000000</ele>
<time>2008-06-15T12:46:16Z</time>
  <name>TP2630</name>
</trkpt>
<trkpt lat="48.611466600" lon="9.195976600">
  <ele>358.000000</ele>
<time>2008-06-15T12:46:17Z</time>
  <name>TP2631</name>
</trkpt>
<trkpt lat="48.611469900" lon="9.195935000">
  <ele>358.000000</ele>
<time>2008-06-15T12:46:18Z</time>
  <name>TP2632</name>
</trkpt>
<trkpt lat="48.611460000" lon="9.195904900">
  <ele>358.000000</ele>
<time>2008-06-15T12:46:19Z</time>
  <name>TP2633</name>
</trkpt>
<trkpt lat="48.611464900" lon="9.195859900">
  <ele>357.000000</ele>
<time>2008-06-15T12:46:20Z</time>
  <name>TP2634</name>
</trkpt>
<trkpt lat="48.611505000" lon="9.195766600">
  <ele>356.000000</ele>
<time>2008-06-15T12:46:21Z</time>
  <name>TP2635</name>
</trkpt>
<trkpt lat="48.611523300" lon="9.195639900">
  <ele>355.000000</ele>
<time>2008-06-15T12:46:23Z</time>
  <name>TP2636</name>
</trkpt>
<trkpt lat="48.611469900" lon="9.195618300">
  <ele>354.000000</ele>
<time>2008-06-15T12:46:24Z</time>
  <name>TP2637</name>
</trkpt>
<trkpt lat="48.611458300" lon="9.195581600">
  <ele>353.000000</ele>
<time>2008-06-15T12:46:25Z</time>
  <name>TP2638</name>
</trkpt>
<trkpt lat="48.611448300" lon="9.195550000">
  <ele>353.000000</ele>
<time>2008-06-15T12:46:26Z</time>
  <name>TP2639</name>
</trkpt>
<trkpt lat="48.611433300" lon="9.195521600">
  <ele>353.000000</ele>
<time>2008-06-15T12:46:27Z</time>
  <name>TP2640</name>
</trkpt>
<trkpt lat="48.611408300" lon="9.195464900">
  <ele>353.000000</ele>
<time>2008-06-15T12:46:29Z</time>
  <name>TP2641</name>
</trkpt>
<trkpt lat="48.611398300" lon="9.195433300">
  <ele>353.000000</ele>
<time>2008-06-15T12:46:30Z</time>
  <name>TP2642</name>
</trkpt>
<trkpt lat="48.611394900" lon="9.195393300">
  <ele>353.000000</ele>
<time>2008-06-15T12:46:31Z</time>
  <name>TP2643</name>
</trkpt>
<trkpt lat="48.611344900" lon="9.195336600">
  <ele>352.000000</ele>
<time>2008-06-15T12:46:33Z</time>
  <name>TP2644</name>
</trkpt>
<trkpt lat="48.611323300" lon="9.195323300">
  <ele>352.000000</ele>
<time>2008-06-15T12:46:34Z</time>
  <name>TP2645</name>
</trkpt>
<trkpt lat="48.611293300" lon="9.195318300">
  <ele>352.000000</ele>
<time>2008-06-15T12:46:35Z</time>
  <name>TP2646</name>
</trkpt>
<trkpt lat="48.611254900" lon="9.195308300">
  <ele>352.000000</ele>
<time>2008-06-15T12:46:36Z</time>
  <name>TP2647</name>
</trkpt>
<trkpt lat="48.611248200" lon="9.195276600">
  <ele>352.000000</ele>
<time>2008-06-15T12:46:37Z</time>
  <name>TP2648</name>
</trkpt>
<trkpt lat="48.611236600" lon="9.195259900">
  <ele>352.000000</ele>
<time>2008-06-15T12:46:38Z</time>
  <name>TP2649</name>
</trkpt>
<trkpt lat="48.611266600" lon="9.195193300">
  <ele>352.000000</ele>
<time>2008-06-15T12:46:40Z</time>
  <name>TP2650</name>
</trkpt>
<trkpt lat="48.611291600" lon="9.195158300">
  <ele>352.000000</ele>
<time>2008-06-15T12:46:41Z</time>
  <name>TP2651</name>
</trkpt>
<trkpt lat="48.611268300" lon="9.195095000">
  <ele>352.000000</ele>
<time>2008-06-15T12:46:42Z</time>
  <name>TP2652</name>
</trkpt>
<trkpt lat="48.611233300" lon="9.194994900">
  <ele>351.000000</ele>
<time>2008-06-15T12:46:44Z</time>
  <name>TP2653</name>
</trkpt>
<trkpt lat="48.611250000" lon="9.194943300">
  <ele>351.000000</ele>
<time>2008-06-15T12:46:45Z</time>
  <name>TP2654</name>
</trkpt>
<trkpt lat="48.611246600" lon="9.194918300">
  <ele>351.000000</ele>
<time>2008-06-15T12:46:46Z</time>
  <name>TP2655</name>
</trkpt>
<trkpt lat="48.611233300" lon="9.194896600">
  <ele>351.000000</ele>
<time>2008-06-15T12:46:47Z</time>
  <name>TP2656</name>
</trkpt>
<trkpt lat="48.611196600" lon="9.194838300">
  <ele>351.000000</ele>
<time>2008-06-15T12:46:48Z</time>
  <name>TP2657</name>
</trkpt>
<trkpt lat="48.611178200" lon="9.194809900">
  <ele>352.000000</ele>
<time>2008-06-15T12:46:49Z</time>
  <name>TP2658</name>
</trkpt>
<trkpt lat="48.611148300" lon="9.194771600">
  <ele>352.000000</ele>
<time>2008-06-15T12:46:50Z</time>
  <name>TP2659</name>
</trkpt>
<trkpt lat="48.610966600" lon="9.194623300">
  <ele>351.000000</ele>
<time>2008-06-15T12:46:55Z</time>
  <name>TP2660</name>
</trkpt>
<trkpt lat="48.610923300" lon="9.194576600">
  <ele>351.000000</ele>
<time>2008-06-15T12:46:56Z</time>
  <name>TP2661</name>
</trkpt>
<trkpt lat="48.610885000" lon="9.194533300">
  <ele>351.000000</ele>
<time>2008-06-15T12:46:57Z</time>
  <name>TP2662</name>
</trkpt>
<trkpt lat="48.610868300" lon="9.194475000">
  <ele>351.000000</ele>
<time>2008-06-15T12:46:58Z</time>
  <name>TP2663</name>
</trkpt>
<trkpt lat="48.610901600" lon="9.194394900">
  <ele>350.000000</ele>
<time>2008-06-15T12:46:59Z</time>
  <name>TP2664</name>
</trkpt>
<trkpt lat="48.610896600" lon="9.194341600">
  <ele>350.000000</ele>
<time>2008-06-15T12:47:01Z</time>
  <name>TP2665</name>
</trkpt>
<trkpt lat="48.610883300" lon="9.194313300">
  <ele>350.000000</ele>
<time>2008-06-15T12:47:02Z</time>
  <name>TP2666</name>
</trkpt>
<trkpt lat="48.610830000" lon="9.194205000">
  <ele>350.000000</ele>
<time>2008-06-15T12:47:05Z</time>
  <name>TP2667</name>
</trkpt>
<trkpt lat="48.610818300" lon="9.194164900">
  <ele>349.000000</ele>
<time>2008-06-15T12:47:06Z</time>
  <name>TP2668</name>
</trkpt>
<trkpt lat="48.610808300" lon="9.194123300">
  <ele>349.000000</ele>
<time>2008-06-15T12:47:07Z</time>
  <name>TP2669</name>
</trkpt>
<trkpt lat="48.610773200" lon="9.194094900">
  <ele>349.000000</ele>
<time>2008-06-15T12:47:08Z</time>
  <name>TP2670</name>
</trkpt>
<trkpt lat="48.610696600" lon="9.194013300">
  <ele>348.000000</ele>
<time>2008-06-15T12:47:10Z</time>
  <name>TP2671</name>
</trkpt>
<trkpt lat="48.610656600" lon="9.193946600">
  <ele>348.000000</ele>
<time>2008-06-15T12:47:12Z</time>
  <name>TP2672</name>
</trkpt>
<trkpt lat="48.610616600" lon="9.193876600">
  <ele>348.000000</ele>
<time>2008-06-15T12:47:14Z</time>
  <name>TP2673</name>
</trkpt>
<trkpt lat="48.610705000" lon="9.193700000">
  <ele>347.000000</ele>
<time>2008-06-15T12:47:15Z</time>
  <name>TP2674</name>
</trkpt>
<trkpt lat="48.610690000" lon="9.193679900">
  <ele>347.000000</ele>
<time>2008-06-15T12:47:16Z</time>
  <name>TP2675</name>
</trkpt>
<trkpt lat="48.610644900" lon="9.193653300">
  <ele>347.000000</ele>
<time>2008-06-15T12:47:18Z</time>
  <name>TP2676</name>
</trkpt>
<trkpt lat="48.610591600" lon="9.193638300">
  <ele>347.000000</ele>
<time>2008-06-15T12:47:19Z</time>
  <name>TP2677</name>
</trkpt>
<trkpt lat="48.610551600" lon="9.193608300">
  <ele>347.000000</ele>
<time>2008-06-15T12:47:20Z</time>
  <name>TP2678</name>
</trkpt>
<trkpt lat="48.610521600" lon="9.193566600">
  <ele>346.000000</ele>
<time>2008-06-15T12:47:21Z</time>
  <name>TP2679</name>
</trkpt>
<trkpt lat="48.610481600" lon="9.193525000">
  <ele>346.000000</ele>
<time>2008-06-15T12:47:23Z</time>
  <name>TP2680</name>
</trkpt>
<trkpt lat="48.610465000" lon="9.193504900">
  <ele>346.000000</ele>
<time>2008-06-15T12:47:24Z</time>
  <name>TP2681</name>
</trkpt>
<trkpt lat="48.610428300" lon="9.193459900">
  <ele>346.000000</ele>
<time>2008-06-15T12:47:26Z</time>
  <name>TP2682</name>
</trkpt>
<trkpt lat="48.610358300" lon="9.193421600">
  <ele>346.000000</ele>
<time>2008-06-15T12:47:27Z</time>
  <name>TP2683</name>
</trkpt>
<trkpt lat="48.610248300" lon="9.193381600">
  <ele>346.000000</ele>
<time>2008-06-15T12:47:29Z</time>
  <name>TP2684</name>
</trkpt>
<trkpt lat="48.610228300" lon="9.193346600">
  <ele>346.000000</ele>
<time>2008-06-15T12:47:30Z</time>
  <name>TP2685</name>
</trkpt>
<trkpt lat="48.610193300" lon="9.193286600">
  <ele>346.000000</ele>
<time>2008-06-15T12:47:31Z</time>
  <name>TP2686</name>
</trkpt>
<trkpt lat="48.610134900" lon="9.193228300">
  <ele>345.000000</ele>
<time>2008-06-15T12:47:33Z</time>
  <name>TP2687</name>
</trkpt>
<trkpt lat="48.610111600" lon="9.193201600">
  <ele>345.000000</ele>
<time>2008-06-15T12:47:34Z</time>
  <name>TP2688</name>
</trkpt>
<trkpt lat="48.610091600" lon="9.193173300">
  <ele>345.000000</ele>
<time>2008-06-15T12:47:35Z</time>
  <name>TP2689</name>
</trkpt>
<trkpt lat="48.610068300" lon="9.193146600">
  <ele>345.000000</ele>
<time>2008-06-15T12:47:36Z</time>
  <name>TP2690</name>
</trkpt>
<trkpt lat="48.610041600" lon="9.193106600">
  <ele>345.000000</ele>
<time>2008-06-15T12:47:37Z</time>
  <name>TP2691</name>
</trkpt>
<trkpt lat="48.610009900" lon="9.193084900">
  <ele>345.000000</ele>
<time>2008-06-15T12:47:38Z</time>
  <name>TP2692</name>
</trkpt>
<trkpt lat="48.609949900" lon="9.193038300">
  <ele>345.000000</ele>
<time>2008-06-15T12:47:40Z</time>
  <name>TP2693</name>
</trkpt>
<trkpt lat="48.609909900" lon="9.193026600">
  <ele>345.000000</ele>
<time>2008-06-15T12:47:41Z</time>
  <name>TP2694</name>
</trkpt>
<trkpt lat="48.609874900" lon="9.193011600">
  <ele>345.000000</ele>
<time>2008-06-15T12:47:42Z</time>
  <name>TP2695</name>
</trkpt>
<trkpt lat="48.609818300" lon="9.193006600">
  <ele>345.000000</ele>
<time>2008-06-15T12:47:43Z</time>
  <name>TP2696</name>
</trkpt>
<trkpt lat="48.609786600" lon="9.192985000">
  <ele>344.000000</ele>
<time>2008-06-15T12:47:44Z</time>
  <name>TP2697</name>
</trkpt>
<trkpt lat="48.609778200" lon="9.192948300">
  <ele>344.000000</ele>
<time>2008-06-15T12:47:45Z</time>
  <name>TP2698</name>
</trkpt>
<trkpt lat="48.609754900" lon="9.192933300">
  <ele>344.000000</ele>
<time>2008-06-15T12:47:46Z</time>
  <name>TP2699</name>
</trkpt>
<trkpt lat="48.609696600" lon="9.192888300">
  <ele>344.000000</ele>
<time>2008-06-15T12:47:48Z</time>
  <name>TP2700</name>
</trkpt>
<trkpt lat="48.609673300" lon="9.192863300">
  <ele>345.000000</ele>
<time>2008-06-15T12:47:49Z</time>
  <name>TP2701</name>
</trkpt>
<trkpt lat="48.609649900" lon="9.192853300">
  <ele>345.000000</ele>
<time>2008-06-15T12:47:50Z</time>
  <name>TP2702</name>
</trkpt>
<trkpt lat="48.609610000" lon="9.192846600">
  <ele>345.000000</ele>
<time>2008-06-15T12:47:51Z</time>
  <name>TP2703</name>
</trkpt>
<trkpt lat="48.609436600" lon="9.192835000">
  <ele>345.000000</ele>
<time>2008-06-15T12:47:54Z</time>
  <name>TP2704</name>
</trkpt>
<trkpt lat="48.609408300" lon="9.192786600">
  <ele>345.000000</ele>
<time>2008-06-15T12:47:55Z</time>
  <name>TP2705</name>
</trkpt>
<trkpt lat="48.609381600" lon="9.192756600">
  <ele>345.000000</ele>
<time>2008-06-15T12:47:56Z</time>
  <name>TP2706</name>
</trkpt>
<trkpt lat="48.609366600" lon="9.192661600">
  <ele>344.000000</ele>
<time>2008-06-15T12:47:57Z</time>
  <name>TP2707</name>
</trkpt>
<trkpt lat="48.609303300" lon="9.192635000">
  <ele>344.000000</ele>
<time>2008-06-15T12:47:58Z</time>
  <name>TP2708</name>
</trkpt>
<trkpt lat="48.609291600" lon="9.192603300">
  <ele>344.000000</ele>
<time>2008-06-15T12:47:59Z</time>
  <name>TP2709</name>
</trkpt>
<trkpt lat="48.609276600" lon="9.192578300">
  <ele>344.000000</ele>
<time>2008-06-15T12:48:00Z</time>
  <name>TP2710</name>
</trkpt>
<trkpt lat="48.609223300" lon="9.192548300">
  <ele>342.000000</ele>
<time>2008-06-15T12:48:03Z</time>
  <name>TP2711</name>
</trkpt>
<trkpt lat="48.609181600" lon="9.192546600">
  <ele>342.000000</ele>
<time>2008-06-15T12:48:04Z</time>
  <name>TP2712</name>
</trkpt>
<trkpt lat="48.609081600" lon="9.192538300">
  <ele>342.000000</ele>
<time>2008-06-15T12:48:06Z</time>
  <name>TP2713</name>
</trkpt>
<trkpt lat="48.609041600" lon="9.192551600">
  <ele>342.000000</ele>
<time>2008-06-15T12:48:07Z</time>
  <name>TP2714</name>
</trkpt>
<trkpt lat="48.609013300" lon="9.192544900">
  <ele>342.000000</ele>
<time>2008-06-15T12:48:08Z</time>
  <name>TP2715</name>
</trkpt>
<trkpt lat="48.608983300" lon="9.192526600">
  <ele>342.000000</ele>
<time>2008-06-15T12:48:09Z</time>
  <name>TP2716</name>
</trkpt>
<trkpt lat="48.608934900" lon="9.192508300">
  <ele>342.000000</ele>
<time>2008-06-15T12:48:10Z</time>
  <name>TP2717</name>
</trkpt>
<trkpt lat="48.608834900" lon="9.192483300">
  <ele>342.000000</ele>
<time>2008-06-15T12:48:11Z</time>
  <name>TP2718</name>
</trkpt>
<trkpt lat="48.608806600" lon="9.192448300">
  <ele>342.000000</ele>
<time>2008-06-15T12:48:12Z</time>
  <name>TP2719</name>
</trkpt>
<trkpt lat="48.608773300" lon="9.192436600">
  <ele>341.000000</ele>
<time>2008-06-15T12:48:13Z</time>
  <name>TP2720</name>
</trkpt>
<trkpt lat="48.608494900" lon="9.192345000">
  <ele>341.000000</ele>
<time>2008-06-15T12:48:18Z</time>
  <name>TP2721</name>
</trkpt>
<trkpt lat="48.608443300" lon="9.192299900">
  <ele>340.000000</ele>
<time>2008-06-15T12:48:19Z</time>
  <name>TP2722</name>
</trkpt>
<trkpt lat="48.608416600" lon="9.192233300">
  <ele>341.000000</ele>
<time>2008-06-15T12:48:22Z</time>
  <name>TP2723</name>
</trkpt>
<trkpt lat="48.608394900" lon="9.192221600">
  <ele>340.000000</ele>
<time>2008-06-15T12:48:23Z</time>
  <name>TP2724</name>
</trkpt>
<trkpt lat="48.608376600" lon="9.192211600">
  <ele>340.000000</ele>
<time>2008-06-15T12:48:24Z</time>
  <name>TP2725</name>
</trkpt>
<trkpt lat="48.608303300" lon="9.192155000">
  <ele>339.000000</ele>
<time>2008-06-15T12:48:25Z</time>
  <name>TP2726</name>
</trkpt>
<trkpt lat="48.608338300" lon="9.192076600">
  <ele>339.000000</ele>
<time>2008-06-15T12:48:26Z</time>
  <name>TP2727</name>
</trkpt>
<trkpt lat="48.608329900" lon="9.192026600">
  <ele>339.000000</ele>
<time>2008-06-15T12:48:27Z</time>
  <name>TP2728</name>
</trkpt>
<trkpt lat="48.608314900" lon="9.191984900">
  <ele>339.000000</ele>
<time>2008-06-15T12:48:28Z</time>
  <name>TP2729</name>
</trkpt>
<trkpt lat="48.608286600" lon="9.191879900">
  <ele>339.000000</ele>
<time>2008-06-15T12:48:29Z</time>
  <name>TP2730</name>
</trkpt>
<trkpt lat="48.608243300" lon="9.191816600">
  <ele>339.000000</ele>
<time>2008-06-15T12:48:30Z</time>
  <name>TP2731</name>
</trkpt>
<trkpt lat="48.608174900" lon="9.191801600">
  <ele>339.000000</ele>
<time>2008-06-15T12:48:31Z</time>
  <name>TP2732</name>
</trkpt>
<trkpt lat="48.608019900" lon="9.191830000">
  <ele>338.000000</ele>
<time>2008-06-15T12:48:33Z</time>
  <name>TP2733</name>
</trkpt>
<trkpt lat="48.607991600" lon="9.191799900">
  <ele>337.000000</ele>
<time>2008-06-15T12:48:34Z</time>
  <name>TP2734</name>
</trkpt>
<trkpt lat="48.607974900" lon="9.191766600">
  <ele>337.000000</ele>
<time>2008-06-15T12:48:35Z</time>
  <name>TP2735</name>
</trkpt>
<trkpt lat="48.607959900" lon="9.191733300">
  <ele>337.000000</ele>
<time>2008-06-15T12:48:36Z</time>
  <name>TP2736</name>
</trkpt>
<trkpt lat="48.607936600" lon="9.191688300">
  <ele>337.000000</ele>
<time>2008-06-15T12:48:38Z</time>
  <name>TP2737</name>
</trkpt>
<trkpt lat="48.607913200" lon="9.191663300">
  <ele>336.000000</ele>
<time>2008-06-15T12:48:39Z</time>
  <name>TP2738</name>
</trkpt>
<trkpt lat="48.607908300" lon="9.191631600">
  <ele>337.000000</ele>
<time>2008-06-15T12:48:40Z</time>
  <name>TP2739</name>
</trkpt>
<trkpt lat="48.607900000" lon="9.191603300">
  <ele>337.000000</ele>
<time>2008-06-15T12:48:41Z</time>
  <name>TP2740</name>
</trkpt>
<trkpt lat="48.607884900" lon="9.191558300">
  <ele>337.000000</ele>
<time>2008-06-15T12:48:42Z</time>
  <name>TP2741</name>
</trkpt>
<trkpt lat="48.607881600" lon="9.191523300">
  <ele>337.000000</ele>
<time>2008-06-15T12:48:43Z</time>
  <name>TP2742</name>
</trkpt>
<trkpt lat="48.607866600" lon="9.191458300">
  <ele>337.000000</ele>
<time>2008-06-15T12:48:45Z</time>
  <name>TP2743</name>
</trkpt>
<trkpt lat="48.607869900" lon="9.191420000">
  <ele>337.000000</ele>
<time>2008-06-15T12:48:46Z</time>
  <name>TP2744</name>
</trkpt>
<trkpt lat="48.607878300" lon="9.191378300">
  <ele>337.000000</ele>
<time>2008-06-15T12:48:47Z</time>
  <name>TP2745</name>
</trkpt>
<trkpt lat="48.607901600" lon="9.191298300">
  <ele>338.000000</ele>
<time>2008-06-15T12:48:49Z</time>
  <name>TP2746</name>
</trkpt>
<trkpt lat="48.607924900" lon="9.191221600">
  <ele>338.000000</ele>
<time>2008-06-15T12:48:51Z</time>
  <name>TP2747</name>
</trkpt>
<trkpt lat="48.607936600" lon="9.191173300">
  <ele>337.000000</ele>
<time>2008-06-15T12:48:53Z</time>
  <name>TP2748</name>
</trkpt>
<trkpt lat="48.607931600" lon="9.191161600">
  <ele>338.000000</ele>
<time>2008-06-15T12:48:54Z</time>
  <name>TP2749</name>
</trkpt>
<trkpt lat="48.607941600" lon="9.191143300">
  <ele>338.000000</ele>
<time>2008-06-15T12:48:55Z</time>
  <name>TP2750</name>
</trkpt>
<trkpt lat="48.607949900" lon="9.191118300">
  <ele>338.000000</ele>
<time>2008-06-15T12:48:57Z</time>
  <name>TP2751</name>
</trkpt>
<trkpt lat="48.608001600" lon="9.191018300">
  <ele>338.000000</ele>
<time>2008-06-15T12:49:01Z</time>
  <name>TP2752</name>
</trkpt>
<trkpt lat="48.608004900" lon="9.190973300">
  <ele>338.000000</ele>
<time>2008-06-15T12:49:02Z</time>
  <name>TP2753</name>
</trkpt>
<trkpt lat="48.607978300" lon="9.190926600">
  <ele>339.000000</ele>
<time>2008-06-15T12:49:03Z</time>
  <name>TP2754</name>
</trkpt>
<trkpt lat="48.607949900" lon="9.190871600">
  <ele>339.000000</ele>
<time>2008-06-15T12:49:04Z</time>
  <name>TP2755</name>
</trkpt>
<trkpt lat="48.607923300" lon="9.190841600">
  <ele>340.000000</ele>
<time>2008-06-15T12:49:05Z</time>
  <name>TP2756</name>
</trkpt>
<trkpt lat="48.607968300" lon="9.190789900">
  <ele>340.000000</ele>
<time>2008-06-15T12:49:06Z</time>
  <name>TP2757</name>
</trkpt>
<trkpt lat="48.607961600" lon="9.190746600">
  <ele>340.000000</ele>
<time>2008-06-15T12:49:07Z</time>
  <name>TP2758</name>
</trkpt>
<trkpt lat="48.607974900" lon="9.190660000">
  <ele>340.000000</ele>
<time>2008-06-15T12:49:08Z</time>
  <name>TP2759</name>
</trkpt>
<trkpt lat="48.607938300" lon="9.190558300">
  <ele>341.000000</ele>
<time>2008-06-15T12:49:10Z</time>
  <name>TP2760</name>
</trkpt>
<trkpt lat="48.608016600" lon="9.190411600">
  <ele>341.000000</ele>
<time>2008-06-15T12:49:11Z</time>
  <name>TP2761</name>
</trkpt>
<trkpt lat="48.608040000" lon="9.190258300">
  <ele>341.000000</ele>
<time>2008-06-15T12:49:13Z</time>
  <name>TP2762</name>
</trkpt>
<trkpt lat="48.608006600" lon="9.190231600">
  <ele>341.000000</ele>
<time>2008-06-15T12:49:14Z</time>
  <name>TP2763</name>
</trkpt>
<trkpt lat="48.607983200" lon="9.190201600">
  <ele>341.000000</ele>
<time>2008-06-15T12:49:15Z</time>
  <name>TP2764</name>
</trkpt>
<trkpt lat="48.607964900" lon="9.190213300">
  <ele>341.000000</ele>
<time>2008-06-15T12:49:16Z</time>
  <name>TP2765</name>
</trkpt>
<trkpt lat="48.607945000" lon="9.190196600">
  <ele>341.000000</ele>
<time>2008-06-15T12:49:17Z</time>
  <name>TP2766</name>
</trkpt>
<trkpt lat="48.607909900" lon="9.190191600">
  <ele>342.000000</ele>
<time>2008-06-15T12:49:18Z</time>
  <name>TP2767</name>
</trkpt>
<trkpt lat="48.607896600" lon="9.190163300">
  <ele>342.000000</ele>
<time>2008-06-15T12:49:19Z</time>
  <name>TP2768</name>
</trkpt>
<trkpt lat="48.607858200" lon="9.190116600">
  <ele>342.000000</ele>
<time>2008-06-15T12:49:21Z</time>
  <name>TP2769</name>
</trkpt>
<trkpt lat="48.607798300" lon="9.189994900">
  <ele>342.000000</ele>
<time>2008-06-15T12:49:25Z</time>
  <name>TP2770</name>
</trkpt>
<trkpt lat="48.607788200" lon="9.189901600">
  <ele>342.000000</ele>
<time>2008-06-15T12:49:27Z</time>
  <name>TP2771</name>
</trkpt>
<trkpt lat="48.607791600" lon="9.189848300">
  <ele>342.000000</ele>
<time>2008-06-15T12:49:28Z</time>
  <name>TP2772</name>
</trkpt>
<trkpt lat="48.607783300" lon="9.189813300">
  <ele>342.000000</ele>
<time>2008-06-15T12:49:29Z</time>
  <name>TP2773</name>
</trkpt>
<trkpt lat="48.607781600" lon="9.189623300">
  <ele>341.000000</ele>
<time>2008-06-15T12:49:33Z</time>
  <name>TP2774</name>
</trkpt>
<trkpt lat="48.607778300" lon="9.189421600">
  <ele>342.000000</ele>
<time>2008-06-15T12:49:37Z</time>
  <name>TP2775</name>
</trkpt>
<trkpt lat="48.607769900" lon="9.189381600">
  <ele>342.000000</ele>
<time>2008-06-15T12:49:38Z</time>
  <name>TP2776</name>
</trkpt>
<trkpt lat="48.607753300" lon="9.189346600">
  <ele>341.000000</ele>
<time>2008-06-15T12:49:39Z</time>
  <name>TP2777</name>
</trkpt>
<trkpt lat="48.607738300" lon="9.189311600">
  <ele>341.000000</ele>
<time>2008-06-15T12:49:40Z</time>
  <name>TP2778</name>
</trkpt>
<trkpt lat="48.607684900" lon="9.189205000">
  <ele>342.000000</ele>
<time>2008-06-15T12:49:43Z</time>
  <name>TP2779</name>
</trkpt>
<trkpt lat="48.607668300" lon="9.189068300">
  <ele>342.000000</ele>
<time>2008-06-15T12:49:46Z</time>
  <name>TP2780</name>
</trkpt>
<trkpt lat="48.607643300" lon="9.189004900">
  <ele>342.000000</ele>
<time>2008-06-15T12:49:48Z</time>
  <name>TP2781</name>
</trkpt>
<trkpt lat="48.607583300" lon="9.188871600">
  <ele>342.000000</ele>
<time>2008-06-15T12:49:52Z</time>
  <name>TP2782</name>
</trkpt>
<trkpt lat="48.607531600" lon="9.188768300">
  <ele>342.000000</ele>
<time>2008-06-15T12:49:55Z</time>
  <name>TP2783</name>
</trkpt>
<trkpt lat="48.607474900" lon="9.188663300">
  <ele>342.000000</ele>
<time>2008-06-15T12:49:58Z</time>
  <name>TP2784</name>
</trkpt>
<trkpt lat="48.607446600" lon="9.188636600">
  <ele>342.000000</ele>
<time>2008-06-15T12:49:59Z</time>
  <name>TP2785</name>
</trkpt>
<trkpt lat="48.607376600" lon="9.188505000">
  <ele>342.000000</ele>
<time>2008-06-15T12:50:03Z</time>
  <name>TP2786</name>
</trkpt>
<trkpt lat="48.607326600" lon="9.188445000">
  <ele>342.000000</ele>
<time>2008-06-15T12:50:05Z</time>
  <name>TP2787</name>
</trkpt>
<trkpt lat="48.607198200" lon="9.188216600">
  <ele>342.000000</ele>
<time>2008-06-15T12:50:11Z</time>
  <name>TP2788</name>
</trkpt>
<trkpt lat="48.607094900" lon="9.187998300">
  <ele>342.000000</ele>
<time>2008-06-15T12:50:16Z</time>
  <name>TP2789</name>
</trkpt>
<trkpt lat="48.607018200" lon="9.187833300">
  <ele>343.000000</ele>
<time>2008-06-15T12:50:20Z</time>
  <name>TP2790</name>
</trkpt>
<trkpt lat="48.606913300" lon="9.187609900">
  <ele>343.000000</ele>
<time>2008-06-15T12:50:25Z</time>
  <name>TP2791</name>
</trkpt>
<trkpt lat="48.606714900" lon="9.187273300">
  <ele>343.000000</ele>
<time>2008-06-15T12:50:33Z</time>
  <name>TP2792</name>
</trkpt>
<trkpt lat="48.606716600" lon="9.187221600">
  <ele>343.000000</ele>
<time>2008-06-15T12:50:34Z</time>
  <name>TP2793</name>
</trkpt>
<trkpt lat="48.606699900" lon="9.187201600">
  <ele>343.000000</ele>
<time>2008-06-15T12:50:35Z</time>
  <name>TP2794</name>
</trkpt>
<trkpt lat="48.606671600" lon="9.187111600">
  <ele>343.000000</ele>
<time>2008-06-15T12:50:38Z</time>
  <name>TP2795</name>
</trkpt>
<trkpt lat="48.606644900" lon="9.186839900">
  <ele>344.000000</ele>
<time>2008-06-15T12:50:44Z</time>
  <name>TP2796</name>
</trkpt>
<trkpt lat="48.606636600" lon="9.186676600">
  <ele>344.000000</ele>
<time>2008-06-15T12:50:48Z</time>
  <name>TP2797</name>
</trkpt>
<trkpt lat="48.606625000" lon="9.186599900">
  <ele>344.000000</ele>
<time>2008-06-15T12:50:50Z</time>
  <name>TP2798</name>
</trkpt>
<trkpt lat="48.606618300" lon="9.186571600">
  <ele>344.000000</ele>
<time>2008-06-15T12:50:51Z</time>
  <name>TP2799</name>
</trkpt>
<trkpt lat="48.606619900" lon="9.186531600">
  <ele>344.000000</ele>
<time>2008-06-15T12:50:52Z</time>
  <name>TP2800</name>
</trkpt>
<trkpt lat="48.606608300" lon="9.186498300">
  <ele>344.000000</ele>
<time>2008-06-15T12:50:53Z</time>
  <name>TP2801</name>
</trkpt>
<trkpt lat="48.606589900" lon="9.186461600">
  <ele>344.000000</ele>
<time>2008-06-15T12:50:54Z</time>
  <name>TP2802</name>
</trkpt>
<trkpt lat="48.606561600" lon="9.186258300">
  <ele>343.000000</ele>
<time>2008-06-15T12:51:00Z</time>
  <name>TP2803</name>
</trkpt>
<trkpt lat="48.606559900" lon="9.186161600">
  <ele>343.000000</ele>
<time>2008-06-15T12:51:02Z</time>
  <name>TP2804</name>
</trkpt>
<trkpt lat="48.606563300" lon="9.186010000">
  <ele>343.000000</ele>
<time>2008-06-15T12:51:05Z</time>
  <name>TP2805</name>
</trkpt>
<trkpt lat="48.606549900" lon="9.185971600">
  <ele>343.000000</ele>
<time>2008-06-15T12:51:06Z</time>
  <name>TP2806</name>
</trkpt>
<trkpt lat="48.606523300" lon="9.185843300">
  <ele>343.000000</ele>
<time>2008-06-15T12:51:09Z</time>
  <name>TP2807</name>
</trkpt>
<trkpt lat="48.606486600" lon="9.185730000">
  <ele>343.000000</ele>
<time>2008-06-15T12:51:12Z</time>
  <name>TP2808</name>
</trkpt>
<trkpt lat="48.606488300" lon="9.185676600">
  <ele>343.000000</ele>
<time>2008-06-15T12:51:13Z</time>
  <name>TP2809</name>
</trkpt>
<trkpt lat="48.606471600" lon="9.185660000">
  <ele>344.000000</ele>
<time>2008-06-15T12:51:14Z</time>
  <name>TP2810</name>
</trkpt>
<trkpt lat="48.606456600" lon="9.185638300">
  <ele>344.000000</ele>
<time>2008-06-15T12:51:15Z</time>
  <name>TP2811</name>
</trkpt>
<trkpt lat="48.606464900" lon="9.185559900">
  <ele>344.000000</ele>
<time>2008-06-15T12:51:18Z</time>
  <name>TP2812</name>
</trkpt>
<trkpt lat="48.606483300" lon="9.185526600">
  <ele>345.000000</ele>
<time>2008-06-15T12:51:19Z</time>
  <name>TP2813</name>
</trkpt>
<trkpt lat="48.606481600" lon="9.185476600">
  <ele>345.000000</ele>
<time>2008-06-15T12:51:21Z</time>
  <name>TP2814</name>
</trkpt>
<trkpt lat="48.606485000" lon="9.185431600">
  <ele>345.000000</ele>
<time>2008-06-15T12:51:22Z</time>
  <name>TP2815</name>
</trkpt>
<trkpt lat="48.606479900" lon="9.185301600">
  <ele>345.000000</ele>
<time>2008-06-15T12:51:24Z</time>
  <name>TP2816</name>
</trkpt>
<trkpt lat="48.606486600" lon="9.185106600">
  <ele>346.000000</ele>
<time>2008-06-15T12:51:28Z</time>
  <name>TP2817</name>
</trkpt>
<trkpt lat="48.606491600" lon="9.185028300">
  <ele>345.000000</ele>
<time>2008-06-15T12:51:29Z</time>
  <name>TP2818</name>
</trkpt>
<trkpt lat="48.606526600" lon="9.184989900">
  <ele>346.000000</ele>
<time>2008-06-15T12:51:30Z</time>
  <name>TP2819</name>
</trkpt>
<trkpt lat="48.606568200" lon="9.184925000">
  <ele>345.000000</ele>
<time>2008-06-15T12:51:31Z</time>
  <name>TP2820</name>
</trkpt>
<trkpt lat="48.606588300" lon="9.184903300">
  <ele>345.000000</ele>
<time>2008-06-15T12:51:32Z</time>
  <name>TP2821</name>
</trkpt>
<trkpt lat="48.606603300" lon="9.184859900">
  <ele>345.000000</ele>
<time>2008-06-15T12:51:33Z</time>
  <name>TP2822</name>
</trkpt>
<trkpt lat="48.606609900" lon="9.184841600">
  <ele>343.000000</ele>
<time>2008-06-15T12:51:35Z</time>
  <name>TP2823</name>
</trkpt>
<trkpt lat="48.606613300" lon="9.184859900">
  <ele>344.000000</ele>
<time>2008-06-15T12:51:38Z</time>
  <name>TP2824</name>
</trkpt>
<trkpt lat="48.606596600" lon="9.184866600">
  <ele>345.000000</ele>
<time>2008-06-15T12:51:39Z</time>
  <name>TP2825</name>
</trkpt>
<trkpt lat="48.606573300" lon="9.184851600">
  <ele>345.000000</ele>
<time>2008-06-15T12:51:40Z</time>
  <name>TP2826</name>
</trkpt>
<trkpt lat="48.606571600" lon="9.184834900">
  <ele>346.000000</ele>
<time>2008-06-15T12:51:41Z</time>
  <name>TP2827</name>
</trkpt>
<trkpt lat="48.606601600" lon="9.184796600">
  <ele>346.000000</ele>
<time>2008-06-15T12:51:42Z</time>
  <name>TP2828</name>
</trkpt>
<trkpt lat="48.606594900" lon="9.184789900">
  <ele>346.000000</ele>
<time>2008-06-15T12:51:43Z</time>
  <name>TP2829</name>
</trkpt>
<trkpt lat="48.606573300" lon="9.184771600">
  <ele>346.000000</ele>
<time>2008-06-15T12:51:44Z</time>
  <name>TP2830</name>
</trkpt>
<trkpt lat="48.606555000" lon="9.184719900">
  <ele>346.000000</ele>
<time>2008-06-15T12:51:45Z</time>
  <name>TP2831</name>
</trkpt>
<trkpt lat="48.606546600" lon="9.184674900">
  <ele>346.000000</ele>
<time>2008-06-15T12:51:46Z</time>
  <name>TP2832</name>
</trkpt>
<trkpt lat="48.606536600" lon="9.184568300">
  <ele>346.000000</ele>
<time>2008-06-15T12:51:48Z</time>
  <name>TP2833</name>
</trkpt>
<trkpt lat="48.606539900" lon="9.184461600">
  <ele>346.000000</ele>
<time>2008-06-15T12:51:50Z</time>
  <name>TP2834</name>
</trkpt>
<trkpt lat="48.606530000" lon="9.184319900">
  <ele>346.000000</ele>
<time>2008-06-15T12:51:52Z</time>
  <name>TP2835</name>
</trkpt>
<trkpt lat="48.606504900" lon="9.184194900">
  <ele>346.000000</ele>
<time>2008-06-15T12:51:54Z</time>
  <name>TP2836</name>
</trkpt>
<trkpt lat="48.606454900" lon="9.184045000">
  <ele>346.000000</ele>
<time>2008-06-15T12:51:58Z</time>
  <name>TP2837</name>
</trkpt>
<trkpt lat="48.606396600" lon="9.183918300">
  <ele>346.000000</ele>
<time>2008-06-15T12:52:02Z</time>
  <name>TP2838</name>
</trkpt>
<trkpt lat="48.606375000" lon="9.183896600">
  <ele>346.000000</ele>
<time>2008-06-15T12:52:03Z</time>
  <name>TP2839</name>
</trkpt>
<trkpt lat="48.606354900" lon="9.183824900">
  <ele>347.000000</ele>
<time>2008-06-15T12:52:05Z</time>
  <name>TP2840</name>
</trkpt>
<trkpt lat="48.606323300" lon="9.183773300">
  <ele>347.000000</ele>
<time>2008-06-15T12:52:07Z</time>
  <name>TP2841</name>
</trkpt>
<trkpt lat="48.606273300" lon="9.183716600">
  <ele>347.000000</ele>
<time>2008-06-15T12:52:09Z</time>
  <name>TP2842</name>
</trkpt>
<trkpt lat="48.606264900" lon="9.183678300">
  <ele>347.000000</ele>
<time>2008-06-15T12:52:10Z</time>
  <name>TP2843</name>
</trkpt>
<trkpt lat="48.606228300" lon="9.183568300">
  <ele>347.000000</ele>
<time>2008-06-15T12:52:13Z</time>
  <name>TP2844</name>
</trkpt>
<trkpt lat="48.606153300" lon="9.183251600">
  <ele>347.000000</ele>
<time>2008-06-15T12:52:19Z</time>
  <name>TP2845</name>
</trkpt>
<trkpt lat="48.606168300" lon="9.183153300">
  <ele>347.000000</ele>
<time>2008-06-15T12:52:20Z</time>
  <name>TP2846</name>
</trkpt>
<trkpt lat="48.606173300" lon="9.182955000">
  <ele>347.000000</ele>
<time>2008-06-15T12:52:23Z</time>
  <name>TP2847</name>
</trkpt>
<trkpt lat="48.606141600" lon="9.182736600">
  <ele>347.000000</ele>
<time>2008-06-15T12:52:27Z</time>
  <name>TP2848</name>
</trkpt>
<trkpt lat="48.606109900" lon="9.182696600">
  <ele>347.000000</ele>
<time>2008-06-15T12:52:28Z</time>
  <name>TP2849</name>
</trkpt>
<trkpt lat="48.605963300" lon="9.182303300">
  <ele>348.000000</ele>
<time>2008-06-15T12:52:36Z</time>
  <name>TP2850</name>
</trkpt>
<trkpt lat="48.605859900" lon="9.182176600">
  <ele>348.000000</ele>
<time>2008-06-15T12:52:39Z</time>
  <name>TP2851</name>
</trkpt>
<trkpt lat="48.605759900" lon="9.182026600">
  <ele>349.000000</ele>
<time>2008-06-15T12:52:43Z</time>
  <name>TP2852</name>
</trkpt>
<trkpt lat="48.605656600" lon="9.181833300">
  <ele>349.000000</ele>
<time>2008-06-15T12:52:47Z</time>
  <name>TP2853</name>
</trkpt>
<trkpt lat="48.605590000" lon="9.181628300">
  <ele>350.000000</ele>
<time>2008-06-15T12:52:51Z</time>
  <name>TP2854</name>
</trkpt>
<trkpt lat="48.605573200" lon="9.181578300">
  <ele>350.000000</ele>
<time>2008-06-15T12:52:52Z</time>
  <name>TP2855</name>
</trkpt>
<trkpt lat="48.605543300" lon="9.181540000">
  <ele>350.000000</ele>
<time>2008-06-15T12:52:53Z</time>
  <name>TP2856</name>
</trkpt>
<trkpt lat="48.605469900" lon="9.181293300">
  <ele>350.000000</ele>
<time>2008-06-15T12:52:58Z</time>
  <name>TP2857</name>
</trkpt>
<trkpt lat="48.605403300" lon="9.181134900">
  <ele>350.000000</ele>
<time>2008-06-15T12:53:02Z</time>
  <name>TP2858</name>
</trkpt>
<trkpt lat="48.605368300" lon="9.181101600">
  <ele>351.000000</ele>
<time>2008-06-15T12:53:03Z</time>
  <name>TP2859</name>
</trkpt>
<trkpt lat="48.605259900" lon="9.180994900">
  <ele>351.000000</ele>
<time>2008-06-15T12:53:06Z</time>
  <name>TP2860</name>
</trkpt>
<trkpt lat="48.605196600" lon="9.180896600">
  <ele>351.000000</ele>
<time>2008-06-15T12:53:08Z</time>
  <name>TP2861</name>
</trkpt>
<trkpt lat="48.605089900" lon="9.180774900">
  <ele>351.000000</ele>
<time>2008-06-15T12:53:11Z</time>
  <name>TP2862</name>
</trkpt>
<trkpt lat="48.604786600" lon="9.180256600">
  <ele>351.000000</ele>
<time>2008-06-15T12:53:20Z</time>
  <name>TP2863</name>
</trkpt>
<trkpt lat="48.604733200" lon="9.180044900">
  <ele>351.000000</ele>
<time>2008-06-15T12:53:23Z</time>
  <name>TP2864</name>
</trkpt>
<trkpt lat="48.604689900" lon="9.179950000">
  <ele>351.000000</ele>
<time>2008-06-15T12:53:25Z</time>
  <name>TP2865</name>
</trkpt>
<trkpt lat="48.604666600" lon="9.179793300">
  <ele>351.000000</ele>
<time>2008-06-15T12:53:28Z</time>
  <name>TP2866</name>
</trkpt>
<trkpt lat="48.604654900" lon="9.179703300">
  <ele>351.000000</ele>
<time>2008-06-15T12:53:30Z</time>
  <name>TP2867</name>
</trkpt>
<trkpt lat="48.604663200" lon="9.179586600">
  <ele>351.000000</ele>
<time>2008-06-15T12:53:33Z</time>
  <name>TP2868</name>
</trkpt>
<trkpt lat="48.604648200" lon="9.179474900">
  <ele>351.000000</ele>
<time>2008-06-15T12:53:36Z</time>
  <name>TP2869</name>
</trkpt>
<trkpt lat="48.604641600" lon="9.179343300">
  <ele>352.000000</ele>
<time>2008-06-15T12:53:40Z</time>
  <name>TP2870</name>
</trkpt>
<trkpt lat="48.604650000" lon="9.179303300">
  <ele>352.000000</ele>
<time>2008-06-15T12:53:41Z</time>
  <name>TP2871</name>
</trkpt>
<trkpt lat="48.604643300" lon="9.179263300">
  <ele>352.000000</ele>
<time>2008-06-15T12:53:42Z</time>
  <name>TP2872</name>
</trkpt>
<trkpt lat="48.604633300" lon="9.179095000">
  <ele>352.000000</ele>
<time>2008-06-15T12:53:45Z</time>
  <name>TP2873</name>
</trkpt>
<trkpt lat="48.604666600" lon="9.178876600">
  <ele>352.000000</ele>
<time>2008-06-15T12:53:48Z</time>
  <name>TP2874</name>
</trkpt>
<trkpt lat="48.604681600" lon="9.178698300">
  <ele>352.000000</ele>
<time>2008-06-15T12:53:50Z</time>
  <name>TP2875</name>
</trkpt>
<trkpt lat="48.604658300" lon="9.178564900">
  <ele>352.000000</ele>
<time>2008-06-15T12:53:52Z</time>
  <name>TP2876</name>
</trkpt>
<trkpt lat="48.604611600" lon="9.178328300">
  <ele>353.000000</ele>
<time>2008-06-15T12:53:56Z</time>
  <name>TP2877</name>
</trkpt>
<trkpt lat="48.604610000" lon="9.178288300">
  <ele>353.000000</ele>
<time>2008-06-15T12:53:57Z</time>
  <name>TP2878</name>
</trkpt>
<trkpt lat="48.604599900" lon="9.178269900">
  <ele>354.000000</ele>
<time>2008-06-15T12:53:58Z</time>
  <name>TP2879</name>
</trkpt>
<trkpt lat="48.604599900" lon="9.178205000">
  <ele>354.000000</ele>
<time>2008-06-15T12:54:00Z</time>
  <name>TP2880</name>
</trkpt>
<trkpt lat="48.604595000" lon="9.178123300">
  <ele>354.000000</ele>
<time>2008-06-15T12:54:02Z</time>
  <name>TP2881</name>
</trkpt>
<trkpt lat="48.604583300" lon="9.178084900">
  <ele>354.000000</ele>
<time>2008-06-15T12:54:03Z</time>
  <name>TP2882</name>
</trkpt>
<trkpt lat="48.604586600" lon="9.178019900">
  <ele>354.000000</ele>
<time>2008-06-15T12:54:04Z</time>
  <name>TP2883</name>
</trkpt>
<trkpt lat="48.604596600" lon="9.177939900">
  <ele>355.000000</ele>
<time>2008-06-15T12:54:05Z</time>
  <name>TP2884</name>
</trkpt>
<trkpt lat="48.604601600" lon="9.177764900">
  <ele>355.000000</ele>
<time>2008-06-15T12:54:08Z</time>
  <name>TP2885</name>
</trkpt>
<trkpt lat="48.604626600" lon="9.177721600">
  <ele>355.000000</ele>
<time>2008-06-15T12:54:09Z</time>
  <name>TP2886</name>
</trkpt>
<trkpt lat="48.604648200" lon="9.177668300">
  <ele>355.000000</ele>
<time>2008-06-15T12:54:10Z</time>
  <name>TP2887</name>
</trkpt>
<trkpt lat="48.604720000" lon="9.177431600">
  <ele>356.000000</ele>
<time>2008-06-15T12:54:14Z</time>
  <name>TP2888</name>
</trkpt>
<trkpt lat="48.604743300" lon="9.177366600">
  <ele>356.000000</ele>
<time>2008-06-15T12:54:15Z</time>
  <name>TP2889</name>
</trkpt>
<trkpt lat="48.604798300" lon="9.177216600">
  <ele>356.000000</ele>
<time>2008-06-15T12:54:18Z</time>
  <name>TP2890</name>
</trkpt>
<trkpt lat="48.604809900" lon="9.177103300">
  <ele>357.000000</ele>
<time>2008-06-15T12:54:21Z</time>
  <name>TP2891</name>
</trkpt>
<trkpt lat="48.604821600" lon="9.177068300">
  <ele>357.000000</ele>
<time>2008-06-15T12:54:22Z</time>
  <name>TP2892</name>
</trkpt>
<trkpt lat="48.604860000" lon="9.176919900">
  <ele>358.000000</ele>
<time>2008-06-15T12:54:25Z</time>
  <name>TP2893</name>
</trkpt>
<trkpt lat="48.604919900" lon="9.176794900">
  <ele>359.000000</ele>
<time>2008-06-15T12:54:27Z</time>
  <name>TP2894</name>
</trkpt>
<trkpt lat="48.604951600" lon="9.176740000">
  <ele>359.000000</ele>
<time>2008-06-15T12:54:28Z</time>
  <name>TP2895</name>
</trkpt>
<trkpt lat="48.604994900" lon="9.176621600">
  <ele>360.000000</ele>
<time>2008-06-15T12:54:31Z</time>
  <name>TP2896</name>
</trkpt>
<trkpt lat="48.605043300" lon="9.176463300">
  <ele>361.000000</ele>
<time>2008-06-15T12:54:35Z</time>
  <name>TP2897</name>
</trkpt>
<trkpt lat="48.605091600" lon="9.176311600">
  <ele>361.000000</ele>
<time>2008-06-15T12:54:38Z</time>
  <name>TP2898</name>
</trkpt>
<trkpt lat="48.605156600" lon="9.176106600">
  <ele>362.000000</ele>
<time>2008-06-15T12:54:41Z</time>
  <name>TP2899</name>
</trkpt>
<trkpt lat="48.605189900" lon="9.175988300">
  <ele>362.000000</ele>
<time>2008-06-15T12:54:44Z</time>
  <name>TP2900</name>
</trkpt>
<trkpt lat="48.605233300" lon="9.175861600">
  <ele>363.000000</ele>
<time>2008-06-15T12:54:47Z</time>
  <name>TP2901</name>
</trkpt>
<trkpt lat="48.605276600" lon="9.175693300">
  <ele>363.000000</ele>
<time>2008-06-15T12:54:51Z</time>
  <name>TP2902</name>
</trkpt>
<trkpt lat="48.605271600" lon="9.175609900">
  <ele>363.000000</ele>
<time>2008-06-15T12:54:53Z</time>
  <name>TP2903</name>
</trkpt>
<trkpt lat="48.605265000" lon="9.175561600">
  <ele>363.000000</ele>
<time>2008-06-15T12:54:54Z</time>
  <name>TP2904</name>
</trkpt>
<trkpt lat="48.605253300" lon="9.175514900">
  <ele>363.000000</ele>
<time>2008-06-15T12:54:55Z</time>
  <name>TP2905</name>
</trkpt>
<trkpt lat="48.605255000" lon="9.175441600">
  <ele>364.000000</ele>
<time>2008-06-15T12:54:56Z</time>
  <name>TP2906</name>
</trkpt>
<trkpt lat="48.605248300" lon="9.175360000">
  <ele>364.000000</ele>
<time>2008-06-15T12:54:58Z</time>
  <name>TP2907</name>
</trkpt>
<trkpt lat="48.605240000" lon="9.175323300">
  <ele>364.000000</ele>
<time>2008-06-15T12:54:59Z</time>
  <name>TP2908</name>
</trkpt>
<trkpt lat="48.605236600" lon="9.175241600">
  <ele>364.000000</ele>
<time>2008-06-15T12:55:01Z</time>
  <name>TP2909</name>
</trkpt>
<trkpt lat="48.605225000" lon="9.175080000">
  <ele>365.000000</ele>
<time>2008-06-15T12:55:05Z</time>
  <name>TP2910</name>
</trkpt>
<trkpt lat="48.605241600" lon="9.175003300">
  <ele>365.000000</ele>
<time>2008-06-15T12:55:07Z</time>
  <name>TP2911</name>
</trkpt>
<trkpt lat="48.605236600" lon="9.174909900">
  <ele>366.000000</ele>
<time>2008-06-15T12:55:10Z</time>
  <name>TP2912</name>
</trkpt>
<trkpt lat="48.605236600" lon="9.174835000">
  <ele>366.000000</ele>
<time>2008-06-15T12:55:12Z</time>
  <name>TP2913</name>
</trkpt>
<trkpt lat="48.605228300" lon="9.174731600">
  <ele>367.000000</ele>
<time>2008-06-15T12:55:14Z</time>
  <name>TP2914</name>
</trkpt>
<trkpt lat="48.605208300" lon="9.174573300">
  <ele>367.000000</ele>
<time>2008-06-15T12:55:18Z</time>
  <name>TP2915</name>
</trkpt>
<trkpt lat="48.605199900" lon="9.174546600">
  <ele>368.000000</ele>
<time>2008-06-15T12:55:19Z</time>
  <name>TP2916</name>
</trkpt>
<trkpt lat="48.605188300" lon="9.174516600">
  <ele>368.000000</ele>
<time>2008-06-15T12:55:20Z</time>
  <name>TP2917</name>
</trkpt>
<trkpt lat="48.605174900" lon="9.174489900">
  <ele>368.000000</ele>
<time>2008-06-15T12:55:21Z</time>
  <name>TP2918</name>
</trkpt>
<trkpt lat="48.605156600" lon="9.174460000">
  <ele>368.000000</ele>
<time>2008-06-15T12:55:22Z</time>
  <name>TP2919</name>
</trkpt>
<trkpt lat="48.605159900" lon="9.174403300">
  <ele>368.000000</ele>
<time>2008-06-15T12:55:23Z</time>
  <name>TP2920</name>
</trkpt>
<trkpt lat="48.605163300" lon="9.174298300">
  <ele>369.000000</ele>
<time>2008-06-15T12:55:26Z</time>
  <name>TP2921</name>
</trkpt>
<trkpt lat="48.605155000" lon="9.174223300">
  <ele>369.000000</ele>
<time>2008-06-15T12:55:28Z</time>
  <name>TP2922</name>
</trkpt>
<trkpt lat="48.605198300" lon="9.174108300">
  <ele>370.000000</ele>
<time>2008-06-15T12:55:33Z</time>
  <name>TP2923</name>
</trkpt>
<trkpt lat="48.605231600" lon="9.174011600">
  <ele>370.000000</ele>
<time>2008-06-15T12:55:35Z</time>
  <name>TP2924</name>
</trkpt>
<trkpt lat="48.605238200" lon="9.173938300">
  <ele>370.000000</ele>
<time>2008-06-15T12:55:36Z</time>
  <name>TP2925</name>
</trkpt>
<trkpt lat="48.605231600" lon="9.173896600">
  <ele>371.000000</ele>
<time>2008-06-15T12:55:37Z</time>
  <name>TP2926</name>
</trkpt>
<trkpt lat="48.605258300" lon="9.173808300">
  <ele>371.000000</ele>
<time>2008-06-15T12:55:40Z</time>
  <name>TP2927</name>
</trkpt>
<trkpt lat="48.605268300" lon="9.173729900">
  <ele>371.000000</ele>
<time>2008-06-15T12:55:42Z</time>
  <name>TP2928</name>
</trkpt>
<trkpt lat="48.605293200" lon="9.173596600">
  <ele>371.000000</ele>
<time>2008-06-15T12:55:45Z</time>
  <name>TP2929</name>
</trkpt>
<trkpt lat="48.605310000" lon="9.173539900">
  <ele>371.000000</ele>
<time>2008-06-15T12:55:47Z</time>
  <name>TP2930</name>
</trkpt>
<trkpt lat="48.605329900" lon="9.173473300">
  <ele>371.000000</ele>
<time>2008-06-15T12:55:49Z</time>
  <name>TP2931</name>
</trkpt>
<trkpt lat="48.605389900" lon="9.173213300">
  <ele>371.000000</ele>
<time>2008-06-15T12:55:52Z</time>
  <name>TP2932</name>
</trkpt>
<trkpt lat="48.605393300" lon="9.173141600">
  <ele>371.000000</ele>
<time>2008-06-15T12:55:53Z</time>
  <name>TP2933</name>
</trkpt>
<trkpt lat="48.605399900" lon="9.173100000">
  <ele>371.000000</ele>
<time>2008-06-15T12:55:54Z</time>
  <name>TP2934</name>
</trkpt>
<trkpt lat="48.605395000" lon="9.173068300">
  <ele>371.000000</ele>
<time>2008-06-15T12:55:55Z</time>
  <name>TP2935</name>
</trkpt>
<trkpt lat="48.605391600" lon="9.172886600">
  <ele>371.000000</ele>
<time>2008-06-15T12:55:59Z</time>
  <name>TP2936</name>
</trkpt>
<trkpt lat="48.605374900" lon="9.172846600">
  <ele>371.000000</ele>
<time>2008-06-15T12:56:00Z</time>
  <name>TP2937</name>
</trkpt>
<trkpt lat="48.605359900" lon="9.172806600">
  <ele>371.000000</ele>
<time>2008-06-15T12:56:01Z</time>
  <name>TP2938</name>
</trkpt>
<trkpt lat="48.605319900" lon="9.172753300">
  <ele>371.000000</ele>
<time>2008-06-15T12:56:03Z</time>
  <name>TP2939</name>
</trkpt>
<trkpt lat="48.605310000" lon="9.172699900">
  <ele>371.000000</ele>
<time>2008-06-15T12:56:04Z</time>
  <name>TP2940</name>
</trkpt>
<trkpt lat="48.605293200" lon="9.172573300">
  <ele>371.000000</ele>
<time>2008-06-15T12:56:06Z</time>
  <name>TP2941</name>
</trkpt>
<trkpt lat="48.605293200" lon="9.172491600">
  <ele>371.000000</ele>
<time>2008-06-15T12:56:07Z</time>
  <name>TP2942</name>
</trkpt>
<trkpt lat="48.605301600" lon="9.172425000">
  <ele>371.000000</ele>
<time>2008-06-15T12:56:08Z</time>
  <name>TP2943</name>
</trkpt>
<trkpt lat="48.605283300" lon="9.172295000">
  <ele>371.000000</ele>
<time>2008-06-15T12:56:10Z</time>
  <name>TP2944</name>
</trkpt>
<trkpt lat="48.605214900" lon="9.172073300">
  <ele>370.000000</ele>
<time>2008-06-15T12:56:15Z</time>
  <name>TP2945</name>
</trkpt>
<trkpt lat="48.605170000" lon="9.172000000">
  <ele>370.000000</ele>
<time>2008-06-15T12:56:17Z</time>
  <name>TP2946</name>
</trkpt>
<trkpt lat="48.605134900" lon="9.171916600">
  <ele>370.000000</ele>
<time>2008-06-15T12:56:19Z</time>
  <name>TP2947</name>
</trkpt>
<trkpt lat="48.605100000" lon="9.171828300">
  <ele>370.000000</ele>
<time>2008-06-15T12:56:21Z</time>
  <name>TP2948</name>
</trkpt>
<trkpt lat="48.605041600" lon="9.171698300">
  <ele>370.000000</ele>
<time>2008-06-15T12:56:24Z</time>
  <name>TP2949</name>
</trkpt>
<trkpt lat="48.605018300" lon="9.171663300">
  <ele>370.000000</ele>
<time>2008-06-15T12:56:25Z</time>
  <name>TP2950</name>
</trkpt>
<trkpt lat="48.604968300" lon="9.171476600">
  <ele>369.000000</ele>
<time>2008-06-15T12:56:29Z</time>
  <name>TP2951</name>
</trkpt>
<trkpt lat="48.604949900" lon="9.171326600">
  <ele>368.000000</ele>
<time>2008-06-15T12:56:32Z</time>
  <name>TP2952</name>
</trkpt>
<trkpt lat="48.604856600" lon="9.170834900">
  <ele>367.000000</ele>
<time>2008-06-15T12:56:44Z</time>
  <name>TP2953</name>
</trkpt>
<trkpt lat="48.604853300" lon="9.170751600">
  <ele>367.000000</ele>
<time>2008-06-15T12:56:46Z</time>
  <name>TP2954</name>
</trkpt>
<trkpt lat="48.604833300" lon="9.170633300">
  <ele>368.000000</ele>
<time>2008-06-15T12:56:49Z</time>
  <name>TP2955</name>
</trkpt>
<trkpt lat="48.604805000" lon="9.170524900">
  <ele>368.000000</ele>
<time>2008-06-15T12:56:53Z</time>
  <name>TP2956</name>
</trkpt>
<trkpt lat="48.604794900" lon="9.170498300">
  <ele>368.000000</ele>
<time>2008-06-15T12:56:54Z</time>
  <name>TP2957</name>
</trkpt>
<trkpt lat="48.604776600" lon="9.170464900">
  <ele>367.000000</ele>
<time>2008-06-15T12:56:55Z</time>
  <name>TP2958</name>
</trkpt>
<trkpt lat="48.604758300" lon="9.170441600">
  <ele>367.000000</ele>
<time>2008-06-15T12:56:56Z</time>
  <name>TP2959</name>
</trkpt>
<trkpt lat="48.604750000" lon="9.170403300">
  <ele>367.000000</ele>
<time>2008-06-15T12:56:57Z</time>
  <name>TP2960</name>
</trkpt>
<trkpt lat="48.604741600" lon="9.170340000">
  <ele>366.000000</ele>
<time>2008-06-15T12:56:59Z</time>
  <name>TP2961</name>
</trkpt>
<trkpt lat="48.604729900" lon="9.170270000">
  <ele>366.000000</ele>
<time>2008-06-15T12:57:01Z</time>
  <name>TP2962</name>
</trkpt>
<trkpt lat="48.604723300" lon="9.170210000">
  <ele>365.000000</ele>
<time>2008-06-15T12:57:03Z</time>
  <name>TP2963</name>
</trkpt>
<trkpt lat="48.604716600" lon="9.170068300">
  <ele>365.000000</ele>
<time>2008-06-15T12:57:07Z</time>
  <name>TP2964</name>
</trkpt>
<trkpt lat="48.604714900" lon="9.169949900">
  <ele>365.000000</ele>
<time>2008-06-15T12:57:09Z</time>
  <name>TP2965</name>
</trkpt>
<trkpt lat="48.604723300" lon="9.169896600">
  <ele>365.000000</ele>
<time>2008-06-15T12:57:10Z</time>
  <name>TP2966</name>
</trkpt>
<trkpt lat="48.604724900" lon="9.169844900">
  <ele>365.000000</ele>
<time>2008-06-15T12:57:11Z</time>
  <name>TP2967</name>
</trkpt>
<trkpt lat="48.604713300" lon="9.169794900">
  <ele>365.000000</ele>
<time>2008-06-15T12:57:12Z</time>
  <name>TP2968</name>
</trkpt>
<trkpt lat="48.604688300" lon="9.169695000">
  <ele>364.000000</ele>
<time>2008-06-15T12:57:14Z</time>
  <name>TP2969</name>
</trkpt>
<trkpt lat="48.604680000" lon="9.169656600">
  <ele>364.000000</ele>
<time>2008-06-15T12:57:15Z</time>
  <name>TP2970</name>
</trkpt>
<trkpt lat="48.604668300" lon="9.169619900">
  <ele>364.000000</ele>
<time>2008-06-15T12:57:16Z</time>
  <name>TP2971</name>
</trkpt>
<trkpt lat="48.604683300" lon="9.169558300">
  <ele>364.000000</ele>
<time>2008-06-15T12:57:17Z</time>
  <name>TP2972</name>
</trkpt>
<trkpt lat="48.604671600" lon="9.169391600">
  <ele>364.000000</ele>
<time>2008-06-15T12:57:20Z</time>
  <name>TP2973</name>
</trkpt>
<trkpt lat="48.604656600" lon="9.169338300">
  <ele>365.000000</ele>
<time>2008-06-15T12:57:21Z</time>
  <name>TP2974</name>
</trkpt>
<trkpt lat="48.604635000" lon="9.169240000">
  <ele>365.000000</ele>
<time>2008-06-15T12:57:23Z</time>
  <name>TP2975</name>
</trkpt>
<trkpt lat="48.604638300" lon="9.169141600">
  <ele>365.000000</ele>
<time>2008-06-15T12:57:25Z</time>
  <name>TP2976</name>
</trkpt>
<trkpt lat="48.604653300" lon="9.168910000">
  <ele>366.000000</ele>
<time>2008-06-15T12:57:29Z</time>
  <name>TP2977</name>
</trkpt>
<trkpt lat="48.604653300" lon="9.168806600">
  <ele>366.000000</ele>
<time>2008-06-15T12:57:31Z</time>
  <name>TP2978</name>
</trkpt>
<trkpt lat="48.604661600" lon="9.168723300">
  <ele>366.000000</ele>
<time>2008-06-15T12:57:33Z</time>
  <name>TP2979</name>
</trkpt>
<trkpt lat="48.604659900" lon="9.168613300">
  <ele>366.000000</ele>
<time>2008-06-15T12:57:35Z</time>
  <name>TP2980</name>
</trkpt>
<trkpt lat="48.604666600" lon="9.168576600">
  <ele>367.000000</ele>
<time>2008-06-15T12:57:36Z</time>
  <name>TP2981</name>
</trkpt>
<trkpt lat="48.604680000" lon="9.168375000">
  <ele>367.000000</ele>
<time>2008-06-15T12:57:40Z</time>
  <name>TP2982</name>
</trkpt>
<trkpt lat="48.604684900" lon="9.168336600">
  <ele>367.000000</ele>
<time>2008-06-15T12:57:41Z</time>
  <name>TP2983</name>
</trkpt>
<trkpt lat="48.604691600" lon="9.168306600">
  <ele>367.000000</ele>
<time>2008-06-15T12:57:42Z</time>
  <name>TP2984</name>
</trkpt>
<trkpt lat="48.604708300" lon="9.168210000">
  <ele>368.000000</ele>
<time>2008-06-15T12:57:44Z</time>
  <name>TP2985</name>
</trkpt>
<trkpt lat="48.604743300" lon="9.168070000">
  <ele>368.000000</ele>
<time>2008-06-15T12:57:46Z</time>
  <name>TP2986</name>
</trkpt>
<trkpt lat="48.604764900" lon="9.167956600">
  <ele>368.000000</ele>
<time>2008-06-15T12:57:48Z</time>
  <name>TP2987</name>
</trkpt>
<trkpt lat="48.604793300" lon="9.167861600">
  <ele>368.000000</ele>
<time>2008-06-15T12:57:49Z</time>
  <name>TP2988</name>
</trkpt>
<trkpt lat="48.604858200" lon="9.167574900">
  <ele>368.000000</ele>
<time>2008-06-15T12:57:53Z</time>
  <name>TP2989</name>
</trkpt>
<trkpt lat="48.604883300" lon="9.167506600">
  <ele>368.000000</ele>
<time>2008-06-15T12:57:55Z</time>
  <name>TP2990</name>
</trkpt>
<trkpt lat="48.604881600" lon="9.167469900">
  <ele>368.000000</ele>
<time>2008-06-15T12:57:56Z</time>
  <name>TP2991</name>
</trkpt>
<trkpt lat="48.604899900" lon="9.167423300">
  <ele>368.000000</ele>
<time>2008-06-15T12:57:57Z</time>
  <name>TP2992</name>
</trkpt>
<trkpt lat="48.604913300" lon="9.167380000">
  <ele>368.000000</ele>
<time>2008-06-15T12:57:58Z</time>
  <name>TP2993</name>
</trkpt>
<trkpt lat="48.604919900" lon="9.167304900">
  <ele>368.000000</ele>
<time>2008-06-15T12:58:00Z</time>
  <name>TP2994</name>
</trkpt>
<trkpt lat="48.604908300" lon="9.167260000">
  <ele>368.000000</ele>
<time>2008-06-15T12:58:01Z</time>
  <name>TP2995</name>
</trkpt>
<trkpt lat="48.604918300" lon="9.167226600">
  <ele>368.000000</ele>
<time>2008-06-15T12:58:02Z</time>
  <name>TP2996</name>
</trkpt>
<trkpt lat="48.604924900" lon="9.167208300">
  <ele>368.000000</ele>
<time>2008-06-15T12:58:03Z</time>
  <name>TP2997</name>
</trkpt>
<trkpt lat="48.604931600" lon="9.167173300">
  <ele>368.000000</ele>
<time>2008-06-15T12:58:04Z</time>
  <name>TP2998</name>
</trkpt>
<trkpt lat="48.604958200" lon="9.167083300">
  <ele>368.000000</ele>
<time>2008-06-15T12:58:05Z</time>
  <name>TP2999</name>
</trkpt>
<trkpt lat="48.605023300" lon="9.166936600">
  <ele>369.000000</ele>
<time>2008-06-15T12:58:08Z</time>
  <name>TP3000</name>
</trkpt>
<trkpt lat="48.605226600" lon="9.166344900">
  <ele>368.000000</ele>
<time>2008-06-15T12:58:18Z</time>
  <name>TP3001</name>
</trkpt>
<trkpt lat="48.605240000" lon="9.166334900">
  <ele>368.000000</ele>
<time>2008-06-15T12:58:19Z</time>
  <name>TP3002</name>
</trkpt>
<trkpt lat="48.605249900" lon="9.166323300">
  <ele>368.000000</ele>
<time>2008-06-15T12:58:20Z</time>
  <name>TP3003</name>
</trkpt>
<trkpt lat="48.605231600" lon="9.166296600">
  <ele>368.000000</ele>
<time>2008-06-15T12:58:21Z</time>
  <name>TP3004</name>
</trkpt>
<trkpt lat="48.605255000" lon="9.166020000">
  <ele>368.000000</ele>
<time>2008-06-15T12:58:27Z</time>
  <name>TP3005</name>
</trkpt>
<trkpt lat="48.605249900" lon="9.165973300">
  <ele>368.000000</ele>
<time>2008-06-15T12:58:28Z</time>
  <name>TP3006</name>
</trkpt>
<trkpt lat="48.605283300" lon="9.165818300">
  <ele>369.000000</ele>
<time>2008-06-15T12:58:31Z</time>
  <name>TP3007</name>
</trkpt>
<trkpt lat="48.605314900" lon="9.165489900">
  <ele>369.000000</ele>
<time>2008-06-15T12:58:39Z</time>
  <name>TP3008</name>
</trkpt>
<trkpt lat="48.605319900" lon="9.165458300">
  <ele>369.000000</ele>
<time>2008-06-15T12:58:41Z</time>
  <name>TP3009</name>
</trkpt>
<trkpt lat="48.605328300" lon="9.165398300">
  <ele>369.000000</ele>
<time>2008-06-15T12:58:44Z</time>
  <name>TP3010</name>
</trkpt>
<trkpt lat="48.605318300" lon="9.165261600">
  <ele>369.000000</ele>
<time>2008-06-15T12:58:50Z</time>
  <name>TP3011</name>
</trkpt>
<trkpt lat="48.605299900" lon="9.165191600">
  <ele>369.000000</ele>
<time>2008-06-15T12:58:52Z</time>
  <name>TP3012</name>
</trkpt>
<trkpt lat="48.605291600" lon="9.165180000">
  <ele>369.000000</ele>
<time>2008-06-15T12:58:53Z</time>
  <name>TP3013</name>
</trkpt>
<trkpt lat="48.605274900" lon="9.165136600">
  <ele>370.000000</ele>
<time>2008-06-15T12:58:55Z</time>
  <name>TP3014</name>
</trkpt>
<trkpt lat="48.605258300" lon="9.165096600">
  <ele>370.000000</ele>
<time>2008-06-15T12:58:56Z</time>
  <name>TP3015</name>
</trkpt>
<trkpt lat="48.605246600" lon="9.164996600">
  <ele>370.000000</ele>
<time>2008-06-15T12:58:58Z</time>
  <name>TP3016</name>
</trkpt>
<trkpt lat="48.605240000" lon="9.164931600">
  <ele>371.000000</ele>
<time>2008-06-15T12:59:00Z</time>
  <name>TP3017</name>
</trkpt>
<trkpt lat="48.605246600" lon="9.164861600">
  <ele>371.000000</ele>
<time>2008-06-15T12:59:01Z</time>
  <name>TP3018</name>
</trkpt>
<trkpt lat="48.605253300" lon="9.164828300">
  <ele>371.000000</ele>
<time>2008-06-15T12:59:02Z</time>
  <name>TP3019</name>
</trkpt>
<trkpt lat="48.605243300" lon="9.164789900">
  <ele>371.000000</ele>
<time>2008-06-15T12:59:03Z</time>
  <name>TP3020</name>
</trkpt>
<trkpt lat="48.605249900" lon="9.164489900">
  <ele>370.000000</ele>
<time>2008-06-15T12:59:07Z</time>
  <name>TP3021</name>
</trkpt>
<trkpt lat="48.605240000" lon="9.164403300">
  <ele>370.000000</ele>
<time>2008-06-15T12:59:09Z</time>
  <name>TP3022</name>
</trkpt>
<trkpt lat="48.605241600" lon="9.164353300">
  <ele>370.000000</ele>
<time>2008-06-15T12:59:10Z</time>
  <name>TP3023</name>
</trkpt>
<trkpt lat="48.605214900" lon="9.164233300">
  <ele>370.000000</ele>
<time>2008-06-15T12:59:13Z</time>
  <name>TP3024</name>
</trkpt>
<trkpt lat="48.605126600" lon="9.163866600">
  <ele>370.000000</ele>
<time>2008-06-15T12:59:21Z</time>
  <name>TP3025</name>
</trkpt>
<trkpt lat="48.605103300" lon="9.163838300">
  <ele>370.000000</ele>
<time>2008-06-15T12:59:22Z</time>
  <name>TP3026</name>
</trkpt>
<trkpt lat="48.605079900" lon="9.163778300">
  <ele>370.000000</ele>
<time>2008-06-15T12:59:24Z</time>
  <name>TP3027</name>
</trkpt>
<trkpt lat="48.605039900" lon="9.163688300">
  <ele>370.000000</ele>
<time>2008-06-15T12:59:28Z</time>
  <name>TP3028</name>
</trkpt>
<trkpt lat="48.605039900" lon="9.163646600">
  <ele>370.000000</ele>
<time>2008-06-15T12:59:29Z</time>
  <name>TP3029</name>
</trkpt>
<trkpt lat="48.605041600" lon="9.163624900">
  <ele>370.000000</ele>
<time>2008-06-15T12:59:30Z</time>
  <name>TP3030</name>
</trkpt>
<trkpt lat="48.605039900" lon="9.163603300">
  <ele>370.000000</ele>
<time>2008-06-15T12:59:31Z</time>
  <name>TP3031</name>
</trkpt>
<trkpt lat="48.605030000" lon="9.163548300">
  <ele>370.000000</ele>
<time>2008-06-15T12:59:33Z</time>
  <name>TP3032</name>
</trkpt>
<trkpt lat="48.605028200" lon="9.163511600">
  <ele>370.000000</ele>
<time>2008-06-15T12:59:34Z</time>
  <name>TP3033</name>
</trkpt>
<trkpt lat="48.605030000" lon="9.163458300">
  <ele>370.000000</ele>
<time>2008-06-15T12:59:35Z</time>
  <name>TP3034</name>
</trkpt>
<trkpt lat="48.605006600" lon="9.163213300">
  <ele>370.000000</ele>
<time>2008-06-15T12:59:41Z</time>
  <name>TP3035</name>
</trkpt>
<trkpt lat="48.604953300" lon="9.162873300">
  <ele>370.000000</ele>
<time>2008-06-15T12:59:49Z</time>
  <name>TP3036</name>
</trkpt>
<trkpt lat="48.604948300" lon="9.162841600">
  <ele>370.000000</ele>
<time>2008-06-15T12:59:50Z</time>
  <name>TP3037</name>
</trkpt>
<trkpt lat="48.604933300" lon="9.162784900">
  <ele>370.000000</ele>
<time>2008-06-15T12:59:52Z</time>
  <name>TP3038</name>
</trkpt>
<trkpt lat="48.604924900" lon="9.162756600">
  <ele>370.000000</ele>
<time>2008-06-15T12:59:53Z</time>
  <name>TP3039</name>
</trkpt>
<trkpt lat="48.604896600" lon="9.162599900">
  <ele>370.000000</ele>
<time>2008-06-15T12:59:56Z</time>
  <name>TP3040</name>
</trkpt>
<trkpt lat="48.604884900" lon="9.162549900">
  <ele>370.000000</ele>
<time>2008-06-15T12:59:58Z</time>
  <name>TP3041</name>
</trkpt>
<trkpt lat="48.604898300" lon="9.162481600">
  <ele>369.000000</ele>
<time>2008-06-15T13:00:00Z</time>
  <name>TP3042</name>
</trkpt>
<trkpt lat="48.604899900" lon="9.162418300">
  <ele>369.000000</ele>
<time>2008-06-15T13:00:01Z</time>
  <name>TP3043</name>
</trkpt>
<trkpt lat="48.604928200" lon="9.162346600">
  <ele>369.000000</ele>
<time>2008-06-15T13:00:02Z</time>
  <name>TP3044</name>
</trkpt>
<trkpt lat="48.604939900" lon="9.162283300">
  <ele>369.000000</ele>
<time>2008-06-15T13:00:03Z</time>
  <name>TP3045</name>
</trkpt>
<trkpt lat="48.604958200" lon="9.162226600">
  <ele>368.000000</ele>
<time>2008-06-15T13:00:05Z</time>
  <name>TP3046</name>
</trkpt>
<trkpt lat="48.604976600" lon="9.162123300">
  <ele>368.000000</ele>
<time>2008-06-15T13:00:08Z</time>
  <name>TP3047</name>
</trkpt>
<trkpt lat="48.604994900" lon="9.162084900">
  <ele>367.000000</ele>
<time>2008-06-15T13:00:09Z</time>
  <name>TP3048</name>
</trkpt>
<trkpt lat="48.604976600" lon="9.161830000">
  <ele>368.000000</ele>
<time>2008-06-15T13:00:13Z</time>
  <name>TP3049</name>
</trkpt>
<trkpt lat="48.604966600" lon="9.161795000">
  <ele>368.000000</ele>
<time>2008-06-15T13:00:14Z</time>
  <name>TP3050</name>
</trkpt>
<trkpt lat="48.604979900" lon="9.161754900">
  <ele>368.000000</ele>
<time>2008-06-15T13:00:15Z</time>
  <name>TP3051</name>
</trkpt>
<trkpt lat="48.605006600" lon="9.161629900">
  <ele>367.000000</ele>
<time>2008-06-15T13:00:18Z</time>
  <name>TP3052</name>
</trkpt>
<trkpt lat="48.604993300" lon="9.161581600">
  <ele>367.000000</ele>
<time>2008-06-15T13:00:19Z</time>
  <name>TP3053</name>
</trkpt>
<trkpt lat="48.605019900" lon="9.161569900">
  <ele>367.000000</ele>
<time>2008-06-15T13:00:20Z</time>
  <name>TP3054</name>
</trkpt>
<trkpt lat="48.605030000" lon="9.161506600">
  <ele>368.000000</ele>
<time>2008-06-15T13:00:22Z</time>
  <name>TP3055</name>
</trkpt>
<trkpt lat="48.605026600" lon="9.161471600">
  <ele>368.000000</ele>
<time>2008-06-15T13:00:23Z</time>
  <name>TP3056</name>
</trkpt>
<trkpt lat="48.605016600" lon="9.161439900">
  <ele>368.000000</ele>
<time>2008-06-15T13:00:24Z</time>
  <name>TP3057</name>
</trkpt>
<trkpt lat="48.605024900" lon="9.161410000">
  <ele>368.000000</ele>
<time>2008-06-15T13:00:25Z</time>
  <name>TP3058</name>
</trkpt>
<trkpt lat="48.604994900" lon="9.161189900">
  <ele>368.000000</ele>
<time>2008-06-15T13:00:30Z</time>
  <name>TP3059</name>
</trkpt>
<trkpt lat="48.604986600" lon="9.161086600">
  <ele>368.000000</ele>
<time>2008-06-15T13:00:32Z</time>
  <name>TP3060</name>
</trkpt>
<trkpt lat="48.604989900" lon="9.160966600">
  <ele>369.000000</ele>
<time>2008-06-15T13:00:34Z</time>
  <name>TP3061</name>
</trkpt>
<trkpt lat="48.604983300" lon="9.160724900">
  <ele>368.000000</ele>
<time>2008-06-15T13:00:38Z</time>
  <name>TP3062</name>
</trkpt>
<trkpt lat="48.604996600" lon="9.160548300">
  <ele>368.000000</ele>
<time>2008-06-15T13:00:41Z</time>
  <name>TP3063</name>
</trkpt>
<trkpt lat="48.605021600" lon="9.160411600">
  <ele>368.000000</ele>
<time>2008-06-15T13:00:43Z</time>
  <name>TP3064</name>
</trkpt>
<trkpt lat="48.605018300" lon="9.160355000">
  <ele>368.000000</ele>
<time>2008-06-15T13:00:44Z</time>
  <name>TP3065</name>
</trkpt>
<trkpt lat="48.605013200" lon="9.160299900">
  <ele>369.000000</ele>
<time>2008-06-15T13:00:45Z</time>
  <name>TP3066</name>
</trkpt>
<trkpt lat="48.605024900" lon="9.160263300">
  <ele>369.000000</ele>
<time>2008-06-15T13:00:46Z</time>
  <name>TP3067</name>
</trkpt>
<trkpt lat="48.605036600" lon="9.160176600">
  <ele>369.000000</ele>
<time>2008-06-15T13:00:49Z</time>
  <name>TP3068</name>
</trkpt>
<trkpt lat="48.605046600" lon="9.159989900">
  <ele>369.000000</ele>
<time>2008-06-15T13:00:54Z</time>
  <name>TP3069</name>
</trkpt>
<trkpt lat="48.605096600" lon="9.159656600">
  <ele>369.000000</ele>
<time>2008-06-15T13:00:58Z</time>
  <name>TP3070</name>
</trkpt>
<trkpt lat="48.605119900" lon="9.159578300">
  <ele>368.000000</ele>
<time>2008-06-15T13:01:00Z</time>
  <name>TP3071</name>
</trkpt>
<trkpt lat="48.605126600" lon="9.159526600">
  <ele>368.000000</ele>
<time>2008-06-15T13:01:01Z</time>
  <name>TP3072</name>
</trkpt>
<trkpt lat="48.605158300" lon="9.159364900">
  <ele>368.000000</ele>
<time>2008-06-15T13:01:04Z</time>
  <name>TP3073</name>
</trkpt>
<trkpt lat="48.605166600" lon="9.159311600">
  <ele>368.000000</ele>
<time>2008-06-15T13:01:05Z</time>
  <name>TP3074</name>
</trkpt>
<trkpt lat="48.605189900" lon="9.159221600">
  <ele>368.000000</ele>
<time>2008-06-15T13:01:08Z</time>
  <name>TP3075</name>
</trkpt>
<trkpt lat="48.605291600" lon="9.158836600">
  <ele>368.000000</ele>
<time>2008-06-15T13:01:15Z</time>
  <name>TP3076</name>
</trkpt>
<trkpt lat="48.605296600" lon="9.158781600">
  <ele>368.000000</ele>
<time>2008-06-15T13:01:16Z</time>
  <name>TP3077</name>
</trkpt>
<trkpt lat="48.605299900" lon="9.158740000">
  <ele>368.000000</ele>
<time>2008-06-15T13:01:17Z</time>
  <name>TP3078</name>
</trkpt>
<trkpt lat="48.605331600" lon="9.158591600">
  <ele>368.000000</ele>
<time>2008-06-15T13:01:23Z</time>
  <name>TP3079</name>
</trkpt>
<trkpt lat="48.605339900" lon="9.158569900">
  <ele>368.000000</ele>
<time>2008-06-15T13:01:24Z</time>
  <name>TP3080</name>
</trkpt>
<trkpt lat="48.605346600" lon="9.158479900">
  <ele>368.000000</ele>
<time>2008-06-15T13:01:25Z</time>
  <name>TP3081</name>
</trkpt>
<trkpt lat="48.605350000" lon="9.158409900">
  <ele>368.000000</ele>
<time>2008-06-15T13:01:26Z</time>
  <name>TP3082</name>
</trkpt>
<trkpt lat="48.605346600" lon="9.158380000">
  <ele>368.000000</ele>
<time>2008-06-15T13:01:27Z</time>
  <name>TP3083</name>
</trkpt>
<trkpt lat="48.605363200" lon="9.158226600">
  <ele>369.000000</ele>
<time>2008-06-15T13:01:32Z</time>
  <name>TP3084</name>
</trkpt>
<trkpt lat="48.605386600" lon="9.158161600">
  <ele>369.000000</ele>
<time>2008-06-15T13:01:34Z</time>
  <name>TP3085</name>
</trkpt>
<trkpt lat="48.605421600" lon="9.157996600">
  <ele>368.000000</ele>
<time>2008-06-15T13:01:36Z</time>
  <name>TP3086</name>
</trkpt>
<trkpt lat="48.605433200" lon="9.157888300">
  <ele>368.000000</ele>
<time>2008-06-15T13:01:38Z</time>
  <name>TP3087</name>
</trkpt>
<trkpt lat="48.605454900" lon="9.157774900">
  <ele>368.000000</ele>
<time>2008-06-15T13:01:41Z</time>
  <name>TP3088</name>
</trkpt>
<trkpt lat="48.605465000" lon="9.157713300">
  <ele>368.000000</ele>
<time>2008-06-15T13:01:42Z</time>
  <name>TP3089</name>
</trkpt>
<trkpt lat="48.605476600" lon="9.157668300">
  <ele>368.000000</ele>
<time>2008-06-15T13:01:43Z</time>
  <name>TP3090</name>
</trkpt>
<trkpt lat="48.605491600" lon="9.157598300">
  <ele>368.000000</ele>
<time>2008-06-15T13:01:44Z</time>
  <name>TP3091</name>
</trkpt>
<trkpt lat="48.605505000" lon="9.157528300">
  <ele>368.000000</ele>
<time>2008-06-15T13:01:46Z</time>
  <name>TP3092</name>
</trkpt>
<trkpt lat="48.605513300" lon="9.157491600">
  <ele>368.000000</ele>
<time>2008-06-15T13:01:47Z</time>
  <name>TP3093</name>
</trkpt>
<trkpt lat="48.605518200" lon="9.157455000">
  <ele>368.000000</ele>
<time>2008-06-15T13:01:48Z</time>
  <name>TP3094</name>
</trkpt>
<trkpt lat="48.605528300" lon="9.157398300">
  <ele>368.000000</ele>
<time>2008-06-15T13:01:50Z</time>
  <name>TP3095</name>
</trkpt>
<trkpt lat="48.605535000" lon="9.157373300">
  <ele>368.000000</ele>
<time>2008-06-15T13:01:51Z</time>
  <name>TP3096</name>
</trkpt>
<trkpt lat="48.605541600" lon="9.157294900">
  <ele>369.000000</ele>
<time>2008-06-15T13:01:54Z</time>
  <name>TP3097</name>
</trkpt>
<trkpt lat="48.605551600" lon="9.157244900">
  <ele>369.000000</ele>
<time>2008-06-15T13:01:56Z</time>
  <name>TP3098</name>
</trkpt>
<trkpt lat="48.605560000" lon="9.157209900">
  <ele>369.000000</ele>
<time>2008-06-15T13:01:57Z</time>
  <name>TP3099</name>
</trkpt>
<trkpt lat="48.605584900" lon="9.157115000">
  <ele>369.000000</ele>
<time>2008-06-15T13:02:00Z</time>
  <name>TP3100</name>
</trkpt>
<trkpt lat="48.605648300" lon="9.156963300">
  <ele>369.000000</ele>
<time>2008-06-15T13:02:06Z</time>
  <name>TP3101</name>
</trkpt>
<trkpt lat="48.605653300" lon="9.156908300">
  <ele>369.000000</ele>
<time>2008-06-15T13:02:08Z</time>
  <name>TP3102</name>
</trkpt>
<trkpt lat="48.605676600" lon="9.156816600">
  <ele>369.000000</ele>
<time>2008-06-15T13:02:11Z</time>
  <name>TP3103</name>
</trkpt>
<trkpt lat="48.605703300" lon="9.156728300">
  <ele>369.000000</ele>
<time>2008-06-15T13:02:14Z</time>
  <name>TP3104</name>
</trkpt>
<trkpt lat="48.605743200" lon="9.156635000">
  <ele>369.000000</ele>
<time>2008-06-15T13:02:18Z</time>
  <name>TP3105</name>
</trkpt>
<trkpt lat="48.605746600" lon="9.156611600">
  <ele>369.000000</ele>
<time>2008-06-15T13:02:19Z</time>
  <name>TP3106</name>
</trkpt>
<trkpt lat="48.605748300" lon="9.156586600">
  <ele>369.000000</ele>
<time>2008-06-15T13:02:20Z</time>
  <name>TP3107</name>
</trkpt>
<trkpt lat="48.605773300" lon="9.156491600">
  <ele>369.000000</ele>
<time>2008-06-15T13:02:23Z</time>
  <name>TP3108</name>
</trkpt>
<trkpt lat="48.605783200" lon="9.156468300">
  <ele>369.000000</ele>
<time>2008-06-15T13:02:24Z</time>
  <name>TP3109</name>
</trkpt>
<trkpt lat="48.605801600" lon="9.156428300">
  <ele>369.000000</ele>
<time>2008-06-15T13:02:26Z</time>
  <name>TP3110</name>
</trkpt>
<trkpt lat="48.605808300" lon="9.156414900">
  <ele>369.000000</ele>
<time>2008-06-15T13:02:27Z</time>
  <name>TP3111</name>
</trkpt>
<trkpt lat="48.605813200" lon="9.156404900">
  <ele>369.000000</ele>
<time>2008-06-15T13:02:28Z</time>
  <name>TP3112</name>
</trkpt>
<trkpt lat="48.605819900" lon="9.156388300">
  <ele>369.000000</ele>
<time>2008-06-15T13:02:29Z</time>
  <name>TP3113</name>
</trkpt>
<trkpt lat="48.605833300" lon="9.156384900">
  <ele>369.000000</ele>
<time>2008-06-15T13:02:30Z</time>
  <name>TP3114</name>
</trkpt>
<trkpt lat="48.605843300" lon="9.156384900">
  <ele>369.000000</ele>
<time>2008-06-15T13:02:31Z</time>
  <name>TP3115</name>
</trkpt>
<trkpt lat="48.605864900" lon="9.156346600">
  <ele>369.000000</ele>
<time>2008-06-15T13:02:34Z</time>
  <name>TP3116</name>
</trkpt>
<trkpt lat="48.605871600" lon="9.156330000">
  <ele>369.000000</ele>
<time>2008-06-15T13:02:35Z</time>
  <name>TP3117</name>
</trkpt>
<trkpt lat="48.605886600" lon="9.156293300">
  <ele>369.000000</ele>
<time>2008-06-15T13:02:37Z</time>
  <name>TP3118</name>
</trkpt>
<trkpt lat="48.605925000" lon="9.156190000">
  <ele>369.000000</ele>
<time>2008-06-15T13:02:42Z</time>
  <name>TP3119</name>
</trkpt>
<trkpt lat="48.605931600" lon="9.156166600">
  <ele>369.000000</ele>
<time>2008-06-15T13:02:43Z</time>
  <name>TP3120</name>
</trkpt>
<trkpt lat="48.605933300" lon="9.156138300">
  <ele>370.000000</ele>
<time>2008-06-15T13:02:44Z</time>
  <name>TP3121</name>
</trkpt>
<trkpt lat="48.605934900" lon="9.156036600">
  <ele>370.000000</ele>
<time>2008-06-15T13:02:47Z</time>
  <name>TP3122</name>
</trkpt>
<trkpt lat="48.605925000" lon="9.156003300">
  <ele>370.000000</ele>
<time>2008-06-15T13:02:48Z</time>
  <name>TP3123</name>
</trkpt>
<trkpt lat="48.605933300" lon="9.155939900">
  <ele>371.000000</ele>
<time>2008-06-15T13:02:50Z</time>
  <name>TP3124</name>
</trkpt>
<trkpt lat="48.605925000" lon="9.155920000">
  <ele>371.000000</ele>
<time>2008-06-15T13:02:51Z</time>
  <name>TP3125</name>
</trkpt>
<trkpt lat="48.605925000" lon="9.155889900">
  <ele>371.000000</ele>
<time>2008-06-15T13:02:52Z</time>
  <name>TP3126</name>
</trkpt>
<trkpt lat="48.605921600" lon="9.155843300">
  <ele>372.000000</ele>
<time>2008-06-15T13:02:53Z</time>
  <name>TP3127</name>
</trkpt>
<trkpt lat="48.605866600" lon="9.155666600">
  <ele>372.000000</ele>
<time>2008-06-15T13:02:54Z</time>
  <name>TP3128</name>
</trkpt>
<trkpt lat="48.605811600" lon="9.155580000">
  <ele>372.000000</ele>
<time>2008-06-15T13:02:55Z</time>
  <name>TP3129</name>
</trkpt>
<trkpt lat="48.605791600" lon="9.155475000">
  <ele>371.000000</ele>
<time>2008-06-15T13:02:56Z</time>
  <name>TP3130</name>
</trkpt>
<trkpt lat="48.605823300" lon="9.155328300">
  <ele>370.000000</ele>
<time>2008-06-15T13:02:57Z</time>
  <name>TP3131</name>
</trkpt>
<trkpt lat="48.605821600" lon="9.155231600">
  <ele>369.000000</ele>
<time>2008-06-15T13:02:58Z</time>
  <name>TP3132</name>
</trkpt>
<trkpt lat="48.605811600" lon="9.155141600">
  <ele>368.000000</ele>
<time>2008-06-15T13:02:59Z</time>
  <name>TP3133</name>
</trkpt>
<trkpt lat="48.605788300" lon="9.155065000">
  <ele>367.000000</ele>
<time>2008-06-15T13:03:00Z</time>
  <name>TP3134</name>
</trkpt>
<trkpt lat="48.605743200" lon="9.154921600">
  <ele>365.000000</ele>
<time>2008-06-15T13:03:02Z</time>
  <name>TP3135</name>
</trkpt>
<trkpt lat="48.605728200" lon="9.154841600">
  <ele>364.000000</ele>
<time>2008-06-15T13:03:03Z</time>
  <name>TP3136</name>
</trkpt>
<trkpt lat="48.605715000" lon="9.154761600">
  <ele>364.000000</ele>
<time>2008-06-15T13:03:04Z</time>
  <name>TP3137</name>
</trkpt>
<trkpt lat="48.605700000" lon="9.154681600">
  <ele>363.000000</ele>
<time>2008-06-15T13:03:05Z</time>
  <name>TP3138</name>
</trkpt>
<trkpt lat="48.605588200" lon="9.154288300">
  <ele>360.000000</ele>
<time>2008-06-15T13:03:11Z</time>
  <name>TP3139</name>
</trkpt>
<trkpt lat="48.605543300" lon="9.154171600">
  <ele>360.000000</ele>
<time>2008-06-15T13:03:13Z</time>
  <name>TP3140</name>
</trkpt>
<trkpt lat="48.605491600" lon="9.154066600">
  <ele>360.000000</ele>
<time>2008-06-15T13:03:15Z</time>
  <name>TP3141</name>
</trkpt>
<trkpt lat="48.605453300" lon="9.154001600">
  <ele>360.000000</ele>
<time>2008-06-15T13:03:17Z</time>
  <name>TP3142</name>
</trkpt>
<trkpt lat="48.605438300" lon="9.153991600">
  <ele>360.000000</ele>
<time>2008-06-15T13:03:18Z</time>
  <name>TP3143</name>
</trkpt>
<trkpt lat="48.605369900" lon="9.153874900">
  <ele>359.000000</ele>
<time>2008-06-15T13:03:21Z</time>
  <name>TP3144</name>
</trkpt>
<trkpt lat="48.605353300" lon="9.153828300">
  <ele>358.000000</ele>
<time>2008-06-15T13:03:22Z</time>
  <name>TP3145</name>
</trkpt>
<trkpt lat="48.605311600" lon="9.153761600">
  <ele>358.000000</ele>
<time>2008-06-15T13:03:24Z</time>
  <name>TP3146</name>
</trkpt>
<trkpt lat="48.605280000" lon="9.153661600">
  <ele>358.000000</ele>
<time>2008-06-15T13:03:26Z</time>
  <name>TP3147</name>
</trkpt>
<trkpt lat="48.605261600" lon="9.153619900">
  <ele>358.000000</ele>
<time>2008-06-15T13:03:27Z</time>
  <name>TP3148</name>
</trkpt>
<trkpt lat="48.605240000" lon="9.153573300">
  <ele>358.000000</ele>
<time>2008-06-15T13:03:28Z</time>
  <name>TP3149</name>
</trkpt>
<trkpt lat="48.605225000" lon="9.153545000">
  <ele>358.000000</ele>
<time>2008-06-15T13:03:29Z</time>
  <name>TP3150</name>
</trkpt>
<trkpt lat="48.605216600" lon="9.153339900">
  <ele>358.000000</ele>
<time>2008-06-15T13:03:32Z</time>
  <name>TP3151</name>
</trkpt>
<trkpt lat="48.605193300" lon="9.153314900">
  <ele>358.000000</ele>
<time>2008-06-15T13:03:33Z</time>
  <name>TP3152</name>
</trkpt>
<trkpt lat="48.605178300" lon="9.153241600">
  <ele>358.000000</ele>
<time>2008-06-15T13:03:34Z</time>
  <name>TP3153</name>
</trkpt>
<trkpt lat="48.605179900" lon="9.153196600">
  <ele>358.000000</ele>
<time>2008-06-15T13:03:35Z</time>
  <name>TP3154</name>
</trkpt>
<trkpt lat="48.605164900" lon="9.153145000">
  <ele>359.000000</ele>
<time>2008-06-15T13:03:36Z</time>
  <name>TP3155</name>
</trkpt>
<trkpt lat="48.605155000" lon="9.153096600">
  <ele>359.000000</ele>
<time>2008-06-15T13:03:37Z</time>
  <name>TP3156</name>
</trkpt>
<trkpt lat="48.605134900" lon="9.153014900">
  <ele>359.000000</ele>
<time>2008-06-15T13:03:39Z</time>
  <name>TP3157</name>
</trkpt>
<trkpt lat="48.605111600" lon="9.152841600">
  <ele>359.000000</ele>
<time>2008-06-15T13:03:43Z</time>
  <name>TP3158</name>
</trkpt>
<trkpt lat="48.605121600" lon="9.152786600">
  <ele>359.000000</ele>
<time>2008-06-15T13:03:44Z</time>
  <name>TP3159</name>
</trkpt>
<trkpt lat="48.605123300" lon="9.152738300">
  <ele>360.000000</ele>
<time>2008-06-15T13:03:45Z</time>
  <name>TP3160</name>
</trkpt>
<trkpt lat="48.605146600" lon="9.152701600">
  <ele>360.000000</ele>
<time>2008-06-15T13:03:46Z</time>
  <name>TP3161</name>
</trkpt>
<trkpt lat="48.605163300" lon="9.152628300">
  <ele>361.000000</ele>
<time>2008-06-15T13:03:48Z</time>
  <name>TP3162</name>
</trkpt>
<trkpt lat="48.605151600" lon="9.152568300">
  <ele>361.000000</ele>
<time>2008-06-15T13:03:49Z</time>
  <name>TP3163</name>
</trkpt>
<trkpt lat="48.605134900" lon="9.152526600">
  <ele>361.000000</ele>
<time>2008-06-15T13:03:50Z</time>
  <name>TP3164</name>
</trkpt>
<trkpt lat="48.605118300" lon="9.152481600">
  <ele>362.000000</ele>
<time>2008-06-15T13:03:51Z</time>
  <name>TP3165</name>
</trkpt>
<trkpt lat="48.605109900" lon="9.152436600">
  <ele>362.000000</ele>
<time>2008-06-15T13:03:52Z</time>
  <name>TP3166</name>
</trkpt>
<trkpt lat="48.605083200" lon="9.152393300">
  <ele>362.000000</ele>
<time>2008-06-15T13:03:53Z</time>
  <name>TP3167</name>
</trkpt>
<trkpt lat="48.605046600" lon="9.152021600">
  <ele>361.000000</ele>
<time>2008-06-15T13:03:56Z</time>
  <name>TP3168</name>
</trkpt>
<trkpt lat="48.605106600" lon="9.151944900">
  <ele>360.000000</ele>
<time>2008-06-15T13:03:57Z</time>
  <name>TP3169</name>
</trkpt>
<trkpt lat="48.605121600" lon="9.151886600">
  <ele>360.000000</ele>
<time>2008-06-15T13:03:58Z</time>
  <name>TP3170</name>
</trkpt>
<trkpt lat="48.605106600" lon="9.151848300">
  <ele>360.000000</ele>
<time>2008-06-15T13:03:59Z</time>
  <name>TP3171</name>
</trkpt>
<trkpt lat="48.605094900" lon="9.151809900">
  <ele>360.000000</ele>
<time>2008-06-15T13:04:01Z</time>
  <name>TP3172</name>
</trkpt>
<trkpt lat="48.605066600" lon="9.151803300">
  <ele>359.000000</ele>
<time>2008-06-15T13:04:02Z</time>
  <name>TP3173</name>
</trkpt>
<trkpt lat="48.605008300" lon="9.151803300">
  <ele>360.000000</ele>
<time>2008-06-15T13:04:03Z</time>
  <name>TP3174</name>
</trkpt>
<trkpt lat="48.604911600" lon="9.151763300">
  <ele>361.000000</ele>
<time>2008-06-15T13:04:05Z</time>
  <name>TP3175</name>
</trkpt>
<trkpt lat="48.604903300" lon="9.151716600">
  <ele>361.000000</ele>
<time>2008-06-15T13:04:06Z</time>
  <name>TP3176</name>
</trkpt>
<trkpt lat="48.604896600" lon="9.151691600">
  <ele>361.000000</ele>
<time>2008-06-15T13:04:08Z</time>
  <name>TP3177</name>
</trkpt>
<trkpt lat="48.604876600" lon="9.151714900">
  <ele>361.000000</ele>
<time>2008-06-15T13:04:09Z</time>
  <name>TP3178</name>
</trkpt>
<trkpt lat="48.604894900" lon="9.151660000">
  <ele>361.000000</ele>
<time>2008-06-15T13:04:10Z</time>
  <name>TP3179</name>
</trkpt>
<trkpt lat="48.604893300" lon="9.151621600">
  <ele>361.000000</ele>
<time>2008-06-15T13:04:11Z</time>
  <name>TP3180</name>
</trkpt>
<trkpt lat="48.604869900" lon="9.151609900">
  <ele>361.000000</ele>
<time>2008-06-15T13:04:12Z</time>
  <name>TP3181</name>
</trkpt>
<trkpt lat="48.604851600" lon="9.151593300">
  <ele>361.000000</ele>
<time>2008-06-15T13:04:13Z</time>
  <name>TP3182</name>
</trkpt>
<trkpt lat="48.604820000" lon="9.151548300">
  <ele>362.000000</ele>
<time>2008-06-15T13:04:15Z</time>
  <name>TP3183</name>
</trkpt>
<trkpt lat="48.604793300" lon="9.151523300">
  <ele>363.000000</ele>
<time>2008-06-15T13:04:16Z</time>
  <name>TP3184</name>
</trkpt>
<trkpt lat="48.604759900" lon="9.151508300">
  <ele>363.000000</ele>
<time>2008-06-15T13:04:17Z</time>
  <name>TP3185</name>
</trkpt>
<trkpt lat="48.604716600" lon="9.151443300">
  <ele>363.000000</ele>
<time>2008-06-15T13:04:18Z</time>
  <name>TP3186</name>
</trkpt>
<trkpt lat="48.604684900" lon="9.151374900">
  <ele>363.000000</ele>
<time>2008-06-15T13:04:19Z</time>
  <name>TP3187</name>
</trkpt>
<trkpt lat="48.604681600" lon="9.151269900">
  <ele>362.000000</ele>
<time>2008-06-15T13:04:21Z</time>
  <name>TP3188</name>
</trkpt>
<trkpt lat="48.604678300" lon="9.151221600">
  <ele>362.000000</ele>
<time>2008-06-15T13:04:22Z</time>
  <name>TP3189</name>
</trkpt>
<trkpt lat="48.604650000" lon="9.151138300">
  <ele>363.000000</ele>
<time>2008-06-15T13:04:24Z</time>
  <name>TP3190</name>
</trkpt>
<trkpt lat="48.604628300" lon="9.151096600">
  <ele>363.000000</ele>
<time>2008-06-15T13:04:25Z</time>
  <name>TP3191</name>
</trkpt>
<trkpt lat="48.604613300" lon="9.151066600">
  <ele>363.000000</ele>
<time>2008-06-15T13:04:26Z</time>
  <name>TP3192</name>
</trkpt>
<trkpt lat="48.604586600" lon="9.150986600">
  <ele>363.000000</ele>
<time>2008-06-15T13:04:28Z</time>
  <name>TP3193</name>
</trkpt>
<trkpt lat="48.604603300" lon="9.150893300">
  <ele>363.000000</ele>
<time>2008-06-15T13:04:29Z</time>
  <name>TP3194</name>
</trkpt>
<trkpt lat="48.604601600" lon="9.150838300">
  <ele>362.000000</ele>
<time>2008-06-15T13:04:30Z</time>
  <name>TP3195</name>
</trkpt>
<trkpt lat="48.604591600" lon="9.150801600">
  <ele>362.000000</ele>
<time>2008-06-15T13:04:31Z</time>
  <name>TP3196</name>
</trkpt>
<trkpt lat="48.604566600" lon="9.150776600">
  <ele>362.000000</ele>
<time>2008-06-15T13:04:32Z</time>
  <name>TP3197</name>
</trkpt>
<trkpt lat="48.604563300" lon="9.150714900">
  <ele>362.000000</ele>
<time>2008-06-15T13:04:33Z</time>
  <name>TP3198</name>
</trkpt>
<trkpt lat="48.604548300" lon="9.150671600">
  <ele>362.000000</ele>
<time>2008-06-15T13:04:34Z</time>
  <name>TP3199</name>
</trkpt>
<trkpt lat="48.604516600" lon="9.150624900">
  <ele>361.000000</ele>
<time>2008-06-15T13:04:35Z</time>
  <name>TP3200</name>
</trkpt>
<trkpt lat="48.604511600" lon="9.150595000">
  <ele>361.000000</ele>
<time>2008-06-15T13:04:36Z</time>
  <name>TP3201</name>
</trkpt>
<trkpt lat="48.604489900" lon="9.150563300">
  <ele>361.000000</ele>
<time>2008-06-15T13:04:37Z</time>
  <name>TP3202</name>
</trkpt>
<trkpt lat="48.604483300" lon="9.150536600">
  <ele>361.000000</ele>
<time>2008-06-15T13:04:38Z</time>
  <name>TP3203</name>
</trkpt>
<trkpt lat="48.604458300" lon="9.150493300">
  <ele>362.000000</ele>
<time>2008-06-15T13:04:39Z</time>
  <name>TP3204</name>
</trkpt>
<trkpt lat="48.604463300" lon="9.150430000">
  <ele>362.000000</ele>
<time>2008-06-15T13:04:40Z</time>
  <name>TP3205</name>
</trkpt>
<trkpt lat="48.604423300" lon="9.150385000">
  <ele>363.000000</ele>
<time>2008-06-15T13:04:42Z</time>
  <name>TP3206</name>
</trkpt>
<trkpt lat="48.604408300" lon="9.150339900">
  <ele>363.000000</ele>
<time>2008-06-15T13:04:43Z</time>
  <name>TP3207</name>
</trkpt>
<trkpt lat="48.604404900" lon="9.150271600">
  <ele>363.000000</ele>
<time>2008-06-15T13:04:45Z</time>
  <name>TP3208</name>
</trkpt>
<trkpt lat="48.604385000" lon="9.150228300">
  <ele>364.000000</ele>
<time>2008-06-15T13:04:46Z</time>
  <name>TP3209</name>
</trkpt>
<trkpt lat="48.604364900" lon="9.150206600">
  <ele>364.000000</ele>
<time>2008-06-15T13:04:47Z</time>
  <name>TP3210</name>
</trkpt>
<trkpt lat="48.604355000" lon="9.150168300">
  <ele>364.000000</ele>
<time>2008-06-15T13:04:48Z</time>
  <name>TP3211</name>
</trkpt>
<trkpt lat="48.604341600" lon="9.150153300">
  <ele>365.000000</ele>
<time>2008-06-15T13:04:49Z</time>
  <name>TP3212</name>
</trkpt>
<trkpt lat="48.604319900" lon="9.150143300">
  <ele>365.000000</ele>
<time>2008-06-15T13:04:50Z</time>
  <name>TP3213</name>
</trkpt>
<trkpt lat="48.604291600" lon="9.150124900">
  <ele>365.000000</ele>
<time>2008-06-15T13:04:51Z</time>
  <name>TP3214</name>
</trkpt>
<trkpt lat="48.604276600" lon="9.150106600">
  <ele>365.000000</ele>
<time>2008-06-15T13:04:52Z</time>
  <name>TP3215</name>
</trkpt>
<trkpt lat="48.604274900" lon="9.150058300">
  <ele>365.000000</ele>
<time>2008-06-15T13:04:53Z</time>
  <name>TP3216</name>
</trkpt>
<trkpt lat="48.604330000" lon="9.149816600">
  <ele>365.000000</ele>
<time>2008-06-15T13:04:54Z</time>
  <name>TP3217</name>
</trkpt>
<trkpt lat="48.604318300" lon="9.149779900">
  <ele>365.000000</ele>
<time>2008-06-15T13:04:55Z</time>
  <name>TP3218</name>
</trkpt>
<trkpt lat="48.604304900" lon="9.149749900">
  <ele>365.000000</ele>
<time>2008-06-15T13:04:56Z</time>
  <name>TP3219</name>
</trkpt>
<trkpt lat="48.604283300" lon="9.149731600">
  <ele>365.000000</ele>
<time>2008-06-15T13:04:57Z</time>
  <name>TP3220</name>
</trkpt>
<trkpt lat="48.604271600" lon="9.149678300">
  <ele>365.000000</ele>
<time>2008-06-15T13:04:59Z</time>
  <name>TP3221</name>
</trkpt>
<trkpt lat="48.604285000" lon="9.149651600">
  <ele>365.000000</ele>
<time>2008-06-15T13:05:01Z</time>
  <name>TP3222</name>
</trkpt>
<trkpt lat="48.604260000" lon="9.149649900">
  <ele>365.000000</ele>
<time>2008-06-15T13:05:02Z</time>
  <name>TP3223</name>
</trkpt>
<trkpt lat="48.604243200" lon="9.149635000">
  <ele>365.000000</ele>
<time>2008-06-15T13:05:03Z</time>
  <name>TP3224</name>
</trkpt>
<trkpt lat="48.604224900" lon="9.149499900">
  <ele>367.000000</ele>
<time>2008-06-15T13:05:05Z</time>
  <name>TP3225</name>
</trkpt>
<trkpt lat="48.604204900" lon="9.149438300">
  <ele>367.000000</ele>
<time>2008-06-15T13:05:06Z</time>
  <name>TP3226</name>
</trkpt>
<trkpt lat="48.604191600" lon="9.149363300">
  <ele>368.000000</ele>
<time>2008-06-15T13:05:07Z</time>
  <name>TP3227</name>
</trkpt>
<trkpt lat="48.604184900" lon="9.149313300">
  <ele>368.000000</ele>
<time>2008-06-15T13:05:08Z</time>
  <name>TP3228</name>
</trkpt>
<trkpt lat="48.604176600" lon="9.149268300">
  <ele>368.000000</ele>
<time>2008-06-15T13:05:09Z</time>
  <name>TP3229</name>
</trkpt>
<trkpt lat="48.604169900" lon="9.149225000">
  <ele>369.000000</ele>
<time>2008-06-15T13:05:10Z</time>
  <name>TP3230</name>
</trkpt>
<trkpt lat="48.604148300" lon="9.149019900">
  <ele>370.000000</ele>
<time>2008-06-15T13:05:14Z</time>
  <name>TP3231</name>
</trkpt>
<trkpt lat="48.604139900" lon="9.148973300">
  <ele>370.000000</ele>
<time>2008-06-15T13:05:15Z</time>
  <name>TP3232</name>
</trkpt>
<trkpt lat="48.604136600" lon="9.148929900">
  <ele>369.000000</ele>
<time>2008-06-15T13:05:16Z</time>
  <name>TP3233</name>
</trkpt>
<trkpt lat="48.604124900" lon="9.148906600">
  <ele>369.000000</ele>
<time>2008-06-15T13:05:17Z</time>
  <name>TP3234</name>
</trkpt>
<trkpt lat="48.604109900" lon="9.148886600">
  <ele>369.000000</ele>
<time>2008-06-15T13:05:18Z</time>
  <name>TP3235</name>
</trkpt>
<trkpt lat="48.604099900" lon="9.148854900">
  <ele>370.000000</ele>
<time>2008-06-15T13:05:19Z</time>
  <name>TP3236</name>
</trkpt>
<trkpt lat="48.604079900" lon="9.148754900">
  <ele>370.000000</ele>
<time>2008-06-15T13:05:21Z</time>
  <name>TP3237</name>
</trkpt>
<trkpt lat="48.604061600" lon="9.148716600">
  <ele>370.000000</ele>
<time>2008-06-15T13:05:22Z</time>
  <name>TP3238</name>
</trkpt>
<trkpt lat="48.604060000" lon="9.148646600">
  <ele>370.000000</ele>
<time>2008-06-15T13:05:23Z</time>
  <name>TP3239</name>
</trkpt>
<trkpt lat="48.604039900" lon="9.148529900">
  <ele>370.000000</ele>
<time>2008-06-15T13:05:25Z</time>
  <name>TP3240</name>
</trkpt>
<trkpt lat="48.604044900" lon="9.148468300">
  <ele>370.000000</ele>
<time>2008-06-15T13:05:26Z</time>
  <name>TP3241</name>
</trkpt>
<trkpt lat="48.604026600" lon="9.148409900">
  <ele>370.000000</ele>
<time>2008-06-15T13:05:27Z</time>
  <name>TP3242</name>
</trkpt>
<trkpt lat="48.604005000" lon="9.148363300">
  <ele>370.000000</ele>
<time>2008-06-15T13:05:28Z</time>
  <name>TP3243</name>
</trkpt>
<trkpt lat="48.603984900" lon="9.148313300">
  <ele>370.000000</ele>
<time>2008-06-15T13:05:29Z</time>
  <name>TP3244</name>
</trkpt>
<trkpt lat="48.603968300" lon="9.148273300">
  <ele>370.000000</ele>
<time>2008-06-15T13:05:30Z</time>
  <name>TP3245</name>
</trkpt>
<trkpt lat="48.603966600" lon="9.148214900">
  <ele>370.000000</ele>
<time>2008-06-15T13:05:31Z</time>
  <name>TP3246</name>
</trkpt>
<trkpt lat="48.603951600" lon="9.148161600">
  <ele>370.000000</ele>
<time>2008-06-15T13:05:32Z</time>
  <name>TP3247</name>
</trkpt>
<trkpt lat="48.603961600" lon="9.148104900">
  <ele>370.000000</ele>
<time>2008-06-15T13:05:33Z</time>
  <name>TP3248</name>
</trkpt>
<trkpt lat="48.603978300" lon="9.148008300">
  <ele>369.000000</ele>
<time>2008-06-15T13:05:34Z</time>
  <name>TP3249</name>
</trkpt>
<trkpt lat="48.603950000" lon="9.147906600">
  <ele>369.000000</ele>
<time>2008-06-15T13:05:36Z</time>
  <name>TP3250</name>
</trkpt>
<trkpt lat="48.603935000" lon="9.147818300">
  <ele>367.000000</ele>
<time>2008-06-15T13:05:37Z</time>
  <name>TP3251</name>
</trkpt>
<trkpt lat="48.603899900" lon="9.147789900">
  <ele>367.000000</ele>
<time>2008-06-15T13:05:38Z</time>
  <name>TP3252</name>
</trkpt>
<trkpt lat="48.603888300" lon="9.147731600">
  <ele>366.000000</ele>
<time>2008-06-15T13:05:39Z</time>
  <name>TP3253</name>
</trkpt>
<trkpt lat="48.603878200" lon="9.147698300">
  <ele>366.000000</ele>
<time>2008-06-15T13:05:40Z</time>
  <name>TP3254</name>
</trkpt>
<trkpt lat="48.603854900" lon="9.147671600">
  <ele>366.000000</ele>
<time>2008-06-15T13:05:41Z</time>
  <name>TP3255</name>
</trkpt>
<trkpt lat="48.603841600" lon="9.147635000">
  <ele>366.000000</ele>
<time>2008-06-15T13:05:43Z</time>
  <name>TP3256</name>
</trkpt>
<trkpt lat="48.603841600" lon="9.147603300">
  <ele>366.000000</ele>
<time>2008-06-15T13:05:44Z</time>
  <name>TP3257</name>
</trkpt>
<trkpt lat="48.603836600" lon="9.147588300">
  <ele>366.000000</ele>
<time>2008-06-15T13:05:45Z</time>
  <name>TP3258</name>
</trkpt>
<trkpt lat="48.603833300" lon="9.147556600">
  <ele>366.000000</ele>
<time>2008-06-15T13:05:47Z</time>
  <name>TP3259</name>
</trkpt>
<trkpt lat="48.603814900" lon="9.147530000">
  <ele>367.000000</ele>
<time>2008-06-15T13:05:48Z</time>
  <name>TP3260</name>
</trkpt>
<trkpt lat="48.603791600" lon="9.147516600">
  <ele>367.000000</ele>
<time>2008-06-15T13:05:49Z</time>
  <name>TP3261</name>
</trkpt>
<trkpt lat="48.603783300" lon="9.147495000">
  <ele>367.000000</ele>
<time>2008-06-15T13:05:50Z</time>
  <name>TP3262</name>
</trkpt>
<trkpt lat="48.603774900" lon="9.147396600">
  <ele>368.000000</ele>
<time>2008-06-15T13:05:51Z</time>
  <name>TP3263</name>
</trkpt>
<trkpt lat="48.603759900" lon="9.147308300">
  <ele>368.000000</ele>
<time>2008-06-15T13:05:52Z</time>
  <name>TP3264</name>
</trkpt>
<trkpt lat="48.603758300" lon="9.147254900">
  <ele>369.000000</ele>
<time>2008-06-15T13:05:53Z</time>
  <name>TP3265</name>
</trkpt>
<trkpt lat="48.603736600" lon="9.147155000">
  <ele>369.000000</ele>
<time>2008-06-15T13:05:55Z</time>
  <name>TP3266</name>
</trkpt>
<trkpt lat="48.603726600" lon="9.147124900">
  <ele>369.000000</ele>
<time>2008-06-15T13:05:56Z</time>
  <name>TP3267</name>
</trkpt>
<trkpt lat="48.603714900" lon="9.147073300">
  <ele>369.000000</ele>
<time>2008-06-15T13:05:57Z</time>
  <name>TP3268</name>
</trkpt>
<trkpt lat="48.603686600" lon="9.146976600">
  <ele>370.000000</ele>
<time>2008-06-15T13:05:59Z</time>
  <name>TP3269</name>
</trkpt>
<trkpt lat="48.603668200" lon="9.146948300">
  <ele>370.000000</ele>
<time>2008-06-15T13:06:00Z</time>
  <name>TP3270</name>
</trkpt>
<trkpt lat="48.603648300" lon="9.146920000">
  <ele>371.000000</ele>
<time>2008-06-15T13:06:01Z</time>
  <name>TP3271</name>
</trkpt>
<trkpt lat="48.603631600" lon="9.146906600">
  <ele>371.000000</ele>
<time>2008-06-15T13:06:02Z</time>
  <name>TP3272</name>
</trkpt>
<trkpt lat="48.603598200" lon="9.146813300">
  <ele>371.000000</ele>
<time>2008-06-15T13:06:04Z</time>
  <name>TP3273</name>
</trkpt>
<trkpt lat="48.603585000" lon="9.146761600">
  <ele>372.000000</ele>
<time>2008-06-15T13:06:05Z</time>
  <name>TP3274</name>
</trkpt>
<trkpt lat="48.603570000" lon="9.146726600">
  <ele>372.000000</ele>
<time>2008-06-15T13:06:06Z</time>
  <name>TP3275</name>
</trkpt>
<trkpt lat="48.603564900" lon="9.146676600">
  <ele>373.000000</ele>
<time>2008-06-15T13:06:07Z</time>
  <name>TP3276</name>
</trkpt>
<trkpt lat="48.603564900" lon="9.146616600">
  <ele>373.000000</ele>
<time>2008-06-15T13:06:08Z</time>
  <name>TP3277</name>
</trkpt>
<trkpt lat="48.603570000" lon="9.146508300">
  <ele>373.000000</ele>
<time>2008-06-15T13:06:09Z</time>
  <name>TP3278</name>
</trkpt>
<trkpt lat="48.603636600" lon="9.146230000">
  <ele>370.000000</ele>
<time>2008-06-15T13:06:10Z</time>
  <name>TP3279</name>
</trkpt>
<trkpt lat="48.603640000" lon="9.146079900">
  <ele>369.000000</ele>
<time>2008-06-15T13:06:12Z</time>
  <name>TP3280</name>
</trkpt>
<trkpt lat="48.603628300" lon="9.146041600">
  <ele>369.000000</ele>
<time>2008-06-15T13:06:13Z</time>
  <name>TP3281</name>
</trkpt>
<trkpt lat="48.603638300" lon="9.145964900">
  <ele>368.000000</ele>
<time>2008-06-15T13:06:14Z</time>
  <name>TP3282</name>
</trkpt>
<trkpt lat="48.603640000" lon="9.145925000">
  <ele>368.000000</ele>
<time>2008-06-15T13:06:15Z</time>
  <name>TP3283</name>
</trkpt>
<trkpt lat="48.603601600" lon="9.145818300">
  <ele>367.000000</ele>
<time>2008-06-15T13:06:18Z</time>
  <name>TP3284</name>
</trkpt>
<trkpt lat="48.603586600" lon="9.145783300">
  <ele>367.000000</ele>
<time>2008-06-15T13:06:19Z</time>
  <name>TP3285</name>
</trkpt>
<trkpt lat="48.603553300" lon="9.145746600">
  <ele>367.000000</ele>
<time>2008-06-15T13:06:20Z</time>
  <name>TP3286</name>
</trkpt>
<trkpt lat="48.603534900" lon="9.145674900">
  <ele>366.000000</ele>
<time>2008-06-15T13:06:21Z</time>
  <name>TP3287</name>
</trkpt>
<trkpt lat="48.603504900" lon="9.145629900">
  <ele>366.000000</ele>
<time>2008-06-15T13:06:22Z</time>
  <name>TP3288</name>
</trkpt>
<trkpt lat="48.603479900" lon="9.145581600">
  <ele>365.000000</ele>
<time>2008-06-15T13:06:23Z</time>
  <name>TP3289</name>
</trkpt>
<trkpt lat="48.603396600" lon="9.145371600">
  <ele>363.000000</ele>
<time>2008-06-15T13:06:27Z</time>
  <name>TP3290</name>
</trkpt>
<trkpt lat="48.603378300" lon="9.145330000">
  <ele>363.000000</ele>
<time>2008-06-15T13:06:28Z</time>
  <name>TP3291</name>
</trkpt>
<trkpt lat="48.603368300" lon="9.145283300">
  <ele>363.000000</ele>
<time>2008-06-15T13:06:29Z</time>
  <name>TP3292</name>
</trkpt>
<trkpt lat="48.603320000" lon="9.145171600">
  <ele>362.000000</ele>
<time>2008-06-15T13:06:32Z</time>
  <name>TP3293</name>
</trkpt>
<trkpt lat="48.603299900" lon="9.145140000">
  <ele>363.000000</ele>
<time>2008-06-15T13:06:33Z</time>
  <name>TP3294</name>
</trkpt>
<trkpt lat="48.603251600" lon="9.145033300">
  <ele>363.000000</ele>
<time>2008-06-15T13:06:36Z</time>
  <name>TP3295</name>
</trkpt>
<trkpt lat="48.603231600" lon="9.144948300">
  <ele>363.000000</ele>
<time>2008-06-15T13:06:38Z</time>
  <name>TP3296</name>
</trkpt>
<trkpt lat="48.603233200" lon="9.144828300">
  <ele>362.000000</ele>
<time>2008-06-15T13:06:40Z</time>
  <name>TP3297</name>
</trkpt>
<trkpt lat="48.603223300" lon="9.144788300">
  <ele>362.000000</ele>
<time>2008-06-15T13:06:41Z</time>
  <name>TP3298</name>
</trkpt>
<trkpt lat="48.603223300" lon="9.144644900">
  <ele>362.000000</ele>
<time>2008-06-15T13:06:44Z</time>
  <name>TP3299</name>
</trkpt>
<trkpt lat="48.603203300" lon="9.144558300">
  <ele>362.000000</ele>
<time>2008-06-15T13:06:46Z</time>
  <name>TP3300</name>
</trkpt>
<trkpt lat="48.603213300" lon="9.144498300">
  <ele>361.000000</ele>
<time>2008-06-15T13:06:47Z</time>
  <name>TP3301</name>
</trkpt>
<trkpt lat="48.603180000" lon="9.144458300">
  <ele>361.000000</ele>
<time>2008-06-15T13:06:48Z</time>
  <name>TP3302</name>
</trkpt>
<trkpt lat="48.603159900" lon="9.144405000">
  <ele>361.000000</ele>
<time>2008-06-15T13:06:49Z</time>
  <name>TP3303</name>
</trkpt>
<trkpt lat="48.603196600" lon="9.144349900">
  <ele>361.000000</ele>
<time>2008-06-15T13:06:50Z</time>
  <name>TP3304</name>
</trkpt>
<trkpt lat="48.603163200" lon="9.144318300">
  <ele>361.000000</ele>
<time>2008-06-15T13:06:51Z</time>
  <name>TP3305</name>
</trkpt>
<trkpt lat="48.603144900" lon="9.144281600">
  <ele>360.000000</ele>
<time>2008-06-15T13:06:52Z</time>
  <name>TP3306</name>
</trkpt>
<trkpt lat="48.603119900" lon="9.144215000">
  <ele>360.000000</ele>
<time>2008-06-15T13:06:54Z</time>
  <name>TP3307</name>
</trkpt>
<trkpt lat="48.603093200" lon="9.144089900">
  <ele>360.000000</ele>
<time>2008-06-15T13:06:57Z</time>
  <name>TP3308</name>
</trkpt>
<trkpt lat="48.603131600" lon="9.144044900">
  <ele>360.000000</ele>
<time>2008-06-15T13:06:58Z</time>
  <name>TP3309</name>
</trkpt>
<trkpt lat="48.603126600" lon="9.144023300">
  <ele>360.000000</ele>
<time>2008-06-15T13:06:59Z</time>
  <name>TP3310</name>
</trkpt>
<trkpt lat="48.603111600" lon="9.143995000">
  <ele>360.000000</ele>
<time>2008-06-15T13:07:00Z</time>
  <name>TP3311</name>
</trkpt>
<trkpt lat="48.603098300" lon="9.143960000">
  <ele>360.000000</ele>
<time>2008-06-15T13:07:01Z</time>
  <name>TP3312</name>
</trkpt>
<trkpt lat="48.603093200" lon="9.143925000">
  <ele>360.000000</ele>
<time>2008-06-15T13:07:02Z</time>
  <name>TP3313</name>
</trkpt>
<trkpt lat="48.603110000" lon="9.143818300">
  <ele>360.000000</ele>
<time>2008-06-15T13:07:04Z</time>
  <name>TP3314</name>
</trkpt>
<trkpt lat="48.603116600" lon="9.143768300">
  <ele>360.000000</ele>
<time>2008-06-15T13:07:05Z</time>
  <name>TP3315</name>
</trkpt>
<trkpt lat="48.603084900" lon="9.143741600">
  <ele>361.000000</ele>
<time>2008-06-15T13:07:06Z</time>
  <name>TP3316</name>
</trkpt>
<trkpt lat="48.603065000" lon="9.143706600">
  <ele>361.000000</ele>
<time>2008-06-15T13:07:07Z</time>
  <name>TP3317</name>
</trkpt>
<trkpt lat="48.603033300" lon="9.143679900">
  <ele>360.000000</ele>
<time>2008-06-15T13:07:08Z</time>
  <name>TP3318</name>
</trkpt>
<trkpt lat="48.602991600" lon="9.143663300">
  <ele>360.000000</ele>
<time>2008-06-15T13:07:09Z</time>
  <name>TP3319</name>
</trkpt>
<trkpt lat="48.602959900" lon="9.143634900">
  <ele>360.000000</ele>
<time>2008-06-15T13:07:10Z</time>
  <name>TP3320</name>
</trkpt>
<trkpt lat="48.602928300" lon="9.143613300">
  <ele>360.000000</ele>
<time>2008-06-15T13:07:11Z</time>
  <name>TP3321</name>
</trkpt>
<trkpt lat="48.602916600" lon="9.143556600">
  <ele>360.000000</ele>
<time>2008-06-15T13:07:12Z</time>
  <name>TP3322</name>
</trkpt>
<trkpt lat="48.602959900" lon="9.143443300">
  <ele>361.000000</ele>
<time>2008-06-15T13:07:14Z</time>
  <name>TP3323</name>
</trkpt>
<trkpt lat="48.602958300" lon="9.143389900">
  <ele>361.000000</ele>
<time>2008-06-15T13:07:15Z</time>
  <name>TP3324</name>
</trkpt>
<trkpt lat="48.602944900" lon="9.143348300">
  <ele>361.000000</ele>
<time>2008-06-15T13:07:16Z</time>
  <name>TP3325</name>
</trkpt>
<trkpt lat="48.602928300" lon="9.143321600">
  <ele>361.000000</ele>
<time>2008-06-15T13:07:17Z</time>
  <name>TP3326</name>
</trkpt>
<trkpt lat="48.602909900" lon="9.143281600">
  <ele>361.000000</ele>
<time>2008-06-15T13:07:18Z</time>
  <name>TP3327</name>
</trkpt>
<trkpt lat="48.602885000" lon="9.143235000">
  <ele>362.000000</ele>
<time>2008-06-15T13:07:20Z</time>
  <name>TP3328</name>
</trkpt>
<trkpt lat="48.602891600" lon="9.143196600">
  <ele>362.000000</ele>
<time>2008-06-15T13:07:21Z</time>
  <name>TP3329</name>
</trkpt>
<trkpt lat="48.602909900" lon="9.143105000">
  <ele>362.000000</ele>
<time>2008-06-15T13:07:23Z</time>
  <name>TP3330</name>
</trkpt>
<trkpt lat="48.602909900" lon="9.143073300">
  <ele>362.000000</ele>
<time>2008-06-15T13:07:24Z</time>
  <name>TP3331</name>
</trkpt>
<trkpt lat="48.602918300" lon="9.143039900">
  <ele>362.000000</ele>
<time>2008-06-15T13:07:25Z</time>
  <name>TP3332</name>
</trkpt>
<trkpt lat="48.602913300" lon="9.142993300">
  <ele>363.000000</ele>
<time>2008-06-15T13:07:26Z</time>
  <name>TP3333</name>
</trkpt>
<trkpt lat="48.602894900" lon="9.142969900">
  <ele>363.000000</ele>
<time>2008-06-15T13:07:27Z</time>
  <name>TP3334</name>
</trkpt>
<trkpt lat="48.602894900" lon="9.142916600">
  <ele>363.000000</ele>
<time>2008-06-15T13:07:29Z</time>
  <name>TP3335</name>
</trkpt>
<trkpt lat="48.602903300" lon="9.142881600">
  <ele>363.000000</ele>
<time>2008-06-15T13:07:30Z</time>
  <name>TP3336</name>
</trkpt>
<trkpt lat="48.602908300" lon="9.142851600">
  <ele>363.000000</ele>
<time>2008-06-15T13:07:31Z</time>
  <name>TP3337</name>
</trkpt>
<trkpt lat="48.602903300" lon="9.142821600">
  <ele>363.000000</ele>
<time>2008-06-15T13:07:32Z</time>
  <name>TP3338</name>
</trkpt>
<trkpt lat="48.602906600" lon="9.142788300">
  <ele>363.000000</ele>
<time>2008-06-15T13:07:33Z</time>
  <name>TP3339</name>
</trkpt>
<trkpt lat="48.602911600" lon="9.142756600">
  <ele>363.000000</ele>
<time>2008-06-15T13:07:34Z</time>
  <name>TP3340</name>
</trkpt>
<trkpt lat="48.602914900" lon="9.142721600">
  <ele>362.000000</ele>
<time>2008-06-15T13:07:35Z</time>
  <name>TP3341</name>
</trkpt>
<trkpt lat="48.602934900" lon="9.142681600">
  <ele>363.000000</ele>
<time>2008-06-15T13:07:36Z</time>
  <name>TP3342</name>
</trkpt>
<trkpt lat="48.602925000" lon="9.142646600">
  <ele>362.000000</ele>
<time>2008-06-15T13:07:37Z</time>
  <name>TP3343</name>
</trkpt>
<trkpt lat="48.602914900" lon="9.142613300">
  <ele>363.000000</ele>
<time>2008-06-15T13:07:38Z</time>
  <name>TP3344</name>
</trkpt>
<trkpt lat="48.602909900" lon="9.142598300">
  <ele>363.000000</ele>
<time>2008-06-15T13:07:39Z</time>
  <name>TP3345</name>
</trkpt>
<trkpt lat="48.602888300" lon="9.142586600">
  <ele>364.000000</ele>
<time>2008-06-15T13:07:43Z</time>
  <name>TP3346</name>
</trkpt>
<trkpt lat="48.602870000" lon="9.142583300">
  <ele>364.000000</ele>
<time>2008-06-15T13:07:44Z</time>
  <name>TP3347</name>
</trkpt>
<trkpt lat="48.602855000" lon="9.142568300">
  <ele>364.000000</ele>
<time>2008-06-15T13:07:45Z</time>
  <name>TP3348</name>
</trkpt>
<trkpt lat="48.602866600" lon="9.142513300">
  <ele>364.000000</ele>
<time>2008-06-15T13:07:46Z</time>
  <name>TP3349</name>
</trkpt>
<trkpt lat="48.602883200" lon="9.142448300">
  <ele>365.000000</ele>
<time>2008-06-15T13:07:47Z</time>
  <name>TP3350</name>
</trkpt>
<trkpt lat="48.602900000" lon="9.142391600">
  <ele>365.000000</ele>
<time>2008-06-15T13:07:48Z</time>
  <name>TP3351</name>
</trkpt>
<trkpt lat="48.602885000" lon="9.142349900">
  <ele>364.000000</ele>
<time>2008-06-15T13:07:49Z</time>
  <name>TP3352</name>
</trkpt>
<trkpt lat="48.602888300" lon="9.142281600">
  <ele>364.000000</ele>
<time>2008-06-15T13:07:50Z</time>
  <name>TP3353</name>
</trkpt>
<trkpt lat="48.602885000" lon="9.142231600">
  <ele>363.000000</ele>
<time>2008-06-15T13:07:51Z</time>
  <name>TP3354</name>
</trkpt>
<trkpt lat="48.602876600" lon="9.142146600">
  <ele>362.000000</ele>
<time>2008-06-15T13:07:53Z</time>
  <name>TP3355</name>
</trkpt>
<trkpt lat="48.602870000" lon="9.142113300">
  <ele>362.000000</ele>
<time>2008-06-15T13:07:54Z</time>
  <name>TP3356</name>
</trkpt>
<trkpt lat="48.602859900" lon="9.142086600">
  <ele>362.000000</ele>
<time>2008-06-15T13:07:55Z</time>
  <name>TP3357</name>
</trkpt>
<trkpt lat="48.602856600" lon="9.142054900">
  <ele>362.000000</ele>
<time>2008-06-15T13:07:56Z</time>
  <name>TP3358</name>
</trkpt>
<trkpt lat="48.602863300" lon="9.142019900">
  <ele>361.000000</ele>
<time>2008-06-15T13:07:57Z</time>
  <name>TP3359</name>
</trkpt>
<trkpt lat="48.602871600" lon="9.141981600">
  <ele>361.000000</ele>
<time>2008-06-15T13:07:58Z</time>
  <name>TP3360</name>
</trkpt>
<trkpt lat="48.602870000" lon="9.141956600">
  <ele>361.000000</ele>
<time>2008-06-15T13:07:59Z</time>
  <name>TP3361</name>
</trkpt>
<trkpt lat="48.602868200" lon="9.141931600">
  <ele>361.000000</ele>
<time>2008-06-15T13:08:00Z</time>
  <name>TP3362</name>
</trkpt>
<trkpt lat="48.602849900" lon="9.141906600">
  <ele>360.000000</ele>
<time>2008-06-15T13:08:01Z</time>
  <name>TP3363</name>
</trkpt>
<trkpt lat="48.602843300" lon="9.141876600">
  <ele>360.000000</ele>
<time>2008-06-15T13:08:02Z</time>
  <name>TP3364</name>
</trkpt>
<trkpt lat="48.602818300" lon="9.141795000">
  <ele>360.000000</ele>
<time>2008-06-15T13:08:04Z</time>
  <name>TP3365</name>
</trkpt>
<trkpt lat="48.602794900" lon="9.141748300">
  <ele>360.000000</ele>
<time>2008-06-15T13:08:05Z</time>
  <name>TP3366</name>
</trkpt>
<trkpt lat="48.602779900" lon="9.141714900">
  <ele>360.000000</ele>
<time>2008-06-15T13:08:06Z</time>
  <name>TP3367</name>
</trkpt>
<trkpt lat="48.602738300" lon="9.141673300">
  <ele>359.000000</ele>
<time>2008-06-15T13:08:07Z</time>
  <name>TP3368</name>
</trkpt>
<trkpt lat="48.602708300" lon="9.141641600">
  <ele>359.000000</ele>
<time>2008-06-15T13:08:08Z</time>
  <name>TP3369</name>
</trkpt>
<trkpt lat="48.602686600" lon="9.141609900">
  <ele>359.000000</ele>
<time>2008-06-15T13:08:09Z</time>
  <name>TP3370</name>
</trkpt>
<trkpt lat="48.602654900" lon="9.141566600">
  <ele>359.000000</ele>
<time>2008-06-15T13:08:10Z</time>
  <name>TP3371</name>
</trkpt>
<trkpt lat="48.602626600" lon="9.141536600">
  <ele>359.000000</ele>
<time>2008-06-15T13:08:11Z</time>
  <name>TP3372</name>
</trkpt>
<trkpt lat="48.602605000" lon="9.141509900">
  <ele>359.000000</ele>
<time>2008-06-15T13:08:12Z</time>
  <name>TP3373</name>
</trkpt>
<trkpt lat="48.602566600" lon="9.141443300">
  <ele>358.000000</ele>
<time>2008-06-15T13:08:14Z</time>
  <name>TP3374</name>
</trkpt>
<trkpt lat="48.602543300" lon="9.141369900">
  <ele>358.000000</ele>
<time>2008-06-15T13:08:16Z</time>
  <name>TP3375</name>
</trkpt>
<trkpt lat="48.602535000" lon="9.141328300">
  <ele>358.000000</ele>
<time>2008-06-15T13:08:17Z</time>
  <name>TP3376</name>
</trkpt>
<trkpt lat="48.602524900" lon="9.141293300">
  <ele>357.000000</ele>
<time>2008-06-15T13:08:18Z</time>
  <name>TP3377</name>
</trkpt>
<trkpt lat="48.602539900" lon="9.141256600">
  <ele>358.000000</ele>
<time>2008-06-15T13:08:19Z</time>
  <name>TP3378</name>
</trkpt>
<trkpt lat="48.602526600" lon="9.141241600">
  <ele>358.000000</ele>
<time>2008-06-15T13:08:20Z</time>
  <name>TP3379</name>
</trkpt>
<trkpt lat="48.602520000" lon="9.141223300">
  <ele>358.000000</ele>
<time>2008-06-15T13:08:21Z</time>
  <name>TP3380</name>
</trkpt>
<trkpt lat="48.602521600" lon="9.141191600">
  <ele>358.000000</ele>
<time>2008-06-15T13:08:22Z</time>
  <name>TP3381</name>
</trkpt>
<trkpt lat="48.602516600" lon="9.141153300">
  <ele>358.000000</ele>
<time>2008-06-15T13:08:23Z</time>
  <name>TP3382</name>
</trkpt>
<trkpt lat="48.602491600" lon="9.141118300">
  <ele>358.000000</ele>
<time>2008-06-15T13:08:24Z</time>
  <name>TP3383</name>
</trkpt>
<trkpt lat="48.602416600" lon="9.141071600">
  <ele>357.000000</ele>
<time>2008-06-15T13:08:26Z</time>
  <name>TP3384</name>
</trkpt>
<trkpt lat="48.602401600" lon="9.141018300">
  <ele>358.000000</ele>
<time>2008-06-15T13:08:28Z</time>
  <name>TP3385</name>
</trkpt>
<trkpt lat="48.602403300" lon="9.140905000">
  <ele>358.000000</ele>
<time>2008-06-15T13:08:30Z</time>
  <name>TP3386</name>
</trkpt>
<trkpt lat="48.602333300" lon="9.140741600">
  <ele>358.000000</ele>
<time>2008-06-15T13:08:33Z</time>
  <name>TP3387</name>
</trkpt>
<trkpt lat="48.602323200" lon="9.140691600">
  <ele>358.000000</ele>
<time>2008-06-15T13:08:34Z</time>
  <name>TP3388</name>
</trkpt>
<trkpt lat="48.602318300" lon="9.140646600">
  <ele>358.000000</ele>
<time>2008-06-15T13:08:35Z</time>
  <name>TP3389</name>
</trkpt>
<trkpt lat="48.602311600" lon="9.140571600">
  <ele>357.000000</ele>
<time>2008-06-15T13:08:37Z</time>
  <name>TP3390</name>
</trkpt>
<trkpt lat="48.602303300" lon="9.140491600">
  <ele>357.000000</ele>
<time>2008-06-15T13:08:39Z</time>
  <name>TP3391</name>
</trkpt>
<trkpt lat="48.602293300" lon="9.140456600">
  <ele>357.000000</ele>
<time>2008-06-15T13:08:40Z</time>
  <name>TP3392</name>
</trkpt>
<trkpt lat="48.602278300" lon="9.140421600">
  <ele>357.000000</ele>
<time>2008-06-15T13:08:41Z</time>
  <name>TP3393</name>
</trkpt>
<trkpt lat="48.602268300" lon="9.140390000">
  <ele>357.000000</ele>
<time>2008-06-15T13:08:42Z</time>
  <name>TP3394</name>
</trkpt>
<trkpt lat="48.602255000" lon="9.140351600">
  <ele>357.000000</ele>
<time>2008-06-15T13:08:43Z</time>
  <name>TP3395</name>
</trkpt>
<trkpt lat="48.602210000" lon="9.140346600">
  <ele>358.000000</ele>
<time>2008-06-15T13:08:44Z</time>
  <name>TP3396</name>
</trkpt>
<trkpt lat="48.602188300" lon="9.140316600">
  <ele>357.000000</ele>
<time>2008-06-15T13:08:45Z</time>
  <name>TP3397</name>
</trkpt>
<trkpt lat="48.602179900" lon="9.140279900">
  <ele>357.000000</ele>
<time>2008-06-15T13:08:46Z</time>
  <name>TP3398</name>
</trkpt>
<trkpt lat="48.602133300" lon="9.140246600">
  <ele>357.000000</ele>
<time>2008-06-15T13:08:47Z</time>
  <name>TP3399</name>
</trkpt>
<trkpt lat="48.602078300" lon="9.140223300">
  <ele>357.000000</ele>
<time>2008-06-15T13:08:48Z</time>
  <name>TP3400</name>
</trkpt>
<trkpt lat="48.602068300" lon="9.140180000">
  <ele>357.000000</ele>
<time>2008-06-15T13:08:49Z</time>
  <name>TP3401</name>
</trkpt>
<trkpt lat="48.602053300" lon="9.140129900">
  <ele>357.000000</ele>
<time>2008-06-15T13:08:50Z</time>
  <name>TP3402</name>
</trkpt>
<trkpt lat="48.602078300" lon="9.140074900">
  <ele>358.000000</ele>
<time>2008-06-15T13:08:52Z</time>
  <name>TP3403</name>
</trkpt>
<trkpt lat="48.602041600" lon="9.140058300">
  <ele>357.000000</ele>
<time>2008-06-15T13:08:53Z</time>
  <name>TP3404</name>
</trkpt>
<trkpt lat="48.602019900" lon="9.140028300">
  <ele>358.000000</ele>
<time>2008-06-15T13:08:54Z</time>
  <name>TP3405</name>
</trkpt>
<trkpt lat="48.601998300" lon="9.139998300">
  <ele>358.000000</ele>
<time>2008-06-15T13:08:55Z</time>
  <name>TP3406</name>
</trkpt>
<trkpt lat="48.601979900" lon="9.139963300">
  <ele>358.000000</ele>
<time>2008-06-15T13:08:56Z</time>
  <name>TP3407</name>
</trkpt>
<trkpt lat="48.601931600" lon="9.139941600">
  <ele>358.000000</ele>
<time>2008-06-15T13:08:57Z</time>
  <name>TP3408</name>
</trkpt>
<trkpt lat="48.601861600" lon="9.139908300">
  <ele>358.000000</ele>
<time>2008-06-15T13:08:58Z</time>
  <name>TP3409</name>
</trkpt>
<trkpt lat="48.601824900" lon="9.139889900">
  <ele>358.000000</ele>
<time>2008-06-15T13:08:59Z</time>
  <name>TP3410</name>
</trkpt>
<trkpt lat="48.601805000" lon="9.139876600">
  <ele>358.000000</ele>
<time>2008-06-15T13:09:00Z</time>
  <name>TP3411</name>
</trkpt>
<trkpt lat="48.601798300" lon="9.139859900">
  <ele>358.000000</ele>
<time>2008-06-15T13:09:01Z</time>
  <name>TP3412</name>
</trkpt>
<trkpt lat="48.601808300" lon="9.139805000">
  <ele>358.000000</ele>
<time>2008-06-15T13:09:02Z</time>
  <name>TP3413</name>
</trkpt>
<trkpt lat="48.601823300" lon="9.139729900">
  <ele>358.000000</ele>
<time>2008-06-15T13:09:03Z</time>
  <name>TP3414</name>
</trkpt>
<trkpt lat="48.601826600" lon="9.139634900">
  <ele>359.000000</ele>
<time>2008-06-15T13:09:05Z</time>
  <name>TP3415</name>
</trkpt>
<trkpt lat="48.601809900" lon="9.139598300">
  <ele>359.000000</ele>
<time>2008-06-15T13:09:06Z</time>
  <name>TP3416</name>
</trkpt>
<trkpt lat="48.601818200" lon="9.139561600">
  <ele>359.000000</ele>
<time>2008-06-15T13:09:07Z</time>
  <name>TP3417</name>
</trkpt>
<trkpt lat="48.601811600" lon="9.139526600">
  <ele>359.000000</ele>
<time>2008-06-15T13:09:08Z</time>
  <name>TP3418</name>
</trkpt>
<trkpt lat="48.601718300" lon="9.139518300">
  <ele>359.000000</ele>
<time>2008-06-15T13:09:09Z</time>
  <name>TP3419</name>
</trkpt>
<trkpt lat="48.601680000" lon="9.139473300">
  <ele>358.000000</ele>
<time>2008-06-15T13:09:10Z</time>
  <name>TP3420</name>
</trkpt>
<trkpt lat="48.601631600" lon="9.139451600">
  <ele>358.000000</ele>
<time>2008-06-15T13:09:11Z</time>
  <name>TP3421</name>
</trkpt>
<trkpt lat="48.601619900" lon="9.139413300">
  <ele>358.000000</ele>
<time>2008-06-15T13:09:12Z</time>
  <name>TP3422</name>
</trkpt>
<trkpt lat="48.601625000" lon="9.139361600">
  <ele>358.000000</ele>
<time>2008-06-15T13:09:13Z</time>
  <name>TP3423</name>
</trkpt>
<trkpt lat="48.601604900" lon="9.139243300">
  <ele>358.000000</ele>
<time>2008-06-15T13:09:15Z</time>
  <name>TP3424</name>
</trkpt>
<trkpt lat="48.601568300" lon="9.139216600">
  <ele>358.000000</ele>
<time>2008-06-15T13:09:16Z</time>
  <name>TP3425</name>
</trkpt>
<trkpt lat="48.601528300" lon="9.139189900">
  <ele>358.000000</ele>
<time>2008-06-15T13:09:17Z</time>
  <name>TP3426</name>
</trkpt>
<trkpt lat="48.601471600" lon="9.139136600">
  <ele>359.000000</ele>
<time>2008-06-15T13:09:19Z</time>
  <name>TP3427</name>
</trkpt>
<trkpt lat="48.601468200" lon="9.139094900">
  <ele>359.000000</ele>
<time>2008-06-15T13:09:20Z</time>
  <name>TP3428</name>
</trkpt>
<trkpt lat="48.601451600" lon="9.139021600">
  <ele>359.000000</ele>
<time>2008-06-15T13:09:22Z</time>
  <name>TP3429</name>
</trkpt>
<trkpt lat="48.601424900" lon="9.139036600">
  <ele>359.000000</ele>
<time>2008-06-15T13:09:23Z</time>
  <name>TP3430</name>
</trkpt>
<trkpt lat="48.601421600" lon="9.138981600">
  <ele>359.000000</ele>
<time>2008-06-15T13:09:24Z</time>
  <name>TP3431</name>
</trkpt>
<trkpt lat="48.601428300" lon="9.138861600">
  <ele>359.000000</ele>
<time>2008-06-15T13:09:26Z</time>
  <name>TP3432</name>
</trkpt>
<trkpt lat="48.601449900" lon="9.138713300">
  <ele>359.000000</ele>
<time>2008-06-15T13:09:28Z</time>
  <name>TP3433</name>
</trkpt>
<trkpt lat="48.601434900" lon="9.138531600">
  <ele>358.000000</ele>
<time>2008-06-15T13:09:31Z</time>
  <name>TP3434</name>
</trkpt>
<trkpt lat="48.601418300" lon="9.138488300">
  <ele>358.000000</ele>
<time>2008-06-15T13:09:32Z</time>
  <name>TP3435</name>
</trkpt>
<trkpt lat="48.601391600" lon="9.138451600">
  <ele>358.000000</ele>
<time>2008-06-15T13:09:33Z</time>
  <name>TP3436</name>
</trkpt>
<trkpt lat="48.601364900" lon="9.138414900">
  <ele>358.000000</ele>
<time>2008-06-15T13:09:34Z</time>
  <name>TP3437</name>
</trkpt>
<trkpt lat="48.601331600" lon="9.138343300">
  <ele>358.000000</ele>
<time>2008-06-15T13:09:36Z</time>
  <name>TP3438</name>
</trkpt>
<trkpt lat="48.601334900" lon="9.138301600">
  <ele>358.000000</ele>
<time>2008-06-15T13:09:37Z</time>
  <name>TP3439</name>
</trkpt>
<trkpt lat="48.601331600" lon="9.138263300">
  <ele>358.000000</ele>
<time>2008-06-15T13:09:38Z</time>
  <name>TP3440</name>
</trkpt>
<trkpt lat="48.601315000" lon="9.138228300">
  <ele>358.000000</ele>
<time>2008-06-15T13:09:39Z</time>
  <name>TP3441</name>
</trkpt>
<trkpt lat="48.601315000" lon="9.138191600">
  <ele>358.000000</ele>
<time>2008-06-15T13:09:40Z</time>
  <name>TP3442</name>
</trkpt>
<trkpt lat="48.601338300" lon="9.138138300">
  <ele>358.000000</ele>
<time>2008-06-15T13:09:41Z</time>
  <name>TP3443</name>
</trkpt>
<trkpt lat="48.601330000" lon="9.138091600">
  <ele>358.000000</ele>
<time>2008-06-15T13:09:42Z</time>
  <name>TP3444</name>
</trkpt>
<trkpt lat="48.601333300" lon="9.138043300">
  <ele>358.000000</ele>
<time>2008-06-15T13:09:43Z</time>
  <name>TP3445</name>
</trkpt>
<trkpt lat="48.601296600" lon="9.137968300">
  <ele>358.000000</ele>
<time>2008-06-15T13:09:45Z</time>
  <name>TP3446</name>
</trkpt>
<trkpt lat="48.601273300" lon="9.137936600">
  <ele>358.000000</ele>
<time>2008-06-15T13:09:46Z</time>
  <name>TP3447</name>
</trkpt>
<trkpt lat="48.601266600" lon="9.137901600">
  <ele>358.000000</ele>
<time>2008-06-15T13:09:47Z</time>
  <name>TP3448</name>
</trkpt>
<trkpt lat="48.601258200" lon="9.137863300">
  <ele>358.000000</ele>
<time>2008-06-15T13:09:48Z</time>
  <name>TP3449</name>
</trkpt>
<trkpt lat="48.601253300" lon="9.137826600">
  <ele>358.000000</ele>
<time>2008-06-15T13:09:49Z</time>
  <name>TP3450</name>
</trkpt>
<trkpt lat="48.601251600" lon="9.137788300">
  <ele>358.000000</ele>
<time>2008-06-15T13:09:50Z</time>
  <name>TP3451</name>
</trkpt>
<trkpt lat="48.601248300" lon="9.137714900">
  <ele>359.000000</ele>
<time>2008-06-15T13:09:52Z</time>
  <name>TP3452</name>
</trkpt>
<trkpt lat="48.601241600" lon="9.137671600">
  <ele>359.000000</ele>
<time>2008-06-15T13:09:53Z</time>
  <name>TP3453</name>
</trkpt>
<trkpt lat="48.601260000" lon="9.137624900">
  <ele>359.000000</ele>
<time>2008-06-15T13:09:54Z</time>
  <name>TP3454</name>
</trkpt>
<trkpt lat="48.601258200" lon="9.137584900">
  <ele>359.000000</ele>
<time>2008-06-15T13:09:55Z</time>
  <name>TP3455</name>
</trkpt>
<trkpt lat="48.601226600" lon="9.137554900">
  <ele>360.000000</ele>
<time>2008-06-15T13:09:56Z</time>
  <name>TP3456</name>
</trkpt>
<trkpt lat="48.601209900" lon="9.137524900">
  <ele>360.000000</ele>
<time>2008-06-15T13:09:57Z</time>
  <name>TP3457</name>
</trkpt>
<trkpt lat="48.601213300" lon="9.137491600">
  <ele>360.000000</ele>
<time>2008-06-15T13:09:58Z</time>
  <name>TP3458</name>
</trkpt>
<trkpt lat="48.601166600" lon="9.137473300">
  <ele>360.000000</ele>
<time>2008-06-15T13:09:59Z</time>
  <name>TP3459</name>
</trkpt>
<trkpt lat="48.601139900" lon="9.137444900">
  <ele>361.000000</ele>
<time>2008-06-15T13:10:00Z</time>
  <name>TP3460</name>
</trkpt>
<trkpt lat="48.601120000" lon="9.137419900">
  <ele>361.000000</ele>
<time>2008-06-15T13:10:01Z</time>
  <name>TP3461</name>
</trkpt>
<trkpt lat="48.601079900" lon="9.137358300">
  <ele>361.000000</ele>
<time>2008-06-15T13:10:03Z</time>
  <name>TP3462</name>
</trkpt>
<trkpt lat="48.601078300" lon="9.137318300">
  <ele>361.000000</ele>
<time>2008-06-15T13:10:04Z</time>
  <name>TP3463</name>
</trkpt>
<trkpt lat="48.601066600" lon="9.137265000">
  <ele>361.000000</ele>
<time>2008-06-15T13:10:05Z</time>
  <name>TP3464</name>
</trkpt>
<trkpt lat="48.601051600" lon="9.137144900">
  <ele>361.000000</ele>
<time>2008-06-15T13:10:07Z</time>
  <name>TP3465</name>
</trkpt>
<trkpt lat="48.601053300" lon="9.137114900">
  <ele>362.000000</ele>
<time>2008-06-15T13:10:08Z</time>
  <name>TP3466</name>
</trkpt>
<trkpt lat="48.601058300" lon="9.137083300">
  <ele>362.000000</ele>
<time>2008-06-15T13:10:09Z</time>
  <name>TP3467</name>
</trkpt>
<trkpt lat="48.601050000" lon="9.137043300">
  <ele>362.000000</ele>
<time>2008-06-15T13:10:11Z</time>
  <name>TP3468</name>
</trkpt>
<trkpt lat="48.601031600" lon="9.137048300">
  <ele>362.000000</ele>
<time>2008-06-15T13:10:12Z</time>
  <name>TP3469</name>
</trkpt>
<trkpt lat="48.601016600" lon="9.137008300">
  <ele>362.000000</ele>
<time>2008-06-15T13:10:13Z</time>
  <name>TP3470</name>
</trkpt>
<trkpt lat="48.601005000" lon="9.136978300">
  <ele>363.000000</ele>
<time>2008-06-15T13:10:15Z</time>
  <name>TP3471</name>
</trkpt>
<trkpt lat="48.601001600" lon="9.136900000">
  <ele>363.000000</ele>
<time>2008-06-15T13:10:17Z</time>
  <name>TP3472</name>
</trkpt>
<trkpt lat="48.601005000" lon="9.136865000">
  <ele>364.000000</ele>
<time>2008-06-15T13:10:18Z</time>
  <name>TP3473</name>
</trkpt>
<trkpt lat="48.601014900" lon="9.136843300">
  <ele>364.000000</ele>
<time>2008-06-15T13:10:19Z</time>
  <name>TP3474</name>
</trkpt>
<trkpt lat="48.601051600" lon="9.136645000">
  <ele>363.000000</ele>
<time>2008-06-15T13:10:21Z</time>
  <name>TP3475</name>
</trkpt>
<trkpt lat="48.601066600" lon="9.136633300">
  <ele>363.000000</ele>
<time>2008-06-15T13:10:22Z</time>
  <name>TP3476</name>
</trkpt>
<trkpt lat="48.601063300" lon="9.136606600">
  <ele>363.000000</ele>
<time>2008-06-15T13:10:23Z</time>
  <name>TP3477</name>
</trkpt>
<trkpt lat="48.601044900" lon="9.136578300">
  <ele>362.000000</ele>
<time>2008-06-15T13:10:24Z</time>
  <name>TP3478</name>
</trkpt>
<trkpt lat="48.601026600" lon="9.136573300">
  <ele>362.000000</ele>
<time>2008-06-15T13:10:25Z</time>
  <name>TP3479</name>
</trkpt>
<trkpt lat="48.601008300" lon="9.136561600">
  <ele>363.000000</ele>
<time>2008-06-15T13:10:26Z</time>
  <name>TP3480</name>
</trkpt>
<trkpt lat="48.601003300" lon="9.136548300">
  <ele>363.000000</ele>
<time>2008-06-15T13:10:27Z</time>
  <name>TP3481</name>
</trkpt>
<trkpt lat="48.600994900" lon="9.136529900">
  <ele>363.000000</ele>
<time>2008-06-15T13:10:28Z</time>
  <name>TP3482</name>
</trkpt>
<trkpt lat="48.600993300" lon="9.136540000">
  <ele>363.000000</ele>
<time>2008-06-15T13:10:31Z</time>
  <name>TP3483</name>
</trkpt>
<trkpt lat="48.600976600" lon="9.136554900">
  <ele>363.000000</ele>
<time>2008-06-15T13:10:35Z</time>
  <name>TP3484</name>
</trkpt>
<trkpt lat="48.600968300" lon="9.136548300">
  <ele>363.000000</ele>
<time>2008-06-15T13:10:36Z</time>
  <name>TP3485</name>
</trkpt>
<trkpt lat="48.601035000" lon="9.136556600">
  <ele>363.000000</ele>
<time>2008-06-15T13:10:39Z</time>
  <name>TP3486</name>
</trkpt>
<trkpt lat="48.601026600" lon="9.136561600">
  <ele>363.000000</ele>
<time>2008-06-15T13:10:40Z</time>
  <name>TP3487</name>
</trkpt>
<trkpt lat="48.601024900" lon="9.136543300">
  <ele>363.000000</ele>
<time>2008-06-15T13:10:46Z</time>
  <name>TP3488</name>
</trkpt>
<trkpt lat="48.601024900" lon="9.136531600">
  <ele>363.000000</ele>
<time>2008-06-15T13:10:48Z</time>
  <name>TP3489</name>
</trkpt>
<trkpt lat="48.601011600" lon="9.136569900">
  <ele>363.000000</ele>
<time>2008-06-15T13:10:49Z</time>
  <name>TP3490</name>
</trkpt>
<trkpt lat="48.600974900" lon="9.136524900">
  <ele>364.000000</ele>
<time>2008-06-15T13:10:59Z</time>
  <name>TP3491</name>
</trkpt>
<trkpt lat="48.600986600" lon="9.136550000">
  <ele>364.000000</ele>
<time>2008-06-15T13:11:01Z</time>
  <name>TP3492</name>
</trkpt>
<trkpt lat="48.600936600" lon="9.136488300">
  <ele>364.000000</ele>
<time>2008-06-15T13:11:03Z</time>
  <name>TP3493</name>
</trkpt>
<trkpt lat="48.600921600" lon="9.136506600">
  <ele>364.000000</ele>
<time>2008-06-15T13:11:04Z</time>
  <name>TP3494</name>
</trkpt>
<trkpt lat="48.600906600" lon="9.136528300">
  <ele>364.000000</ele>
<time>2008-06-15T13:11:05Z</time>
  <name>TP3495</name>
</trkpt>
<trkpt lat="48.600863300" lon="9.136533300">
  <ele>364.000000</ele>
<time>2008-06-15T13:11:06Z</time>
  <name>TP3496</name>
</trkpt>
<trkpt lat="48.600834900" lon="9.136569900">
  <ele>364.000000</ele>
<time>2008-06-15T13:11:07Z</time>
  <name>TP3497</name>
</trkpt>
<trkpt lat="48.600813300" lon="9.136585000">
  <ele>364.000000</ele>
<time>2008-06-15T13:11:11Z</time>
  <name>TP3498</name>
</trkpt>
<trkpt lat="48.600818300" lon="9.136585000">
  <ele>364.000000</ele>
<time>2008-06-15T13:11:12Z</time>
  <name>TP3499</name>
</trkpt>
<trkpt lat="48.600821600" lon="9.136583300">
  <ele>364.000000</ele>
<time>2008-06-15T13:11:13Z</time>
  <name>TP3500</name>
</trkpt>
<trkpt lat="48.600823200" lon="9.136591600">
  <ele>364.000000</ele>
<time>2008-06-15T13:11:14Z</time>
  <name>TP3501</name>
</trkpt>
<trkpt lat="48.600825000" lon="9.136604900">
  <ele>364.000000</ele>
<time>2008-06-15T13:11:15Z</time>
  <name>TP3502</name>
</trkpt>
<trkpt lat="48.600853300" lon="9.136599900">
  <ele>364.000000</ele>
<time>2008-06-15T13:11:17Z</time>
  <name>TP3503</name>
</trkpt>
<trkpt lat="48.600880000" lon="9.136599900">
  <ele>364.000000</ele>
<time>2008-06-15T13:11:18Z</time>
  <name>TP3504</name>
</trkpt>
<trkpt lat="48.600893200" lon="9.136603300">
  <ele>364.000000</ele>
<time>2008-06-15T13:11:19Z</time>
  <name>TP3505</name>
</trkpt>
<trkpt lat="48.600916600" lon="9.136614900">
  <ele>364.000000</ele>
<time>2008-06-15T13:11:45Z</time>
  <name>TP3506</name>
</trkpt>
<trkpt lat="48.600911600" lon="9.136614900">
  <ele>364.000000</ele>
<time>2008-06-15T13:11:46Z</time>
  <name>TP3507</name>
</trkpt>
<trkpt lat="48.600908200" lon="9.136613300">
  <ele>364.000000</ele>
<time>2008-06-15T13:11:47Z</time>
  <name>TP3508</name>
</trkpt>
<trkpt lat="48.600910000" lon="9.136608300">
  <ele>364.000000</ele>
<time>2008-06-15T13:11:48Z</time>
  <name>TP3509</name>
</trkpt>
<trkpt lat="48.600923300" lon="9.136598300">
  <ele>364.000000</ele>
<time>2008-06-15T13:11:49Z</time>
  <name>TP3510</name>
</trkpt>
<trkpt lat="48.600928300" lon="9.136591600">
  <ele>364.000000</ele>
<time>2008-06-15T13:11:50Z</time>
  <name>TP3511</name>
</trkpt>
<trkpt lat="48.600946600" lon="9.136575000">
  <ele>364.000000</ele>
<time>2008-06-15T13:11:51Z</time>
  <name>TP3512</name>
</trkpt>
<trkpt lat="48.600984900" lon="9.136553300">
  <ele>364.000000</ele>
<time>2008-06-15T13:11:52Z</time>
  <name>TP3513</name>
</trkpt>
<trkpt lat="48.601124900" lon="9.136453300">
  <ele>364.000000</ele>
<time>2008-06-15T13:11:56Z</time>
  <name>TP3514</name>
</trkpt>
<trkpt lat="48.601158300" lon="9.136434900">
  <ele>364.000000</ele>
<time>2008-06-15T13:11:58Z</time>
  <name>TP3515</name>
</trkpt>
<trkpt lat="48.601123300" lon="9.136461600">
  <ele>364.000000</ele>
<time>2008-06-15T13:12:00Z</time>
  <name>TP3516</name>
</trkpt>
<trkpt lat="48.601105000" lon="9.136489900">
  <ele>364.000000</ele>
<time>2008-06-15T13:13:14Z</time>
  <name>TP3517</name>
</trkpt>
<trkpt lat="48.601099900" lon="9.136474900">
  <ele>364.000000</ele>
<time>2008-06-15T13:13:16Z</time>
  <name>TP3518</name>
</trkpt>
<trkpt lat="48.601090000" lon="9.136449900">
  <ele>364.000000</ele>
<time>2008-06-15T13:13:19Z</time>
  <name>TP3519</name>
</trkpt>
<trkpt lat="48.601076600" lon="9.136418300">
  <ele>364.000000</ele>
<time>2008-06-15T13:13:21Z</time>
  <name>TP3520</name>
</trkpt>
<trkpt lat="48.601075000" lon="9.136401600">
  <ele>364.000000</ele>
<time>2008-06-15T13:13:22Z</time>
  <name>TP3521</name>
</trkpt>
<trkpt lat="48.601058300" lon="9.136333300">
  <ele>364.000000</ele>
<time>2008-06-15T13:13:25Z</time>
  <name>TP3522</name>
</trkpt>
<trkpt lat="48.601046600" lon="9.136308300">
  <ele>364.000000</ele>
<time>2008-06-15T13:13:26Z</time>
  <name>TP3523</name>
</trkpt>
<trkpt lat="48.601033200" lon="9.136229900">
  <ele>364.000000</ele>
<time>2008-06-15T13:13:28Z</time>
  <name>TP3524</name>
</trkpt>
<trkpt lat="48.601020000" lon="9.136141600">
  <ele>364.000000</ele>
<time>2008-06-15T13:13:31Z</time>
  <name>TP3525</name>
</trkpt>
<trkpt lat="48.601009900" lon="9.136095000">
  <ele>364.000000</ele>
<time>2008-06-15T13:13:32Z</time>
  <name>TP3526</name>
</trkpt>
<trkpt lat="48.600999900" lon="9.136068300">
  <ele>364.000000</ele>
<time>2008-06-15T13:13:33Z</time>
  <name>TP3527</name>
</trkpt>
<trkpt lat="48.600988300" lon="9.135938300">
  <ele>364.000000</ele>
<time>2008-06-15T13:13:38Z</time>
  <name>TP3528</name>
</trkpt>
<trkpt lat="48.600978200" lon="9.135893300">
  <ele>364.000000</ele>
<time>2008-06-15T13:13:40Z</time>
  <name>TP3529</name>
</trkpt>
<trkpt lat="48.600981600" lon="9.135849900">
  <ele>364.000000</ele>
<time>2008-06-15T13:13:41Z</time>
  <name>TP3530</name>
</trkpt>
<trkpt lat="48.600981600" lon="9.135674900">
  <ele>364.000000</ele>
<time>2008-06-15T13:13:45Z</time>
  <name>TP3531</name>
</trkpt>
<trkpt lat="48.600969900" lon="9.135603300">
  <ele>365.000000</ele>
<time>2008-06-15T13:13:47Z</time>
  <name>TP3532</name>
</trkpt>
<trkpt lat="48.600963200" lon="9.135573300">
  <ele>365.000000</ele>
<time>2008-06-15T13:13:48Z</time>
  <name>TP3533</name>
</trkpt>
<trkpt lat="48.600948200" lon="9.135506600">
  <ele>365.000000</ele>
<time>2008-06-15T13:13:50Z</time>
  <name>TP3534</name>
</trkpt>
<trkpt lat="48.600944900" lon="9.135463300">
  <ele>365.000000</ele>
<time>2008-06-15T13:13:51Z</time>
  <name>TP3535</name>
</trkpt>
<trkpt lat="48.600928300" lon="9.135334900">
  <ele>365.000000</ele>
<time>2008-06-15T13:13:54Z</time>
  <name>TP3536</name>
</trkpt>
<trkpt lat="48.600914900" lon="9.135279900">
  <ele>365.000000</ele>
<time>2008-06-15T13:13:55Z</time>
  <name>TP3537</name>
</trkpt>
<trkpt lat="48.600910000" lon="9.135229900">
  <ele>365.000000</ele>
<time>2008-06-15T13:13:56Z</time>
  <name>TP3538</name>
</trkpt>
<trkpt lat="48.600901600" lon="9.135154900">
  <ele>365.000000</ele>
<time>2008-06-15T13:13:58Z</time>
  <name>TP3539</name>
</trkpt>
<trkpt lat="48.600891600" lon="9.135093300">
  <ele>365.000000</ele>
<time>2008-06-15T13:14:00Z</time>
  <name>TP3540</name>
</trkpt>
<trkpt lat="48.600888300" lon="9.135044900">
  <ele>365.000000</ele>
<time>2008-06-15T13:14:01Z</time>
  <name>TP3541</name>
</trkpt>
<trkpt lat="48.600896600" lon="9.134960000">
  <ele>365.000000</ele>
<time>2008-06-15T13:14:03Z</time>
  <name>TP3542</name>
</trkpt>
<trkpt lat="48.600908200" lon="9.134886600">
  <ele>365.000000</ele>
<time>2008-06-15T13:14:05Z</time>
  <name>TP3543</name>
</trkpt>
<trkpt lat="48.600906600" lon="9.134846600">
  <ele>365.000000</ele>
<time>2008-06-15T13:14:06Z</time>
  <name>TP3544</name>
</trkpt>
<trkpt lat="48.600918300" lon="9.134803300">
  <ele>365.000000</ele>
<time>2008-06-15T13:14:07Z</time>
  <name>TP3545</name>
</trkpt>
<trkpt lat="48.600914900" lon="9.134744900">
  <ele>365.000000</ele>
<time>2008-06-15T13:14:09Z</time>
  <name>TP3546</name>
</trkpt>
<trkpt lat="48.600931600" lon="9.134595000">
  <ele>365.000000</ele>
<time>2008-06-15T13:14:12Z</time>
  <name>TP3547</name>
</trkpt>
<trkpt lat="48.600953300" lon="9.134063300">
  <ele>365.000000</ele>
<time>2008-06-15T13:14:22Z</time>
  <name>TP3548</name>
</trkpt>
<trkpt lat="48.600933300" lon="9.134004900">
  <ele>365.000000</ele>
<time>2008-06-15T13:14:24Z</time>
  <name>TP3549</name>
</trkpt>
<trkpt lat="48.600923300" lon="9.133916600">
  <ele>365.000000</ele>
<time>2008-06-15T13:14:26Z</time>
  <name>TP3550</name>
</trkpt>
<trkpt lat="48.600935000" lon="9.133836600">
  <ele>365.000000</ele>
<time>2008-06-15T13:14:27Z</time>
  <name>TP3551</name>
</trkpt>
<trkpt lat="48.600936600" lon="9.133691600">
  <ele>366.000000</ele>
<time>2008-06-15T13:14:30Z</time>
  <name>TP3552</name>
</trkpt>
<trkpt lat="48.600924900" lon="9.133581600">
  <ele>366.000000</ele>
<time>2008-06-15T13:14:33Z</time>
  <name>TP3553</name>
</trkpt>
<trkpt lat="48.600919900" lon="9.133493300">
  <ele>366.000000</ele>
<time>2008-06-15T13:14:35Z</time>
  <name>TP3554</name>
</trkpt>
<trkpt lat="48.600914900" lon="9.133371600">
  <ele>366.000000</ele>
<time>2008-06-15T13:14:38Z</time>
  <name>TP3555</name>
</trkpt>
<trkpt lat="48.600911600" lon="9.133323300">
  <ele>366.000000</ele>
<time>2008-06-15T13:14:39Z</time>
  <name>TP3556</name>
</trkpt>
<trkpt lat="48.600919900" lon="9.133201600">
  <ele>366.000000</ele>
<time>2008-06-15T13:14:42Z</time>
  <name>TP3557</name>
</trkpt>
<trkpt lat="48.600935000" lon="9.132933300">
  <ele>366.000000</ele>
<time>2008-06-15T13:14:48Z</time>
  <name>TP3558</name>
</trkpt>
<trkpt lat="48.600918300" lon="9.132853300">
  <ele>366.000000</ele>
<time>2008-06-15T13:14:51Z</time>
  <name>TP3559</name>
</trkpt>
<trkpt lat="48.600903300" lon="9.132776600">
  <ele>367.000000</ele>
<time>2008-06-15T13:14:53Z</time>
  <name>TP3560</name>
</trkpt>
<trkpt lat="48.600903300" lon="9.132708300">
  <ele>367.000000</ele>
<time>2008-06-15T13:14:55Z</time>
  <name>TP3561</name>
</trkpt>
<trkpt lat="48.600924900" lon="9.132476600">
  <ele>367.000000</ele>
<time>2008-06-15T13:14:59Z</time>
  <name>TP3562</name>
</trkpt>
<trkpt lat="48.600948200" lon="9.132316600">
  <ele>367.000000</ele>
<time>2008-06-15T13:15:02Z</time>
  <name>TP3563</name>
</trkpt>
<trkpt lat="48.600978200" lon="9.132203300">
  <ele>367.000000</ele>
<time>2008-06-15T13:15:04Z</time>
  <name>TP3564</name>
</trkpt>
<trkpt lat="48.600988300" lon="9.132098300">
  <ele>367.000000</ele>
<time>2008-06-15T13:15:06Z</time>
  <name>TP3565</name>
</trkpt>
<trkpt lat="48.600983300" lon="9.132083300">
  <ele>367.000000</ele>
<time>2008-06-15T13:15:07Z</time>
  <name>TP3566</name>
</trkpt>
<trkpt lat="48.600973300" lon="9.131986600">
  <ele>367.000000</ele>
<time>2008-06-15T13:15:10Z</time>
  <name>TP3567</name>
</trkpt>
<trkpt lat="48.600976600" lon="9.131921600">
  <ele>367.000000</ele>
<time>2008-06-15T13:15:11Z</time>
  <name>TP3568</name>
</trkpt>
<trkpt lat="48.600973300" lon="9.131801600">
  <ele>368.000000</ele>
<time>2008-06-15T13:15:13Z</time>
  <name>TP3569</name>
</trkpt>
<trkpt lat="48.600981600" lon="9.131589900">
  <ele>368.000000</ele>
<time>2008-06-15T13:15:17Z</time>
  <name>TP3570</name>
</trkpt>
<trkpt lat="48.600963200" lon="9.131321600">
  <ele>368.000000</ele>
<time>2008-06-15T13:15:23Z</time>
  <name>TP3571</name>
</trkpt>
<trkpt lat="48.600946600" lon="9.131241600">
  <ele>369.000000</ele>
<time>2008-06-15T13:15:25Z</time>
  <name>TP3572</name>
</trkpt>
<trkpt lat="48.600933300" lon="9.131208300">
  <ele>369.000000</ele>
<time>2008-06-15T13:15:26Z</time>
  <name>TP3573</name>
</trkpt>
<trkpt lat="48.600944900" lon="9.131133300">
  <ele>369.000000</ele>
<time>2008-06-15T13:15:28Z</time>
  <name>TP3574</name>
</trkpt>
<trkpt lat="48.600935000" lon="9.131074900">
  <ele>369.000000</ele>
<time>2008-06-15T13:15:30Z</time>
  <name>TP3575</name>
</trkpt>
<trkpt lat="48.600913300" lon="9.131031600">
  <ele>369.000000</ele>
<time>2008-06-15T13:15:32Z</time>
  <name>TP3576</name>
</trkpt>
<trkpt lat="48.600884900" lon="9.130853300">
  <ele>369.000000</ele>
<time>2008-06-15T13:15:37Z</time>
  <name>TP3577</name>
</trkpt>
<trkpt lat="48.600891600" lon="9.130811600">
  <ele>369.000000</ele>
<time>2008-06-15T13:15:38Z</time>
  <name>TP3578</name>
</trkpt>
<trkpt lat="48.600904900" lon="9.130751600">
  <ele>369.000000</ele>
<time>2008-06-15T13:15:39Z</time>
  <name>TP3579</name>
</trkpt>
<trkpt lat="48.600913300" lon="9.130553300">
  <ele>369.000000</ele>
<time>2008-06-15T13:15:42Z</time>
  <name>TP3580</name>
</trkpt>
<trkpt lat="48.600926600" lon="9.130440000">
  <ele>370.000000</ele>
<time>2008-06-15T13:15:43Z</time>
  <name>TP3581</name>
</trkpt>
<trkpt lat="48.600926600" lon="9.130311600">
  <ele>369.000000</ele>
<time>2008-06-15T13:15:45Z</time>
  <name>TP3582</name>
</trkpt>
<trkpt lat="48.600911600" lon="9.130274900">
  <ele>369.000000</ele>
<time>2008-06-15T13:15:46Z</time>
  <name>TP3583</name>
</trkpt>
<trkpt lat="48.600916600" lon="9.130244900">
  <ele>370.000000</ele>
<time>2008-06-15T13:15:47Z</time>
  <name>TP3584</name>
</trkpt>
<trkpt lat="48.600899900" lon="9.130208300">
  <ele>369.000000</ele>
<time>2008-06-15T13:15:48Z</time>
  <name>TP3585</name>
</trkpt>
<trkpt lat="48.600873300" lon="9.130095000">
  <ele>369.000000</ele>
<time>2008-06-15T13:15:51Z</time>
  <name>TP3586</name>
</trkpt>
<trkpt lat="48.600889900" lon="9.130046600">
  <ele>369.000000</ele>
<time>2008-06-15T13:15:52Z</time>
  <name>TP3587</name>
</trkpt>
<trkpt lat="48.600878200" lon="9.130016600">
  <ele>369.000000</ele>
<time>2008-06-15T13:15:53Z</time>
  <name>TP3588</name>
</trkpt>
<trkpt lat="48.600881600" lon="9.129971600">
  <ele>369.000000</ele>
<time>2008-06-15T13:15:54Z</time>
  <name>TP3589</name>
</trkpt>
<trkpt lat="48.600923300" lon="9.129886600">
  <ele>370.000000</ele>
<time>2008-06-15T13:15:56Z</time>
  <name>TP3590</name>
</trkpt>
<trkpt lat="48.600926600" lon="9.129848300">
  <ele>369.000000</ele>
<time>2008-06-15T13:15:57Z</time>
  <name>TP3591</name>
</trkpt>
<trkpt lat="48.600911600" lon="9.129761600">
  <ele>370.000000</ele>
<time>2008-06-15T13:15:59Z</time>
  <name>TP3592</name>
</trkpt>
<trkpt lat="48.600931600" lon="9.129734900">
  <ele>371.000000</ele>
<time>2008-06-15T13:16:00Z</time>
  <name>TP3593</name>
</trkpt>
<trkpt lat="48.600926600" lon="9.129723300">
  <ele>371.000000</ele>
<time>2008-06-15T13:16:01Z</time>
  <name>TP3594</name>
</trkpt>
<trkpt lat="48.600941600" lon="9.129621600">
  <ele>372.000000</ele>
<time>2008-06-15T13:16:02Z</time>
  <name>TP3595</name>
</trkpt>
<trkpt lat="48.600913300" lon="9.129484900">
  <ele>372.000000</ele>
<time>2008-06-15T13:16:04Z</time>
  <name>TP3596</name>
</trkpt>
<trkpt lat="48.600886600" lon="9.129419900">
  <ele>372.000000</ele>
<time>2008-06-15T13:16:05Z</time>
  <name>TP3597</name>
</trkpt>
<trkpt lat="48.600858300" lon="9.129341600">
  <ele>371.000000</ele>
<time>2008-06-15T13:16:06Z</time>
  <name>TP3598</name>
</trkpt>
<trkpt lat="48.600828300" lon="9.129275000">
  <ele>371.000000</ele>
<time>2008-06-15T13:16:07Z</time>
  <name>TP3599</name>
</trkpt>
<trkpt lat="48.600795000" lon="9.129203300">
  <ele>370.000000</ele>
<time>2008-06-15T13:16:08Z</time>
  <name>TP3600</name>
</trkpt>
<trkpt lat="48.600764900" lon="9.129135000">
  <ele>370.000000</ele>
<time>2008-06-15T13:16:09Z</time>
  <name>TP3601</name>
</trkpt>
<trkpt lat="48.600741600" lon="9.129104900">
  <ele>370.000000</ele>
<time>2008-06-15T13:16:10Z</time>
  <name>TP3602</name>
</trkpt>
<trkpt lat="48.600709900" lon="9.129066600">
  <ele>370.000000</ele>
<time>2008-06-15T13:16:11Z</time>
  <name>TP3603</name>
</trkpt>
<trkpt lat="48.600670000" lon="9.129018300">
  <ele>369.000000</ele>
<time>2008-06-15T13:16:13Z</time>
  <name>TP3604</name>
</trkpt>
<trkpt lat="48.600659900" lon="9.128904900">
  <ele>369.000000</ele>
<time>2008-06-15T13:16:15Z</time>
  <name>TP3605</name>
</trkpt>
<trkpt lat="48.600646600" lon="9.128876600">
  <ele>369.000000</ele>
<time>2008-06-15T13:16:16Z</time>
  <name>TP3606</name>
</trkpt>
<trkpt lat="48.600624900" lon="9.128823300">
  <ele>368.000000</ele>
<time>2008-06-15T13:16:17Z</time>
  <name>TP3607</name>
</trkpt>
<trkpt lat="48.600569900" lon="9.128728300">
  <ele>367.000000</ele>
<time>2008-06-15T13:16:19Z</time>
  <name>TP3608</name>
</trkpt>
<trkpt lat="48.600576600" lon="9.128685000">
  <ele>367.000000</ele>
<time>2008-06-15T13:16:20Z</time>
  <name>TP3609</name>
</trkpt>
<trkpt lat="48.600564900" lon="9.128643300">
  <ele>367.000000</ele>
<time>2008-06-15T13:16:21Z</time>
  <name>TP3610</name>
</trkpt>
<trkpt lat="48.600539900" lon="9.128573300">
  <ele>367.000000</ele>
<time>2008-06-15T13:16:23Z</time>
  <name>TP3611</name>
</trkpt>
<trkpt lat="48.600531600" lon="9.128538300">
  <ele>368.000000</ele>
<time>2008-06-15T13:16:24Z</time>
  <name>TP3612</name>
</trkpt>
<trkpt lat="48.600519900" lon="9.128466600">
  <ele>368.000000</ele>
<time>2008-06-15T13:16:26Z</time>
  <name>TP3613</name>
</trkpt>
<trkpt lat="48.600513300" lon="9.128433300">
  <ele>368.000000</ele>
<time>2008-06-15T13:16:27Z</time>
  <name>TP3614</name>
</trkpt>
<trkpt lat="48.600528200" lon="9.128366600">
  <ele>367.000000</ele>
<time>2008-06-15T13:16:28Z</time>
  <name>TP3615</name>
</trkpt>
<trkpt lat="48.600533300" lon="9.128243300">
  <ele>367.000000</ele>
<time>2008-06-15T13:16:30Z</time>
  <name>TP3616</name>
</trkpt>
<trkpt lat="48.600488300" lon="9.128191600">
  <ele>366.000000</ele>
<time>2008-06-15T13:16:31Z</time>
  <name>TP3617</name>
</trkpt>
<trkpt lat="48.600429900" lon="9.128079900">
  <ele>366.000000</ele>
<time>2008-06-15T13:16:34Z</time>
  <name>TP3618</name>
</trkpt>
<trkpt lat="48.600388200" lon="9.128023300">
  <ele>366.000000</ele>
<time>2008-06-15T13:16:36Z</time>
  <name>TP3619</name>
</trkpt>
<trkpt lat="48.600376600" lon="9.127984900">
  <ele>366.000000</ele>
<time>2008-06-15T13:16:37Z</time>
  <name>TP3620</name>
</trkpt>
<trkpt lat="48.600366600" lon="9.127961600">
  <ele>367.000000</ele>
<time>2008-06-15T13:16:38Z</time>
  <name>TP3621</name>
</trkpt>
<trkpt lat="48.600396600" lon="9.127920000">
  <ele>367.000000</ele>
<time>2008-06-15T13:16:39Z</time>
  <name>TP3622</name>
</trkpt>
<trkpt lat="48.600384900" lon="9.127823300">
  <ele>367.000000</ele>
<time>2008-06-15T13:16:41Z</time>
  <name>TP3623</name>
</trkpt>
<trkpt lat="48.600361600" lon="9.127781600">
  <ele>367.000000</ele>
<time>2008-06-15T13:16:42Z</time>
  <name>TP3624</name>
</trkpt>
<trkpt lat="48.600318200" lon="9.127678300">
  <ele>367.000000</ele>
<time>2008-06-15T13:16:44Z</time>
  <name>TP3625</name>
</trkpt>
<trkpt lat="48.600303300" lon="9.127571600">
  <ele>367.000000</ele>
<time>2008-06-15T13:16:46Z</time>
  <name>TP3626</name>
</trkpt>
<trkpt lat="48.600289900" lon="9.127548300">
  <ele>368.000000</ele>
<time>2008-06-15T13:16:47Z</time>
  <name>TP3627</name>
</trkpt>
<trkpt lat="48.600296600" lon="9.127511600">
  <ele>368.000000</ele>
<time>2008-06-15T13:16:48Z</time>
  <name>TP3628</name>
</trkpt>
<trkpt lat="48.600284900" lon="9.127485000">
  <ele>368.000000</ele>
<time>2008-06-15T13:16:49Z</time>
  <name>TP3629</name>
</trkpt>
<trkpt lat="48.600280000" lon="9.127464900">
  <ele>368.000000</ele>
<time>2008-06-15T13:16:50Z</time>
  <name>TP3630</name>
</trkpt>
<trkpt lat="48.600276600" lon="9.127393300">
  <ele>369.000000</ele>
<time>2008-06-15T13:16:51Z</time>
  <name>TP3631</name>
</trkpt>
<trkpt lat="48.600278300" lon="9.127263300">
  <ele>370.000000</ele>
<time>2008-06-15T13:16:53Z</time>
  <name>TP3632</name>
</trkpt>
<trkpt lat="48.600276600" lon="9.127206600">
  <ele>371.000000</ele>
<time>2008-06-15T13:16:54Z</time>
  <name>TP3633</name>
</trkpt>
<trkpt lat="48.600303300" lon="9.127136600">
  <ele>371.000000</ele>
<time>2008-06-15T13:16:55Z</time>
  <name>TP3634</name>
</trkpt>
<trkpt lat="48.600309900" lon="9.127079900">
  <ele>372.000000</ele>
<time>2008-06-15T13:16:56Z</time>
  <name>TP3635</name>
</trkpt>
<trkpt lat="48.600276600" lon="9.127041600">
  <ele>372.000000</ele>
<time>2008-06-15T13:16:57Z</time>
  <name>TP3636</name>
</trkpt>
<trkpt lat="48.600273300" lon="9.126974900">
  <ele>371.000000</ele>
<time>2008-06-15T13:16:58Z</time>
  <name>TP3637</name>
</trkpt>
<trkpt lat="48.600280000" lon="9.126931600">
  <ele>371.000000</ele>
<time>2008-06-15T13:16:59Z</time>
  <name>TP3638</name>
</trkpt>
<trkpt lat="48.600258300" lon="9.126900000">
  <ele>371.000000</ele>
<time>2008-06-15T13:17:00Z</time>
  <name>TP3639</name>
</trkpt>
<trkpt lat="48.600238300" lon="9.126861600">
  <ele>371.000000</ele>
<time>2008-06-15T13:17:01Z</time>
  <name>TP3640</name>
</trkpt>
<trkpt lat="48.600204900" lon="9.126835000">
  <ele>372.000000</ele>
<time>2008-06-15T13:17:02Z</time>
  <name>TP3641</name>
</trkpt>
<trkpt lat="48.600193200" lon="9.126796600">
  <ele>372.000000</ele>
<time>2008-06-15T13:17:03Z</time>
  <name>TP3642</name>
</trkpt>
<trkpt lat="48.600181600" lon="9.126650000">
  <ele>372.000000</ele>
<time>2008-06-15T13:17:07Z</time>
  <name>TP3643</name>
</trkpt>
<trkpt lat="48.600183300" lon="9.126566600">
  <ele>372.000000</ele>
<time>2008-06-15T13:17:09Z</time>
  <name>TP3644</name>
</trkpt>
<trkpt lat="48.600201600" lon="9.126523300">
  <ele>372.000000</ele>
<time>2008-06-15T13:17:10Z</time>
  <name>TP3645</name>
</trkpt>
<trkpt lat="48.600204900" lon="9.126476600">
  <ele>372.000000</ele>
<time>2008-06-15T13:17:11Z</time>
  <name>TP3646</name>
</trkpt>
<trkpt lat="48.600204900" lon="9.126391600">
  <ele>372.000000</ele>
<time>2008-06-15T13:17:13Z</time>
  <name>TP3647</name>
</trkpt>
<trkpt lat="48.600195000" lon="9.126355000">
  <ele>372.000000</ele>
<time>2008-06-15T13:17:14Z</time>
  <name>TP3648</name>
</trkpt>
<trkpt lat="48.600191600" lon="9.126320000">
  <ele>372.000000</ele>
<time>2008-06-15T13:17:15Z</time>
  <name>TP3649</name>
</trkpt>
<trkpt lat="48.600163300" lon="9.126288300">
  <ele>373.000000</ele>
<time>2008-06-15T13:17:17Z</time>
  <name>TP3650</name>
</trkpt>
<trkpt lat="48.600151600" lon="9.126253300">
  <ele>373.000000</ele>
<time>2008-06-15T13:17:18Z</time>
  <name>TP3651</name>
</trkpt>
<trkpt lat="48.600140000" lon="9.126215000">
  <ele>373.000000</ele>
<time>2008-06-15T13:17:19Z</time>
  <name>TP3652</name>
</trkpt>
<trkpt lat="48.600125000" lon="9.126191600">
  <ele>373.000000</ele>
<time>2008-06-15T13:17:20Z</time>
  <name>TP3653</name>
</trkpt>
<trkpt lat="48.600129900" lon="9.126166600">
  <ele>373.000000</ele>
<time>2008-06-15T13:17:21Z</time>
  <name>TP3654</name>
</trkpt>
<trkpt lat="48.600138300" lon="9.126138300">
  <ele>373.000000</ele>
<time>2008-06-15T13:17:22Z</time>
  <name>TP3655</name>
</trkpt>
<trkpt lat="48.600108200" lon="9.126103300">
  <ele>373.000000</ele>
<time>2008-06-15T13:17:23Z</time>
  <name>TP3656</name>
</trkpt>
<trkpt lat="48.600099900" lon="9.126051600">
  <ele>373.000000</ele>
<time>2008-06-15T13:17:25Z</time>
  <name>TP3657</name>
</trkpt>
<trkpt lat="48.600056600" lon="9.126023300">
  <ele>373.000000</ele>
<time>2008-06-15T13:17:26Z</time>
  <name>TP3658</name>
</trkpt>
<trkpt lat="48.600040000" lon="9.125976600">
  <ele>373.000000</ele>
<time>2008-06-15T13:17:27Z</time>
  <name>TP3659</name>
</trkpt>
<trkpt lat="48.600068300" lon="9.125873300">
  <ele>372.000000</ele>
<time>2008-06-15T13:17:28Z</time>
  <name>TP3660</name>
</trkpt>
<trkpt lat="48.600068300" lon="9.125813300">
  <ele>371.000000</ele>
<time>2008-06-15T13:17:29Z</time>
  <name>TP3661</name>
</trkpt>
<trkpt lat="48.600111600" lon="9.125754900">
  <ele>372.000000</ele>
<time>2008-06-15T13:17:30Z</time>
  <name>TP3662</name>
</trkpt>
<trkpt lat="48.600134900" lon="9.125695000">
  <ele>371.000000</ele>
<time>2008-06-15T13:17:31Z</time>
  <name>TP3663</name>
</trkpt>
<trkpt lat="48.600151600" lon="9.125595000">
  <ele>372.000000</ele>
<time>2008-06-15T13:17:33Z</time>
  <name>TP3664</name>
</trkpt>
<trkpt lat="48.600140000" lon="9.125578300">
  <ele>372.000000</ele>
<time>2008-06-15T13:17:34Z</time>
  <name>TP3665</name>
</trkpt>
<trkpt lat="48.600129900" lon="9.125551600">
  <ele>371.000000</ele>
<time>2008-06-15T13:17:35Z</time>
  <name>TP3666</name>
</trkpt>
<trkpt lat="48.600138300" lon="9.125513300">
  <ele>370.000000</ele>
<time>2008-06-15T13:17:36Z</time>
  <name>TP3667</name>
</trkpt>
<trkpt lat="48.600126600" lon="9.125498300">
  <ele>370.000000</ele>
<time>2008-06-15T13:17:37Z</time>
  <name>TP3668</name>
</trkpt>
<trkpt lat="48.600099900" lon="9.125474900">
  <ele>370.000000</ele>
<time>2008-06-15T13:17:38Z</time>
  <name>TP3669</name>
</trkpt>
<trkpt lat="48.600040000" lon="9.125441600">
  <ele>370.000000</ele>
<time>2008-06-15T13:17:40Z</time>
  <name>TP3670</name>
</trkpt>
<trkpt lat="48.600006600" lon="9.125423300">
  <ele>370.000000</ele>
<time>2008-06-15T13:17:41Z</time>
  <name>TP3671</name>
</trkpt>
<trkpt lat="48.599971600" lon="9.125398300">
  <ele>370.000000</ele>
<time>2008-06-15T13:17:43Z</time>
  <name>TP3672</name>
</trkpt>
<trkpt lat="48.599959900" lon="9.125376600">
  <ele>370.000000</ele>
<time>2008-06-15T13:17:44Z</time>
  <name>TP3673</name>
</trkpt>
<trkpt lat="48.599934900" lon="9.125346600">
  <ele>370.000000</ele>
<time>2008-06-15T13:17:46Z</time>
  <name>TP3674</name>
</trkpt>
<trkpt lat="48.599876600" lon="9.125348300">
  <ele>370.000000</ele>
<time>2008-06-15T13:17:47Z</time>
  <name>TP3675</name>
</trkpt>
<trkpt lat="48.599815000" lon="9.125348300">
  <ele>371.000000</ele>
<time>2008-06-15T13:17:48Z</time>
  <name>TP3676</name>
</trkpt>
<trkpt lat="48.599761600" lon="9.125298300">
  <ele>371.000000</ele>
<time>2008-06-15T13:17:50Z</time>
  <name>TP3677</name>
</trkpt>
<trkpt lat="48.599776600" lon="9.125263300">
  <ele>372.000000</ele>
<time>2008-06-15T13:17:51Z</time>
  <name>TP3678</name>
</trkpt>
<trkpt lat="48.599775000" lon="9.125246600">
  <ele>372.000000</ele>
<time>2008-06-15T13:17:52Z</time>
  <name>TP3679</name>
</trkpt>
<trkpt lat="48.599743200" lon="9.125229900">
  <ele>372.000000</ele>
<time>2008-06-15T13:17:53Z</time>
  <name>TP3680</name>
</trkpt>
<trkpt lat="48.599756600" lon="9.125186600">
  <ele>372.000000</ele>
<time>2008-06-15T13:17:54Z</time>
  <name>TP3681</name>
</trkpt>
<trkpt lat="48.599751600" lon="9.125146600">
  <ele>372.000000</ele>
<time>2008-06-15T13:17:55Z</time>
  <name>TP3682</name>
</trkpt>
<trkpt lat="48.599743200" lon="9.125106600">
  <ele>372.000000</ele>
<time>2008-06-15T13:17:56Z</time>
  <name>TP3683</name>
</trkpt>
<trkpt lat="48.599745000" lon="9.125070000">
  <ele>372.000000</ele>
<time>2008-06-15T13:17:57Z</time>
  <name>TP3684</name>
</trkpt>
<trkpt lat="48.599738300" lon="9.125045000">
  <ele>372.000000</ele>
<time>2008-06-15T13:17:58Z</time>
  <name>TP3685</name>
</trkpt>
<trkpt lat="48.599628300" lon="9.125005000">
  <ele>373.000000</ele>
<time>2008-06-15T13:18:00Z</time>
  <name>TP3686</name>
</trkpt>
<trkpt lat="48.599624900" lon="9.124983300">
  <ele>373.000000</ele>
<time>2008-06-15T13:18:01Z</time>
  <name>TP3687</name>
</trkpt>
<trkpt lat="48.599621600" lon="9.124970000">
  <ele>373.000000</ele>
<time>2008-06-15T13:18:02Z</time>
  <name>TP3688</name>
</trkpt>
<trkpt lat="48.599576600" lon="9.124971600">
  <ele>373.000000</ele>
<time>2008-06-15T13:18:03Z</time>
  <name>TP3689</name>
</trkpt>
<trkpt lat="48.599565000" lon="9.124963300">
  <ele>373.000000</ele>
<time>2008-06-15T13:18:04Z</time>
  <name>TP3690</name>
</trkpt>
<trkpt lat="48.599550000" lon="9.124951600">
  <ele>373.000000</ele>
<time>2008-06-15T13:18:05Z</time>
  <name>TP3691</name>
</trkpt>
<trkpt lat="48.599543300" lon="9.124931600">
  <ele>373.000000</ele>
<time>2008-06-15T13:18:06Z</time>
  <name>TP3692</name>
</trkpt>
<trkpt lat="48.599526600" lon="9.124943300">
  <ele>373.000000</ele>
<time>2008-06-15T13:18:07Z</time>
  <name>TP3693</name>
</trkpt>
<trkpt lat="48.599514900" lon="9.124926600">
  <ele>373.000000</ele>
<time>2008-06-15T13:18:08Z</time>
  <name>TP3694</name>
</trkpt>
<trkpt lat="48.599504900" lon="9.124891600">
  <ele>373.000000</ele>
<time>2008-06-15T13:18:09Z</time>
  <name>TP3695</name>
</trkpt>
<trkpt lat="48.599495000" lon="9.124863300">
  <ele>374.000000</ele>
<time>2008-06-15T13:18:10Z</time>
  <name>TP3696</name>
</trkpt>
<trkpt lat="48.599486600" lon="9.124753300">
  <ele>374.000000</ele>
<time>2008-06-15T13:18:13Z</time>
  <name>TP3697</name>
</trkpt>
<trkpt lat="48.599501600" lon="9.124683300">
  <ele>374.000000</ele>
<time>2008-06-15T13:18:14Z</time>
  <name>TP3698</name>
</trkpt>
<trkpt lat="48.599511600" lon="9.124635000">
  <ele>374.000000</ele>
<time>2008-06-15T13:18:15Z</time>
  <name>TP3699</name>
</trkpt>
<trkpt lat="48.599498300" lon="9.124591600">
  <ele>375.000000</ele>
<time>2008-06-15T13:18:16Z</time>
  <name>TP3700</name>
</trkpt>
<trkpt lat="48.599486600" lon="9.124523300">
  <ele>375.000000</ele>
<time>2008-06-15T13:18:18Z</time>
  <name>TP3701</name>
</trkpt>
<trkpt lat="48.599495000" lon="9.124496600">
  <ele>375.000000</ele>
<time>2008-06-15T13:18:19Z</time>
  <name>TP3702</name>
</trkpt>
<trkpt lat="48.599495000" lon="9.124481600">
  <ele>376.000000</ele>
<time>2008-06-15T13:18:20Z</time>
  <name>TP3703</name>
</trkpt>
<trkpt lat="48.599496600" lon="9.124438300">
  <ele>376.000000</ele>
<time>2008-06-15T13:18:21Z</time>
  <name>TP3704</name>
</trkpt>
<trkpt lat="48.599491600" lon="9.124361600">
  <ele>377.000000</ele>
<time>2008-06-15T13:18:23Z</time>
  <name>TP3705</name>
</trkpt>
<trkpt lat="48.599476600" lon="9.124339900">
  <ele>377.000000</ele>
<time>2008-06-15T13:18:24Z</time>
  <name>TP3706</name>
</trkpt>
<trkpt lat="48.599461600" lon="9.124303300">
  <ele>377.000000</ele>
<time>2008-06-15T13:18:25Z</time>
  <name>TP3707</name>
</trkpt>
<trkpt lat="48.599458300" lon="9.124303300">
  <ele>378.000000</ele>
<time>2008-06-15T13:18:26Z</time>
  <name>TP3708</name>
</trkpt>
<trkpt lat="48.599463200" lon="9.124285000">
  <ele>378.000000</ele>
<time>2008-06-15T13:18:27Z</time>
  <name>TP3709</name>
</trkpt>
<trkpt lat="48.599444900" lon="9.124298300">
  <ele>378.000000</ele>
<time>2008-06-15T13:18:28Z</time>
  <name>TP3710</name>
</trkpt>
<trkpt lat="48.599444900" lon="9.124280000">
  <ele>378.000000</ele>
<time>2008-06-15T13:18:29Z</time>
  <name>TP3711</name>
</trkpt>
<trkpt lat="48.599429900" lon="9.124260000">
  <ele>378.000000</ele>
<time>2008-06-15T13:18:30Z</time>
  <name>TP3712</name>
</trkpt>
<trkpt lat="48.599396600" lon="9.124299900">
  <ele>379.000000</ele>
<time>2008-06-15T13:18:31Z</time>
  <name>TP3713</name>
</trkpt>
<trkpt lat="48.599384900" lon="9.124261600">
  <ele>379.000000</ele>
<time>2008-06-15T13:18:32Z</time>
  <name>TP3714</name>
</trkpt>
<trkpt lat="48.599421600" lon="9.124191600">
  <ele>380.000000</ele>
<time>2008-06-15T13:18:33Z</time>
  <name>TP3715</name>
</trkpt>
<trkpt lat="48.599511600" lon="9.124063300">
  <ele>382.000000</ele>
<time>2008-06-15T13:18:35Z</time>
  <name>TP3716</name>
</trkpt>
<trkpt lat="48.599498300" lon="9.124008300">
  <ele>381.000000</ele>
<time>2008-06-15T13:18:36Z</time>
  <name>TP3717</name>
</trkpt>
<trkpt lat="48.599499900" lon="9.123928300">
  <ele>382.000000</ele>
<time>2008-06-15T13:18:37Z</time>
  <name>TP3718</name>
</trkpt>
<trkpt lat="48.599483300" lon="9.123881600">
  <ele>382.000000</ele>
<time>2008-06-15T13:18:38Z</time>
  <name>TP3719</name>
</trkpt>
<trkpt lat="48.599473300" lon="9.123731600">
  <ele>381.000000</ele>
<time>2008-06-15T13:18:41Z</time>
  <name>TP3720</name>
</trkpt>
<trkpt lat="48.599466600" lon="9.123665000">
  <ele>381.000000</ele>
<time>2008-06-15T13:18:44Z</time>
  <name>TP3721</name>
</trkpt>
<trkpt lat="48.599469900" lon="9.123630000">
  <ele>382.000000</ele>
<time>2008-06-15T13:18:45Z</time>
  <name>TP3722</name>
</trkpt>
<trkpt lat="48.599478200" lon="9.123505000">
  <ele>383.000000</ele>
<time>2008-06-15T13:18:49Z</time>
  <name>TP3723</name>
</trkpt>
<trkpt lat="48.599486600" lon="9.123409900">
  <ele>383.000000</ele>
<time>2008-06-15T13:18:52Z</time>
  <name>TP3724</name>
</trkpt>
<trkpt lat="48.599495000" lon="9.123376600">
  <ele>385.000000</ele>
<time>2008-06-15T13:18:54Z</time>
  <name>TP3725</name>
</trkpt>
<trkpt lat="48.599503300" lon="9.123320000">
  <ele>385.000000</ele>
<time>2008-06-15T13:18:55Z</time>
  <name>TP3726</name>
</trkpt>
<trkpt lat="48.599504900" lon="9.123304900">
  <ele>386.000000</ele>
<time>2008-06-15T13:18:56Z</time>
  <name>TP3727</name>
</trkpt>
<trkpt lat="48.599493200" lon="9.123288300">
  <ele>386.000000</ele>
<time>2008-06-15T13:18:58Z</time>
  <name>TP3728</name>
</trkpt>
<trkpt lat="48.599480000" lon="9.123238300">
  <ele>386.000000</ele>
<time>2008-06-15T13:19:01Z</time>
  <name>TP3729</name>
</trkpt>
<trkpt lat="48.599466600" lon="9.123233300">
  <ele>387.000000</ele>
<time>2008-06-15T13:19:03Z</time>
  <name>TP3730</name>
</trkpt>
<trkpt lat="48.599458300" lon="9.123213300">
  <ele>386.000000</ele>
<time>2008-06-15T13:19:04Z</time>
  <name>TP3731</name>
</trkpt>
<trkpt lat="48.599481600" lon="9.123144900">
  <ele>386.000000</ele>
<time>2008-06-15T13:19:05Z</time>
  <name>TP3732</name>
</trkpt>
<trkpt lat="48.599468300" lon="9.123136600">
  <ele>386.000000</ele>
<time>2008-06-15T13:19:06Z</time>
  <name>TP3733</name>
</trkpt>
<trkpt lat="48.599458300" lon="9.123120000">
  <ele>386.000000</ele>
<time>2008-06-15T13:19:07Z</time>
  <name>TP3734</name>
</trkpt>
<trkpt lat="48.599473300" lon="9.123034900">
  <ele>386.000000</ele>
<time>2008-06-15T13:19:08Z</time>
  <name>TP3735</name>
</trkpt>
<trkpt lat="48.599461600" lon="9.122990000">
  <ele>386.000000</ele>
<time>2008-06-15T13:19:09Z</time>
  <name>TP3736</name>
</trkpt>
<trkpt lat="48.599444900" lon="9.122948300">
  <ele>386.000000</ele>
<time>2008-06-15T13:19:10Z</time>
  <name>TP3737</name>
</trkpt>
<trkpt lat="48.599448300" lon="9.122885000">
  <ele>386.000000</ele>
<time>2008-06-15T13:19:11Z</time>
  <name>TP3738</name>
</trkpt>
<trkpt lat="48.599474900" lon="9.122723300">
  <ele>386.000000</ele>
<time>2008-06-15T13:19:13Z</time>
  <name>TP3739</name>
</trkpt>
<trkpt lat="48.599456600" lon="9.122691600">
  <ele>386.000000</ele>
<time>2008-06-15T13:19:14Z</time>
  <name>TP3740</name>
</trkpt>
<trkpt lat="48.599476600" lon="9.122563300">
  <ele>386.000000</ele>
<time>2008-06-15T13:19:16Z</time>
  <name>TP3741</name>
</trkpt>
<trkpt lat="48.599454900" lon="9.122514900">
  <ele>386.000000</ele>
<time>2008-06-15T13:19:17Z</time>
  <name>TP3742</name>
</trkpt>
<trkpt lat="48.599456600" lon="9.122460000">
  <ele>386.000000</ele>
<time>2008-06-15T13:19:18Z</time>
  <name>TP3743</name>
</trkpt>
<trkpt lat="48.599448300" lon="9.122381600">
  <ele>385.000000</ele>
<time>2008-06-15T13:19:19Z</time>
  <name>TP3744</name>
</trkpt>
<trkpt lat="48.599423300" lon="9.122323300">
  <ele>385.000000</ele>
<time>2008-06-15T13:19:20Z</time>
  <name>TP3745</name>
</trkpt>
<trkpt lat="48.599418300" lon="9.122288300">
  <ele>385.000000</ele>
<time>2008-06-15T13:19:21Z</time>
  <name>TP3746</name>
</trkpt>
<trkpt lat="48.599403300" lon="9.122269900">
  <ele>385.000000</ele>
<time>2008-06-15T13:19:22Z</time>
  <name>TP3747</name>
</trkpt>
<trkpt lat="48.599395000" lon="9.122234900">
  <ele>385.000000</ele>
<time>2008-06-15T13:19:23Z</time>
  <name>TP3748</name>
</trkpt>
<trkpt lat="48.599391600" lon="9.122201600">
  <ele>385.000000</ele>
<time>2008-06-15T13:19:24Z</time>
  <name>TP3749</name>
</trkpt>
<trkpt lat="48.599373300" lon="9.122160000">
  <ele>385.000000</ele>
<time>2008-06-15T13:19:26Z</time>
  <name>TP3750</name>
</trkpt>
<trkpt lat="48.599364900" lon="9.122139900">
  <ele>385.000000</ele>
<time>2008-06-15T13:19:27Z</time>
  <name>TP3751</name>
</trkpt>
<trkpt lat="48.599336600" lon="9.122114900">
  <ele>385.000000</ele>
<time>2008-06-15T13:19:29Z</time>
  <name>TP3752</name>
</trkpt>
<trkpt lat="48.599329900" lon="9.122096600">
  <ele>385.000000</ele>
<time>2008-06-15T13:19:30Z</time>
  <name>TP3753</name>
</trkpt>
<trkpt lat="48.599321600" lon="9.122069900">
  <ele>385.000000</ele>
<time>2008-06-15T13:19:31Z</time>
  <name>TP3754</name>
</trkpt>
<trkpt lat="48.599319900" lon="9.122038300">
  <ele>385.000000</ele>
<time>2008-06-15T13:19:32Z</time>
  <name>TP3755</name>
</trkpt>
<trkpt lat="48.599316600" lon="9.121943300">
  <ele>386.000000</ele>
<time>2008-06-15T13:19:35Z</time>
  <name>TP3756</name>
</trkpt>
<trkpt lat="48.599325000" lon="9.121911600">
  <ele>385.000000</ele>
<time>2008-06-15T13:19:38Z</time>
  <name>TP3757</name>
</trkpt>
<trkpt lat="48.599331600" lon="9.121886600">
  <ele>385.000000</ele>
<time>2008-06-15T13:19:39Z</time>
  <name>TP3758</name>
</trkpt>
<trkpt lat="48.599333300" lon="9.121861600">
  <ele>386.000000</ele>
<time>2008-06-15T13:19:40Z</time>
  <name>TP3759</name>
</trkpt>
<trkpt lat="48.599328300" lon="9.121836600">
  <ele>385.000000</ele>
<time>2008-06-15T13:19:41Z</time>
  <name>TP3760</name>
</trkpt>
<trkpt lat="48.599325000" lon="9.121796600">
  <ele>386.000000</ele>
<time>2008-06-15T13:19:42Z</time>
  <name>TP3761</name>
</trkpt>
<trkpt lat="48.599336600" lon="9.121754900">
  <ele>386.000000</ele>
<time>2008-06-15T13:19:43Z</time>
  <name>TP3762</name>
</trkpt>
<trkpt lat="48.599331600" lon="9.121750000">
  <ele>386.000000</ele>
<time>2008-06-15T13:19:44Z</time>
  <name>TP3763</name>
</trkpt>
<trkpt lat="48.599333300" lon="9.121723300">
  <ele>386.000000</ele>
<time>2008-06-15T13:19:45Z</time>
  <name>TP3764</name>
</trkpt>
<trkpt lat="48.599355000" lon="9.121691600">
  <ele>386.000000</ele>
<time>2008-06-15T13:19:46Z</time>
  <name>TP3765</name>
</trkpt>
<trkpt lat="48.599391600" lon="9.121640000">
  <ele>385.000000</ele>
<time>2008-06-15T13:19:50Z</time>
  <name>TP3766</name>
</trkpt>
<trkpt lat="48.599416600" lon="9.121570000">
  <ele>384.000000</ele>
<time>2008-06-15T13:19:52Z</time>
  <name>TP3767</name>
</trkpt>
<trkpt lat="48.599425000" lon="9.121545000">
  <ele>384.000000</ele>
<time>2008-06-15T13:19:53Z</time>
  <name>TP3768</name>
</trkpt>
<trkpt lat="48.599441600" lon="9.121496600">
  <ele>383.000000</ele>
<time>2008-06-15T13:19:55Z</time>
  <name>TP3769</name>
</trkpt>
<trkpt lat="48.599446600" lon="9.121496600">
  <ele>384.000000</ele>
<time>2008-06-15T13:19:56Z</time>
  <name>TP3770</name>
</trkpt>
<trkpt lat="48.599480000" lon="9.121433300">
  <ele>383.000000</ele>
<time>2008-06-15T13:20:00Z</time>
  <name>TP3771</name>
</trkpt>
<trkpt lat="48.599511600" lon="9.121375000">
  <ele>383.000000</ele>
<time>2008-06-15T13:20:01Z</time>
  <name>TP3772</name>
</trkpt>
<trkpt lat="48.599535000" lon="9.121331600">
  <ele>383.000000</ele>
<time>2008-06-15T13:20:02Z</time>
  <name>TP3773</name>
</trkpt>
<trkpt lat="48.599533200" lon="9.121300000">
  <ele>383.000000</ele>
<time>2008-06-15T13:20:03Z</time>
  <name>TP3774</name>
</trkpt>
<trkpt lat="48.599521600" lon="9.121258300">
  <ele>383.000000</ele>
<time>2008-06-15T13:20:05Z</time>
  <name>TP3775</name>
</trkpt>
<trkpt lat="48.599528300" lon="9.121181600">
  <ele>384.000000</ele>
<time>2008-06-15T13:20:06Z</time>
  <name>TP3776</name>
</trkpt>
<trkpt lat="48.599518300" lon="9.121133300">
  <ele>384.000000</ele>
<time>2008-06-15T13:20:07Z</time>
  <name>TP3777</name>
</trkpt>
<trkpt lat="48.599523300" lon="9.121058300">
  <ele>384.000000</ele>
<time>2008-06-15T13:20:08Z</time>
  <name>TP3778</name>
</trkpt>
<trkpt lat="48.599546600" lon="9.121003300">
  <ele>384.000000</ele>
<time>2008-06-15T13:20:09Z</time>
  <name>TP3779</name>
</trkpt>
<trkpt lat="48.599584900" lon="9.120925000">
  <ele>385.000000</ele>
<time>2008-06-15T13:20:10Z</time>
  <name>TP3780</name>
</trkpt>
<trkpt lat="48.599591600" lon="9.120873300">
  <ele>385.000000</ele>
<time>2008-06-15T13:20:11Z</time>
  <name>TP3781</name>
</trkpt>
<trkpt lat="48.599590000" lon="9.120834900">
  <ele>385.000000</ele>
<time>2008-06-15T13:20:12Z</time>
  <name>TP3782</name>
</trkpt>
<trkpt lat="48.599591600" lon="9.120809900">
  <ele>384.000000</ele>
<time>2008-06-15T13:20:13Z</time>
  <name>TP3783</name>
</trkpt>
<trkpt lat="48.599594900" lon="9.120788300">
  <ele>384.000000</ele>
<time>2008-06-15T13:20:14Z</time>
  <name>TP3784</name>
</trkpt>
<trkpt lat="48.599601600" lon="9.120733300">
  <ele>384.000000</ele>
<time>2008-06-15T13:20:16Z</time>
  <name>TP3785</name>
</trkpt>
<trkpt lat="48.599606600" lon="9.120703300">
  <ele>384.000000</ele>
<time>2008-06-15T13:20:17Z</time>
  <name>TP3786</name>
</trkpt>
<trkpt lat="48.599611600" lon="9.120676600">
  <ele>384.000000</ele>
<time>2008-06-15T13:20:18Z</time>
  <name>TP3787</name>
</trkpt>
<trkpt lat="48.599618200" lon="9.120650000">
  <ele>384.000000</ele>
<time>2008-06-15T13:20:19Z</time>
  <name>TP3788</name>
</trkpt>
<trkpt lat="48.599675000" lon="9.120475000">
  <ele>383.000000</ele>
<time>2008-06-15T13:20:23Z</time>
  <name>TP3789</name>
</trkpt>
<trkpt lat="48.599813200" lon="9.120143300">
  <ele>383.000000</ele>
<time>2008-06-15T13:20:29Z</time>
  <name>TP3790</name>
</trkpt>
<trkpt lat="48.599845000" lon="9.120091600">
  <ele>384.000000</ele>
<time>2008-06-15T13:20:30Z</time>
  <name>TP3791</name>
</trkpt>
<trkpt lat="48.599885000" lon="9.120079900">
  <ele>386.000000</ele>
<time>2008-06-15T13:20:31Z</time>
  <name>TP3792</name>
</trkpt>
<trkpt lat="48.599924900" lon="9.120068300">
  <ele>387.000000</ele>
<time>2008-06-15T13:20:32Z</time>
  <name>TP3793</name>
</trkpt>
<trkpt lat="48.600006600" lon="9.120051600">
  <ele>388.000000</ele>
<time>2008-06-15T13:20:34Z</time>
  <name>TP3794</name>
</trkpt>
<trkpt lat="48.600141600" lon="9.120023300">
  <ele>389.000000</ele>
<time>2008-06-15T13:20:37Z</time>
  <name>TP3795</name>
</trkpt>
<trkpt lat="48.600174900" lon="9.120014900">
  <ele>390.000000</ele>
<time>2008-06-15T13:20:38Z</time>
  <name>TP3796</name>
</trkpt>
<trkpt lat="48.600211600" lon="9.119998300">
  <ele>390.000000</ele>
<time>2008-06-15T13:20:39Z</time>
  <name>TP3797</name>
</trkpt>
<trkpt lat="48.600238300" lon="9.119978300">
  <ele>391.000000</ele>
<time>2008-06-15T13:20:40Z</time>
  <name>TP3798</name>
</trkpt>
<trkpt lat="48.600258300" lon="9.119956600">
  <ele>391.000000</ele>
<time>2008-06-15T13:20:41Z</time>
  <name>TP3799</name>
</trkpt>
<trkpt lat="48.600274900" lon="9.119944900">
  <ele>391.000000</ele>
<time>2008-06-15T13:20:42Z</time>
  <name>TP3800</name>
</trkpt>
<trkpt lat="48.600323300" lon="9.119995000">
  <ele>391.000000</ele>
<time>2008-06-15T13:20:44Z</time>
  <name>TP3801</name>
</trkpt>
<trkpt lat="48.600344900" lon="9.119968300">
  <ele>389.000000</ele>
<time>2008-06-15T13:20:45Z</time>
  <name>TP3802</name>
</trkpt>
<trkpt lat="48.600348300" lon="9.119968300">
  <ele>388.000000</ele>
<time>2008-06-15T13:20:46Z</time>
  <name>TP3803</name>
</trkpt>
<trkpt lat="48.600379900" lon="9.119931600">
  <ele>387.000000</ele>
<time>2008-06-15T13:20:47Z</time>
  <name>TP3804</name>
</trkpt>
<trkpt lat="48.600401600" lon="9.119946600">
  <ele>387.000000</ele>
<time>2008-06-15T13:20:48Z</time>
  <name>TP3805</name>
</trkpt>
<trkpt lat="48.600418300" lon="9.119963300">
  <ele>387.000000</ele>
<time>2008-06-15T13:20:49Z</time>
  <name>TP3806</name>
</trkpt>
<trkpt lat="48.600494900" lon="9.119981600">
  <ele>389.000000</ele>
<time>2008-06-15T13:20:52Z</time>
  <name>TP3807</name>
</trkpt>
<trkpt lat="48.600524900" lon="9.120004900">
  <ele>389.000000</ele>
<time>2008-06-15T13:20:53Z</time>
  <name>TP3808</name>
</trkpt>
<trkpt lat="48.600551600" lon="9.120013300">
  <ele>389.000000</ele>
<time>2008-06-15T13:20:54Z</time>
  <name>TP3809</name>
</trkpt>
<trkpt lat="48.600576600" lon="9.120003300">
  <ele>389.000000</ele>
<time>2008-06-15T13:20:55Z</time>
  <name>TP3810</name>
</trkpt>
<trkpt lat="48.600585000" lon="9.119996600">
  <ele>389.000000</ele>
<time>2008-06-15T13:20:56Z</time>
  <name>TP3811</name>
</trkpt>
<trkpt lat="48.600598200" lon="9.119984900">
  <ele>389.000000</ele>
<time>2008-06-15T13:20:57Z</time>
  <name>TP3812</name>
</trkpt>
<trkpt lat="48.600655000" lon="9.119978300">
  <ele>390.000000</ele>
<time>2008-06-15T13:21:00Z</time>
  <name>TP3813</name>
</trkpt>
<trkpt lat="48.600670000" lon="9.119969900">
  <ele>390.000000</ele>
<time>2008-06-15T13:21:01Z</time>
  <name>TP3814</name>
</trkpt>
<trkpt lat="48.600700000" lon="9.119946600">
  <ele>390.000000</ele>
<time>2008-06-15T13:21:04Z</time>
  <name>TP3815</name>
</trkpt>
<trkpt lat="48.600716600" lon="9.119930000">
  <ele>390.000000</ele>
<time>2008-06-15T13:21:05Z</time>
  <name>TP3816</name>
</trkpt>
<trkpt lat="48.600743300" lon="9.119921600">
  <ele>390.000000</ele>
<time>2008-06-15T13:21:06Z</time>
  <name>TP3817</name>
</trkpt>
<trkpt lat="48.600786600" lon="9.119871600">
  <ele>388.000000</ele>
<time>2008-06-15T13:21:08Z</time>
  <name>TP3818</name>
</trkpt>
<trkpt lat="48.600868300" lon="9.119753300">
  <ele>388.000000</ele>
<time>2008-06-15T13:21:12Z</time>
  <name>TP3819</name>
</trkpt>
<trkpt lat="48.600889900" lon="9.119723300">
  <ele>388.000000</ele>
<time>2008-06-15T13:21:13Z</time>
  <name>TP3820</name>
</trkpt>
<trkpt lat="48.600910000" lon="9.119690000">
  <ele>388.000000</ele>
<time>2008-06-15T13:21:14Z</time>
  <name>TP3821</name>
</trkpt>
<trkpt lat="48.600926600" lon="9.119651600">
  <ele>389.000000</ele>
<time>2008-06-15T13:21:15Z</time>
  <name>TP3822</name>
</trkpt>
<trkpt lat="48.600936600" lon="9.119606600">
  <ele>389.000000</ele>
<time>2008-06-15T13:21:16Z</time>
  <name>TP3823</name>
</trkpt>
<trkpt lat="48.600935000" lon="9.119581600">
  <ele>388.000000</ele>
<time>2008-06-15T13:21:17Z</time>
  <name>TP3824</name>
</trkpt>
<trkpt lat="48.600938300" lon="9.119543300">
  <ele>388.000000</ele>
<time>2008-06-15T13:21:18Z</time>
  <name>TP3825</name>
</trkpt>
<trkpt lat="48.600954900" lon="9.119534900">
  <ele>388.000000</ele>
<time>2008-06-15T13:21:19Z</time>
  <name>TP3826</name>
</trkpt>
<trkpt lat="48.600954900" lon="9.119521600">
  <ele>389.000000</ele>
<time>2008-06-15T13:21:20Z</time>
  <name>TP3827</name>
</trkpt>
<trkpt lat="48.600961600" lon="9.119501600">
  <ele>389.000000</ele>
<time>2008-06-15T13:21:21Z</time>
  <name>TP3828</name>
</trkpt>
<trkpt lat="48.600981600" lon="9.119475000">
  <ele>389.000000</ele>
<time>2008-06-15T13:21:24Z</time>
  <name>TP3829</name>
</trkpt>
<trkpt lat="48.601023300" lon="9.119463300">
  <ele>390.000000</ele>
<time>2008-06-15T13:21:25Z</time>
  <name>TP3830</name>
</trkpt>
<trkpt lat="48.601041600" lon="9.119458300">
  <ele>391.000000</ele>
<time>2008-06-15T13:21:26Z</time>
  <name>TP3831</name>
</trkpt>
<trkpt lat="48.601053300" lon="9.119461600">
  <ele>391.000000</ele>
<time>2008-06-15T13:21:27Z</time>
  <name>TP3832</name>
</trkpt>
<trkpt lat="48.601061600" lon="9.119415000">
  <ele>391.000000</ele>
<time>2008-06-15T13:21:29Z</time>
  <name>TP3833</name>
</trkpt>
<trkpt lat="48.601106600" lon="9.119356600">
  <ele>391.000000</ele>
<time>2008-06-15T13:21:30Z</time>
  <name>TP3834</name>
</trkpt>
<trkpt lat="48.601149900" lon="9.119289900">
  <ele>392.000000</ele>
<time>2008-06-15T13:21:31Z</time>
  <name>TP3835</name>
</trkpt>
<trkpt lat="48.601179900" lon="9.119268300">
  <ele>392.000000</ele>
<time>2008-06-15T13:21:32Z</time>
  <name>TP3836</name>
</trkpt>
<trkpt lat="48.601203300" lon="9.119226600">
  <ele>393.000000</ele>
<time>2008-06-15T13:21:33Z</time>
  <name>TP3837</name>
</trkpt>
<trkpt lat="48.601219900" lon="9.119196600">
  <ele>394.000000</ele>
<time>2008-06-15T13:21:34Z</time>
  <name>TP3838</name>
</trkpt>
<trkpt lat="48.601223300" lon="9.119170000">
  <ele>394.000000</ele>
<time>2008-06-15T13:21:35Z</time>
  <name>TP3839</name>
</trkpt>
<trkpt lat="48.601214900" lon="9.119089900">
  <ele>394.000000</ele>
<time>2008-06-15T13:21:37Z</time>
  <name>TP3840</name>
</trkpt>
<trkpt lat="48.601236600" lon="9.119035000">
  <ele>395.000000</ele>
<time>2008-06-15T13:21:39Z</time>
  <name>TP3841</name>
</trkpt>
<trkpt lat="48.601275000" lon="9.118986600">
  <ele>396.000000</ele>
<time>2008-06-15T13:21:41Z</time>
  <name>TP3842</name>
</trkpt>
<trkpt lat="48.601326600" lon="9.118923300">
  <ele>397.000000</ele>
<time>2008-06-15T13:21:43Z</time>
  <name>TP3843</name>
</trkpt>
<trkpt lat="48.601408300" lon="9.118785000">
  <ele>401.000000</ele>
<time>2008-06-15T13:21:47Z</time>
  <name>TP3844</name>
</trkpt>
<trkpt lat="48.601411600" lon="9.118761600">
  <ele>401.000000</ele>
<time>2008-06-15T13:21:48Z</time>
  <name>TP3845</name>
</trkpt>
<trkpt lat="48.601418300" lon="9.118746600">
  <ele>401.000000</ele>
<time>2008-06-15T13:21:49Z</time>
  <name>TP3846</name>
</trkpt>
<trkpt lat="48.601429900" lon="9.118743300">
  <ele>402.000000</ele>
<time>2008-06-15T13:21:50Z</time>
  <name>TP3847</name>
</trkpt>
<trkpt lat="48.601428300" lon="9.118725000">
  <ele>402.000000</ele>
<time>2008-06-15T13:21:51Z</time>
  <name>TP3848</name>
</trkpt>
<trkpt lat="48.601440000" lon="9.118709900">
  <ele>402.000000</ele>
<time>2008-06-15T13:21:52Z</time>
  <name>TP3849</name>
</trkpt>
<trkpt lat="48.601449900" lon="9.118673300">
  <ele>403.000000</ele>
<time>2008-06-15T13:21:53Z</time>
  <name>TP3850</name>
</trkpt>
<trkpt lat="48.601451600" lon="9.118631600">
  <ele>403.000000</ele>
<time>2008-06-15T13:21:55Z</time>
  <name>TP3851</name>
</trkpt>
<trkpt lat="48.601468200" lon="9.118596600">
  <ele>404.000000</ele>
<time>2008-06-15T13:21:57Z</time>
  <name>TP3852</name>
</trkpt>
<trkpt lat="48.601485000" lon="9.118561600">
  <ele>404.000000</ele>
<time>2008-06-15T13:21:58Z</time>
  <name>TP3853</name>
</trkpt>
<trkpt lat="48.601543300" lon="9.118515000">
  <ele>405.000000</ele>
<time>2008-06-15T13:22:02Z</time>
  <name>TP3854</name>
</trkpt>
<trkpt lat="48.601558300" lon="9.118483300">
  <ele>406.000000</ele>
<time>2008-06-15T13:22:04Z</time>
  <name>TP3855</name>
</trkpt>
<trkpt lat="48.601564900" lon="9.118464900">
  <ele>406.000000</ele>
<time>2008-06-15T13:22:05Z</time>
  <name>TP3856</name>
</trkpt>
<trkpt lat="48.601581600" lon="9.118433300">
  <ele>406.000000</ele>
<time>2008-06-15T13:22:06Z</time>
  <name>TP3857</name>
</trkpt>
<trkpt lat="48.601614900" lon="9.118391600">
  <ele>407.000000</ele>
<time>2008-06-15T13:22:07Z</time>
  <name>TP3858</name>
</trkpt>
<trkpt lat="48.601634900" lon="9.118376600">
  <ele>407.000000</ele>
<time>2008-06-15T13:22:08Z</time>
  <name>TP3859</name>
</trkpt>
<trkpt lat="48.601646600" lon="9.118329900">
  <ele>407.000000</ele>
<time>2008-06-15T13:22:10Z</time>
  <name>TP3860</name>
</trkpt>
<trkpt lat="48.601651600" lon="9.118308300">
  <ele>407.000000</ele>
<time>2008-06-15T13:22:11Z</time>
  <name>TP3861</name>
</trkpt>
<trkpt lat="48.601659900" lon="9.118285000">
  <ele>407.000000</ele>
<time>2008-06-15T13:22:12Z</time>
  <name>TP3862</name>
</trkpt>
<trkpt lat="48.601678200" lon="9.118241600">
  <ele>408.000000</ele>
<time>2008-06-15T13:22:13Z</time>
  <name>TP3863</name>
</trkpt>
<trkpt lat="48.601709900" lon="9.118213300">
  <ele>408.000000</ele>
<time>2008-06-15T13:22:14Z</time>
  <name>TP3864</name>
</trkpt>
<trkpt lat="48.601723300" lon="9.118193300">
  <ele>408.000000</ele>
<time>2008-06-15T13:22:15Z</time>
  <name>TP3865</name>
</trkpt>
<trkpt lat="48.601738300" lon="9.118175000">
  <ele>409.000000</ele>
<time>2008-06-15T13:22:16Z</time>
  <name>TP3866</name>
</trkpt>
<trkpt lat="48.601751600" lon="9.118163300">
  <ele>409.000000</ele>
<time>2008-06-15T13:22:17Z</time>
  <name>TP3867</name>
</trkpt>
<trkpt lat="48.601759900" lon="9.118141600">
  <ele>410.000000</ele>
<time>2008-06-15T13:22:18Z</time>
  <name>TP3868</name>
</trkpt>
<trkpt lat="48.601773300" lon="9.118121600">
  <ele>410.000000</ele>
<time>2008-06-15T13:22:19Z</time>
  <name>TP3869</name>
</trkpt>
<trkpt lat="48.601790000" lon="9.118063300">
  <ele>410.000000</ele>
<time>2008-06-15T13:22:21Z</time>
  <name>TP3870</name>
</trkpt>
<trkpt lat="48.601814900" lon="9.117981600">
  <ele>411.000000</ele>
<time>2008-06-15T13:22:23Z</time>
  <name>TP3871</name>
</trkpt>
<trkpt lat="48.601831600" lon="9.117963300">
  <ele>411.000000</ele>
<time>2008-06-15T13:22:24Z</time>
  <name>TP3872</name>
</trkpt>
<trkpt lat="48.601843300" lon="9.117909900">
  <ele>411.000000</ele>
<time>2008-06-15T13:22:26Z</time>
  <name>TP3873</name>
</trkpt>
<trkpt lat="48.601851600" lon="9.117874900">
  <ele>411.000000</ele>
<time>2008-06-15T13:22:28Z</time>
  <name>TP3874</name>
</trkpt>
<trkpt lat="48.601863300" lon="9.117873300">
  <ele>411.000000</ele>
<time>2008-06-15T13:22:29Z</time>
  <name>TP3875</name>
</trkpt>
<trkpt lat="48.601881600" lon="9.117870000">
  <ele>411.000000</ele>
<time>2008-06-15T13:22:30Z</time>
  <name>TP3876</name>
</trkpt>
<trkpt lat="48.601899900" lon="9.117883300">
  <ele>411.000000</ele>
<time>2008-06-15T13:22:31Z</time>
  <name>TP3877</name>
</trkpt>
<trkpt lat="48.601911600" lon="9.117851600">
  <ele>411.000000</ele>
<time>2008-06-15T13:22:32Z</time>
  <name>TP3878</name>
</trkpt>
<trkpt lat="48.601931600" lon="9.117821600">
  <ele>411.000000</ele>
<time>2008-06-15T13:22:33Z</time>
  <name>TP3879</name>
</trkpt>
<trkpt lat="48.601986600" lon="9.117751600">
  <ele>412.000000</ele>
<time>2008-06-15T13:22:34Z</time>
  <name>TP3880</name>
</trkpt>
<trkpt lat="48.602049900" lon="9.117614900">
  <ele>413.000000</ele>
<time>2008-06-15T13:22:36Z</time>
  <name>TP3881</name>
</trkpt>
<trkpt lat="48.602061600" lon="9.117563300">
  <ele>413.000000</ele>
<time>2008-06-15T13:22:37Z</time>
  <name>TP3882</name>
</trkpt>
<trkpt lat="48.602083300" lon="9.117515000">
  <ele>414.000000</ele>
<time>2008-06-15T13:22:38Z</time>
  <name>TP3883</name>
</trkpt>
<trkpt lat="48.602106600" lon="9.117469900">
  <ele>415.000000</ele>
<time>2008-06-15T13:22:39Z</time>
  <name>TP3884</name>
</trkpt>
<trkpt lat="48.602164900" lon="9.117396600">
  <ele>417.000000</ele>
<time>2008-06-15T13:22:41Z</time>
  <name>TP3885</name>
</trkpt>
<trkpt lat="48.602159900" lon="9.117364900">
  <ele>418.000000</ele>
<time>2008-06-15T13:22:43Z</time>
  <name>TP3886</name>
</trkpt>
<trkpt lat="48.602170000" lon="9.117336600">
  <ele>418.000000</ele>
<time>2008-06-15T13:22:45Z</time>
  <name>TP3887</name>
</trkpt>
<trkpt lat="48.602189900" lon="9.117310000">
  <ele>417.000000</ele>
<time>2008-06-15T13:22:47Z</time>
  <name>TP3888</name>
</trkpt>
<trkpt lat="48.602198300" lon="9.117273300">
  <ele>417.000000</ele>
<time>2008-06-15T13:22:48Z</time>
  <name>TP3889</name>
</trkpt>
<trkpt lat="48.602193300" lon="9.117258300">
  <ele>417.000000</ele>
<time>2008-06-15T13:22:49Z</time>
  <name>TP3890</name>
</trkpt>
<trkpt lat="48.602191600" lon="9.117229900">
  <ele>416.000000</ele>
<time>2008-06-15T13:22:50Z</time>
  <name>TP3891</name>
</trkpt>
<trkpt lat="48.602203300" lon="9.117203300">
  <ele>417.000000</ele>
<time>2008-06-15T13:22:51Z</time>
  <name>TP3892</name>
</trkpt>
<trkpt lat="48.602201600" lon="9.117176600">
  <ele>416.000000</ele>
<time>2008-06-15T13:22:52Z</time>
  <name>TP3893</name>
</trkpt>
<trkpt lat="48.602204900" lon="9.117163300">
  <ele>416.000000</ele>
<time>2008-06-15T13:22:53Z</time>
  <name>TP3894</name>
</trkpt>
<trkpt lat="48.602200000" lon="9.117146600">
  <ele>417.000000</ele>
<time>2008-06-15T13:22:54Z</time>
  <name>TP3895</name>
</trkpt>
<trkpt lat="48.602218300" lon="9.117115000">
  <ele>416.000000</ele>
<time>2008-06-15T13:22:56Z</time>
  <name>TP3896</name>
</trkpt>
<trkpt lat="48.602213300" lon="9.117088300">
  <ele>416.000000</ele>
<time>2008-06-15T13:22:57Z</time>
  <name>TP3897</name>
</trkpt>
<trkpt lat="48.602200000" lon="9.117049900">
  <ele>416.000000</ele>
<time>2008-06-15T13:22:58Z</time>
  <name>TP3898</name>
</trkpt>
<trkpt lat="48.602201600" lon="9.117008300">
  <ele>416.000000</ele>
<time>2008-06-15T13:23:00Z</time>
  <name>TP3899</name>
</trkpt>
<trkpt lat="48.602201600" lon="9.116975000">
  <ele>416.000000</ele>
<time>2008-06-15T13:23:01Z</time>
  <name>TP3900</name>
</trkpt>
<trkpt lat="48.602204900" lon="9.116938300">
  <ele>416.000000</ele>
<time>2008-06-15T13:23:02Z</time>
  <name>TP3901</name>
</trkpt>
<trkpt lat="48.602221600" lon="9.116916600">
  <ele>416.000000</ele>
<time>2008-06-15T13:23:03Z</time>
  <name>TP3902</name>
</trkpt>
<trkpt lat="48.602214900" lon="9.116875000">
  <ele>416.000000</ele>
<time>2008-06-15T13:23:04Z</time>
  <name>TP3903</name>
</trkpt>
<trkpt lat="48.602238200" lon="9.116870000">
  <ele>416.000000</ele>
<time>2008-06-15T13:23:05Z</time>
  <name>TP3904</name>
</trkpt>
<trkpt lat="48.602229900" lon="9.116816600">
  <ele>416.000000</ele>
<time>2008-06-15T13:23:06Z</time>
  <name>TP3905</name>
</trkpt>
<trkpt lat="48.602228300" lon="9.116768300">
  <ele>416.000000</ele>
<time>2008-06-15T13:23:07Z</time>
  <name>TP3906</name>
</trkpt>
<trkpt lat="48.602263300" lon="9.116723300">
  <ele>417.000000</ele>
<time>2008-06-15T13:23:08Z</time>
  <name>TP3907</name>
</trkpt>
<trkpt lat="48.602279900" lon="9.116716600">
  <ele>417.000000</ele>
<time>2008-06-15T13:23:09Z</time>
  <name>TP3908</name>
</trkpt>
<trkpt lat="48.602286600" lon="9.116691600">
  <ele>417.000000</ele>
<time>2008-06-15T13:23:10Z</time>
  <name>TP3909</name>
</trkpt>
<trkpt lat="48.602288300" lon="9.116670000">
  <ele>417.000000</ele>
<time>2008-06-15T13:23:11Z</time>
  <name>TP3910</name>
</trkpt>
<trkpt lat="48.602276600" lon="9.116601600">
  <ele>417.000000</ele>
<time>2008-06-15T13:23:12Z</time>
  <name>TP3911</name>
</trkpt>
<trkpt lat="48.602308200" lon="9.116543300">
  <ele>418.000000</ele>
<time>2008-06-15T13:23:14Z</time>
  <name>TP3912</name>
</trkpt>
<trkpt lat="48.602318300" lon="9.116483300">
  <ele>418.000000</ele>
<time>2008-06-15T13:23:16Z</time>
  <name>TP3913</name>
</trkpt>
<trkpt lat="48.602299900" lon="9.116331600">
  <ele>418.000000</ele>
<time>2008-06-15T13:23:18Z</time>
  <name>TP3914</name>
</trkpt>
<trkpt lat="48.602334900" lon="9.116251600">
  <ele>418.000000</ele>
<time>2008-06-15T13:23:19Z</time>
  <name>TP3915</name>
</trkpt>
<trkpt lat="48.602359900" lon="9.116210000">
  <ele>419.000000</ele>
<time>2008-06-15T13:23:20Z</time>
  <name>TP3916</name>
</trkpt>
<trkpt lat="48.602373300" lon="9.116201600">
  <ele>419.000000</ele>
<time>2008-06-15T13:23:21Z</time>
  <name>TP3917</name>
</trkpt>
<trkpt lat="48.602374900" lon="9.116179900">
  <ele>419.000000</ele>
<time>2008-06-15T13:23:22Z</time>
  <name>TP3918</name>
</trkpt>
<trkpt lat="48.602365000" lon="9.116138300">
  <ele>419.000000</ele>
<time>2008-06-15T13:23:23Z</time>
  <name>TP3919</name>
</trkpt>
<trkpt lat="48.602349900" lon="9.116106600">
  <ele>419.000000</ele>
<time>2008-06-15T13:23:24Z</time>
  <name>TP3920</name>
</trkpt>
<trkpt lat="48.602340000" lon="9.115958300">
  <ele>418.000000</ele>
<time>2008-06-15T13:23:26Z</time>
  <name>TP3921</name>
</trkpt>
<trkpt lat="48.602334900" lon="9.115906600">
  <ele>418.000000</ele>
<time>2008-06-15T13:23:27Z</time>
  <name>TP3922</name>
</trkpt>
<trkpt lat="48.602333300" lon="9.115864900">
  <ele>417.000000</ele>
<time>2008-06-15T13:23:28Z</time>
  <name>TP3923</name>
</trkpt>
<trkpt lat="48.602369900" lon="9.115671600">
  <ele>417.000000</ele>
<time>2008-06-15T13:23:32Z</time>
  <name>TP3924</name>
</trkpt>
<trkpt lat="48.602384900" lon="9.115648300">
  <ele>417.000000</ele>
<time>2008-06-15T13:23:33Z</time>
  <name>TP3925</name>
</trkpt>
<trkpt lat="48.602423300" lon="9.115548300">
  <ele>417.000000</ele>
<time>2008-06-15T13:23:35Z</time>
  <name>TP3926</name>
</trkpt>
<trkpt lat="48.602443300" lon="9.115484900">
  <ele>417.000000</ele>
<time>2008-06-15T13:23:36Z</time>
  <name>TP3927</name>
</trkpt>
<trkpt lat="48.602476600" lon="9.115404900">
  <ele>417.000000</ele>
<time>2008-06-15T13:23:37Z</time>
  <name>TP3928</name>
</trkpt>
<trkpt lat="48.602498300" lon="9.115376600">
  <ele>417.000000</ele>
<time>2008-06-15T13:23:38Z</time>
  <name>TP3929</name>
</trkpt>
<trkpt lat="48.602509900" lon="9.115361600">
  <ele>417.000000</ele>
<time>2008-06-15T13:23:39Z</time>
  <name>TP3930</name>
</trkpt>
<trkpt lat="48.602514900" lon="9.115334900">
  <ele>417.000000</ele>
<time>2008-06-15T13:23:40Z</time>
  <name>TP3931</name>
</trkpt>
<trkpt lat="48.602524900" lon="9.115283300">
  <ele>417.000000</ele>
<time>2008-06-15T13:23:42Z</time>
  <name>TP3932</name>
</trkpt>
<trkpt lat="48.602554900" lon="9.115238300">
  <ele>417.000000</ele>
<time>2008-06-15T13:23:44Z</time>
  <name>TP3933</name>
</trkpt>
<trkpt lat="48.602556600" lon="9.115198300">
  <ele>418.000000</ele>
<time>2008-06-15T13:23:45Z</time>
  <name>TP3934</name>
</trkpt>
<trkpt lat="48.602598300" lon="9.115156600">
  <ele>418.000000</ele>
<time>2008-06-15T13:23:47Z</time>
  <name>TP3935</name>
</trkpt>
<trkpt lat="48.602590000" lon="9.115116600">
  <ele>418.000000</ele>
<time>2008-06-15T13:23:48Z</time>
  <name>TP3936</name>
</trkpt>
<trkpt lat="48.602583300" lon="9.115036600">
  <ele>417.000000</ele>
<time>2008-06-15T13:23:49Z</time>
  <name>TP3937</name>
</trkpt>
<trkpt lat="48.602583300" lon="9.114991600">
  <ele>417.000000</ele>
<time>2008-06-15T13:23:50Z</time>
  <name>TP3938</name>
</trkpt>
<trkpt lat="48.602576600" lon="9.114968300">
  <ele>417.000000</ele>
<time>2008-06-15T13:23:51Z</time>
  <name>TP3939</name>
</trkpt>
<trkpt lat="48.602590000" lon="9.114964900">
  <ele>416.000000</ele>
<time>2008-06-15T13:23:52Z</time>
  <name>TP3940</name>
</trkpt>
<trkpt lat="48.602584900" lon="9.114934900">
  <ele>416.000000</ele>
<time>2008-06-15T13:23:53Z</time>
  <name>TP3941</name>
</trkpt>
<trkpt lat="48.602584900" lon="9.114916600">
  <ele>416.000000</ele>
<time>2008-06-15T13:23:54Z</time>
  <name>TP3942</name>
</trkpt>
<trkpt lat="48.602593300" lon="9.114901600">
  <ele>416.000000</ele>
<time>2008-06-15T13:23:55Z</time>
  <name>TP3943</name>
</trkpt>
<trkpt lat="48.602579900" lon="9.114853300">
  <ele>416.000000</ele>
<time>2008-06-15T13:23:56Z</time>
  <name>TP3944</name>
</trkpt>
<trkpt lat="48.602593300" lon="9.114770000">
  <ele>416.000000</ele>
<time>2008-06-15T13:23:57Z</time>
  <name>TP3945</name>
</trkpt>
<trkpt lat="48.602569900" lon="9.114688300">
  <ele>417.000000</ele>
<time>2008-06-15T13:24:00Z</time>
  <name>TP3946</name>
</trkpt>
<trkpt lat="48.602578300" lon="9.114668300">
  <ele>417.000000</ele>
<time>2008-06-15T13:24:01Z</time>
  <name>TP3947</name>
</trkpt>
<trkpt lat="48.602579900" lon="9.114631600">
  <ele>416.000000</ele>
<time>2008-06-15T13:24:02Z</time>
  <name>TP3948</name>
</trkpt>
<trkpt lat="48.602591600" lon="9.114595000">
  <ele>416.000000</ele>
<time>2008-06-15T13:24:03Z</time>
  <name>TP3949</name>
</trkpt>
<trkpt lat="48.602591600" lon="9.114549900">
  <ele>417.000000</ele>
<time>2008-06-15T13:24:04Z</time>
  <name>TP3950</name>
</trkpt>
<trkpt lat="48.602626600" lon="9.114448300">
  <ele>417.000000</ele>
<time>2008-06-15T13:24:06Z</time>
  <name>TP3951</name>
</trkpt>
<trkpt lat="48.602649900" lon="9.114363300">
  <ele>417.000000</ele>
<time>2008-06-15T13:24:08Z</time>
  <name>TP3952</name>
</trkpt>
<trkpt lat="48.602669900" lon="9.114341600">
  <ele>417.000000</ele>
<time>2008-06-15T13:24:09Z</time>
  <name>TP3953</name>
</trkpt>
<trkpt lat="48.602690000" lon="9.114321600">
  <ele>417.000000</ele>
<time>2008-06-15T13:24:10Z</time>
  <name>TP3954</name>
</trkpt>
<trkpt lat="48.602698300" lon="9.114261600">
  <ele>417.000000</ele>
<time>2008-06-15T13:24:11Z</time>
  <name>TP3955</name>
</trkpt>
<trkpt lat="48.602703300" lon="9.114193300">
  <ele>417.000000</ele>
<time>2008-06-15T13:24:12Z</time>
  <name>TP3956</name>
</trkpt>
<trkpt lat="48.602698300" lon="9.114115000">
  <ele>417.000000</ele>
<time>2008-06-15T13:24:13Z</time>
  <name>TP3957</name>
</trkpt>
<trkpt lat="48.602694900" lon="9.114058300">
  <ele>417.000000</ele>
<time>2008-06-15T13:24:14Z</time>
  <name>TP3958</name>
</trkpt>
<trkpt lat="48.602701600" lon="9.114025000">
  <ele>417.000000</ele>
<time>2008-06-15T13:24:15Z</time>
  <name>TP3959</name>
</trkpt>
<trkpt lat="48.602741600" lon="9.113990000">
  <ele>417.000000</ele>
<time>2008-06-15T13:24:16Z</time>
  <name>TP3960</name>
</trkpt>
<trkpt lat="48.602746600" lon="9.113969900">
  <ele>417.000000</ele>
<time>2008-06-15T13:24:17Z</time>
  <name>TP3961</name>
</trkpt>
<trkpt lat="48.602760000" lon="9.113918300">
  <ele>417.000000</ele>
<time>2008-06-15T13:24:18Z</time>
  <name>TP3962</name>
</trkpt>
<trkpt lat="48.602776600" lon="9.113874900">
  <ele>417.000000</ele>
<time>2008-06-15T13:24:19Z</time>
  <name>TP3963</name>
</trkpt>
<trkpt lat="48.602831600" lon="9.113821600">
  <ele>417.000000</ele>
<time>2008-06-15T13:24:21Z</time>
  <name>TP3964</name>
</trkpt>
<trkpt lat="48.602878300" lon="9.113740000">
  <ele>417.000000</ele>
<time>2008-06-15T13:24:22Z</time>
  <name>TP3965</name>
</trkpt>
<trkpt lat="48.602906600" lon="9.113659900">
  <ele>416.000000</ele>
<time>2008-06-15T13:24:23Z</time>
  <name>TP3966</name>
</trkpt>
<trkpt lat="48.602908300" lon="9.113543300">
  <ele>416.000000</ele>
<time>2008-06-15T13:24:24Z</time>
  <name>TP3967</name>
</trkpt>
<trkpt lat="48.602891600" lon="9.113454900">
  <ele>415.000000</ele>
<time>2008-06-15T13:24:25Z</time>
  <name>TP3968</name>
</trkpt>
<trkpt lat="48.602881600" lon="9.113393300">
  <ele>414.000000</ele>
<time>2008-06-15T13:24:26Z</time>
  <name>TP3969</name>
</trkpt>
<trkpt lat="48.602894900" lon="9.113358300">
  <ele>414.000000</ele>
<time>2008-06-15T13:24:27Z</time>
  <name>TP3970</name>
</trkpt>
<trkpt lat="48.602908300" lon="9.113328300">
  <ele>413.000000</ele>
<time>2008-06-15T13:24:28Z</time>
  <name>TP3971</name>
</trkpt>
<trkpt lat="48.602971600" lon="9.113288300">
  <ele>411.000000</ele>
<time>2008-06-15T13:24:29Z</time>
  <name>TP3972</name>
</trkpt>
<trkpt lat="48.602970000" lon="9.113261600">
  <ele>410.000000</ele>
<time>2008-06-15T13:24:30Z</time>
  <name>TP3973</name>
</trkpt>
<trkpt lat="48.602951600" lon="9.113236600">
  <ele>410.000000</ele>
<time>2008-06-15T13:24:31Z</time>
  <name>TP3974</name>
</trkpt>
<trkpt lat="48.602936600" lon="9.113209900">
  <ele>409.000000</ele>
<time>2008-06-15T13:24:32Z</time>
  <name>TP3975</name>
</trkpt>
<trkpt lat="48.602926600" lon="9.113186600">
  <ele>409.000000</ele>
<time>2008-06-15T13:24:33Z</time>
  <name>TP3976</name>
</trkpt>
<trkpt lat="48.602925000" lon="9.113125000">
  <ele>407.000000</ele>
<time>2008-06-15T13:24:34Z</time>
  <name>TP3977</name>
</trkpt>
<trkpt lat="48.602898200" lon="9.113093300">
  <ele>406.000000</ele>
<time>2008-06-15T13:24:35Z</time>
  <name>TP3978</name>
</trkpt>
<trkpt lat="48.602871600" lon="9.113086600">
  <ele>406.000000</ele>
<time>2008-06-15T13:24:36Z</time>
  <name>TP3979</name>
</trkpt>
<trkpt lat="48.602870000" lon="9.113064900">
  <ele>405.000000</ele>
<time>2008-06-15T13:24:37Z</time>
  <name>TP3980</name>
</trkpt>
<trkpt lat="48.602873300" lon="9.113064900">
  <ele>402.000000</ele>
<time>2008-06-15T13:24:38Z</time>
  <name>TP3981</name>
</trkpt>
<trkpt lat="48.602836600" lon="9.113041600">
  <ele>402.000000</ele>
<time>2008-06-15T13:24:39Z</time>
  <name>TP3982</name>
</trkpt>
<trkpt lat="48.602711600" lon="9.113034900">
  <ele>400.000000</ele>
<time>2008-06-15T13:24:40Z</time>
  <name>TP3983</name>
</trkpt>
<trkpt lat="48.602669900" lon="9.113014900">
  <ele>399.000000</ele>
<time>2008-06-15T13:24:41Z</time>
  <name>TP3984</name>
</trkpt>
<trkpt lat="48.602538300" lon="9.112976600">
  <ele>398.000000</ele>
<time>2008-06-15T13:24:43Z</time>
  <name>TP3985</name>
</trkpt>
<trkpt lat="48.602503300" lon="9.112951600">
  <ele>397.000000</ele>
<time>2008-06-15T13:24:44Z</time>
  <name>TP3986</name>
</trkpt>
<trkpt lat="48.602480000" lon="9.112926600">
  <ele>396.000000</ele>
<time>2008-06-15T13:24:45Z</time>
  <name>TP3987</name>
</trkpt>
<trkpt lat="48.602478300" lon="9.112898300">
  <ele>395.000000</ele>
<time>2008-06-15T13:24:46Z</time>
  <name>TP3988</name>
</trkpt>
<trkpt lat="48.602466600" lon="9.112876600">
  <ele>395.000000</ele>
<time>2008-06-15T13:24:47Z</time>
  <name>TP3989</name>
</trkpt>
<trkpt lat="48.602481600" lon="9.112829900">
  <ele>394.000000</ele>
<time>2008-06-15T13:24:49Z</time>
  <name>TP3990</name>
</trkpt>
<trkpt lat="48.602501600" lon="9.112811600">
  <ele>393.000000</ele>
<time>2008-06-15T13:24:50Z</time>
  <name>TP3991</name>
</trkpt>
<trkpt lat="48.602528300" lon="9.112769900">
  <ele>393.000000</ele>
<time>2008-06-15T13:24:52Z</time>
  <name>TP3992</name>
</trkpt>
<trkpt lat="48.602526600" lon="9.112753300">
  <ele>393.000000</ele>
<time>2008-06-15T13:24:53Z</time>
  <name>TP3993</name>
</trkpt>
<trkpt lat="48.602544900" lon="9.112738300">
  <ele>393.000000</ele>
<time>2008-06-15T13:24:54Z</time>
  <name>TP3994</name>
</trkpt>
<trkpt lat="48.602526600" lon="9.112729900">
  <ele>393.000000</ele>
<time>2008-06-15T13:24:56Z</time>
  <name>TP3995</name>
</trkpt>
<trkpt lat="48.602538300" lon="9.112718300">
  <ele>393.000000</ele>
<time>2008-06-15T13:24:58Z</time>
  <name>TP3996</name>
</trkpt>
<trkpt lat="48.602546600" lon="9.112704900">
  <ele>394.000000</ele>
<time>2008-06-15T13:25:00Z</time>
  <name>TP3997</name>
</trkpt>
<trkpt lat="48.602551600" lon="9.112731600">
  <ele>394.000000</ele>
<time>2008-06-15T13:25:04Z</time>
  <name>TP3998</name>
</trkpt>
<trkpt lat="48.602566600" lon="9.112736600">
  <ele>394.000000</ele>
<time>2008-06-15T13:25:07Z</time>
  <name>TP3999</name>
</trkpt>
<trkpt lat="48.602575000" lon="9.112750000">
  <ele>394.000000</ele>
<time>2008-06-15T13:25:10Z</time>
  <name>TP4000</name>
</trkpt>
<trkpt lat="48.602578300" lon="9.112775000">
  <ele>394.000000</ele>
<time>2008-06-15T13:25:12Z</time>
  <name>TP4001</name>
</trkpt>
<trkpt lat="48.602583300" lon="9.112793300">
  <ele>394.000000</ele>
<time>2008-06-15T13:25:14Z</time>
  <name>TP4002</name>
</trkpt>
<trkpt lat="48.602596600" lon="9.112769900">
  <ele>395.000000</ele>
<time>2008-06-15T13:25:17Z</time>
  <name>TP4003</name>
</trkpt>
<trkpt lat="48.602606600" lon="9.112716600">
  <ele>395.000000</ele>
<time>2008-06-15T13:25:22Z</time>
  <name>TP4004</name>
</trkpt>
<trkpt lat="48.602601600" lon="9.112675000">
  <ele>395.000000</ele>
<time>2008-06-15T13:25:24Z</time>
  <name>TP4005</name>
</trkpt>
<trkpt lat="48.602593300" lon="9.112605000">
  <ele>395.000000</ele>
<time>2008-06-15T13:25:26Z</time>
  <name>TP4006</name>
</trkpt>
<trkpt lat="48.602596600" lon="9.112559900">
  <ele>395.000000</ele>
<time>2008-06-15T13:25:27Z</time>
  <name>TP4007</name>
</trkpt>
<trkpt lat="48.602609900" lon="9.112440000">
  <ele>395.000000</ele>
<time>2008-06-15T13:25:31Z</time>
  <name>TP4008</name>
</trkpt>
<trkpt lat="48.602628300" lon="9.112423300">
  <ele>395.000000</ele>
<time>2008-06-15T13:25:33Z</time>
  <name>TP4009</name>
</trkpt>
<trkpt lat="48.602693300" lon="9.112375000">
  <ele>396.000000</ele>
<time>2008-06-15T13:25:39Z</time>
  <name>TP4010</name>
</trkpt>
<trkpt lat="48.602739900" lon="9.112306600">
  <ele>396.000000</ele>
<time>2008-06-15T13:25:42Z</time>
  <name>TP4011</name>
</trkpt>
<trkpt lat="48.602751600" lon="9.112268300">
  <ele>396.000000</ele>
<time>2008-06-15T13:25:43Z</time>
  <name>TP4012</name>
</trkpt>
<trkpt lat="48.602754900" lon="9.112230000">
  <ele>396.000000</ele>
<time>2008-06-15T13:25:44Z</time>
  <name>TP4013</name>
</trkpt>
<trkpt lat="48.602761600" lon="9.112184900">
  <ele>396.000000</ele>
<time>2008-06-15T13:25:45Z</time>
  <name>TP4014</name>
</trkpt>
<trkpt lat="48.602813200" lon="9.112066600">
  <ele>396.000000</ele>
<time>2008-06-15T13:25:48Z</time>
  <name>TP4015</name>
</trkpt>
<trkpt lat="48.602851600" lon="9.112021600">
  <ele>397.000000</ele>
<time>2008-06-15T13:25:50Z</time>
  <name>TP4016</name>
</trkpt>
<trkpt lat="48.602871600" lon="9.111983300">
  <ele>397.000000</ele>
<time>2008-06-15T13:25:51Z</time>
  <name>TP4017</name>
</trkpt>
<trkpt lat="48.602934900" lon="9.111930000">
  <ele>397.000000</ele>
<time>2008-06-15T13:25:56Z</time>
  <name>TP4018</name>
</trkpt>
<trkpt lat="48.602979900" lon="9.111899900">
  <ele>397.000000</ele>
<time>2008-06-15T13:25:59Z</time>
  <name>TP4019</name>
</trkpt>
<trkpt lat="48.603014900" lon="9.111861600">
  <ele>397.000000</ele>
<time>2008-06-15T13:26:01Z</time>
  <name>TP4020</name>
</trkpt>
<trkpt lat="48.603065000" lon="9.111821600">
  <ele>397.000000</ele>
<time>2008-06-15T13:26:04Z</time>
  <name>TP4021</name>
</trkpt>
<trkpt lat="48.603086600" lon="9.111761600">
  <ele>398.000000</ele>
<time>2008-06-15T13:26:06Z</time>
  <name>TP4022</name>
</trkpt>
<trkpt lat="48.603099900" lon="9.111715000">
  <ele>398.000000</ele>
<time>2008-06-15T13:26:07Z</time>
  <name>TP4023</name>
</trkpt>
<trkpt lat="48.603146600" lon="9.111588300">
  <ele>398.000000</ele>
<time>2008-06-15T13:26:11Z</time>
  <name>TP4024</name>
</trkpt>
<trkpt lat="48.603178200" lon="9.111566600">
  <ele>398.000000</ele>
<time>2008-06-15T13:26:13Z</time>
  <name>TP4025</name>
</trkpt>
<trkpt lat="48.603251600" lon="9.111481600">
  <ele>398.000000</ele>
<time>2008-06-15T13:26:18Z</time>
  <name>TP4026</name>
</trkpt>
<trkpt lat="48.603269900" lon="9.111488300">
  <ele>398.000000</ele>
<time>2008-06-15T13:26:19Z</time>
  <name>TP4027</name>
</trkpt>
<trkpt lat="48.603284900" lon="9.111481600">
  <ele>398.000000</ele>
<time>2008-06-15T13:26:20Z</time>
  <name>TP4028</name>
</trkpt>
<trkpt lat="48.603308300" lon="9.111473300">
  <ele>399.000000</ele>
<time>2008-06-15T13:26:21Z</time>
  <name>TP4029</name>
</trkpt>
<trkpt lat="48.603339900" lon="9.111406600">
  <ele>400.000000</ele>
<time>2008-06-15T13:26:23Z</time>
  <name>TP4030</name>
</trkpt>
<trkpt lat="48.603358300" lon="9.111391600">
  <ele>400.000000</ele>
<time>2008-06-15T13:26:24Z</time>
  <name>TP4031</name>
</trkpt>
<trkpt lat="48.603360000" lon="9.111349900">
  <ele>401.000000</ele>
<time>2008-06-15T13:26:25Z</time>
  <name>TP4032</name>
</trkpt>
<trkpt lat="48.603368300" lon="9.111318300">
  <ele>402.000000</ele>
<time>2008-06-15T13:26:26Z</time>
  <name>TP4033</name>
</trkpt>
<trkpt lat="48.603419900" lon="9.111266600">
  <ele>403.000000</ele>
<time>2008-06-15T13:26:28Z</time>
  <name>TP4034</name>
</trkpt>
<trkpt lat="48.603464900" lon="9.111175000">
  <ele>404.000000</ele>
<time>2008-06-15T13:26:29Z</time>
  <name>TP4035</name>
</trkpt>
<trkpt lat="48.603504900" lon="9.111106600">
  <ele>404.000000</ele>
<time>2008-06-15T13:26:30Z</time>
  <name>TP4036</name>
</trkpt>
<trkpt lat="48.603539900" lon="9.111018300">
  <ele>404.000000</ele>
<time>2008-06-15T13:26:32Z</time>
  <name>TP4037</name>
</trkpt>
<trkpt lat="48.603548300" lon="9.110995000">
  <ele>404.000000</ele>
<time>2008-06-15T13:26:33Z</time>
  <name>TP4038</name>
</trkpt>
<trkpt lat="48.603570000" lon="9.110971600">
  <ele>404.000000</ele>
<time>2008-06-15T13:26:34Z</time>
  <name>TP4039</name>
</trkpt>
<trkpt lat="48.603593300" lon="9.110958300">
  <ele>404.000000</ele>
<time>2008-06-15T13:26:35Z</time>
  <name>TP4040</name>
</trkpt>
<trkpt lat="48.603606600" lon="9.110963300">
  <ele>404.000000</ele>
<time>2008-06-15T13:26:36Z</time>
  <name>TP4041</name>
</trkpt>
<trkpt lat="48.603616600" lon="9.110944900">
  <ele>403.000000</ele>
<time>2008-06-15T13:26:38Z</time>
  <name>TP4042</name>
</trkpt>
<trkpt lat="48.603629900" lon="9.110938300">
  <ele>404.000000</ele>
<time>2008-06-15T13:26:39Z</time>
  <name>TP4043</name>
</trkpt>
<trkpt lat="48.603636600" lon="9.110921600">
  <ele>404.000000</ele>
<time>2008-06-15T13:26:40Z</time>
  <name>TP4044</name>
</trkpt>
<trkpt lat="48.603653200" lon="9.110813300">
  <ele>405.000000</ele>
<time>2008-06-15T13:26:42Z</time>
  <name>TP4045</name>
</trkpt>
<trkpt lat="48.603663300" lon="9.110791600">
  <ele>405.000000</ele>
<time>2008-06-15T13:26:43Z</time>
  <name>TP4046</name>
</trkpt>
<trkpt lat="48.603670000" lon="9.110785000">
  <ele>405.000000</ele>
<time>2008-06-15T13:26:44Z</time>
  <name>TP4047</name>
</trkpt>
<trkpt lat="48.603673300" lon="9.110831600">
  <ele>405.000000</ele>
<time>2008-06-15T13:26:45Z</time>
  <name>TP4048</name>
</trkpt>
<trkpt lat="48.603694900" lon="9.110816600">
  <ele>406.000000</ele>
<time>2008-06-15T13:26:47Z</time>
  <name>TP4049</name>
</trkpt>
<trkpt lat="48.603733300" lon="9.110753300">
  <ele>407.000000</ele>
<time>2008-06-15T13:26:48Z</time>
  <name>TP4050</name>
</trkpt>
<trkpt lat="48.603744900" lon="9.110739900">
  <ele>407.000000</ele>
<time>2008-06-15T13:26:49Z</time>
  <name>TP4051</name>
</trkpt>
<trkpt lat="48.603759900" lon="9.110731600">
  <ele>407.000000</ele>
<time>2008-06-15T13:26:50Z</time>
  <name>TP4052</name>
</trkpt>
<trkpt lat="48.603773300" lon="9.110716600">
  <ele>407.000000</ele>
<time>2008-06-15T13:26:51Z</time>
  <name>TP4053</name>
</trkpt>
<trkpt lat="48.603793200" lon="9.110660000">
  <ele>407.000000</ele>
<time>2008-06-15T13:26:52Z</time>
  <name>TP4054</name>
</trkpt>
<trkpt lat="48.603806600" lon="9.110626600">
  <ele>407.000000</ele>
<time>2008-06-15T13:26:53Z</time>
  <name>TP4055</name>
</trkpt>
<trkpt lat="48.603814900" lon="9.110613300">
  <ele>407.000000</ele>
<time>2008-06-15T13:26:54Z</time>
  <name>TP4056</name>
</trkpt>
<trkpt lat="48.603825000" lon="9.110598300">
  <ele>407.000000</ele>
<time>2008-06-15T13:26:55Z</time>
  <name>TP4057</name>
</trkpt>
<trkpt lat="48.603856600" lon="9.110520000">
  <ele>407.000000</ele>
<time>2008-06-15T13:26:57Z</time>
  <name>TP4058</name>
</trkpt>
<trkpt lat="48.603863200" lon="9.110493300">
  <ele>407.000000</ele>
<time>2008-06-15T13:26:58Z</time>
  <name>TP4059</name>
</trkpt>
<trkpt lat="48.603865000" lon="9.110448300">
  <ele>407.000000</ele>
<time>2008-06-15T13:27:00Z</time>
  <name>TP4060</name>
</trkpt>
<trkpt lat="48.603848300" lon="9.110461600">
  <ele>407.000000</ele>
<time>2008-06-15T13:27:02Z</time>
  <name>TP4061</name>
</trkpt>
<trkpt lat="48.603858300" lon="9.110420000">
  <ele>406.000000</ele>
<time>2008-06-15T13:27:03Z</time>
  <name>TP4062</name>
</trkpt>
<trkpt lat="48.603899900" lon="9.110293300">
  <ele>405.000000</ele>
<time>2008-06-15T13:27:04Z</time>
  <name>TP4063</name>
</trkpt>
<trkpt lat="48.603974900" lon="9.110235000">
  <ele>404.000000</ele>
<time>2008-06-15T13:27:05Z</time>
  <name>TP4064</name>
</trkpt>
<trkpt lat="48.603999900" lon="9.110184900">
  <ele>403.000000</ele>
<time>2008-06-15T13:27:06Z</time>
  <name>TP4065</name>
</trkpt>
<trkpt lat="48.603968300" lon="9.110156600">
  <ele>403.000000</ele>
<time>2008-06-15T13:27:08Z</time>
  <name>TP4066</name>
</trkpt>
<trkpt lat="48.603929900" lon="9.110161600">
  <ele>403.000000</ele>
<time>2008-06-15T13:27:10Z</time>
  <name>TP4067</name>
</trkpt>
<trkpt lat="48.603920000" lon="9.110153300">
  <ele>402.000000</ele>
<time>2008-06-15T13:27:11Z</time>
  <name>TP4068</name>
</trkpt>
<trkpt lat="48.603896600" lon="9.110111600">
  <ele>403.000000</ele>
<time>2008-06-15T13:27:13Z</time>
  <name>TP4069</name>
</trkpt>
<trkpt lat="48.603903300" lon="9.110068300">
  <ele>402.000000</ele>
<time>2008-06-15T13:27:14Z</time>
  <name>TP4070</name>
</trkpt>
<trkpt lat="48.603904900" lon="9.110031600">
  <ele>402.000000</ele>
<time>2008-06-15T13:27:16Z</time>
  <name>TP4071</name>
</trkpt>
<trkpt lat="48.603898300" lon="9.110008300">
  <ele>403.000000</ele>
<time>2008-06-15T13:27:17Z</time>
  <name>TP4072</name>
</trkpt>
<trkpt lat="48.603878200" lon="9.109976600">
  <ele>403.000000</ele>
<time>2008-06-15T13:27:18Z</time>
  <name>TP4073</name>
</trkpt>
<trkpt lat="48.603844900" lon="9.109925000">
  <ele>403.000000</ele>
<time>2008-06-15T13:27:20Z</time>
  <name>TP4074</name>
</trkpt>
<trkpt lat="48.603825000" lon="9.109918300">
  <ele>403.000000</ele>
<time>2008-06-15T13:27:21Z</time>
  <name>TP4075</name>
</trkpt>
<trkpt lat="48.603801600" lon="9.109900000">
  <ele>404.000000</ele>
<time>2008-06-15T13:27:22Z</time>
  <name>TP4076</name>
</trkpt>
<trkpt lat="48.603791600" lon="9.109865000">
  <ele>404.000000</ele>
<time>2008-06-15T13:27:23Z</time>
  <name>TP4077</name>
</trkpt>
<trkpt lat="48.603793200" lon="9.109841600">
  <ele>404.000000</ele>
<time>2008-06-15T13:27:24Z</time>
  <name>TP4078</name>
</trkpt>
<trkpt lat="48.603791600" lon="9.109816600">
  <ele>404.000000</ele>
<time>2008-06-15T13:27:25Z</time>
  <name>TP4079</name>
</trkpt>
<trkpt lat="48.603810000" lon="9.109743300">
  <ele>403.000000</ele>
<time>2008-06-15T13:27:26Z</time>
  <name>TP4080</name>
</trkpt>
<trkpt lat="48.603826600" lon="9.109711600">
  <ele>403.000000</ele>
<time>2008-06-15T13:27:27Z</time>
  <name>TP4081</name>
</trkpt>
<trkpt lat="48.603813300" lon="9.109685000">
  <ele>403.000000</ele>
<time>2008-06-15T13:27:28Z</time>
  <name>TP4082</name>
</trkpt>
<trkpt lat="48.603816600" lon="9.109673300">
  <ele>403.000000</ele>
<time>2008-06-15T13:27:29Z</time>
  <name>TP4083</name>
</trkpt>
<trkpt lat="48.603804900" lon="9.109650000">
  <ele>403.000000</ele>
<time>2008-06-15T13:27:30Z</time>
  <name>TP4084</name>
</trkpt>
<trkpt lat="48.603764900" lon="9.109691600">
  <ele>402.000000</ele>
<time>2008-06-15T13:27:35Z</time>
  <name>TP4085</name>
</trkpt>
<trkpt lat="48.603761600" lon="9.109678300">
  <ele>403.000000</ele>
<time>2008-06-15T13:27:36Z</time>
  <name>TP4086</name>
</trkpt>
<trkpt lat="48.603756600" lon="9.109646600">
  <ele>403.000000</ele>
<time>2008-06-15T13:27:38Z</time>
  <name>TP4087</name>
</trkpt>
<trkpt lat="48.603755000" lon="9.109638300">
  <ele>403.000000</ele>
<time>2008-06-15T13:27:39Z</time>
  <name>TP4088</name>
</trkpt>
<trkpt lat="48.603751600" lon="9.109636600">
  <ele>403.000000</ele>
<time>2008-06-15T13:27:40Z</time>
  <name>TP4089</name>
</trkpt>
<trkpt lat="48.603763300" lon="9.109626600">
  <ele>403.000000</ele>
<time>2008-06-15T13:27:41Z</time>
  <name>TP4090</name>
</trkpt>
<trkpt lat="48.603764900" lon="9.109628300">
  <ele>403.000000</ele>
<time>2008-06-15T13:27:42Z</time>
  <name>TP4091</name>
</trkpt>
<trkpt lat="48.603769900" lon="9.109630000">
  <ele>403.000000</ele>
<time>2008-06-15T13:27:43Z</time>
  <name>TP4092</name>
</trkpt>
<trkpt lat="48.603780000" lon="9.109631600">
  <ele>403.000000</ele>
<time>2008-06-15T13:27:44Z</time>
  <name>TP4093</name>
</trkpt>
<trkpt lat="48.603780000" lon="9.109641600">
  <ele>403.000000</ele>
<time>2008-06-15T13:27:45Z</time>
  <name>TP4094</name>
</trkpt>
<trkpt lat="48.603783300" lon="9.109653300">
  <ele>403.000000</ele>
<time>2008-06-15T13:27:46Z</time>
  <name>TP4095</name>
</trkpt>
<trkpt lat="48.603784900" lon="9.109634900">
  <ele>403.000000</ele>
<time>2008-06-15T13:27:47Z</time>
  <name>TP4096</name>
</trkpt>
<trkpt lat="48.603826600" lon="9.109561600">
  <ele>403.000000</ele>
<time>2008-06-15T13:27:49Z</time>
  <name>TP4097</name>
</trkpt>
<trkpt lat="48.603929900" lon="9.109433300">
  <ele>404.000000</ele>
<time>2008-06-15T13:27:51Z</time>
  <name>TP4098</name>
</trkpt>
<trkpt lat="48.603948200" lon="9.109416600">
  <ele>404.000000</ele>
<time>2008-06-15T13:27:53Z</time>
  <name>TP4099</name>
</trkpt>
<trkpt lat="48.604093300" lon="9.109546600">
  <ele>405.000000</ele>
<time>2008-06-15T13:28:03Z</time>
  <name>TP4100</name>
</trkpt>
<trkpt lat="48.604116600" lon="9.109591600">
  <ele>404.000000</ele>
<time>2008-06-15T13:28:04Z</time>
  <name>TP4101</name>
</trkpt>
<trkpt lat="48.604186600" lon="9.109539900">
  <ele>404.000000</ele>
<time>2008-06-15T13:28:14Z</time>
  <name>TP4102</name>
</trkpt>
<trkpt lat="48.604211600" lon="9.109534900">
  <ele>404.000000</ele>
<time>2008-06-15T13:28:15Z</time>
  <name>TP4103</name>
</trkpt>
<trkpt lat="48.604223300" lon="9.109534900">
  <ele>404.000000</ele>
<time>2008-06-15T13:28:16Z</time>
  <name>TP4104</name>
</trkpt>
<trkpt lat="48.604413300" lon="9.109498300">
  <ele>404.000000</ele>
<time>2008-06-15T13:28:35Z</time>
  <name>TP4105</name>
</trkpt>
<trkpt lat="48.604423300" lon="9.109493300">
  <ele>404.000000</ele>
<time>2008-06-15T13:28:36Z</time>
  <name>TP4106</name>
</trkpt>
<trkpt lat="48.604571600" lon="9.109380000">
  <ele>404.000000</ele>
<time>2008-06-15T13:28:49Z</time>
  <name>TP4107</name>
</trkpt>
<trkpt lat="48.604603300" lon="9.109373300">
  <ele>404.000000</ele>
<time>2008-06-15T13:28:51Z</time>
  <name>TP4108</name>
</trkpt>
<trkpt lat="48.604643300" lon="9.109348300">
  <ele>404.000000</ele>
<time>2008-06-15T13:28:56Z</time>
  <name>TP4109</name>
</trkpt>
<trkpt lat="48.604674900" lon="9.109329900">
  <ele>404.000000</ele>
<time>2008-06-15T13:28:58Z</time>
  <name>TP4110</name>
</trkpt>
<trkpt lat="48.604688300" lon="9.109315000">
  <ele>404.000000</ele>
<time>2008-06-15T13:28:59Z</time>
  <name>TP4111</name>
</trkpt>
<trkpt lat="48.604783300" lon="9.109288300">
  <ele>404.000000</ele>
<time>2008-06-15T13:29:09Z</time>
  <name>TP4112</name>
</trkpt>
<trkpt lat="48.604919900" lon="9.109278300">
  <ele>404.000000</ele>
<time>2008-06-15T13:29:22Z</time>
  <name>TP4113</name>
</trkpt>
<trkpt lat="48.605028200" lon="9.109234900">
  <ele>404.000000</ele>
<time>2008-06-15T13:29:28Z</time>
  <name>TP4114</name>
</trkpt>
<trkpt lat="48.605063300" lon="9.109216600">
  <ele>404.000000</ele>
<time>2008-06-15T13:29:30Z</time>
  <name>TP4115</name>
</trkpt>
<trkpt lat="48.605078300" lon="9.109211600">
  <ele>404.000000</ele>
<time>2008-06-15T13:29:31Z</time>
  <name>TP4116</name>
</trkpt>
<trkpt lat="48.605101600" lon="9.109199900">
  <ele>404.000000</ele>
<time>2008-06-15T13:29:33Z</time>
  <name>TP4117</name>
</trkpt>
<trkpt lat="48.605138200" lon="9.109166600">
  <ele>404.000000</ele>
<time>2008-06-15T13:29:37Z</time>
  <name>TP4118</name>
</trkpt>
<trkpt lat="48.605166600" lon="9.109140000">
  <ele>404.000000</ele>
<time>2008-06-15T13:29:39Z</time>
  <name>TP4119</name>
</trkpt>
<trkpt lat="48.605203300" lon="9.109133300">
  <ele>405.000000</ele>
<time>2008-06-15T13:29:44Z</time>
  <name>TP4120</name>
</trkpt>
<trkpt lat="48.605226600" lon="9.109128300">
  <ele>405.000000</ele>
<time>2008-06-15T13:29:45Z</time>
  <name>TP4121</name>
</trkpt>
<trkpt lat="48.605253300" lon="9.109143300">
  <ele>405.000000</ele>
<time>2008-06-15T13:29:48Z</time>
  <name>TP4122</name>
</trkpt>
<trkpt lat="48.605266600" lon="9.109138300">
  <ele>405.000000</ele>
<time>2008-06-15T13:29:49Z</time>
  <name>TP4123</name>
</trkpt>
<trkpt lat="48.605388300" lon="9.109033300">
  <ele>406.000000</ele>
<time>2008-06-15T13:29:53Z</time>
  <name>TP4124</name>
</trkpt>
<trkpt lat="48.605411600" lon="9.109010000">
  <ele>407.000000</ele>
<time>2008-06-15T13:29:54Z</time>
  <name>TP4125</name>
</trkpt>
<trkpt lat="48.605426600" lon="9.108993300">
  <ele>407.000000</ele>
<time>2008-06-15T13:29:55Z</time>
  <name>TP4126</name>
</trkpt>
<trkpt lat="48.605451600" lon="9.108926600">
  <ele>408.000000</ele>
<time>2008-06-15T13:29:57Z</time>
  <name>TP4127</name>
</trkpt>
<trkpt lat="48.605444900" lon="9.108896600">
  <ele>409.000000</ele>
<time>2008-06-15T13:29:58Z</time>
  <name>TP4128</name>
</trkpt>
<trkpt lat="48.605531600" lon="9.108891600">
  <ele>410.000000</ele>
<time>2008-06-15T13:29:59Z</time>
  <name>TP4129</name>
</trkpt>
<trkpt lat="48.605539900" lon="9.108878300">
  <ele>410.000000</ele>
<time>2008-06-15T13:30:00Z</time>
  <name>TP4130</name>
</trkpt>
<trkpt lat="48.605539900" lon="9.108846600">
  <ele>410.000000</ele>
<time>2008-06-15T13:30:01Z</time>
  <name>TP4131</name>
</trkpt>
<trkpt lat="48.605544900" lon="9.108840000">
  <ele>410.000000</ele>
<time>2008-06-15T13:30:02Z</time>
  <name>TP4132</name>
</trkpt>
<trkpt lat="48.605526600" lon="9.108754900">
  <ele>411.000000</ele>
<time>2008-06-15T13:30:03Z</time>
  <name>TP4133</name>
</trkpt>
<trkpt lat="48.605538300" lon="9.108730000">
  <ele>411.000000</ele>
<time>2008-06-15T13:30:04Z</time>
  <name>TP4134</name>
</trkpt>
<trkpt lat="48.605568300" lon="9.108673300">
  <ele>412.000000</ele>
<time>2008-06-15T13:30:07Z</time>
  <name>TP4135</name>
</trkpt>
<trkpt lat="48.605598300" lon="9.108604900">
  <ele>413.000000</ele>
<time>2008-06-15T13:30:09Z</time>
  <name>TP4136</name>
</trkpt>
<trkpt lat="48.605618300" lon="9.108569900">
  <ele>413.000000</ele>
<time>2008-06-15T13:30:10Z</time>
  <name>TP4137</name>
</trkpt>
<trkpt lat="48.605638300" lon="9.108506600">
  <ele>413.000000</ele>
<time>2008-06-15T13:30:11Z</time>
  <name>TP4138</name>
</trkpt>
<trkpt lat="48.605656600" lon="9.108448300">
  <ele>413.000000</ele>
<time>2008-06-15T13:30:12Z</time>
  <name>TP4139</name>
</trkpt>
<trkpt lat="48.605636600" lon="9.108418300">
  <ele>413.000000</ele>
<time>2008-06-15T13:30:13Z</time>
  <name>TP4140</name>
</trkpt>
<trkpt lat="48.605623300" lon="9.108385000">
  <ele>412.000000</ele>
<time>2008-06-15T13:30:15Z</time>
  <name>TP4141</name>
</trkpt>
<trkpt lat="48.605609900" lon="9.108369900">
  <ele>412.000000</ele>
<time>2008-06-15T13:30:16Z</time>
  <name>TP4142</name>
</trkpt>
<trkpt lat="48.605630000" lon="9.108358300">
  <ele>413.000000</ele>
<time>2008-06-15T13:30:17Z</time>
  <name>TP4143</name>
</trkpt>
<trkpt lat="48.605660000" lon="9.108308300">
  <ele>412.000000</ele>
<time>2008-06-15T13:30:18Z</time>
  <name>TP4144</name>
</trkpt>
<trkpt lat="48.605681600" lon="9.108286600">
  <ele>412.000000</ele>
<time>2008-06-15T13:30:19Z</time>
  <name>TP4145</name>
</trkpt>
<trkpt lat="48.605706600" lon="9.108273300">
  <ele>412.000000</ele>
<time>2008-06-15T13:30:20Z</time>
  <name>TP4146</name>
</trkpt>
<trkpt lat="48.605734900" lon="9.108234900">
  <ele>413.000000</ele>
<time>2008-06-15T13:30:22Z</time>
  <name>TP4147</name>
</trkpt>
<trkpt lat="48.605783200" lon="9.108196600">
  <ele>413.000000</ele>
<time>2008-06-15T13:30:24Z</time>
  <name>TP4148</name>
</trkpt>
<trkpt lat="48.605804900" lon="9.108169900">
  <ele>414.000000</ele>
<time>2008-06-15T13:30:27Z</time>
  <name>TP4149</name>
</trkpt>
<trkpt lat="48.605783200" lon="9.108171600">
  <ele>414.000000</ele>
<time>2008-06-15T13:30:28Z</time>
  <name>TP4150</name>
</trkpt>
<trkpt lat="48.605770000" lon="9.108171600">
  <ele>415.000000</ele>
<time>2008-06-15T13:30:29Z</time>
  <name>TP4151</name>
</trkpt>
<trkpt lat="48.605749900" lon="9.108171600">
  <ele>415.000000</ele>
<time>2008-06-15T13:30:30Z</time>
  <name>TP4152</name>
</trkpt>
<trkpt lat="48.605721600" lon="9.108148300">
  <ele>415.000000</ele>
<time>2008-06-15T13:30:31Z</time>
  <name>TP4153</name>
</trkpt>
<trkpt lat="48.605688300" lon="9.108140000">
  <ele>415.000000</ele>
<time>2008-06-15T13:30:32Z</time>
  <name>TP4154</name>
</trkpt>
<trkpt lat="48.605653300" lon="9.108133300">
  <ele>416.000000</ele>
<time>2008-06-15T13:30:33Z</time>
  <name>TP4155</name>
</trkpt>
<trkpt lat="48.605618300" lon="9.108110000">
  <ele>416.000000</ele>
<time>2008-06-15T13:30:34Z</time>
  <name>TP4156</name>
</trkpt>
<trkpt lat="48.605605000" lon="9.108108300">
  <ele>416.000000</ele>
<time>2008-06-15T13:30:35Z</time>
  <name>TP4157</name>
</trkpt>
<trkpt lat="48.605598300" lon="9.108089900">
  <ele>416.000000</ele>
<time>2008-06-15T13:30:36Z</time>
  <name>TP4158</name>
</trkpt>
<trkpt lat="48.605583300" lon="9.108080000">
  <ele>416.000000</ele>
<time>2008-06-15T13:30:37Z</time>
  <name>TP4159</name>
</trkpt>
<trkpt lat="48.605581600" lon="9.108096600">
  <ele>416.000000</ele>
<time>2008-06-15T13:30:38Z</time>
  <name>TP4160</name>
</trkpt>
<trkpt lat="48.605581600" lon="9.108116600">
  <ele>416.000000</ele>
<time>2008-06-15T13:30:39Z</time>
  <name>TP4161</name>
</trkpt>
<trkpt lat="48.605578300" lon="9.108141600">
  <ele>416.000000</ele>
<time>2008-06-15T13:30:40Z</time>
  <name>TP4162</name>
</trkpt>
<trkpt lat="48.605549900" lon="9.108150000">
  <ele>416.000000</ele>
<time>2008-06-15T13:30:41Z</time>
  <name>TP4163</name>
</trkpt>
<trkpt lat="48.605516600" lon="9.108124900">
  <ele>416.000000</ele>
<time>2008-06-15T13:30:42Z</time>
  <name>TP4164</name>
</trkpt>
<trkpt lat="48.605508300" lon="9.108138300">
  <ele>416.000000</ele>
<time>2008-06-15T13:30:43Z</time>
  <name>TP4165</name>
</trkpt>
<trkpt lat="48.605478300" lon="9.108176600">
  <ele>416.000000</ele>
<time>2008-06-15T13:30:45Z</time>
  <name>TP4166</name>
</trkpt>
<trkpt lat="48.605479900" lon="9.108224900">
  <ele>416.000000</ele>
<time>2008-06-15T13:30:48Z</time>
  <name>TP4167</name>
</trkpt>
<trkpt lat="48.605498300" lon="9.108253300">
  <ele>417.000000</ele>
<time>2008-06-15T13:30:53Z</time>
  <name>TP4168</name>
</trkpt>
<trkpt lat="48.605484900" lon="9.108243300">
  <ele>418.000000</ele>
<time>2008-06-15T13:30:54Z</time>
  <name>TP4169</name>
</trkpt>
<trkpt lat="48.605461600" lon="9.108251600">
  <ele>418.000000</ele>
<time>2008-06-15T13:30:56Z</time>
  <name>TP4170</name>
</trkpt>
<trkpt lat="48.605435000" lon="9.108259900">
  <ele>419.000000</ele>
<time>2008-06-15T13:30:58Z</time>
  <name>TP4171</name>
</trkpt>
<trkpt lat="48.605416600" lon="9.108269900">
  <ele>419.000000</ele>
<time>2008-06-15T13:31:00Z</time>
  <name>TP4172</name>
</trkpt>
<trkpt lat="48.605416600" lon="9.108281600">
  <ele>419.000000</ele>
<time>2008-06-15T13:31:01Z</time>
  <name>TP4173</name>
</trkpt>
<trkpt lat="48.605429900" lon="9.108338300">
  <ele>420.000000</ele>
<time>2008-06-15T13:31:03Z</time>
  <name>TP4174</name>
</trkpt>
<trkpt lat="48.605409900" lon="9.108331600">
  <ele>420.000000</ele>
<time>2008-06-15T13:31:04Z</time>
  <name>TP4175</name>
</trkpt>
<trkpt lat="48.605424900" lon="9.108416600">
  <ele>420.000000</ele>
<time>2008-06-15T13:31:07Z</time>
  <name>TP4176</name>
</trkpt>
<trkpt lat="48.605414900" lon="9.108451600">
  <ele>421.000000</ele>
<time>2008-06-15T13:31:10Z</time>
  <name>TP4177</name>
</trkpt>
<trkpt lat="48.605426600" lon="9.108498300">
  <ele>421.000000</ele>
<time>2008-06-15T13:31:11Z</time>
  <name>TP4178</name>
</trkpt>
<trkpt lat="48.605453300" lon="9.108548300">
  <ele>421.000000</ele>
<time>2008-06-15T13:31:12Z</time>
  <name>TP4179</name>
</trkpt>
<trkpt lat="48.605439900" lon="9.108563300">
  <ele>421.000000</ele>
<time>2008-06-15T13:31:14Z</time>
  <name>TP4180</name>
</trkpt>
<trkpt lat="48.605431600" lon="9.108576600">
  <ele>421.000000</ele>
<time>2008-06-15T13:31:15Z</time>
  <name>TP4181</name>
</trkpt>
<trkpt lat="48.605441600" lon="9.108583300">
  <ele>422.000000</ele>
<time>2008-06-15T13:31:17Z</time>
  <name>TP4182</name>
</trkpt>
<trkpt lat="48.605426600" lon="9.108599900">
  <ele>422.000000</ele>
<time>2008-06-15T13:31:20Z</time>
  <name>TP4183</name>
</trkpt>
<trkpt lat="48.605441600" lon="9.108628300">
  <ele>422.000000</ele>
<time>2008-06-15T13:31:21Z</time>
  <name>TP4184</name>
</trkpt>
<trkpt lat="48.605424900" lon="9.108638300">
  <ele>422.000000</ele>
<time>2008-06-15T13:31:22Z</time>
  <name>TP4185</name>
</trkpt>
<trkpt lat="48.605408300" lon="9.108673300">
  <ele>421.000000</ele>
<time>2008-06-15T13:31:24Z</time>
  <name>TP4186</name>
</trkpt>
<trkpt lat="48.605310000" lon="9.108644900">
  <ele>421.000000</ele>
<time>2008-06-15T13:31:27Z</time>
  <name>TP4187</name>
</trkpt>
<trkpt lat="48.605280000" lon="9.108656600">
  <ele>421.000000</ele>
<time>2008-06-15T13:31:28Z</time>
  <name>TP4188</name>
</trkpt>
<trkpt lat="48.605268300" lon="9.108663300">
  <ele>421.000000</ele>
<time>2008-06-15T13:31:29Z</time>
  <name>TP4189</name>
</trkpt>
<trkpt lat="48.605273300" lon="9.108696600">
  <ele>420.000000</ele>
<time>2008-06-15T13:31:36Z</time>
  <name>TP4190</name>
</trkpt>
<trkpt lat="48.605218300" lon="9.108691600">
  <ele>420.000000</ele>
<time>2008-06-15T13:31:38Z</time>
  <name>TP4191</name>
</trkpt>
<trkpt lat="48.605195000" lon="9.108688300">
  <ele>419.000000</ele>
<time>2008-06-15T13:31:39Z</time>
  <name>TP4192</name>
</trkpt>
<trkpt lat="48.605093300" lon="9.108661600">
  <ele>419.000000</ele>
<time>2008-06-15T13:31:42Z</time>
  <name>TP4193</name>
</trkpt>
<trkpt lat="48.605076600" lon="9.108663300">
  <ele>419.000000</ele>
<time>2008-06-15T13:31:43Z</time>
  <name>TP4194</name>
</trkpt>
<trkpt lat="48.605063300" lon="9.108688300">
  <ele>419.000000</ele>
<time>2008-06-15T13:31:44Z</time>
  <name>TP4195</name>
</trkpt>
<trkpt lat="48.605039900" lon="9.108704900">
  <ele>418.000000</ele>
<time>2008-06-15T13:31:45Z</time>
  <name>TP4196</name>
</trkpt>
<trkpt lat="48.605000000" lon="9.108728300">
  <ele>418.000000</ele>
<time>2008-06-15T13:31:47Z</time>
  <name>TP4197</name>
</trkpt>
<trkpt lat="48.604978300" lon="9.108735000">
  <ele>418.000000</ele>
<time>2008-06-15T13:31:48Z</time>
  <name>TP4198</name>
</trkpt>
<trkpt lat="48.604969900" lon="9.108739900">
  <ele>418.000000</ele>
<time>2008-06-15T13:31:49Z</time>
  <name>TP4199</name>
</trkpt>
<trkpt lat="48.604926600" lon="9.108733300">
  <ele>418.000000</ele>
<time>2008-06-15T13:31:50Z</time>
  <name>TP4200</name>
</trkpt>
<trkpt lat="48.604906600" lon="9.108733300">
  <ele>418.000000</ele>
<time>2008-06-15T13:31:51Z</time>
  <name>TP4201</name>
</trkpt>
<trkpt lat="48.604884900" lon="9.108739900">
  <ele>417.000000</ele>
<time>2008-06-15T13:31:52Z</time>
  <name>TP4202</name>
</trkpt>
<trkpt lat="48.604864900" lon="9.108738300">
  <ele>417.000000</ele>
<time>2008-06-15T13:31:53Z</time>
  <name>TP4203</name>
</trkpt>
<trkpt lat="48.604864900" lon="9.108726600">
  <ele>417.000000</ele>
<time>2008-06-15T13:31:55Z</time>
  <name>TP4204</name>
</trkpt>
<trkpt lat="48.604839900" lon="9.108730000">
  <ele>417.000000</ele>
<time>2008-06-15T13:31:56Z</time>
  <name>TP4205</name>
</trkpt>
<trkpt lat="48.604833300" lon="9.108735000">
  <ele>417.000000</ele>
<time>2008-06-15T13:31:57Z</time>
  <name>TP4206</name>
</trkpt>
<trkpt lat="48.604839900" lon="9.108739900">
  <ele>417.000000</ele>
<time>2008-06-15T13:32:00Z</time>
  <name>TP4207</name>
</trkpt>
<trkpt lat="48.604786600" lon="9.108701600">
  <ele>417.000000</ele>
<time>2008-06-15T13:32:01Z</time>
  <name>TP4208</name>
</trkpt>
<trkpt lat="48.604773300" lon="9.108711600">
  <ele>417.000000</ele>
<time>2008-06-15T13:32:02Z</time>
  <name>TP4209</name>
</trkpt>
<trkpt lat="48.604756600" lon="9.108703300">
  <ele>417.000000</ele>
<time>2008-06-15T13:32:03Z</time>
  <name>TP4210</name>
</trkpt>
<trkpt lat="48.604775000" lon="9.108703300">
  <ele>417.000000</ele>
<time>2008-06-15T13:32:08Z</time>
  <name>TP4211</name>
</trkpt>
<trkpt lat="48.604733200" lon="9.108719900">
  <ele>417.000000</ele>
<time>2008-06-15T13:32:11Z</time>
  <name>TP4212</name>
</trkpt>
<trkpt lat="48.604714900" lon="9.108714900">
  <ele>417.000000</ele>
<time>2008-06-15T13:32:12Z</time>
  <name>TP4213</name>
</trkpt>
<trkpt lat="48.604684900" lon="9.108728300">
  <ele>417.000000</ele>
<time>2008-06-15T13:32:13Z</time>
  <name>TP4214</name>
</trkpt>
<trkpt lat="48.604636600" lon="9.108768300">
  <ele>417.000000</ele>
<time>2008-06-15T13:32:14Z</time>
  <name>TP4215</name>
</trkpt>
<trkpt lat="48.604606600" lon="9.108776600">
  <ele>417.000000</ele>
<time>2008-06-15T13:32:15Z</time>
  <name>TP4216</name>
</trkpt>
<trkpt lat="48.604598300" lon="9.108778300">
  <ele>417.000000</ele>
<time>2008-06-15T13:32:16Z</time>
  <name>TP4217</name>
</trkpt>
<trkpt lat="48.604559900" lon="9.108778300">
  <ele>418.000000</ele>
<time>2008-06-15T13:32:17Z</time>
  <name>TP4218</name>
</trkpt>
<trkpt lat="48.604556600" lon="9.108774900">
  <ele>418.000000</ele>
<time>2008-06-15T13:32:18Z</time>
  <name>TP4219</name>
</trkpt>
<trkpt lat="48.604549900" lon="9.108781600">
  <ele>418.000000</ele>
<time>2008-06-15T13:32:19Z</time>
  <name>TP4220</name>
</trkpt>
<trkpt lat="48.604551600" lon="9.108789900">
  <ele>418.000000</ele>
<time>2008-06-15T13:32:20Z</time>
  <name>TP4221</name>
</trkpt>
<trkpt lat="48.604523200" lon="9.108811600">
  <ele>418.000000</ele>
<time>2008-06-15T13:32:22Z</time>
  <name>TP4222</name>
</trkpt>
<trkpt lat="48.604504900" lon="9.108814900">
  <ele>418.000000</ele>
<time>2008-06-15T13:32:23Z</time>
  <name>TP4223</name>
</trkpt>
<trkpt lat="48.604481600" lon="9.108798300">
  <ele>418.000000</ele>
<time>2008-06-15T13:32:25Z</time>
  <name>TP4224</name>
</trkpt>
<trkpt lat="48.604458300" lon="9.108795000">
  <ele>418.000000</ele>
<time>2008-06-15T13:32:26Z</time>
  <name>TP4225</name>
</trkpt>
<trkpt lat="48.604441600" lon="9.108786600">
  <ele>419.000000</ele>
<time>2008-06-15T13:32:27Z</time>
  <name>TP4226</name>
</trkpt>
<trkpt lat="48.604413300" lon="9.108783300">
  <ele>419.000000</ele>
<time>2008-06-15T13:32:28Z</time>
  <name>TP4227</name>
</trkpt>
<trkpt lat="48.604398300" lon="9.108774900">
  <ele>419.000000</ele>
<time>2008-06-15T13:32:29Z</time>
  <name>TP4228</name>
</trkpt>
<trkpt lat="48.604398300" lon="9.108744900">
  <ele>419.000000</ele>
<time>2008-06-15T13:32:31Z</time>
  <name>TP4229</name>
</trkpt>
<trkpt lat="48.604388300" lon="9.108733300">
  <ele>419.000000</ele>
<time>2008-06-15T13:32:32Z</time>
  <name>TP4230</name>
</trkpt>
<trkpt lat="48.604359900" lon="9.108698300">
  <ele>419.000000</ele>
<time>2008-06-15T13:32:34Z</time>
  <name>TP4231</name>
</trkpt>
<trkpt lat="48.604326600" lon="9.108688300">
  <ele>419.000000</ele>
<time>2008-06-15T13:32:36Z</time>
  <name>TP4232</name>
</trkpt>
<trkpt lat="48.604326600" lon="9.108681600">
  <ele>419.000000</ele>
<time>2008-06-15T13:32:37Z</time>
  <name>TP4233</name>
</trkpt>
<trkpt lat="48.604330000" lon="9.108674900">
  <ele>420.000000</ele>
<time>2008-06-15T13:32:38Z</time>
  <name>TP4234</name>
</trkpt>
<trkpt lat="48.604298200" lon="9.108663300">
  <ele>420.000000</ele>
<time>2008-06-15T13:32:39Z</time>
  <name>TP4235</name>
</trkpt>
<trkpt lat="48.604251600" lon="9.108651600">
  <ele>419.000000</ele>
<time>2008-06-15T13:32:40Z</time>
  <name>TP4236</name>
</trkpt>
<trkpt lat="48.604228200" lon="9.108634900">
  <ele>419.000000</ele>
<time>2008-06-15T13:32:41Z</time>
  <name>TP4237</name>
</trkpt>
<trkpt lat="48.604238300" lon="9.108621600">
  <ele>419.000000</ele>
<time>2008-06-15T13:32:42Z</time>
  <name>TP4238</name>
</trkpt>
<trkpt lat="48.604245000" lon="9.108579900">
  <ele>420.000000</ele>
<time>2008-06-15T13:32:44Z</time>
  <name>TP4239</name>
</trkpt>
<trkpt lat="48.604208300" lon="9.108568300">
  <ele>420.000000</ele>
<time>2008-06-15T13:32:46Z</time>
  <name>TP4240</name>
</trkpt>
<trkpt lat="48.604183300" lon="9.108546600">
  <ele>420.000000</ele>
<time>2008-06-15T13:32:47Z</time>
  <name>TP4241</name>
</trkpt>
<trkpt lat="48.604196600" lon="9.108530000">
  <ele>421.000000</ele>
<time>2008-06-15T13:32:48Z</time>
  <name>TP4242</name>
</trkpt>
<trkpt lat="48.604188300" lon="9.108518300">
  <ele>421.000000</ele>
<time>2008-06-15T13:32:49Z</time>
  <name>TP4243</name>
</trkpt>
<trkpt lat="48.604213300" lon="9.108490000">
  <ele>422.000000</ele>
<time>2008-06-15T13:32:50Z</time>
  <name>TP4244</name>
</trkpt>
<trkpt lat="48.604234900" lon="9.108451600">
  <ele>422.000000</ele>
<time>2008-06-15T13:32:51Z</time>
  <name>TP4245</name>
</trkpt>
<trkpt lat="48.604243200" lon="9.108434900">
  <ele>423.000000</ele>
<time>2008-06-15T13:32:52Z</time>
  <name>TP4246</name>
</trkpt>
<trkpt lat="48.604288300" lon="9.108429900">
  <ele>423.000000</ele>
<time>2008-06-15T13:32:53Z</time>
  <name>TP4247</name>
</trkpt>
<trkpt lat="48.604318300" lon="9.108436600">
  <ele>424.000000</ele>
<time>2008-06-15T13:32:54Z</time>
  <name>TP4248</name>
</trkpt>
<trkpt lat="48.604296600" lon="9.108441600">
  <ele>425.000000</ele>
<time>2008-06-15T13:32:55Z</time>
  <name>TP4249</name>
</trkpt>
<trkpt lat="48.604281600" lon="9.108434900">
  <ele>426.000000</ele>
<time>2008-06-15T13:32:57Z</time>
  <name>TP4250</name>
</trkpt>
<trkpt lat="48.604256600" lon="9.108431600">
  <ele>426.000000</ele>
<time>2008-06-15T13:32:58Z</time>
  <name>TP4251</name>
</trkpt>
<trkpt lat="48.604260000" lon="9.108411600">
  <ele>426.000000</ele>
<time>2008-06-15T13:32:59Z</time>
  <name>TP4252</name>
</trkpt>
<trkpt lat="48.604226600" lon="9.108398300">
  <ele>426.000000</ele>
<time>2008-06-15T13:33:00Z</time>
  <name>TP4253</name>
</trkpt>
<trkpt lat="48.604241600" lon="9.108366600">
  <ele>426.000000</ele>
<time>2008-06-15T13:33:01Z</time>
  <name>TP4254</name>
</trkpt>
<trkpt lat="48.604204900" lon="9.108356600">
  <ele>427.000000</ele>
<time>2008-06-15T13:33:02Z</time>
  <name>TP4255</name>
</trkpt>
<trkpt lat="48.604176600" lon="9.108336600">
  <ele>427.000000</ele>
<time>2008-06-15T13:33:03Z</time>
  <name>TP4256</name>
</trkpt>
<trkpt lat="48.604166600" lon="9.108318300">
  <ele>427.000000</ele>
<time>2008-06-15T13:33:04Z</time>
  <name>TP4257</name>
</trkpt>
<trkpt lat="48.604139900" lon="9.108294900">
  <ele>427.000000</ele>
<time>2008-06-15T13:33:05Z</time>
  <name>TP4258</name>
</trkpt>
<trkpt lat="48.604133300" lon="9.108280000">
  <ele>427.000000</ele>
<time>2008-06-15T13:33:06Z</time>
  <name>TP4259</name>
</trkpt>
<trkpt lat="48.604133300" lon="9.108261600">
  <ele>427.000000</ele>
<time>2008-06-15T13:33:07Z</time>
  <name>TP4260</name>
</trkpt>
<trkpt lat="48.604099900" lon="9.108201600">
  <ele>426.000000</ele>
<time>2008-06-15T13:33:09Z</time>
  <name>TP4261</name>
</trkpt>
<trkpt lat="48.604076600" lon="9.108164900">
  <ele>426.000000</ele>
<time>2008-06-15T13:33:10Z</time>
  <name>TP4262</name>
</trkpt>
<trkpt lat="48.604060000" lon="9.108143300">
  <ele>426.000000</ele>
<time>2008-06-15T13:33:11Z</time>
  <name>TP4263</name>
</trkpt>
<trkpt lat="48.604026600" lon="9.108116600">
  <ele>425.000000</ele>
<time>2008-06-15T13:33:12Z</time>
  <name>TP4264</name>
</trkpt>
<trkpt lat="48.604014900" lon="9.108054900">
  <ele>425.000000</ele>
<time>2008-06-15T13:33:14Z</time>
  <name>TP4265</name>
</trkpt>
<trkpt lat="48.604016600" lon="9.108053300">
  <ele>425.000000</ele>
<time>2008-06-15T13:33:15Z</time>
  <name>TP4266</name>
</trkpt>
<trkpt lat="48.604060000" lon="9.108026600">
  <ele>425.000000</ele>
<time>2008-06-15T13:33:18Z</time>
  <name>TP4267</name>
</trkpt>
<trkpt lat="48.604053300" lon="9.108024900">
  <ele>425.000000</ele>
<time>2008-06-15T13:33:19Z</time>
  <name>TP4268</name>
</trkpt>
<trkpt lat="48.603993300" lon="9.107966600">
  <ele>425.000000</ele>
<time>2008-06-15T13:33:23Z</time>
  <name>TP4269</name>
</trkpt>
<trkpt lat="48.603941600" lon="9.107968300">
  <ele>425.000000</ele>
<time>2008-06-15T13:33:26Z</time>
  <name>TP4270</name>
</trkpt>
<trkpt lat="48.603936600" lon="9.107968300">
  <ele>425.000000</ele>
<time>2008-06-15T13:33:27Z</time>
  <name>TP4271</name>
</trkpt>
<trkpt lat="48.603944900" lon="9.107949900">
  <ele>425.000000</ele>
<time>2008-06-15T13:33:29Z</time>
  <name>TP4272</name>
</trkpt>
<trkpt lat="48.603936600" lon="9.107926600">
  <ele>425.000000</ele>
<time>2008-06-15T13:33:31Z</time>
  <name>TP4273</name>
</trkpt>
<trkpt lat="48.603926600" lon="9.107928300">
  <ele>425.000000</ele>
<time>2008-06-15T13:33:33Z</time>
  <name>TP4274</name>
</trkpt>
<trkpt lat="48.603903300" lon="9.107906600">
  <ele>425.000000</ele>
<time>2008-06-15T13:33:37Z</time>
  <name>TP4275</name>
</trkpt>
<trkpt lat="48.603873300" lon="9.107868300">
  <ele>424.000000</ele>
<time>2008-06-15T13:33:39Z</time>
  <name>TP4276</name>
</trkpt>
<trkpt lat="48.603878200" lon="9.107835000">
  <ele>424.000000</ele>
<time>2008-06-15T13:33:41Z</time>
  <name>TP4277</name>
</trkpt>
<trkpt lat="48.603888300" lon="9.107836600">
  <ele>424.000000</ele>
<time>2008-06-15T13:33:42Z</time>
  <name>TP4278</name>
</trkpt>
<trkpt lat="48.603850000" lon="9.107833300">
  <ele>424.000000</ele>
<time>2008-06-15T13:33:44Z</time>
  <name>TP4279</name>
</trkpt>
<trkpt lat="48.603828300" lon="9.107821600">
  <ele>425.000000</ele>
<time>2008-06-15T13:33:45Z</time>
  <name>TP4280</name>
</trkpt>
<trkpt lat="48.603711600" lon="9.107724900">
  <ele>425.000000</ele>
<time>2008-06-15T13:33:48Z</time>
  <name>TP4281</name>
</trkpt>
<trkpt lat="48.603683200" lon="9.107714900">
  <ele>425.000000</ele>
<time>2008-06-15T13:33:49Z</time>
  <name>TP4282</name>
</trkpt>
<trkpt lat="48.603636600" lon="9.107708300">
  <ele>426.000000</ele>
<time>2008-06-15T13:33:51Z</time>
  <name>TP4283</name>
</trkpt>
<trkpt lat="48.603631600" lon="9.107724900">
  <ele>425.000000</ele>
<time>2008-06-15T13:33:52Z</time>
  <name>TP4284</name>
</trkpt>
<trkpt lat="48.603598200" lon="9.107735000">
  <ele>425.000000</ele>
<time>2008-06-15T13:33:53Z</time>
  <name>TP4285</name>
</trkpt>
<trkpt lat="48.603573300" lon="9.107730000">
  <ele>425.000000</ele>
<time>2008-06-15T13:33:54Z</time>
  <name>TP4286</name>
</trkpt>
<trkpt lat="48.603539900" lon="9.107735000">
  <ele>425.000000</ele>
<time>2008-06-15T13:33:55Z</time>
  <name>TP4287</name>
</trkpt>
<trkpt lat="48.603501600" lon="9.107744900">
  <ele>426.000000</ele>
<time>2008-06-15T13:33:57Z</time>
  <name>TP4288</name>
</trkpt>
<trkpt lat="48.603460000" lon="9.107751600">
  <ele>426.000000</ele>
<time>2008-06-15T13:34:00Z</time>
  <name>TP4289</name>
</trkpt>
<trkpt lat="48.603428300" lon="9.107741600">
  <ele>426.000000</ele>
<time>2008-06-15T13:34:02Z</time>
  <name>TP4290</name>
</trkpt>
<trkpt lat="48.603414900" lon="9.107733300">
  <ele>426.000000</ele>
<time>2008-06-15T13:34:03Z</time>
  <name>TP4291</name>
</trkpt>
<trkpt lat="48.603419900" lon="9.107724900">
  <ele>427.000000</ele>
<time>2008-06-15T13:34:04Z</time>
  <name>TP4292</name>
</trkpt>
<trkpt lat="48.603405000" lon="9.107719900">
  <ele>427.000000</ele>
<time>2008-06-15T13:34:05Z</time>
  <name>TP4293</name>
</trkpt>
<trkpt lat="48.603393300" lon="9.107724900">
  <ele>427.000000</ele>
<time>2008-06-15T13:34:06Z</time>
  <name>TP4294</name>
</trkpt>
<trkpt lat="48.603390000" lon="9.107721600">
  <ele>428.000000</ele>
<time>2008-06-15T13:34:07Z</time>
  <name>TP4295</name>
</trkpt>
<trkpt lat="48.603390000" lon="9.107723300">
  <ele>427.000000</ele>
<time>2008-06-15T13:34:08Z</time>
  <name>TP4296</name>
</trkpt>
<trkpt lat="48.603388200" lon="9.107744900">
  <ele>428.000000</ele>
<time>2008-06-15T13:34:11Z</time>
  <name>TP4297</name>
</trkpt>
<trkpt lat="48.603358300" lon="9.107744900">
  <ele>428.000000</ele>
<time>2008-06-15T13:34:13Z</time>
  <name>TP4298</name>
</trkpt>
<trkpt lat="48.603331600" lon="9.107706600">
  <ele>428.000000</ele>
<time>2008-06-15T13:34:14Z</time>
  <name>TP4299</name>
</trkpt>
<trkpt lat="48.603331600" lon="9.107683300">
  <ele>428.000000</ele>
<time>2008-06-15T13:34:15Z</time>
  <name>TP4300</name>
</trkpt>
<trkpt lat="48.603306600" lon="9.107674900">
  <ele>428.000000</ele>
<time>2008-06-15T13:34:16Z</time>
  <name>TP4301</name>
</trkpt>
<trkpt lat="48.603301600" lon="9.107678300">
  <ele>428.000000</ele>
<time>2008-06-15T13:34:17Z</time>
  <name>TP4302</name>
</trkpt>
<trkpt lat="48.603224900" lon="9.107693300">
  <ele>426.000000</ele>
<time>2008-06-15T13:34:19Z</time>
  <name>TP4303</name>
</trkpt>
<trkpt lat="48.603198300" lon="9.107696600">
  <ele>425.000000</ele>
<time>2008-06-15T13:34:20Z</time>
  <name>TP4304</name>
</trkpt>
<trkpt lat="48.603148300" lon="9.107676600">
  <ele>425.000000</ele>
<time>2008-06-15T13:34:21Z</time>
  <name>TP4305</name>
</trkpt>
<trkpt lat="48.603066600" lon="9.107663300">
  <ele>425.000000</ele>
<time>2008-06-15T13:34:23Z</time>
  <name>TP4306</name>
</trkpt>
<trkpt lat="48.603048300" lon="9.107653300">
  <ele>424.000000</ele>
<time>2008-06-15T13:34:24Z</time>
  <name>TP4307</name>
</trkpt>
<trkpt lat="48.603029900" lon="9.107661600">
  <ele>424.000000</ele>
<time>2008-06-15T13:34:25Z</time>
  <name>TP4308</name>
</trkpt>
<trkpt lat="48.603006600" lon="9.107665000">
  <ele>424.000000</ele>
<time>2008-06-15T13:34:26Z</time>
  <name>TP4309</name>
</trkpt>
<trkpt lat="48.602995000" lon="9.107661600">
  <ele>425.000000</ele>
<time>2008-06-15T13:34:27Z</time>
  <name>TP4310</name>
</trkpt>
<trkpt lat="48.603008200" lon="9.107666600">
  <ele>425.000000</ele>
<time>2008-06-15T13:34:28Z</time>
  <name>TP4311</name>
</trkpt>
<trkpt lat="48.602976600" lon="9.107676600">
  <ele>425.000000</ele>
<time>2008-06-15T13:34:29Z</time>
  <name>TP4312</name>
</trkpt>
<trkpt lat="48.602955000" lon="9.107700000">
  <ele>425.000000</ele>
<time>2008-06-15T13:34:31Z</time>
  <name>TP4313</name>
</trkpt>
<trkpt lat="48.602928300" lon="9.107706600">
  <ele>425.000000</ele>
<time>2008-06-15T13:34:32Z</time>
  <name>TP4314</name>
</trkpt>
<trkpt lat="48.602853300" lon="9.107841600">
  <ele>425.000000</ele>
<time>2008-06-15T13:34:35Z</time>
  <name>TP4315</name>
</trkpt>
<trkpt lat="48.602808300" lon="9.107808300">
  <ele>427.000000</ele>
<time>2008-06-15T13:34:43Z</time>
  <name>TP4316</name>
</trkpt>
<trkpt lat="48.602811600" lon="9.107761600">
  <ele>427.000000</ele>
<time>2008-06-15T13:34:45Z</time>
  <name>TP4317</name>
</trkpt>
<trkpt lat="48.602859900" lon="9.107726600">
  <ele>427.000000</ele>
<time>2008-06-15T13:34:46Z</time>
  <name>TP4318</name>
</trkpt>
<trkpt lat="48.602863300" lon="9.107674900">
  <ele>427.000000</ele>
<time>2008-06-15T13:34:47Z</time>
  <name>TP4319</name>
</trkpt>
<trkpt lat="48.602855000" lon="9.107578300">
  <ele>425.000000</ele>
<time>2008-06-15T13:34:48Z</time>
  <name>TP4320</name>
</trkpt>
<trkpt lat="48.602919900" lon="9.107536600">
  <ele>425.000000</ele>
<time>2008-06-15T13:34:49Z</time>
  <name>TP4321</name>
</trkpt>
<trkpt lat="48.602944900" lon="9.107509900">
  <ele>424.000000</ele>
<time>2008-06-15T13:34:50Z</time>
  <name>TP4322</name>
</trkpt>
<trkpt lat="48.602951600" lon="9.107511600">
  <ele>423.000000</ele>
<time>2008-06-15T13:34:51Z</time>
  <name>TP4323</name>
</trkpt>
<trkpt lat="48.602953200" lon="9.107516600">
  <ele>423.000000</ele>
<time>2008-06-15T13:34:52Z</time>
  <name>TP4324</name>
</trkpt>
<trkpt lat="48.602963300" lon="9.107525000">
  <ele>423.000000</ele>
<time>2008-06-15T13:34:53Z</time>
  <name>TP4325</name>
</trkpt>
<trkpt lat="48.602949900" lon="9.107509900">
  <ele>424.000000</ele>
<time>2008-06-15T13:34:54Z</time>
  <name>TP4326</name>
</trkpt>
<trkpt lat="48.602944900" lon="9.107513300">
  <ele>424.000000</ele>
<time>2008-06-15T13:34:55Z</time>
  <name>TP4327</name>
</trkpt>
<trkpt lat="48.602943300" lon="9.107525000">
  <ele>423.000000</ele>
<time>2008-06-15T13:34:56Z</time>
  <name>TP4328</name>
</trkpt>
<trkpt lat="48.602944900" lon="9.107533300">
  <ele>423.000000</ele>
<time>2008-06-15T13:34:57Z</time>
  <name>TP4329</name>
</trkpt>
<trkpt lat="48.602959900" lon="9.107551600">
  <ele>422.000000</ele>
<time>2008-06-15T13:35:00Z</time>
  <name>TP4330</name>
</trkpt>
<trkpt lat="48.602966600" lon="9.107563300">
  <ele>422.000000</ele>
<time>2008-06-15T13:35:01Z</time>
  <name>TP4331</name>
</trkpt>
<trkpt lat="48.602974900" lon="9.107569900">
  <ele>422.000000</ele>
<time>2008-06-15T13:35:02Z</time>
  <name>TP4332</name>
</trkpt>
<trkpt lat="48.602974900" lon="9.107581600">
  <ele>423.000000</ele>
<time>2008-06-15T13:35:04Z</time>
  <name>TP4333</name>
</trkpt>
<trkpt lat="48.602961600" lon="9.107608300">
  <ele>423.000000</ele>
<time>2008-06-15T13:35:06Z</time>
  <name>TP4334</name>
</trkpt>
<trkpt lat="48.602956600" lon="9.107721600">
  <ele>423.000000</ele>
<time>2008-06-15T13:35:09Z</time>
  <name>TP4335</name>
</trkpt>
<trkpt lat="48.602953200" lon="9.107735000">
  <ele>423.000000</ele>
<time>2008-06-15T13:35:10Z</time>
  <name>TP4336</name>
</trkpt>
<trkpt lat="48.602931600" lon="9.107746600">
  <ele>423.000000</ele>
<time>2008-06-15T13:35:11Z</time>
  <name>TP4337</name>
</trkpt>
<trkpt lat="48.602934900" lon="9.107809900">
  <ele>423.000000</ele>
<time>2008-06-15T13:35:12Z</time>
  <name>TP4338</name>
</trkpt>
<trkpt lat="48.602914900" lon="9.107809900">
  <ele>423.000000</ele>
<time>2008-06-15T13:35:13Z</time>
  <name>TP4339</name>
</trkpt>
<trkpt lat="48.602885000" lon="9.107801600">
  <ele>423.000000</ele>
<time>2008-06-15T13:35:14Z</time>
  <name>TP4340</name>
</trkpt>
<trkpt lat="48.602843300" lon="9.107808300">
  <ele>423.000000</ele>
<time>2008-06-15T13:35:16Z</time>
  <name>TP4341</name>
</trkpt>
<trkpt lat="48.602833300" lon="9.107796600">
  <ele>424.000000</ele>
<time>2008-06-15T13:35:17Z</time>
  <name>TP4342</name>
</trkpt>
<trkpt lat="48.602828200" lon="9.107786600">
  <ele>424.000000</ele>
<time>2008-06-15T13:35:20Z</time>
  <name>TP4343</name>
</trkpt>
<trkpt lat="48.602824900" lon="9.107783300">
  <ele>424.000000</ele>
<time>2008-06-15T13:35:21Z</time>
  <name>TP4344</name>
</trkpt>
<trkpt lat="48.602821600" lon="9.107786600">
  <ele>425.000000</ele>
<time>2008-06-15T13:35:22Z</time>
  <name>TP4345</name>
</trkpt>
<trkpt lat="48.602804900" lon="9.107816600">
  <ele>424.000000</ele>
<time>2008-06-15T13:35:23Z</time>
  <name>TP4346</name>
</trkpt>
<trkpt lat="48.602798200" lon="9.107758300">
  <ele>424.000000</ele>
<time>2008-06-15T13:35:27Z</time>
  <name>TP4347</name>
</trkpt>
<trkpt lat="48.602813200" lon="9.107748300">
  <ele>424.000000</ele>
<time>2008-06-15T13:35:28Z</time>
  <name>TP4348</name>
</trkpt>
<trkpt lat="48.602844900" lon="9.107714900">
  <ele>423.000000</ele>
<time>2008-06-15T13:35:29Z</time>
  <name>TP4349</name>
</trkpt>
<trkpt lat="48.602870000" lon="9.107689900">
  <ele>423.000000</ele>
<time>2008-06-15T13:35:30Z</time>
  <name>TP4350</name>
</trkpt>
<trkpt lat="48.602906600" lon="9.107633300">
  <ele>424.000000</ele>
<time>2008-06-15T13:35:31Z</time>
  <name>TP4351</name>
</trkpt>
<trkpt lat="48.602991600" lon="9.107509900">
  <ele>424.000000</ele>
<time>2008-06-15T13:35:32Z</time>
  <name>TP4352</name>
</trkpt>
<trkpt lat="48.603018300" lon="9.107441600">
  <ele>424.000000</ele>
<time>2008-06-15T13:35:33Z</time>
  <name>TP4353</name>
</trkpt>
<trkpt lat="48.603013300" lon="9.107381600">
  <ele>424.000000</ele>
<time>2008-06-15T13:35:35Z</time>
  <name>TP4354</name>
</trkpt>
<trkpt lat="48.603006600" lon="9.107361600">
  <ele>425.000000</ele>
<time>2008-06-15T13:35:36Z</time>
  <name>TP4355</name>
</trkpt>
<trkpt lat="48.603018300" lon="9.107326600">
  <ele>425.000000</ele>
<time>2008-06-15T13:35:37Z</time>
  <name>TP4356</name>
</trkpt>
<trkpt lat="48.603019900" lon="9.107279900">
  <ele>426.000000</ele>
<time>2008-06-15T13:35:40Z</time>
  <name>TP4357</name>
</trkpt>
<trkpt lat="48.603014900" lon="9.107239900">
  <ele>426.000000</ele>
<time>2008-06-15T13:35:43Z</time>
  <name>TP4358</name>
</trkpt>
<trkpt lat="48.603019900" lon="9.107216600">
  <ele>426.000000</ele>
<time>2008-06-15T13:35:44Z</time>
  <name>TP4359</name>
</trkpt>
<trkpt lat="48.603028300" lon="9.107186600">
  <ele>427.000000</ele>
<time>2008-06-15T13:35:45Z</time>
  <name>TP4360</name>
</trkpt>
<trkpt lat="48.603036600" lon="9.107116600">
  <ele>427.000000</ele>
<time>2008-06-15T13:35:46Z</time>
  <name>TP4361</name>
</trkpt>
<trkpt lat="48.603018300" lon="9.107063300">
  <ele>428.000000</ele>
<time>2008-06-15T13:35:47Z</time>
  <name>TP4362</name>
</trkpt>
<trkpt lat="48.603011600" lon="9.107038300">
  <ele>428.000000</ele>
<time>2008-06-15T13:35:48Z</time>
  <name>TP4363</name>
</trkpt>
<trkpt lat="48.603071600" lon="9.107056600">
  <ele>428.000000</ele>
<time>2008-06-15T13:35:49Z</time>
  <name>TP4364</name>
</trkpt>
<trkpt lat="48.603073300" lon="9.107003300">
  <ele>429.000000</ele>
<time>2008-06-15T13:35:50Z</time>
  <name>TP4365</name>
</trkpt>
<trkpt lat="48.603136600" lon="9.107013300">
  <ele>429.000000</ele>
<time>2008-06-15T13:35:51Z</time>
  <name>TP4366</name>
</trkpt>
<trkpt lat="48.603156600" lon="9.106936600">
  <ele>430.000000</ele>
<time>2008-06-15T13:35:53Z</time>
  <name>TP4367</name>
</trkpt>
<trkpt lat="48.603148300" lon="9.106886600">
  <ele>430.000000</ele>
<time>2008-06-15T13:35:54Z</time>
  <name>TP4368</name>
</trkpt>
<trkpt lat="48.603116600" lon="9.106781600">
  <ele>431.000000</ele>
<time>2008-06-15T13:35:56Z</time>
  <name>TP4369</name>
</trkpt>
<trkpt lat="48.603104900" lon="9.106706600">
  <ele>431.000000</ele>
<time>2008-06-15T13:35:58Z</time>
  <name>TP4370</name>
</trkpt>
<trkpt lat="48.603095000" lon="9.106640000">
  <ele>432.000000</ele>
<time>2008-06-15T13:36:00Z</time>
  <name>TP4371</name>
</trkpt>
<trkpt lat="48.603088300" lon="9.106609900">
  <ele>432.000000</ele>
<time>2008-06-15T13:36:01Z</time>
  <name>TP4372</name>
</trkpt>
<trkpt lat="48.603083300" lon="9.106588300">
  <ele>432.000000</ele>
<time>2008-06-15T13:36:02Z</time>
  <name>TP4373</name>
</trkpt>
<trkpt lat="48.603081600" lon="9.106539900">
  <ele>433.000000</ele>
<time>2008-06-15T13:36:04Z</time>
  <name>TP4374</name>
</trkpt>
<trkpt lat="48.603073300" lon="9.106521600">
  <ele>433.000000</ele>
<time>2008-06-15T13:36:05Z</time>
  <name>TP4375</name>
</trkpt>
<trkpt lat="48.603066600" lon="9.106495000">
  <ele>432.000000</ele>
<time>2008-06-15T13:36:06Z</time>
  <name>TP4376</name>
</trkpt>
<trkpt lat="48.603063300" lon="9.106416600">
  <ele>431.000000</ele>
<time>2008-06-15T13:36:09Z</time>
  <name>TP4377</name>
</trkpt>
<trkpt lat="48.603061600" lon="9.106393300">
  <ele>431.000000</ele>
<time>2008-06-15T13:36:10Z</time>
  <name>TP4378</name>
</trkpt>
<trkpt lat="48.603046600" lon="9.106309900">
  <ele>430.000000</ele>
<time>2008-06-15T13:36:14Z</time>
  <name>TP4379</name>
</trkpt>
<trkpt lat="48.603061600" lon="9.106293300">
  <ele>431.000000</ele>
<time>2008-06-15T13:36:15Z</time>
  <name>TP4380</name>
</trkpt>
<trkpt lat="48.603058300" lon="9.106221600">
  <ele>431.000000</ele>
<time>2008-06-15T13:36:18Z</time>
  <name>TP4381</name>
</trkpt>
<trkpt lat="48.603048300" lon="9.106174900">
  <ele>430.000000</ele>
<time>2008-06-15T13:36:20Z</time>
  <name>TP4382</name>
</trkpt>
<trkpt lat="48.603040000" lon="9.106104900">
  <ele>429.000000</ele>
<time>2008-06-15T13:36:23Z</time>
  <name>TP4383</name>
</trkpt>
<trkpt lat="48.603036600" lon="9.106081600">
  <ele>429.000000</ele>
<time>2008-06-15T13:36:24Z</time>
  <name>TP4384</name>
</trkpt>
<trkpt lat="48.603023200" lon="9.106016600">
  <ele>429.000000</ele>
<time>2008-06-15T13:36:27Z</time>
  <name>TP4385</name>
</trkpt>
<trkpt lat="48.603019900" lon="9.105998300">
  <ele>429.000000</ele>
<time>2008-06-15T13:36:28Z</time>
  <name>TP4386</name>
</trkpt>
<trkpt lat="48.603014900" lon="9.105976600">
  <ele>429.000000</ele>
<time>2008-06-15T13:36:29Z</time>
  <name>TP4387</name>
</trkpt>
<trkpt lat="48.602998300" lon="9.105911600">
  <ele>429.000000</ele>
<time>2008-06-15T13:36:32Z</time>
  <name>TP4388</name>
</trkpt>
<trkpt lat="48.602991600" lon="9.105886600">
  <ele>429.000000</ele>
<time>2008-06-15T13:36:33Z</time>
  <name>TP4389</name>
</trkpt>
<trkpt lat="48.602976600" lon="9.105805000">
  <ele>428.000000</ele>
<time>2008-06-15T13:36:36Z</time>
  <name>TP4390</name>
</trkpt>
<trkpt lat="48.602955000" lon="9.105740000">
  <ele>428.000000</ele>
<time>2008-06-15T13:36:39Z</time>
  <name>TP4391</name>
</trkpt>
<trkpt lat="48.602951600" lon="9.105716600">
  <ele>427.000000</ele>
<time>2008-06-15T13:36:40Z</time>
  <name>TP4392</name>
</trkpt>
<trkpt lat="48.602944900" lon="9.105693300">
  <ele>427.000000</ele>
<time>2008-06-15T13:36:41Z</time>
  <name>TP4393</name>
</trkpt>
<trkpt lat="48.602864900" lon="9.105509900">
  <ele>426.000000</ele>
<time>2008-06-15T13:36:53Z</time>
  <name>TP4394</name>
</trkpt>
<trkpt lat="48.602859900" lon="9.105495000">
  <ele>426.000000</ele>
<time>2008-06-15T13:36:54Z</time>
  <name>TP4395</name>
</trkpt>
<trkpt lat="48.602838300" lon="9.105423300">
  <ele>426.000000</ele>
<time>2008-06-15T13:36:58Z</time>
  <name>TP4396</name>
</trkpt>
<trkpt lat="48.602828200" lon="9.105386600">
  <ele>425.000000</ele>
<time>2008-06-15T13:37:00Z</time>
  <name>TP4397</name>
</trkpt>
<trkpt lat="48.602821600" lon="9.105366600">
  <ele>425.000000</ele>
<time>2008-06-15T13:37:01Z</time>
  <name>TP4398</name>
</trkpt>
<trkpt lat="48.602803300" lon="9.105304900">
  <ele>426.000000</ele>
<time>2008-06-15T13:37:04Z</time>
  <name>TP4399</name>
</trkpt>
<trkpt lat="48.602789900" lon="9.105266600">
  <ele>425.000000</ele>
<time>2008-06-15T13:37:06Z</time>
  <name>TP4400</name>
</trkpt>
<trkpt lat="48.602785000" lon="9.105248300">
  <ele>425.000000</ele>
<time>2008-06-15T13:37:07Z</time>
  <name>TP4401</name>
</trkpt>
<trkpt lat="48.602758200" lon="9.105163300">
  <ele>425.000000</ele>
<time>2008-06-15T13:37:11Z</time>
  <name>TP4402</name>
</trkpt>
<trkpt lat="48.602733300" lon="9.105046600">
  <ele>426.000000</ele>
<time>2008-06-15T13:37:16Z</time>
  <name>TP4403</name>
</trkpt>
<trkpt lat="48.602731600" lon="9.105026600">
  <ele>426.000000</ele>
<time>2008-06-15T13:37:17Z</time>
  <name>TP4404</name>
</trkpt>
<trkpt lat="48.602728200" lon="9.105003300">
  <ele>426.000000</ele>
<time>2008-06-15T13:37:18Z</time>
  <name>TP4405</name>
</trkpt>
<trkpt lat="48.602724900" lon="9.104981600">
  <ele>427.000000</ele>
<time>2008-06-15T13:37:19Z</time>
  <name>TP4406</name>
</trkpt>
<trkpt lat="48.602721600" lon="9.104958300">
  <ele>427.000000</ele>
<time>2008-06-15T13:37:20Z</time>
  <name>TP4407</name>
</trkpt>
<trkpt lat="48.602703300" lon="9.104886600">
  <ele>427.000000</ele>
<time>2008-06-15T13:37:23Z</time>
  <name>TP4408</name>
</trkpt>
<trkpt lat="48.602678300" lon="9.104815000">
  <ele>428.000000</ele>
<time>2008-06-15T13:37:26Z</time>
  <name>TP4409</name>
</trkpt>
<trkpt lat="48.602660000" lon="9.104766600">
  <ele>429.000000</ele>
<time>2008-06-15T13:37:30Z</time>
  <name>TP4410</name>
</trkpt>
<trkpt lat="48.602636600" lon="9.104745000">
  <ele>430.000000</ele>
<time>2008-06-15T13:37:36Z</time>
  <name>TP4411</name>
</trkpt>
<trkpt lat="48.602639900" lon="9.104724900">
  <ele>432.000000</ele>
<time>2008-06-15T13:37:40Z</time>
  <name>TP4412</name>
</trkpt>
<trkpt lat="48.602648300" lon="9.104731600">
  <ele>432.000000</ele>
<time>2008-06-15T13:37:41Z</time>
  <name>TP4413</name>
</trkpt>
<trkpt lat="48.602653300" lon="9.104718300">
  <ele>433.000000</ele>
<time>2008-06-15T13:37:43Z</time>
  <name>TP4414</name>
</trkpt>
<trkpt lat="48.602663300" lon="9.104701600">
  <ele>434.000000</ele>
<time>2008-06-15T13:37:44Z</time>
  <name>TP4415</name>
</trkpt>
<trkpt lat="48.602676600" lon="9.104689900">
  <ele>434.000000</ele>
<time>2008-06-15T13:37:45Z</time>
  <name>TP4416</name>
</trkpt>
<trkpt lat="48.602661600" lon="9.104648300">
  <ele>434.000000</ele>
<time>2008-06-15T13:37:46Z</time>
  <name>TP4417</name>
</trkpt>
<trkpt lat="48.602654900" lon="9.104619900">
  <ele>434.000000</ele>
<time>2008-06-15T13:37:47Z</time>
  <name>TP4418</name>
</trkpt>
<trkpt lat="48.602709900" lon="9.104473300">
  <ele>437.000000</ele>
<time>2008-06-15T13:37:53Z</time>
  <name>TP4419</name>
</trkpt>
<trkpt lat="48.602721600" lon="9.104426600">
  <ele>437.000000</ele>
<time>2008-06-15T13:37:55Z</time>
  <name>TP4420</name>
</trkpt>
<trkpt lat="48.602730000" lon="9.104403300">
  <ele>437.000000</ele>
<time>2008-06-15T13:37:56Z</time>
  <name>TP4421</name>
</trkpt>
<trkpt lat="48.602736600" lon="9.104386600">
  <ele>438.000000</ele>
<time>2008-06-15T13:37:57Z</time>
  <name>TP4422</name>
</trkpt>
<trkpt lat="48.602741600" lon="9.104361600">
  <ele>438.000000</ele>
<time>2008-06-15T13:37:58Z</time>
  <name>TP4423</name>
</trkpt>
<trkpt lat="48.602753300" lon="9.104313300">
  <ele>439.000000</ele>
<time>2008-06-15T13:38:00Z</time>
  <name>TP4424</name>
</trkpt>
<trkpt lat="48.602758200" lon="9.104283300">
  <ele>439.000000</ele>
<time>2008-06-15T13:38:02Z</time>
  <name>TP4425</name>
</trkpt>
<trkpt lat="48.602753300" lon="9.104273300">
  <ele>439.000000</ele>
<time>2008-06-15T13:38:12Z</time>
  <name>TP4426</name>
</trkpt>
<trkpt lat="48.602751600" lon="9.104254900">
  <ele>439.000000</ele>
<time>2008-06-15T13:38:13Z</time>
  <name>TP4427</name>
</trkpt>
<trkpt lat="48.602751600" lon="9.104233300">
  <ele>439.000000</ele>
<time>2008-06-15T13:38:14Z</time>
  <name>TP4428</name>
</trkpt>
<trkpt lat="48.602754900" lon="9.104181600">
  <ele>439.000000</ele>
<time>2008-06-15T13:38:16Z</time>
  <name>TP4429</name>
</trkpt>
<trkpt lat="48.602761600" lon="9.104151600">
  <ele>439.000000</ele>
<time>2008-06-15T13:38:17Z</time>
  <name>TP4430</name>
</trkpt>
<trkpt lat="48.602768300" lon="9.104118300">
  <ele>439.000000</ele>
<time>2008-06-15T13:38:18Z</time>
  <name>TP4431</name>
</trkpt>
<trkpt lat="48.602766600" lon="9.104086600">
  <ele>439.000000</ele>
<time>2008-06-15T13:38:19Z</time>
  <name>TP4432</name>
</trkpt>
<trkpt lat="48.602753300" lon="9.104068300">
  <ele>439.000000</ele>
<time>2008-06-15T13:38:20Z</time>
  <name>TP4433</name>
</trkpt>
<trkpt lat="48.602739900" lon="9.104068300">
  <ele>439.000000</ele>
<time>2008-06-15T13:38:21Z</time>
  <name>TP4434</name>
</trkpt>
<trkpt lat="48.602731600" lon="9.104079900">
  <ele>439.000000</ele>
<time>2008-06-15T13:38:22Z</time>
  <name>TP4435</name>
</trkpt>
<trkpt lat="48.602730000" lon="9.104093300">
  <ele>439.000000</ele>
<time>2008-06-15T13:38:23Z</time>
  <name>TP4436</name>
</trkpt>
<trkpt lat="48.602730000" lon="9.104108300">
  <ele>439.000000</ele>
<time>2008-06-15T13:38:24Z</time>
  <name>TP4437</name>
</trkpt>
<trkpt lat="48.602743200" lon="9.104128300">
  <ele>439.000000</ele>
<time>2008-06-15T13:38:28Z</time>
  <name>TP4438</name>
</trkpt>
<trkpt lat="48.602754900" lon="9.104111600">
  <ele>440.000000</ele>
<time>2008-06-15T13:38:30Z</time>
  <name>TP4439</name>
</trkpt>
<trkpt lat="48.602763300" lon="9.104096600">
  <ele>440.000000</ele>
<time>2008-06-15T13:38:31Z</time>
  <name>TP4440</name>
</trkpt>
<trkpt lat="48.602771600" lon="9.104079900">
  <ele>440.000000</ele>
<time>2008-06-15T13:38:32Z</time>
  <name>TP4441</name>
</trkpt>
<trkpt lat="48.602776600" lon="9.104056600">
  <ele>440.000000</ele>
<time>2008-06-15T13:38:33Z</time>
  <name>TP4442</name>
</trkpt>
<trkpt lat="48.602781600" lon="9.104033300">
  <ele>439.000000</ele>
<time>2008-06-15T13:38:34Z</time>
  <name>TP4443</name>
</trkpt>
<trkpt lat="48.602800000" lon="9.103916600">
  <ele>439.000000</ele>
<time>2008-06-15T13:38:38Z</time>
  <name>TP4444</name>
</trkpt>
<trkpt lat="48.602811600" lon="9.103856600">
  <ele>438.000000</ele>
<time>2008-06-15T13:38:40Z</time>
  <name>TP4445</name>
</trkpt>
<trkpt lat="48.602836600" lon="9.103671600">
  <ele>438.000000</ele>
<time>2008-06-15T13:38:46Z</time>
  <name>TP4446</name>
</trkpt>
<trkpt lat="48.602868200" lon="9.103498300">
  <ele>437.000000</ele>
<time>2008-06-15T13:38:52Z</time>
  <name>TP4447</name>
</trkpt>
<trkpt lat="48.602874900" lon="9.103468300">
  <ele>437.000000</ele>
<time>2008-06-15T13:38:53Z</time>
  <name>TP4448</name>
</trkpt>
<trkpt lat="48.602881600" lon="9.103440000">
  <ele>437.000000</ele>
<time>2008-06-15T13:38:54Z</time>
  <name>TP4449</name>
</trkpt>
<trkpt lat="48.602891600" lon="9.103418300">
  <ele>437.000000</ele>
<time>2008-06-15T13:38:55Z</time>
  <name>TP4450</name>
</trkpt>
<trkpt lat="48.602904900" lon="9.103401600">
  <ele>437.000000</ele>
<time>2008-06-15T13:38:56Z</time>
  <name>TP4451</name>
</trkpt>
<trkpt lat="48.602921600" lon="9.103388300">
  <ele>437.000000</ele>
<time>2008-06-15T13:38:57Z</time>
  <name>TP4452</name>
</trkpt>
<trkpt lat="48.602941600" lon="9.103381600">
  <ele>437.000000</ele>
<time>2008-06-15T13:38:58Z</time>
  <name>TP4453</name>
</trkpt>
<trkpt lat="48.602981600" lon="9.103368300">
  <ele>438.000000</ele>
<time>2008-06-15T13:39:00Z</time>
  <name>TP4454</name>
</trkpt>
<trkpt lat="48.603021600" lon="9.103368300">
  <ele>438.000000</ele>
<time>2008-06-15T13:39:02Z</time>
  <name>TP4455</name>
</trkpt>
<trkpt lat="48.603056600" lon="9.103373300">
  <ele>438.000000</ele>
<time>2008-06-15T13:39:04Z</time>
  <name>TP4456</name>
</trkpt>
<trkpt lat="48.603081600" lon="9.103373300">
  <ele>438.000000</ele>
<time>2008-06-15T13:39:08Z</time>
  <name>TP4457</name>
</trkpt>
<trkpt lat="48.603086600" lon="9.103361600">
  <ele>440.000000</ele>
<time>2008-06-15T13:39:11Z</time>
  <name>TP4458</name>
</trkpt>
<trkpt lat="48.603086600" lon="9.103363300">
  <ele>440.000000</ele>
<time>2008-06-15T13:39:12Z</time>
  <name>TP4459</name>
</trkpt>
<trkpt lat="48.603083300" lon="9.103371600">
  <ele>440.000000</ele>
<time>2008-06-15T13:39:13Z</time>
  <name>TP4460</name>
</trkpt>
<trkpt lat="48.603078200" lon="9.103376600">
  <ele>440.000000</ele>
<time>2008-06-15T13:39:14Z</time>
  <name>TP4461</name>
</trkpt>
<trkpt lat="48.603073300" lon="9.103376600">
  <ele>440.000000</ele>
<time>2008-06-15T13:39:15Z</time>
  <name>TP4462</name>
</trkpt>
<trkpt lat="48.603074900" lon="9.103371600">
  <ele>441.000000</ele>
<time>2008-06-15T13:39:19Z</time>
  <name>TP4463</name>
</trkpt>
<trkpt lat="48.603073300" lon="9.103364900">
  <ele>441.000000</ele>
<time>2008-06-15T13:39:20Z</time>
  <name>TP4464</name>
</trkpt>
<trkpt lat="48.603073300" lon="9.103375000">
  <ele>441.000000</ele>
<time>2008-06-15T13:39:23Z</time>
  <name>TP4465</name>
</trkpt>
<trkpt lat="48.603086600" lon="9.103413300">
  <ele>441.000000</ele>
<time>2008-06-15T13:39:28Z</time>
  <name>TP4466</name>
</trkpt>
<trkpt lat="48.603086600" lon="9.103435000">
  <ele>441.000000</ele>
<time>2008-06-15T13:39:31Z</time>
  <name>TP4467</name>
</trkpt>
<trkpt lat="48.603101600" lon="9.103438300">
  <ele>441.000000</ele>
<time>2008-06-15T13:39:43Z</time>
  <name>TP4468</name>
</trkpt>
<trkpt lat="48.603101600" lon="9.103431600">
  <ele>441.000000</ele>
<time>2008-06-15T13:39:44Z</time>
  <name>TP4469</name>
</trkpt>
<trkpt lat="48.603098300" lon="9.103423300">
  <ele>441.000000</ele>
<time>2008-06-15T13:39:45Z</time>
  <name>TP4470</name>
</trkpt>
<trkpt lat="48.603096600" lon="9.103418300">
  <ele>441.000000</ele>
<time>2008-06-15T13:39:46Z</time>
  <name>TP4471</name>
</trkpt>
<trkpt lat="48.603086600" lon="9.103429900">
  <ele>441.000000</ele>
<time>2008-06-15T13:39:49Z</time>
  <name>TP4472</name>
</trkpt>
<trkpt lat="48.603086600" lon="9.103423300">
  <ele>441.000000</ele>
<time>2008-06-15T13:39:50Z</time>
  <name>TP4473</name>
</trkpt>
<trkpt lat="48.603088300" lon="9.103416600">
  <ele>441.000000</ele>
<time>2008-06-15T13:40:03Z</time>
  <name>TP4474</name>
</trkpt>
</trkseg>
</trk>
</gpx>
